<?xml version='1.0' encoding='UTF-8'?><gpx version="1.1" creator="JPX - https://github.com/jenetics/jpx" xmlns="http://www.topografix.com/GPX/1/1"><trk><trkseg><trkpt lat="43.8084767" lon="11.301235"><ele>297.0</ele><time>2026-04-23T13:47:13.006Z</time></trkpt><trkpt lat="43.808415" lon="11.301125"><ele>297.0</ele><time>2026-04-23T13:47:16.006Z</time></trkpt><trkpt lat="43.8083433" lon="11.3010217"><ele>297.0</ele><time>2026-04-23T13:47:18.007Z</time></trkpt><trkpt lat="43.808275" lon="11.3008917"><ele>297.0</ele><time>2026-04-23T13:47:20.006Z</time></trkpt><trkpt lat="43.8082117" lon="11.300745"><ele>297.0</ele><time>2026-04-23T13:47:22.007Z</time></trkpt><trkpt lat="43.808185" lon="11.3006583"><ele>296.8333333333333</ele><time>2026-04-23T13:47:23.007Z</time></trkpt><trkpt lat="43.8081567" lon="11.300565"><ele>296.6666666666667</ele><time>2026-04-23T13:47:24.006Z</time></trkpt><trkpt lat="43.8081233" lon="11.30046"><ele>296.5</ele><time>2026-04-23T13:47:25.006Z</time></trkpt><trkpt lat="43.8080833" lon="11.30035"><ele>296.33333333333337</ele><time>2026-04-23T13:47:26.007Z</time></trkpt><trkpt lat="43.8080417" lon="11.300235"><ele>296.1666666666667</ele><time>2026-04-23T13:47:27.006Z</time></trkpt><trkpt lat="43.8080017" lon="11.30011"><ele>296.0</ele><time>2026-04-23T13:47:28.006Z</time></trkpt><trkpt lat="43.8079633" lon="11.2999867"><ele>296.0</ele><time>2026-04-23T13:47:29.006Z</time></trkpt><trkpt lat="43.8079267" lon="11.2998683"><ele>296.0</ele><time>2026-04-23T13:47:30.006Z</time></trkpt><trkpt lat="43.8078933" lon="11.2997583"><ele>296.0</ele><time>2026-04-23T13:47:31.007Z</time></trkpt><trkpt lat="43.8078733" lon="11.2996583"><ele>296.0</ele><time>2026-04-23T13:47:32.006Z</time></trkpt><trkpt lat="43.8078617" lon="11.2995567"><ele>296.0</ele><time>2026-04-23T13:47:33.006Z</time></trkpt><trkpt lat="43.8078567" lon="11.29944"><ele>296.0</ele><time>2026-04-23T13:47:34.007Z</time></trkpt><trkpt lat="43.8078567" lon="11.29931"><ele>295.2</ele><time>2026-04-23T13:47:35.006Z</time></trkpt><trkpt lat="43.8078617" lon="11.2991733"><ele>294.40000000000003</ele><time>2026-04-23T13:47:36.006Z</time></trkpt><trkpt lat="43.8078683" lon="11.299035"><ele>293.6</ele><time>2026-04-23T13:47:37.006Z</time></trkpt><trkpt lat="43.8078867" lon="11.298905"><ele>292.8</ele><time>2026-04-23T13:47:38.007Z</time></trkpt><trkpt lat="43.8079183" lon="11.2987783"><ele>292.0</ele><time>2026-04-23T13:47:39.006Z</time></trkpt><trkpt lat="43.8079467" lon="11.298655"><ele>291.4</ele><time>2026-04-23T13:47:40.006Z</time></trkpt><trkpt lat="43.807975" lon="11.2985267"><ele>290.79999999999995</ele><time>2026-04-23T13:47:41.006Z</time></trkpt><trkpt lat="43.8079933" lon="11.2984033"><ele>290.2</ele><time>2026-04-23T13:47:42.006Z</time></trkpt><trkpt lat="43.8079933" lon="11.2982833"><ele>289.59999999999997</ele><time>2026-04-23T13:47:43.006Z</time></trkpt><trkpt lat="43.807975" lon="11.2981633"><ele>289.0</ele><time>2026-04-23T13:47:44.006Z</time></trkpt><trkpt lat="43.807935" lon="11.298035"><ele>288.4</ele><time>2026-04-23T13:47:45.006Z</time></trkpt><trkpt lat="43.8078817" lon="11.2978867"><ele>287.79999999999995</ele><time>2026-04-23T13:47:46.007Z</time></trkpt><trkpt lat="43.8078317" lon="11.2977367"><ele>287.20000000000005</ele><time>2026-04-23T13:47:47.007Z</time></trkpt><trkpt lat="43.8077983" lon="11.2975917"><ele>286.6</ele><time>2026-04-23T13:47:48.007Z</time></trkpt><trkpt lat="43.8077883" lon="11.2974717"><ele>286.0</ele><time>2026-04-23T13:47:49.006Z</time></trkpt><trkpt lat="43.8077867" lon="11.297375"><ele>286.0</ele><time>2026-04-23T13:47:50.006Z</time></trkpt><trkpt lat="43.8077917" lon="11.2972867"><ele>286.0</ele><time>2026-04-23T13:47:51.006Z</time></trkpt><trkpt lat="43.807795" lon="11.2971867"><ele>286.0</ele><time>2026-04-23T13:47:52.006Z</time></trkpt><trkpt lat="43.8077867" lon="11.2970783"><ele>286.0</ele><time>2026-04-23T13:47:53.006Z</time></trkpt><trkpt lat="43.807775" lon="11.2969617"><ele>286.0</ele><time>2026-04-23T13:47:54.007Z</time></trkpt><trkpt lat="43.8077483" lon="11.2968383"><ele>286.0</ele><time>2026-04-23T13:47:55.007Z</time></trkpt><trkpt lat="43.8077167" lon="11.2967217"><ele>286.0</ele><time>2026-04-23T13:47:56.006Z</time></trkpt><trkpt lat="43.8076667" lon="11.2966117"><ele>286.0</ele><time>2026-04-23T13:47:57.006Z</time></trkpt><trkpt lat="43.8076167" lon="11.2965067"><ele>286.0</ele><time>2026-04-23T13:47:58.007Z</time></trkpt><trkpt lat="43.8075467" lon="11.2964233"><ele>286.0</ele><time>2026-04-23T13:47:59.006Z</time></trkpt><trkpt lat="43.8074833" lon="11.296345"><ele>286.0</ele><time>2026-04-23T13:48:00.006Z</time></trkpt><trkpt lat="43.807435" lon="11.2962867"><ele>286.0</ele><time>2026-04-23T13:48:01.007Z</time></trkpt><trkpt lat="43.8073633" lon="11.296175"><ele>288.66666666666663</ele><time>2026-04-23T13:48:03.006Z</time></trkpt><trkpt lat="43.8073067" lon="11.2960317"><ele>291.3333333333333</ele><time>2026-04-23T13:48:05.006Z</time></trkpt><trkpt lat="43.80729" lon="11.29594"><ele>294.0</ele><time>2026-04-23T13:48:06.007Z</time></trkpt><trkpt lat="43.807275" lon="11.2958433"><ele>296.6666666666667</ele><time>2026-04-23T13:48:07.006Z</time></trkpt><trkpt lat="43.8072617" lon="11.295745"><ele>299.33333333333337</ele><time>2026-04-23T13:48:08.006Z</time></trkpt><trkpt lat="43.80725" lon="11.29564"><ele>302.0</ele><time>2026-04-23T13:48:09.006Z</time></trkpt><trkpt lat="43.80724" lon="11.2955283"><ele>302.0</ele><time>2026-04-23T13:48:10.006Z</time></trkpt><trkpt lat="43.80724" lon="11.2954267"><ele>302.0</ele><time>2026-04-23T13:48:11.006Z</time></trkpt><trkpt lat="43.80723" lon="11.295335"><ele>302.0</ele><time>2026-04-23T13:48:12.006Z</time></trkpt><trkpt lat="43.8071817" lon="11.2951867"><ele>302.0</ele><time>2026-04-23T13:48:14.006Z</time></trkpt><trkpt lat="43.8070917" lon="11.2951333"><ele>302.0</ele><time>2026-04-23T13:48:16.006Z</time></trkpt><trkpt lat="43.8070167" lon="11.295165"><ele>302.0</ele><time>2026-04-23T13:48:18.006Z</time></trkpt><trkpt lat="43.8069583" lon="11.29526"><ele>302.0</ele><time>2026-04-23T13:48:22.007Z</time></trkpt><trkpt lat="43.80694" lon="11.2954333"><ele>302.0</ele><time>2026-04-23T13:48:24.006Z</time></trkpt><trkpt lat="43.806935" lon="11.295545"><ele>302.0</ele><time>2026-04-23T13:48:25.007Z</time></trkpt><trkpt lat="43.8069317" lon="11.29566"><ele>302.0</ele><time>2026-04-23T13:48:26.006Z</time></trkpt><trkpt lat="43.8069267" lon="11.295765"><ele>302.0</ele><time>2026-04-23T13:48:27.006Z</time></trkpt><trkpt lat="43.8069267" lon="11.29587"><ele>302.0</ele><time>2026-04-23T13:48:28.006Z</time></trkpt><trkpt lat="43.8069333" lon="11.2959667"><ele>302.33333333333337</ele><time>2026-04-23T13:48:29.006Z</time></trkpt><trkpt lat="43.8069267" lon="11.296055"><ele>302.6666666666667</ele><time>2026-04-23T13:48:30.006Z</time></trkpt><trkpt lat="43.806915" lon="11.2962067"><ele>303.0</ele><time>2026-04-23T13:48:32.006Z</time></trkpt><trkpt lat="43.8069" lon="11.2963"><ele>303.3333333333333</ele><time>2026-04-23T13:48:34.006Z</time></trkpt><trkpt lat="43.8069317" lon="11.2963783"><ele>303.66666666666663</ele><time>2026-04-23T13:48:37.007Z</time></trkpt><trkpt lat="43.806975" lon="11.2965183"><ele>304.0</ele><time>2026-04-23T13:48:39.007Z</time></trkpt><trkpt lat="43.8069983" lon="11.2966083"><ele>304.5</ele><time>2026-04-23T13:48:40.006Z</time></trkpt><trkpt lat="43.8070183" lon="11.296705"><ele>305.0</ele><time>2026-04-23T13:48:41.007Z</time></trkpt><trkpt lat="43.80705" lon="11.2968033"><ele>305.5</ele><time>2026-04-23T13:48:42.006Z</time></trkpt><trkpt lat="43.80708" lon="11.296915"><ele>306.0</ele><time>2026-04-23T13:48:43.006Z</time></trkpt><trkpt lat="43.807115" lon="11.2970333"><ele>306.5</ele><time>2026-04-23T13:48:44.006Z</time></trkpt><trkpt lat="43.8071583" lon="11.297145"><ele>307.0</ele><time>2026-04-23T13:48:45.006Z</time></trkpt><trkpt lat="43.807205" lon="11.2972483"><ele>307.8</ele><time>2026-04-23T13:48:46.006Z</time></trkpt><trkpt lat="43.8072367" lon="11.2973667"><ele>308.6</ele><time>2026-04-23T13:48:47.006Z</time></trkpt><trkpt lat="43.8072483" lon="11.29749"><ele>309.40000000000003</ele><time>2026-04-23T13:48:48.006Z</time></trkpt><trkpt lat="43.8072367" lon="11.2976217"><ele>310.2</ele><time>2026-04-23T13:48:49.006Z</time></trkpt><trkpt lat="43.8072233" lon="11.297755"><ele>311.0</ele><time>2026-04-23T13:48:50.006Z</time></trkpt><trkpt lat="43.80722" lon="11.2978833"><ele>311.0</ele><time>2026-04-23T13:48:51.007Z</time></trkpt><trkpt lat="43.8072167" lon="11.2980033"><ele>311.0</ele><time>2026-04-23T13:48:52.006Z</time></trkpt><trkpt lat="43.807225" lon="11.298105"><ele>311.0</ele><time>2026-04-23T13:48:53.006Z</time></trkpt><trkpt lat="43.8072467" lon="11.2982033"><ele>311.0</ele><time>2026-04-23T13:48:54.006Z</time></trkpt><trkpt lat="43.80728" lon="11.2983033"><ele>311.0</ele><time>2026-04-23T13:48:55.006Z</time></trkpt><trkpt lat="43.8073183" lon="11.2984167"><ele>311.0</ele><time>2026-04-23T13:48:56.006Z</time></trkpt><trkpt lat="43.8073517" lon="11.2985467"><ele>312.25</ele><time>2026-04-23T13:48:57.006Z</time></trkpt><trkpt lat="43.8073667" lon="11.2987067"><ele>313.5</ele><time>2026-04-23T13:48:58.006Z</time></trkpt><trkpt lat="43.8073867" lon="11.2988717"><ele>314.75</ele><time>2026-04-23T13:48:59.006Z</time></trkpt><trkpt lat="43.8074117" lon="11.2990467"><ele>316.0</ele><time>2026-04-23T13:49:00.006Z</time></trkpt><trkpt lat="43.80744" lon="11.29922"><ele>316.25</ele><time>2026-04-23T13:49:01.006Z</time></trkpt><trkpt lat="43.8074717" lon="11.2993933"><ele>316.5</ele><time>2026-04-23T13:49:02.006Z</time></trkpt><trkpt lat="43.8075017" lon="11.299575"><ele>316.75</ele><time>2026-04-23T13:49:03.006Z</time></trkpt><trkpt lat="43.807535" lon="11.2997567"><ele>317.0</ele><time>2026-04-23T13:49:04.006Z</time></trkpt><trkpt lat="43.8075683" lon="11.299925"><ele>318.75</ele><time>2026-04-23T13:49:05.006Z</time></trkpt><trkpt lat="43.8075967" lon="11.3000867"><ele>320.5</ele><time>2026-04-23T13:49:06.007Z</time></trkpt><trkpt lat="43.807595" lon="11.3002483"><ele>322.25</ele><time>2026-04-23T13:49:07.006Z</time></trkpt><trkpt lat="43.8075817" lon="11.30041"><ele>324.0</ele><time>2026-04-23T13:49:08.006Z</time></trkpt><trkpt lat="43.8075667" lon="11.300575"><ele>323.6</ele><time>2026-04-23T13:49:09.006Z</time></trkpt><trkpt lat="43.807545" lon="11.3007333"><ele>323.2</ele><time>2026-04-23T13:49:10.006Z</time></trkpt><trkpt lat="43.8075367" lon="11.3008817"><ele>322.8</ele><time>2026-04-23T13:49:11.006Z</time></trkpt><trkpt lat="43.8075417" lon="11.3010067"><ele>322.40000000000003</ele><time>2026-04-23T13:49:12.006Z</time></trkpt><trkpt lat="43.8075433" lon="11.3011167"><ele>322.0</ele><time>2026-04-23T13:49:13.006Z</time></trkpt><trkpt lat="43.807535" lon="11.3012283"><ele>322.0</ele><time>2026-04-23T13:49:14.006Z</time></trkpt><trkpt lat="43.8075017" lon="11.3013383"><ele>322.0</ele><time>2026-04-23T13:49:15.006Z</time></trkpt><trkpt lat="43.8074567" lon="11.3014383"><ele>322.0</ele><time>2026-04-23T13:49:16.006Z</time></trkpt><trkpt lat="43.8074067" lon="11.3015333"><ele>322.0</ele><time>2026-04-23T13:49:17.006Z</time></trkpt><trkpt lat="43.8073583" lon="11.3016267"><ele>322.0</ele><time>2026-04-23T13:49:18.006Z</time></trkpt><trkpt lat="43.8073067" lon="11.3017083"><ele>322.0</ele><time>2026-04-23T13:49:19.006Z</time></trkpt><trkpt lat="43.8072783" lon="11.3017983"><ele>322.6</ele><time>2026-04-23T13:49:20.006Z</time></trkpt><trkpt lat="43.8072933" lon="11.3019783"><ele>323.20000000000005</ele><time>2026-04-23T13:49:22.007Z</time></trkpt><trkpt lat="43.8073467" lon="11.30207"><ele>323.8</ele><time>2026-04-23T13:49:23.006Z</time></trkpt><trkpt lat="43.8074467" lon="11.3021533"><ele>324.4</ele><time>2026-04-23T13:49:24.006Z</time></trkpt><trkpt lat="43.8075433" lon="11.3022333"><ele>325.0</ele><time>2026-04-23T13:49:25.006Z</time></trkpt><trkpt lat="43.8076333" lon="11.3023183"><ele>322.75</ele><time>2026-04-23T13:49:26.007Z</time></trkpt><trkpt lat="43.8077233" lon="11.3024117"><ele>320.5</ele><time>2026-04-23T13:49:27.006Z</time></trkpt><trkpt lat="43.80783" lon="11.3024967"><ele>318.25</ele><time>2026-04-23T13:49:28.007Z</time></trkpt><trkpt lat="43.8079367" lon="11.30256"><ele>316.0</ele><time>2026-04-23T13:49:29.007Z</time></trkpt><trkpt lat="43.8080583" lon="11.30261"><ele>316.0</ele><time>2026-04-23T13:49:30.007Z</time></trkpt><trkpt lat="43.80816" lon="11.3027167"><ele>316.0</ele><time>2026-04-23T13:49:31.006Z</time></trkpt><trkpt lat="43.80823" lon="11.3028717"><ele>316.0</ele><time>2026-04-23T13:49:32.006Z</time></trkpt><trkpt lat="43.808275" lon="11.3030533"><ele>316.0</ele><time>2026-04-23T13:49:33.006Z</time></trkpt><trkpt lat="43.8082933" lon="11.30325"><ele>319.0</ele><time>2026-04-23T13:49:34.006Z</time></trkpt><trkpt lat="43.8082983" lon="11.303455"><ele>322.0</ele><time>2026-04-23T13:49:35.007Z</time></trkpt><trkpt lat="43.808305" lon="11.3036583"><ele>325.0</ele><time>2026-04-23T13:49:36.007Z</time></trkpt><trkpt lat="43.8082933" lon="11.3038567"><ele>328.0</ele><time>2026-04-23T13:49:37.006Z</time></trkpt><trkpt lat="43.80828" lon="11.3040417"><ele>328.79999999999995</ele><time>2026-04-23T13:49:38.006Z</time></trkpt><trkpt lat="43.8082633" lon="11.3042117"><ele>329.6</ele><time>2026-04-23T13:49:39.006Z</time></trkpt><trkpt lat="43.8082567" lon="11.3043617"><ele>330.4</ele><time>2026-04-23T13:49:40.006Z</time></trkpt><trkpt lat="43.8082567" lon="11.3044967"><ele>331.20000000000005</ele><time>2026-04-23T13:49:41.006Z</time></trkpt><trkpt lat="43.8082633" lon="11.3046233"><ele>332.0</ele><time>2026-04-23T13:49:42.006Z</time></trkpt><trkpt lat="43.808275" lon="11.3047433"><ele>333.20000000000005</ele><time>2026-04-23T13:49:43.006Z</time></trkpt><trkpt lat="43.808285" lon="11.3048633"><ele>334.4</ele><time>2026-04-23T13:49:44.006Z</time></trkpt><trkpt lat="43.8082967" lon="11.3049833"><ele>335.6</ele><time>2026-04-23T13:49:45.006Z</time></trkpt><trkpt lat="43.8083117" lon="11.3051183"><ele>336.79999999999995</ele><time>2026-04-23T13:49:46.006Z</time></trkpt><trkpt lat="43.8083283" lon="11.3052683"><ele>338.0</ele><time>2026-04-23T13:49:47.006Z</time></trkpt><trkpt lat="43.8083417" lon="11.305425"><ele>339.5</ele><time>2026-04-23T13:49:48.006Z</time></trkpt><trkpt lat="43.80835" lon="11.3055917"><ele>341.0</ele><time>2026-04-23T13:49:49.006Z</time></trkpt><trkpt lat="43.8083433" lon="11.30577"><ele>342.5</ele><time>2026-04-23T13:49:50.007Z</time></trkpt><trkpt lat="43.8083117" lon="11.305965"><ele>344.0</ele><time>2026-04-23T13:49:51.006Z</time></trkpt><trkpt lat="43.8082617" lon="11.3061817"><ele>344.0</ele><time>2026-04-23T13:49:52.006Z</time></trkpt><trkpt lat="43.8082" lon="11.3063933"><ele>344.0</ele><time>2026-04-23T13:49:53.006Z</time></trkpt><trkpt lat="43.80814" lon="11.3065867"><ele>344.0</ele><time>2026-04-23T13:49:54.007Z</time></trkpt><trkpt lat="43.8080833" lon="11.3067733"><ele>343.0</ele><time>2026-04-23T13:49:55.007Z</time></trkpt><trkpt lat="43.80804" lon="11.306975"><ele>342.0</ele><time>2026-04-23T13:49:56.007Z</time></trkpt><trkpt lat="43.8080083" lon="11.30718"><ele>341.0</ele><time>2026-04-23T13:49:57.006Z</time></trkpt><trkpt lat="43.8079833" lon="11.3073867"><ele>340.33333333333337</ele><time>2026-04-23T13:49:58.006Z</time></trkpt><trkpt lat="43.8079567" lon="11.3075933"><ele>339.6666666666667</ele><time>2026-04-23T13:49:59.007Z</time></trkpt><trkpt lat="43.80793" lon="11.3078017"><ele>339.0</ele><time>2026-04-23T13:50:00.006Z</time></trkpt><trkpt lat="43.8079083" lon="11.3080133"><ele>338.6666666666667</ele><time>2026-04-23T13:50:01.006Z</time></trkpt><trkpt lat="43.8078883" lon="11.3082267"><ele>338.33333333333337</ele><time>2026-04-23T13:50:02.006Z</time></trkpt><trkpt lat="43.807875" lon="11.30844"><ele>338.0</ele><time>2026-04-23T13:50:03.007Z</time></trkpt><trkpt lat="43.8078683" lon="11.3086583"><ele>338.0</ele><time>2026-04-23T13:50:04.006Z</time></trkpt><trkpt lat="43.8078567" lon="11.308885"><ele>338.0</ele><time>2026-04-23T13:50:05.006Z</time></trkpt><trkpt lat="43.8078533" lon="11.309115"><ele>338.0</ele><time>2026-04-23T13:50:06.006Z</time></trkpt><trkpt lat="43.80786" lon="11.3093417"><ele>340.0</ele><time>2026-04-23T13:50:07.006Z</time></trkpt><trkpt lat="43.807875" lon="11.3095567"><ele>342.0</ele><time>2026-04-23T13:50:08.006Z</time></trkpt><trkpt lat="43.8079033" lon="11.3097667"><ele>344.0</ele><time>2026-04-23T13:50:09.006Z</time></trkpt><trkpt lat="43.8079533" lon="11.3099817"><ele>346.33333333333337</ele><time>2026-04-23T13:50:10.006Z</time></trkpt><trkpt lat="43.8080283" lon="11.310195"><ele>348.6666666666667</ele><time>2026-04-23T13:50:11.006Z</time></trkpt><trkpt lat="43.80813" lon="11.3104017"><ele>351.0</ele><time>2026-04-23T13:50:12.006Z</time></trkpt><trkpt lat="43.8082433" lon="11.3106017"><ele>352.3333333333333</ele><time>2026-04-23T13:50:13.006Z</time></trkpt><trkpt lat="43.8083467" lon="11.310805"><ele>353.66666666666663</ele><time>2026-04-23T13:50:14.006Z</time></trkpt><trkpt lat="43.80843" lon="11.3110217"><ele>355.0</ele><time>2026-04-23T13:50:15.007Z</time></trkpt><trkpt lat="43.8084983" lon="11.3112517"><ele>359.66666666666663</ele><time>2026-04-23T13:50:16.007Z</time></trkpt><trkpt lat="43.8085517" lon="11.311475"><ele>364.3333333333333</ele><time>2026-04-23T13:50:17.006Z</time></trkpt><trkpt lat="43.808595" lon="11.3117017"><ele>369.0</ele><time>2026-04-23T13:50:18.006Z</time></trkpt><trkpt lat="43.8086317" lon="11.3119117"><ele>369.0</ele><time>2026-04-23T13:50:19.006Z</time></trkpt><trkpt lat="43.80867" lon="11.3121033"><ele>369.0</ele><time>2026-04-23T13:50:20.007Z</time></trkpt><trkpt lat="43.8087083" lon="11.3122883"><ele>369.0</ele><time>2026-04-23T13:50:21.006Z</time></trkpt><trkpt lat="43.808745" lon="11.3124733"><ele>369.0</ele><time>2026-04-23T13:50:22.006Z</time></trkpt><trkpt lat="43.8087867" lon="11.3126533"><ele>368.5</ele><time>2026-04-23T13:50:23.006Z</time></trkpt><trkpt lat="43.8088317" lon="11.312835"><ele>368.0</ele><time>2026-04-23T13:50:24.006Z</time></trkpt><trkpt lat="43.8088767" lon="11.3129917"><ele>367.5</ele><time>2026-04-23T13:50:25.006Z</time></trkpt><trkpt lat="43.8089383" lon="11.3131283"><ele>367.0</ele><time>2026-04-23T13:50:26.006Z</time></trkpt><trkpt lat="43.8090083" lon="11.3132533"><ele>365.75</ele><time>2026-04-23T13:50:27.006Z</time></trkpt><trkpt lat="43.80909" lon="11.3133717"><ele>364.5</ele><time>2026-04-23T13:50:28.006Z</time></trkpt><trkpt lat="43.8091833" lon="11.3134933"><ele>363.25</ele><time>2026-04-23T13:50:29.007Z</time></trkpt><trkpt lat="43.8092767" lon="11.3136117"><ele>362.0</ele><time>2026-04-23T13:50:30.006Z</time></trkpt><trkpt lat="43.8093717" lon="11.313725"><ele>361.6</ele><time>2026-04-23T13:50:31.006Z</time></trkpt><trkpt lat="43.8094633" lon="11.31384"><ele>361.20000000000005</ele><time>2026-04-23T13:50:32.006Z</time></trkpt><trkpt lat="43.8095433" lon="11.3139567"><ele>360.8</ele><time>2026-04-23T13:50:33.006Z</time></trkpt><trkpt lat="43.8096167" lon="11.3140517"><ele>360.4</ele><time>2026-04-23T13:50:34.006Z</time></trkpt><trkpt lat="43.809685" lon="11.31414"><ele>360.0</ele><time>2026-04-23T13:50:35.006Z</time></trkpt><trkpt lat="43.80974" lon="11.3142267"><ele>360.0</ele><time>2026-04-23T13:50:36.006Z</time></trkpt><trkpt lat="43.8097767" lon="11.3143067"><ele>360.0</ele><time>2026-04-23T13:50:37.006Z</time></trkpt><trkpt lat="43.8098" lon="11.3144867"><ele>360.0</ele><time>2026-04-23T13:50:39.007Z</time></trkpt><trkpt lat="43.8097783" lon="11.3146017"><ele>360.0</ele><time>2026-04-23T13:50:40.007Z</time></trkpt><trkpt lat="43.8097533" lon="11.3147083"><ele>360.0</ele><time>2026-04-23T13:50:41.006Z</time></trkpt><trkpt lat="43.809735" lon="11.314825"><ele>361.8</ele><time>2026-04-23T13:50:42.007Z</time></trkpt><trkpt lat="43.8097017" lon="11.3149517"><ele>363.6</ele><time>2026-04-23T13:50:43.006Z</time></trkpt><trkpt lat="43.8096717" lon="11.315075"><ele>365.4</ele><time>2026-04-23T13:50:44.006Z</time></trkpt><trkpt lat="43.80965" lon="11.31521"><ele>367.2</ele><time>2026-04-23T13:50:45.006Z</time></trkpt><trkpt lat="43.809645" lon="11.3153633"><ele>369.0</ele><time>2026-04-23T13:50:46.006Z</time></trkpt><trkpt lat="43.8096567" lon="11.3155167"><ele>369.75</ele><time>2026-04-23T13:50:47.006Z</time></trkpt><trkpt lat="43.8096833" lon="11.3156817"><ele>370.5</ele><time>2026-04-23T13:50:48.006Z</time></trkpt><trkpt lat="43.8097267" lon="11.3158417"><ele>371.25</ele><time>2026-04-23T13:50:49.007Z</time></trkpt><trkpt lat="43.8097883" lon="11.3160017"><ele>372.0</ele><time>2026-04-23T13:50:50.006Z</time></trkpt><trkpt lat="43.8098517" lon="11.3161617"><ele>372.0</ele><time>2026-04-23T13:50:51.006Z</time></trkpt><trkpt lat="43.8099017" lon="11.3163317"><ele>372.0</ele><time>2026-04-23T13:50:52.006Z</time></trkpt><trkpt lat="43.80992" lon="11.3165217"><ele>372.0</ele><time>2026-04-23T13:50:53.007Z</time></trkpt><trkpt lat="43.8098983" lon="11.3167233"><ele>372.0</ele><time>2026-04-23T13:50:54.006Z</time></trkpt><trkpt lat="43.8098333" lon="11.31692"><ele>373.5</ele><time>2026-04-23T13:50:55.007Z</time></trkpt><trkpt lat="43.8097417" lon="11.3170933"><ele>375.0</ele><time>2026-04-23T13:50:56.007Z</time></trkpt><trkpt lat="43.80964" lon="11.3172183"><ele>376.5</ele><time>2026-04-23T13:50:57.007Z</time></trkpt><trkpt lat="43.809535" lon="11.3173133"><ele>378.0</ele><time>2026-04-23T13:50:58.006Z</time></trkpt><trkpt lat="43.809435" lon="11.31738"><ele>378.79999999999995</ele><time>2026-04-23T13:50:59.006Z</time></trkpt><trkpt lat="43.80936" lon="11.3174717"><ele>379.6</ele><time>2026-04-23T13:51:00.006Z</time></trkpt><trkpt lat="43.809315" lon="11.317595"><ele>380.4</ele><time>2026-04-23T13:51:01.006Z</time></trkpt><trkpt lat="43.8093017" lon="11.31774"><ele>381.20000000000005</ele><time>2026-04-23T13:51:02.006Z</time></trkpt><trkpt lat="43.809285" lon="11.317895"><ele>382.0</ele><time>2026-04-23T13:51:03.006Z</time></trkpt><trkpt lat="43.8092383" lon="11.3180433"><ele>383.40000000000003</ele><time>2026-04-23T13:51:04.007Z</time></trkpt><trkpt lat="43.8091683" lon="11.3181683"><ele>384.8</ele><time>2026-04-23T13:51:05.007Z</time></trkpt><trkpt lat="43.8090783" lon="11.3182683"><ele>386.2</ele><time>2026-04-23T13:51:06.006Z</time></trkpt><trkpt lat="43.8089817" lon="11.3183433"><ele>387.6</ele><time>2026-04-23T13:51:07.006Z</time></trkpt><trkpt lat="43.8088933" lon="11.3184233"><ele>389.0</ele><time>2026-04-23T13:51:08.006Z</time></trkpt><trkpt lat="43.8088233" lon="11.3185117"><ele>389.0</ele><time>2026-04-23T13:51:09.006Z</time></trkpt><trkpt lat="43.8087783" lon="11.318615"><ele>389.0</ele><time>2026-04-23T13:51:10.006Z</time></trkpt><trkpt lat="43.8087567" lon="11.3187333"><ele>389.0</ele><time>2026-04-23T13:51:11.006Z</time></trkpt><trkpt lat="43.80877" lon="11.3188617"><ele>389.0</ele><time>2026-04-23T13:51:12.007Z</time></trkpt><trkpt lat="43.808795" lon="11.3189967"><ele>389.0</ele><time>2026-04-23T13:51:13.007Z</time></trkpt><trkpt lat="43.8088117" lon="11.319135"><ele>390.2</ele><time>2026-04-23T13:51:14.006Z</time></trkpt><trkpt lat="43.8088267" lon="11.3192717"><ele>391.4</ele><time>2026-04-23T13:51:15.006Z</time></trkpt><trkpt lat="43.8088333" lon="11.3194133"><ele>392.6</ele><time>2026-04-23T13:51:16.007Z</time></trkpt><trkpt lat="43.808825" lon="11.3195683"><ele>393.8</ele><time>2026-04-23T13:51:17.006Z</time></trkpt><trkpt lat="43.8088117" lon="11.3197317"><ele>395.0</ele><time>2026-04-23T13:51:18.007Z</time></trkpt><trkpt lat="43.808795" lon="11.31992"><ele>396.0</ele><time>2026-04-23T13:51:19.006Z</time></trkpt><trkpt lat="43.8087633" lon="11.3201167"><ele>397.0</ele><time>2026-04-23T13:51:20.006Z</time></trkpt><trkpt lat="43.8087117" lon="11.3203283"><ele>398.0</ele><time>2026-04-23T13:51:21.006Z</time></trkpt><trkpt lat="43.8086483" lon="11.3205383"><ele>399.5</ele><time>2026-04-23T13:51:22.006Z</time></trkpt><trkpt lat="43.80857" lon="11.3207267"><ele>401.0</ele><time>2026-04-23T13:51:23.006Z</time></trkpt><trkpt lat="43.80849" lon="11.3208817"><ele>402.5</ele><time>2026-04-23T13:51:24.006Z</time></trkpt><trkpt lat="43.8084233" lon="11.32101"><ele>404.0</ele><time>2026-04-23T13:51:25.007Z</time></trkpt><trkpt lat="43.8083667" lon="11.3211433"><ele>400.25</ele><time>2026-04-23T13:51:26.006Z</time></trkpt><trkpt lat="43.8083283" lon="11.3212817"><ele>396.5</ele><time>2026-04-23T13:51:27.006Z</time></trkpt><trkpt lat="43.80831" lon="11.321435"><ele>392.75</ele><time>2026-04-23T13:51:28.006Z</time></trkpt><trkpt lat="43.8083167" lon="11.321605"><ele>389.0</ele><time>2026-04-23T13:51:29.006Z</time></trkpt><trkpt lat="43.8083117" lon="11.3218017"><ele>389.0</ele><time>2026-04-23T13:51:30.006Z</time></trkpt><trkpt lat="43.8082917" lon="11.3219833"><ele>389.0</ele><time>2026-04-23T13:51:31.006Z</time></trkpt><trkpt lat="43.8082467" lon="11.3221367"><ele>389.0</ele><time>2026-04-23T13:51:32.006Z</time></trkpt><trkpt lat="43.8081717" lon="11.3222617"><ele>389.0</ele><time>2026-04-23T13:51:33.006Z</time></trkpt><trkpt lat="43.8081" lon="11.3223783"><ele>391.0</ele><time>2026-04-23T13:51:34.006Z</time></trkpt><trkpt lat="43.80804" lon="11.3225033"><ele>393.0</ele><time>2026-04-23T13:51:35.006Z</time></trkpt><trkpt lat="43.8079817" lon="11.3226467"><ele>395.0</ele><time>2026-04-23T13:51:36.007Z</time></trkpt><trkpt lat="43.8079317" lon="11.3227983"><ele>397.0</ele><time>2026-04-23T13:51:37.006Z</time></trkpt><trkpt lat="43.8078867" lon="11.3229583"><ele>399.25</ele><time>2026-04-23T13:51:38.006Z</time></trkpt><trkpt lat="43.8078433" lon="11.3231217"><ele>401.5</ele><time>2026-04-23T13:51:39.006Z</time></trkpt><trkpt lat="43.8078033" lon="11.323285"><ele>403.75</ele><time>2026-04-23T13:51:40.006Z</time></trkpt><trkpt lat="43.8077767" lon="11.3234433"><ele>406.0</ele><time>2026-04-23T13:51:41.006Z</time></trkpt><trkpt lat="43.807765" lon="11.3236067"><ele>406.0</ele><time>2026-04-23T13:51:42.006Z</time></trkpt><trkpt lat="43.8077717" lon="11.32377"><ele>406.0</ele><time>2026-04-23T13:51:43.006Z</time></trkpt><trkpt lat="43.8077767" lon="11.323935"><ele>406.0</ele><time>2026-04-23T13:51:44.006Z</time></trkpt><trkpt lat="43.80779" lon="11.3240933"><ele>406.0</ele><time>2026-04-23T13:51:45.006Z</time></trkpt><trkpt lat="43.80779" lon="11.3242433"><ele>408.0</ele><time>2026-04-23T13:51:46.006Z</time></trkpt><trkpt lat="43.80776" lon="11.3243783"><ele>410.0</ele><time>2026-04-23T13:51:47.006Z</time></trkpt><trkpt lat="43.8077033" lon="11.32452"><ele>412.0</ele><time>2026-04-23T13:51:48.007Z</time></trkpt><trkpt lat="43.8076267" lon="11.3246583"><ele>414.0</ele><time>2026-04-23T13:51:49.006Z</time></trkpt><trkpt lat="43.80754" lon="11.3248083"><ele>409.5</ele><time>2026-04-23T13:51:50.006Z</time></trkpt><trkpt lat="43.80745" lon="11.324965"><ele>405.0</ele><time>2026-04-23T13:51:51.006Z</time></trkpt><trkpt lat="43.80736" lon="11.3251183"><ele>400.5</ele><time>2026-04-23T13:51:52.007Z</time></trkpt><trkpt lat="43.8072783" lon="11.325265"><ele>396.0</ele><time>2026-04-23T13:51:53.007Z</time></trkpt><trkpt lat="43.8072" lon="11.3254017"><ele>396.0</ele><time>2026-04-23T13:51:54.007Z</time></trkpt><trkpt lat="43.8071133" lon="11.3255133"><ele>396.0</ele><time>2026-04-23T13:51:55.006Z</time></trkpt><trkpt lat="43.8070133" lon="11.3256017"><ele>396.0</ele><time>2026-04-23T13:51:56.006Z</time></trkpt><trkpt lat="43.8069083" lon="11.3256817"><ele>396.0</ele><time>2026-04-23T13:51:57.006Z</time></trkpt><trkpt lat="43.8068033" lon="11.3257617"><ele>396.0</ele><time>2026-04-23T13:51:58.007Z</time></trkpt><trkpt lat="43.806705" lon="11.32585"><ele>396.0</ele><time>2026-04-23T13:51:59.007Z</time></trkpt><trkpt lat="43.8066033" lon="11.3259183"><ele>396.0</ele><time>2026-04-23T13:52:00.006Z</time></trkpt><trkpt lat="43.806495" lon="11.32595"><ele>396.0</ele><time>2026-04-23T13:52:01.006Z</time></trkpt><trkpt lat="43.8063867" lon="11.32593"><ele>396.0</ele><time>2026-04-23T13:52:02.006Z</time></trkpt><trkpt lat="43.8062717" lon="11.3258483"><ele>396.0</ele><time>2026-04-23T13:52:03.006Z</time></trkpt><trkpt lat="43.8061633" lon="11.3257533"><ele>396.0</ele><time>2026-04-23T13:52:04.007Z</time></trkpt><trkpt lat="43.8060633" lon="11.32568"><ele>396.0</ele><time>2026-04-23T13:52:05.006Z</time></trkpt><trkpt lat="43.8059533" lon="11.3256367"><ele>394.5</ele><time>2026-04-23T13:52:06.007Z</time></trkpt><trkpt lat="43.805845" lon="11.3256367"><ele>393.0</ele><time>2026-04-23T13:52:07.006Z</time></trkpt><trkpt lat="43.8057283" lon="11.3256617"><ele>391.5</ele><time>2026-04-23T13:52:08.006Z</time></trkpt><trkpt lat="43.8056083" lon="11.3256817"><ele>390.0</ele><time>2026-04-23T13:52:09.007Z</time></trkpt><trkpt lat="43.8054817" lon="11.3256717"><ele>390.0</ele><time>2026-04-23T13:52:10.006Z</time></trkpt><trkpt lat="43.805355" lon="11.3256517"><ele>390.0</ele><time>2026-04-23T13:52:11.007Z</time></trkpt><trkpt lat="43.8052283" lon="11.3256367"><ele>390.0</ele><time>2026-04-23T13:52:12.007Z</time></trkpt><trkpt lat="43.805105" lon="11.32561"><ele>390.0</ele><time>2026-04-23T13:52:13.006Z</time></trkpt><trkpt lat="43.8049817" lon="11.3255567"><ele>385.0</ele><time>2026-04-23T13:52:14.006Z</time></trkpt><trkpt lat="43.80487" lon="11.3254767"><ele>380.0</ele><time>2026-04-23T13:52:15.006Z</time></trkpt><trkpt lat="43.80477" lon="11.3253683"><ele>375.0</ele><time>2026-04-23T13:52:16.007Z</time></trkpt><trkpt lat="43.8046767" lon="11.3252517"><ele>370.0</ele><time>2026-04-23T13:52:17.006Z</time></trkpt><trkpt lat="43.8045867" lon="11.3251433"><ele>370.0</ele><time>2026-04-23T13:52:18.007Z</time></trkpt><trkpt lat="43.80449" lon="11.325055"><ele>370.0</ele><time>2026-04-23T13:52:19.006Z</time></trkpt><trkpt lat="43.8043833" lon="11.3250033"><ele>370.0</ele><time>2026-04-23T13:52:20.006Z</time></trkpt><trkpt lat="43.8042683" lon="11.3249983"><ele>370.0</ele><time>2026-04-23T13:52:21.006Z</time></trkpt><trkpt lat="43.80414" lon="11.325025"><ele>371.0</ele><time>2026-04-23T13:52:22.006Z</time></trkpt><trkpt lat="43.8040167" lon="11.32505"><ele>372.0</ele><time>2026-04-23T13:52:23.006Z</time></trkpt><trkpt lat="43.8038933" lon="11.325065"><ele>373.0</ele><time>2026-04-23T13:52:24.007Z</time></trkpt><trkpt lat="43.8037767" lon="11.32507"><ele>374.0</ele><time>2026-04-23T13:52:25.006Z</time></trkpt><trkpt lat="43.8036667" lon="11.32508"><ele>374.0</ele><time>2026-04-23T13:52:26.006Z</time></trkpt><trkpt lat="43.8035767" lon="11.3250883"><ele>374.0</ele><time>2026-04-23T13:52:27.007Z</time></trkpt><trkpt lat="43.803505" lon="11.3250917"><ele>374.0</ele><time>2026-04-23T13:52:28.007Z</time></trkpt><trkpt lat="43.8034367" lon="11.3251"><ele>374.0</ele><time>2026-04-23T13:52:31.006Z</time></trkpt><trkpt lat="43.8034217" lon="11.3251867"><ele>374.0</ele><time>2026-04-23T13:53:37.006Z</time></trkpt><trkpt lat="43.8034333" lon="11.325275"><ele>374.0</ele><time>2026-04-23T13:53:40.006Z</time></trkpt><trkpt lat="43.8034317" lon="11.3253667"><ele>374.0</ele><time>2026-04-23T13:53:42.007Z</time></trkpt><trkpt lat="43.80339" lon="11.3254783"><ele>373.1666666666667</ele><time>2026-04-23T13:53:45.006Z</time></trkpt><trkpt lat="43.8033317" lon="11.3255217"><ele>372.33333333333337</ele><time>2026-04-23T13:53:47.007Z</time></trkpt><trkpt lat="43.8032733" lon="11.3255567"><ele>371.5</ele><time>2026-04-23T13:53:49.006Z</time></trkpt><trkpt lat="43.803245" lon="11.32564"><ele>370.6666666666667</ele><time>2026-04-23T13:53:52.006Z</time></trkpt><trkpt lat="43.8032883" lon="11.3257367"><ele>369.8333333333333</ele><time>2026-04-23T13:53:55.006Z</time></trkpt><trkpt lat="43.8033333" lon="11.32582"><ele>369.0</ele><time>2026-04-23T13:53:57.006Z</time></trkpt><trkpt lat="43.8034" lon="11.325935"><ele>368.0</ele><time>2026-04-23T13:53:59.006Z</time></trkpt><trkpt lat="43.8034617" lon="11.3260867"><ele>367.0</ele><time>2026-04-23T13:54:01.006Z</time></trkpt><trkpt lat="43.8034983" lon="11.3262333"><ele>366.0</ele><time>2026-04-23T13:54:03.007Z</time></trkpt><trkpt lat="43.80352" lon="11.32638"><ele>365.0</ele><time>2026-04-23T13:54:05.007Z</time></trkpt><trkpt lat="43.8035317" lon="11.3265483"><ele>365.2</ele><time>2026-04-23T13:54:07.007Z</time></trkpt><trkpt lat="43.803535" lon="11.326715"><ele>365.4</ele><time>2026-04-23T13:54:09.006Z</time></trkpt><trkpt lat="43.8035417" lon="11.3268617"><ele>365.6</ele><time>2026-04-23T13:54:11.006Z</time></trkpt><trkpt lat="43.803585" lon="11.3269983"><ele>365.8</ele><time>2026-04-23T13:54:13.007Z</time></trkpt><trkpt lat="43.8036333" lon="11.3271133"><ele>366.0</ele><time>2026-04-23T13:54:15.006Z</time></trkpt><trkpt lat="43.8036833" lon="11.3272417"><ele>366.0</ele><time>2026-04-23T13:54:17.007Z</time></trkpt><trkpt lat="43.8037233" lon="11.3273583"><ele>366.0</ele><time>2026-04-23T13:54:19.007Z</time></trkpt><trkpt lat="43.803745" lon="11.3274667"><ele>366.0</ele><time>2026-04-23T13:54:21.006Z</time></trkpt><trkpt lat="43.8037383" lon="11.3275783"><ele>366.0</ele><time>2026-04-23T13:54:23.007Z</time></trkpt><trkpt lat="43.8037067" lon="11.3276767"><ele>366.0</ele><time>2026-04-23T13:54:25.006Z</time></trkpt><trkpt lat="43.8036767" lon="11.32779"><ele>366.0</ele><time>2026-04-23T13:54:27.006Z</time></trkpt><trkpt lat="43.8036717" lon="11.3278967"><ele>366.0</ele><time>2026-04-23T13:54:29.006Z</time></trkpt><trkpt lat="43.8036883" lon="11.328005"><ele>366.0</ele><time>2026-04-23T13:54:31.006Z</time></trkpt><trkpt lat="43.8037133" lon="11.32812"><ele>366.0</ele><time>2026-04-23T13:54:33.006Z</time></trkpt><trkpt lat="43.8037367" lon="11.3282517"><ele>366.0</ele><time>2026-04-23T13:54:35.007Z</time></trkpt><trkpt lat="43.8037417" lon="11.3283733"><ele>366.0</ele><time>2026-04-23T13:54:37.006Z</time></trkpt><trkpt lat="43.803705" lon="11.3284817"><ele>366.0</ele><time>2026-04-23T13:54:39.006Z</time></trkpt><trkpt lat="43.8036767" lon="11.3285733"><ele>364.5</ele><time>2026-04-23T13:54:41.006Z</time></trkpt><trkpt lat="43.8036367" lon="11.3286483"><ele>363.0</ele><time>2026-04-23T13:54:43.007Z</time></trkpt><trkpt lat="43.8035917" lon="11.328725"><ele>361.5</ele><time>2026-04-23T13:54:46.006Z</time></trkpt><trkpt lat="43.8035704" lon="11.3288134"><ele>360.0</ele><time>2026-04-23T13:54:49.022Z</time></trkpt><trkpt lat="43.8035812" lon="11.3289209"><ele>358.5</ele><time>2026-04-23T13:54:52.028Z</time></trkpt><trkpt lat="43.8036041" lon="11.3290242"><ele>357.0</ele><time>2026-04-23T13:54:54.031Z</time></trkpt><trkpt lat="43.803648" lon="11.3291402"><ele>356.5</ele><time>2026-04-23T13:54:56.034Z</time></trkpt><trkpt lat="43.8036766" lon="11.3292619"><ele>356.0</ele><time>2026-04-23T13:54:58.038Z</time></trkpt><trkpt lat="43.8036915" lon="11.3293889"><ele>355.5</ele><time>2026-04-23T13:55:00.041Z</time></trkpt><trkpt lat="43.8035974" lon="11.3293728"><ele>355.0</ele><time>2026-04-23T13:55:06.052Z</time></trkpt><trkpt lat="43.8036333" lon="11.3294783"><ele>354.5</ele><time>2026-04-23T13:55:12.007Z</time></trkpt><trkpt lat="43.8036383" lon="11.3295717"><ele>354.0</ele><time>2026-04-23T13:55:16.006Z</time></trkpt><trkpt lat="43.8037017" lon="11.3296383"><ele>354.0</ele><time>2026-04-23T13:55:19.007Z</time></trkpt><trkpt lat="43.8037533" lon="11.329715"><ele>354.0</ele><time>2026-04-23T13:55:22.006Z</time></trkpt><trkpt lat="43.8037667" lon="11.3298083"><ele>354.0</ele><time>2026-04-23T13:55:24.006Z</time></trkpt><trkpt lat="43.803755" lon="11.3299183"><ele>354.0</ele><time>2026-04-23T13:55:26.006Z</time></trkpt><trkpt lat="43.8037367" lon="11.3300067"><ele>354.0</ele><time>2026-04-23T13:55:28.007Z</time></trkpt><trkpt lat="43.803755" lon="11.33013"><ele>354.0</ele><time>2026-04-23T13:56:26.007Z</time></trkpt><trkpt lat="43.8037883" lon="11.330275"><ele>352.4</ele><time>2026-04-23T13:56:29.006Z</time></trkpt><trkpt lat="43.8038233" lon="11.3304267"><ele>350.79999999999995</ele><time>2026-04-23T13:56:31.006Z</time></trkpt><trkpt lat="43.80386" lon="11.3305733"><ele>349.20000000000005</ele><time>2026-04-23T13:56:33.006Z</time></trkpt><trkpt lat="43.803875" lon="11.33071"><ele>347.6</ele><time>2026-04-23T13:56:35.006Z</time></trkpt><trkpt lat="43.8038517" lon="11.3308483"><ele>346.0</ele><time>2026-04-23T13:56:37.006Z</time></trkpt><trkpt lat="43.8038167" lon="11.33097"><ele>344.4</ele><time>2026-04-23T13:56:39.006Z</time></trkpt><trkpt lat="43.80377" lon="11.33108"><ele>342.8</ele><time>2026-04-23T13:56:41.006Z</time></trkpt><trkpt lat="43.803715" lon="11.3312233"><ele>341.2</ele><time>2026-04-23T13:56:43.007Z</time></trkpt><trkpt lat="43.8036833" lon="11.3313417"><ele>339.59999999999997</ele><time>2026-04-23T13:56:45.006Z</time></trkpt><trkpt lat="43.80368" lon="11.3315067"><ele>338.0</ele><time>2026-04-23T13:56:47.006Z</time></trkpt><trkpt lat="43.8036917" lon="11.3316133"><ele>337.1666666666667</ele><time>2026-04-23T13:56:48.007Z</time></trkpt><trkpt lat="43.80371" lon="11.3317117"><ele>336.33333333333337</ele><time>2026-04-23T13:56:49.007Z</time></trkpt><trkpt lat="43.80373" lon="11.33181"><ele>335.5</ele><time>2026-04-23T13:56:50.006Z</time></trkpt><trkpt lat="43.8037517" lon="11.3319133"><ele>334.6666666666667</ele><time>2026-04-23T13:56:51.007Z</time></trkpt><trkpt lat="43.8037683" lon="11.332015"><ele>333.8333333333333</ele><time>2026-04-23T13:56:52.006Z</time></trkpt><trkpt lat="43.8037767" lon="11.3321717"><ele>333.0</ele><time>2026-04-23T13:56:54.007Z</time></trkpt><trkpt lat="43.8037917" lon="11.3323067"><ele>330.5</ele><time>2026-04-23T13:56:56.007Z</time></trkpt><trkpt lat="43.8038217" lon="11.332425"><ele>328.0</ele><time>2026-04-23T13:56:58.006Z</time></trkpt><trkpt lat="43.8038983" lon="11.332535"><ele>325.5</ele><time>2026-04-23T13:57:00.006Z</time></trkpt><trkpt lat="43.80401" lon="11.332635"><ele>323.0</ele><time>2026-04-23T13:57:02.006Z</time></trkpt><trkpt lat="43.80412" lon="11.332685"><ele>323.0</ele><time>2026-04-23T13:57:04.006Z</time></trkpt><trkpt lat="43.8041917" lon="11.3327083"><ele>323.0</ele><time>2026-04-23T13:57:05.006Z</time></trkpt><trkpt lat="43.8042583" lon="11.3327233"><ele>323.0</ele><time>2026-04-23T13:57:06.006Z</time></trkpt><trkpt lat="43.8043267" lon="11.332745"><ele>323.0</ele><time>2026-04-23T13:57:07.006Z</time></trkpt><trkpt lat="43.8043917" lon="11.3327567"><ele>323.0</ele><time>2026-04-23T13:57:08.006Z</time></trkpt><trkpt lat="43.804495" lon="11.3327583"><ele>323.0</ele><time>2026-04-23T13:57:10.006Z</time></trkpt><trkpt lat="43.804575" lon="11.3327117"><ele>324.2</ele><time>2026-04-23T13:57:12.007Z</time></trkpt><trkpt lat="43.8046933" lon="11.3326733"><ele>325.4</ele><time>2026-04-23T13:57:14.006Z</time></trkpt><trkpt lat="43.804785" lon="11.3326533"><ele>326.59999999999997</ele><time>2026-04-23T13:57:16.006Z</time></trkpt><trkpt lat="43.8048667" lon="11.3326533"><ele>327.79999999999995</ele><time>2026-04-23T13:57:18.006Z</time></trkpt><trkpt lat="43.8049583" lon="11.332645"><ele>329.0</ele><time>2026-04-23T13:57:20.006Z</time></trkpt><trkpt lat="43.8050567" lon="11.3326717"><ele>329.0</ele><time>2026-04-23T13:57:22.006Z</time></trkpt><trkpt lat="43.80514" lon="11.3326933"><ele>329.0</ele><time>2026-04-23T13:57:24.006Z</time></trkpt><trkpt lat="43.8052067" lon="11.33277"><ele>329.0</ele><time>2026-04-23T13:57:26.007Z</time></trkpt><trkpt lat="43.8052767" lon="11.3329"><ele>329.0</ele><time>2026-04-23T13:57:28.006Z</time></trkpt><trkpt lat="43.8053117" lon="11.3329867"><ele>329.0</ele><time>2026-04-23T13:57:29.006Z</time></trkpt><trkpt lat="43.805355" lon="11.3330717"><ele>329.0</ele><time>2026-04-23T13:57:30.006Z</time></trkpt><trkpt lat="43.8053983" lon="11.3331483"><ele>330.5</ele><time>2026-04-23T13:57:31.006Z</time></trkpt><trkpt lat="43.80544" lon="11.333235"><ele>332.0</ele><time>2026-04-23T13:57:32.007Z</time></trkpt><trkpt lat="43.8054767" lon="11.3333117"><ele>333.5</ele><time>2026-04-23T13:57:33.007Z</time></trkpt><trkpt lat="43.8055133" lon="11.3333883"><ele>335.0</ele><time>2026-04-23T13:57:34.007Z</time></trkpt><trkpt lat="43.8055817" lon="11.3335017"><ele>336.5</ele><time>2026-04-23T13:57:36.006Z</time></trkpt><trkpt lat="43.80564" lon="11.333565"><ele>338.0</ele><time>2026-04-23T13:57:38.007Z</time></trkpt><trkpt lat="43.8056633" lon="11.33369"><ele>338.0</ele><time>2026-04-23T13:57:41.007Z</time></trkpt><trkpt lat="43.8056417" lon="11.3338083"><ele>338.0</ele><time>2026-04-23T13:57:43.006Z</time></trkpt><trkpt lat="43.805625" lon="11.3339317"><ele>338.0</ele><time>2026-04-23T13:57:45.006Z</time></trkpt><trkpt lat="43.80562" lon="11.3340483"><ele>338.0</ele><time>2026-04-23T13:57:47.006Z</time></trkpt><trkpt lat="43.8056183" lon="11.3341833"><ele>338.0</ele><time>2026-04-23T13:57:49.006Z</time></trkpt><trkpt lat="43.8056167" lon="11.3343133"><ele>337.83333333333337</ele><time>2026-04-23T13:57:51.006Z</time></trkpt><trkpt lat="43.8056033" lon="11.3344"><ele>337.6666666666667</ele><time>2026-04-23T13:57:53.006Z</time></trkpt><trkpt lat="43.80556" lon="11.3345067"><ele>337.5</ele><time>2026-04-23T13:57:56.007Z</time></trkpt><trkpt lat="43.8055317" lon="11.3345917"><ele>337.3333333333333</ele><time>2026-04-23T13:57:59.006Z</time></trkpt><trkpt lat="43.80557" lon="11.334495"><ele>337.16666666666663</ele><time>2026-04-23T13:58:20.006Z</time></trkpt><trkpt lat="43.80559" lon="11.334395"><ele>337.0</ele><time>2026-04-23T13:58:22.006Z</time></trkpt><trkpt lat="43.8055967" lon="11.3342783"><ele>337.0</ele><time>2026-04-23T13:58:24.007Z</time></trkpt><trkpt lat="43.8055933" lon="11.3341333"><ele>337.0</ele><time>2026-04-23T13:58:26.006Z</time></trkpt><trkpt lat="43.805595" lon="11.334045"><ele>337.0</ele><time>2026-04-23T13:58:27.007Z</time></trkpt><trkpt lat="43.8056217" lon="11.3338533"><ele>337.0</ele><time>2026-04-23T13:58:29.007Z</time></trkpt><trkpt lat="43.8056483" lon="11.33374"><ele>337.0</ele><time>2026-04-23T13:58:30.006Z</time></trkpt><trkpt lat="43.80564" lon="11.3335967"><ele>337.20000000000005</ele><time>2026-04-23T13:58:32.006Z</time></trkpt><trkpt lat="43.8055917" lon="11.333475"><ele>337.4</ele><time>2026-04-23T13:58:34.006Z</time></trkpt><trkpt lat="43.80552" lon="11.3333467"><ele>337.6</ele><time>2026-04-23T13:58:36.006Z</time></trkpt><trkpt lat="43.8054417" lon="11.3331983"><ele>337.79999999999995</ele><time>2026-04-23T13:58:38.006Z</time></trkpt><trkpt lat="43.8053983" lon="11.33312"><ele>338.0</ele><time>2026-04-23T13:58:39.006Z</time></trkpt><trkpt lat="43.8053617" lon="11.3330367"><ele>338.4</ele><time>2026-04-23T13:58:40.006Z</time></trkpt><trkpt lat="43.8053" lon="11.332905"><ele>338.79999999999995</ele><time>2026-04-23T13:58:42.006Z</time></trkpt><trkpt lat="43.8052533" lon="11.3327833"><ele>339.2</ele><time>2026-04-23T13:58:44.007Z</time></trkpt><trkpt lat="43.80518" lon="11.3327033"><ele>339.6</ele><time>2026-04-23T13:58:46.007Z</time></trkpt><trkpt lat="43.805065" lon="11.3326733"><ele>340.0</ele><time>2026-04-23T13:58:48.006Z</time></trkpt><trkpt lat="43.8049917" lon="11.3326833"><ele>338.16666666666663</ele><time>2026-04-23T13:58:49.007Z</time></trkpt><trkpt lat="43.8049083" lon="11.3327017"><ele>336.3333333333333</ele><time>2026-04-23T13:58:50.006Z</time></trkpt><trkpt lat="43.8048333" lon="11.332725"><ele>334.5</ele><time>2026-04-23T13:58:51.006Z</time></trkpt><trkpt lat="43.80476" lon="11.3327517"><ele>332.6666666666667</ele><time>2026-04-23T13:58:52.006Z</time></trkpt><trkpt lat="43.804635" lon="11.3327883"><ele>330.83333333333337</ele><time>2026-04-23T13:58:54.007Z</time></trkpt><trkpt lat="43.8045717" lon="11.332795"><ele>329.0</ele><time>2026-04-23T13:58:55.006Z</time></trkpt><trkpt lat="43.80446" lon="11.332785"><ele>329.0</ele><time>2026-04-23T13:58:57.006Z</time></trkpt><trkpt lat="43.8043533" lon="11.33277"><ele>329.0</ele><time>2026-04-23T13:58:59.006Z</time></trkpt><trkpt lat="43.8042483" lon="11.3327433"><ele>329.0</ele><time>2026-04-23T13:59:01.006Z</time></trkpt><trkpt lat="43.804145" lon="11.3327233"><ele>329.0</ele><time>2026-04-23T13:59:03.006Z</time></trkpt><trkpt lat="43.8040433" lon="11.3326817"><ele>329.0</ele><time>2026-04-23T13:59:05.006Z</time></trkpt><trkpt lat="43.80395" lon="11.3326117"><ele>329.79999999999995</ele><time>2026-04-23T13:59:07.007Z</time></trkpt><trkpt lat="43.8038483" lon="11.332515"><ele>330.59999999999997</ele><time>2026-04-23T13:59:09.006Z</time></trkpt><trkpt lat="43.8037733" lon="11.3324117"><ele>331.4</ele><time>2026-04-23T13:59:11.006Z</time></trkpt><trkpt lat="43.8037417" lon="11.3323083"><ele>332.2</ele><time>2026-04-23T13:59:13.006Z</time></trkpt><trkpt lat="43.80371" lon="11.3321667"><ele>333.0</ele><time>2026-04-23T13:59:15.006Z</time></trkpt><trkpt lat="43.803695" lon="11.3320767"><ele>333.0</ele><time>2026-04-23T13:59:16.006Z</time></trkpt><trkpt lat="43.8036817" lon="11.3319817"><ele>333.0</ele><time>2026-04-23T13:59:17.007Z</time></trkpt><trkpt lat="43.8036733" lon="11.331885"><ele>333.0</ele><time>2026-04-23T13:59:18.006Z</time></trkpt><trkpt lat="43.8036733" lon="11.331785"><ele>333.0</ele><time>2026-04-23T13:59:19.006Z</time></trkpt><trkpt lat="43.8036767" lon="11.3316867"><ele>333.0</ele><time>2026-04-23T13:59:20.006Z</time></trkpt><trkpt lat="43.8036783" lon="11.3315917"><ele>333.0</ele><time>2026-04-23T13:59:21.006Z</time></trkpt><trkpt lat="43.8036933" lon="11.33143"><ele>334.0</ele><time>2026-04-23T13:59:23.007Z</time></trkpt><trkpt lat="43.80374" lon="11.3312667"><ele>335.0</ele><time>2026-04-23T13:59:25.007Z</time></trkpt><trkpt lat="43.80377" lon="11.3311883"><ele>336.0</ele><time>2026-04-23T13:59:26.006Z</time></trkpt><trkpt lat="43.8038233" lon="11.331045"><ele>337.0</ele><time>2026-04-23T13:59:28.006Z</time></trkpt><trkpt lat="43.8038867" lon="11.3308967"><ele>338.0</ele><time>2026-04-23T13:59:30.006Z</time></trkpt><trkpt lat="43.8039183" lon="11.33077"><ele>338.0</ele><time>2026-04-23T13:59:32.007Z</time></trkpt><trkpt lat="43.8038917" lon="11.330625"><ele>338.0</ele><time>2026-04-23T13:59:34.006Z</time></trkpt><trkpt lat="43.803865" lon="11.3305317"><ele>338.0</ele><time>2026-04-23T13:59:35.006Z</time></trkpt><trkpt lat="43.80384" lon="11.3303833"><ele>338.0</ele><time>2026-04-23T13:59:37.006Z</time></trkpt><trkpt lat="43.8038267" lon="11.330295"><ele>338.0</ele><time>2026-04-23T13:59:38.007Z</time></trkpt><trkpt lat="43.8038" lon="11.3301917"><ele>338.0</ele><time>2026-04-23T13:59:40.006Z</time></trkpt><trkpt lat="43.8037533" lon="11.3303067"><ele>338.0</ele><time>2026-04-23T14:01:03.007Z</time></trkpt><trkpt lat="43.8037133" lon="11.3303883"><ele>338.0</ele><time>2026-04-23T14:01:07.006Z</time></trkpt><trkpt lat="43.80367" lon="11.3305"><ele>338.0</ele><time>2026-04-23T14:01:10.006Z</time></trkpt><trkpt lat="43.8036133" lon="11.3306"><ele>338.0</ele><time>2026-04-23T14:01:13.006Z</time></trkpt><trkpt lat="43.8035736" lon="11.3306801"><ele>338.0</ele><time>2026-04-23T14:01:15.048Z</time></trkpt><trkpt lat="43.8035338" lon="11.3307478"><ele>338.0</ele><time>2026-04-23T14:01:17.053Z</time></trkpt><trkpt lat="43.8034798" lon="11.3308159"><ele>332.4</ele><time>2026-04-23T14:01:19.055Z</time></trkpt><trkpt lat="43.8034316" lon="11.3309119"><ele>326.79999999999995</ele><time>2026-04-23T14:01:22.062Z</time></trkpt><trkpt lat="43.8033933" lon="11.331"><ele>321.2</ele><time>2026-04-23T14:01:36.006Z</time></trkpt><trkpt lat="43.8033283" lon="11.331015"><ele>315.6</ele><time>2026-04-23T14:02:34.006Z</time></trkpt><trkpt lat="43.8032483" lon="11.331055"><ele>310.0</ele><time>2026-04-23T14:02:40.006Z</time></trkpt><trkpt lat="43.8031633" lon="11.3312117"><ele>310.0</ele><time>2026-04-23T14:03:21.006Z</time></trkpt><trkpt lat="43.8031583" lon="11.3313067"><ele>310.0</ele><time>2026-04-23T14:03:28.007Z</time></trkpt><trkpt lat="43.80309" lon="11.3314217"><ele>310.0</ele><time>2026-04-23T14:03:38.007Z</time></trkpt><trkpt lat="43.8030333" lon="11.331495"><ele>310.0</ele><time>2026-04-23T14:03:43.007Z</time></trkpt><trkpt lat="43.802985" lon="11.331565"><ele>310.0</ele><time>2026-04-23T14:03:47.006Z</time></trkpt><trkpt lat="43.8029217" lon="11.3316967"><ele>310.0</ele><time>2026-04-23T14:05:43.006Z</time></trkpt><trkpt lat="43.80284" lon="11.3317717"><ele>309.5</ele><time>2026-04-23T14:06:08.006Z</time></trkpt><trkpt lat="43.8027867" lon="11.3318483"><ele>309.0</ele><time>2026-04-23T14:06:12.007Z</time></trkpt><trkpt lat="43.8027417" lon="11.33194"><ele>308.5</ele><time>2026-04-23T14:06:16.006Z</time></trkpt><trkpt lat="43.802695" lon="11.3320133"><ele>308.0</ele><time>2026-04-23T14:06:20.006Z</time></trkpt><trkpt lat="43.802655" lon="11.3320883"><ele>307.5</ele><time>2026-04-23T14:06:24.006Z</time></trkpt><trkpt lat="43.802605" lon="11.33219"><ele>307.0</ele><time>2026-04-23T14:06:27.006Z</time></trkpt><trkpt lat="43.802565" lon="11.3322817"><ele>303.0</ele><time>2026-04-23T14:06:33.007Z</time></trkpt><trkpt lat="43.8025267" lon="11.3323717"><ele>299.0</ele><time>2026-04-23T14:06:36.007Z</time></trkpt><trkpt lat="43.8024633" lon="11.3324467"><ele>295.0</ele><time>2026-04-23T14:06:39.007Z</time></trkpt><trkpt lat="43.8023967" lon="11.3325283"><ele>291.0</ele><time>2026-04-23T14:06:43.007Z</time></trkpt><trkpt lat="43.8023367" lon="11.332595"><ele>287.0</ele><time>2026-04-23T14:06:46.006Z</time></trkpt><trkpt lat="43.8022817" lon="11.3326517"><ele>283.0</ele><time>2026-04-23T14:06:48.006Z</time></trkpt><trkpt lat="43.8022167" lon="11.3327633"><ele>283.0</ele><time>2026-04-23T14:06:51.007Z</time></trkpt><trkpt lat="43.80216" lon="11.332855"><ele>283.0</ele><time>2026-04-23T14:06:53.007Z</time></trkpt><trkpt lat="43.8021" lon="11.3329267"><ele>283.0</ele><time>2026-04-23T14:06:55.006Z</time></trkpt><trkpt lat="43.80203" lon="11.3330067"><ele>283.0</ele><time>2026-04-23T14:06:57.007Z</time></trkpt><trkpt lat="43.8019583" lon="11.3331033"><ele>283.0</ele><time>2026-04-23T14:06:59.006Z</time></trkpt><trkpt lat="43.801895" lon="11.3332167"><ele>281.16666666666663</ele><time>2026-04-23T14:07:01.006Z</time></trkpt><trkpt lat="43.80183" lon="11.3333133"><ele>279.3333333333333</ele><time>2026-04-23T14:07:03.007Z</time></trkpt><trkpt lat="43.801775" lon="11.33339"><ele>277.5</ele><time>2026-04-23T14:07:05.006Z</time></trkpt><trkpt lat="43.8017233" lon="11.333455"><ele>275.6666666666667</ele><time>2026-04-23T14:07:07.006Z</time></trkpt><trkpt lat="43.8016717" lon="11.333525"><ele>273.83333333333337</ele><time>2026-04-23T14:07:09.007Z</time></trkpt><trkpt lat="43.8016167" lon="11.3336167"><ele>272.0</ele><time>2026-04-23T14:07:12.006Z</time></trkpt><trkpt lat="43.8015967" lon="11.333725"><ele>272.0</ele><time>2026-04-23T14:07:14.006Z</time></trkpt><trkpt lat="43.8015783" lon="11.3338633"><ele>272.0</ele><time>2026-04-23T14:07:16.006Z</time></trkpt><trkpt lat="43.8015433" lon="11.3339967"><ele>272.0</ele><time>2026-04-23T14:07:18.006Z</time></trkpt><trkpt lat="43.80151" lon="11.3341117"><ele>272.0</ele><time>2026-04-23T14:07:20.006Z</time></trkpt><trkpt lat="43.8014733" lon="11.334225"><ele>272.0</ele><time>2026-04-23T14:07:22.006Z</time></trkpt><trkpt lat="43.8014267" lon="11.3343583"><ele>270.6</ele><time>2026-04-23T14:07:24.006Z</time></trkpt><trkpt lat="43.80137" lon="11.3344667"><ele>269.2</ele><time>2026-04-23T14:07:26.006Z</time></trkpt><trkpt lat="43.80132" lon="11.334555"><ele>267.8</ele><time>2026-04-23T14:07:28.006Z</time></trkpt><trkpt lat="43.8012617" lon="11.3346317"><ele>266.4</ele><time>2026-04-23T14:07:30.006Z</time></trkpt><trkpt lat="43.8011933" lon="11.3347333"><ele>265.0</ele><time>2026-04-23T14:07:32.006Z</time></trkpt><trkpt lat="43.80111" lon="11.334845"><ele>263.0</ele><time>2026-04-23T14:07:34.006Z</time></trkpt><trkpt lat="43.80104" lon="11.334955"><ele>261.0</ele><time>2026-04-23T14:07:36.006Z</time></trkpt><trkpt lat="43.8009667" lon="11.3350733"><ele>259.0</ele><time>2026-04-23T14:07:38.007Z</time></trkpt><trkpt lat="43.800905" lon="11.335185"><ele>257.0</ele><time>2026-04-23T14:07:40.006Z</time></trkpt><trkpt lat="43.8008533" lon="11.3352533"><ele>255.0</ele><time>2026-04-23T14:07:42.006Z</time></trkpt><trkpt lat="43.8008" lon="11.3353617"><ele>254.83333333333334</ele><time>2026-04-23T14:07:45.006Z</time></trkpt><trkpt lat="43.8007817" lon="11.3354483"><ele>254.66666666666669</ele><time>2026-04-23T14:07:47.006Z</time></trkpt><trkpt lat="43.8007967" lon="11.335555"><ele>254.5</ele><time>2026-04-23T14:07:49.006Z</time></trkpt><trkpt lat="43.8008133" lon="11.3356617"><ele>254.33333333333334</ele><time>2026-04-23T14:07:51.006Z</time></trkpt><trkpt lat="43.8008233" lon="11.3357817"><ele>254.16666666666669</ele><time>2026-04-23T14:07:53.007Z</time></trkpt><trkpt lat="43.8008333" lon="11.3358867"><ele>254.0</ele><time>2026-04-23T14:07:55.006Z</time></trkpt><trkpt lat="43.8008417" lon="11.33603"><ele>252.66666666666669</ele><time>2026-04-23T14:07:57.007Z</time></trkpt><trkpt lat="43.800865" lon="11.3361933"><ele>251.33333333333334</ele><time>2026-04-23T14:07:59.007Z</time></trkpt><trkpt lat="43.800875" lon="11.3362833"><ele>250.0</ele><time>2026-04-23T14:08:00.007Z</time></trkpt><trkpt lat="43.800875" lon="11.3363783"><ele>248.66666666666669</ele><time>2026-04-23T14:08:01.006Z</time></trkpt><trkpt lat="43.8008633" lon="11.33647"><ele>247.33333333333334</ele><time>2026-04-23T14:08:02.006Z</time></trkpt><trkpt lat="43.8008417" lon="11.3366183"><ele>246.0</ele><time>2026-04-23T14:08:04.006Z</time></trkpt><trkpt lat="43.8008133" lon="11.33672"><ele>245.4</ele><time>2026-04-23T14:08:07.006Z</time></trkpt><trkpt lat="43.80088" lon="11.3368633"><ele>244.8</ele><time>2026-04-23T14:08:10.006Z</time></trkpt><trkpt lat="43.8009267" lon="11.3369583"><ele>244.20000000000002</ele><time>2026-04-23T14:08:11.006Z</time></trkpt><trkpt lat="43.8009733" lon="11.3370667"><ele>243.60000000000002</ele><time>2026-04-23T14:08:12.006Z</time></trkpt><trkpt lat="43.8010167" lon="11.3371783"><ele>243.0</ele><time>2026-04-23T14:08:13.006Z</time></trkpt><trkpt lat="43.80105" lon="11.3372717"><ele>241.0</ele><time>2026-04-23T14:08:14.007Z</time></trkpt><trkpt lat="43.80109" lon="11.3374217"><ele>239.0</ele><time>2026-04-23T14:08:16.007Z</time></trkpt><trkpt lat="43.8010733" lon="11.3375783"><ele>237.0</ele><time>2026-04-23T14:08:18.006Z</time></trkpt><trkpt lat="43.8010817" lon="11.3377367"><ele>235.0</ele><time>2026-04-23T14:08:20.006Z</time></trkpt><trkpt lat="43.8011383" lon="11.3378417"><ele>233.0</ele><time>2026-04-23T14:08:22.006Z</time></trkpt><trkpt lat="43.801195" lon="11.337895"><ele>233.00000000000003</ele><time>2026-04-23T14:08:23.006Z</time></trkpt><trkpt lat="43.8012683" lon="11.33796"><ele>233.0</ele><time>2026-04-23T14:08:24.006Z</time></trkpt><trkpt lat="43.8013417" lon="11.3380233"><ele>233.0</ele><time>2026-04-23T14:08:25.007Z</time></trkpt><trkpt lat="43.8014033" lon="11.3380683"><ele>233.0</ele><time>2026-04-23T14:08:26.006Z</time></trkpt><trkpt lat="43.8014667" lon="11.3381067"><ele>233.00000000000003</ele><time>2026-04-23T14:08:27.007Z</time></trkpt><trkpt lat="43.8015267" lon="11.3381383"><ele>233.0</ele><time>2026-04-23T14:08:28.007Z</time></trkpt><trkpt lat="43.801635" lon="11.3381917"><ele>231.2</ele><time>2026-04-23T14:08:30.007Z</time></trkpt><trkpt lat="43.80173" lon="11.3382317"><ele>229.4</ele><time>2026-04-23T14:08:32.007Z</time></trkpt><trkpt lat="43.8018383" lon="11.3382883"><ele>227.59999999999997</ele><time>2026-04-23T14:08:34.006Z</time></trkpt><trkpt lat="43.8019533" lon="11.3383483"><ele>225.79999999999998</ele><time>2026-04-23T14:08:36.006Z</time></trkpt><trkpt lat="43.8020567" lon="11.3383917"><ele>224.0</ele><time>2026-04-23T14:08:38.006Z</time></trkpt><trkpt lat="43.8021267" lon="11.338405"><ele>224.00000000000003</ele><time>2026-04-23T14:08:40.007Z</time></trkpt><trkpt lat="43.8022067" lon="11.3384567"><ele>224.0</ele><time>2026-04-23T14:08:43.006Z</time></trkpt><trkpt lat="43.8022017" lon="11.3385767"><ele>224.0</ele><time>2026-04-23T14:08:47.006Z</time></trkpt><trkpt lat="43.8021917" lon="11.338665"><ele>224.0</ele><time>2026-04-23T14:08:50.006Z</time></trkpt><trkpt lat="43.802125" lon="11.338725"><ele>224.00000000000003</ele><time>2026-04-23T14:08:54.006Z</time></trkpt><trkpt lat="43.8021117" lon="11.3388533"><ele>224.0</ele><time>2026-04-23T14:10:01.007Z</time></trkpt><trkpt lat="43.8020567" lon="11.33895"><ele>223.79999999999998</ele><time>2026-04-23T14:10:03.006Z</time></trkpt><trkpt lat="43.8020033" lon="11.339075"><ele>223.59999999999997</ele><time>2026-04-23T14:10:05.007Z</time></trkpt><trkpt lat="43.8019583" lon="11.339175"><ele>223.4</ele><time>2026-04-23T14:10:06.007Z</time></trkpt><trkpt lat="43.8019217" lon="11.3392933"><ele>223.2</ele><time>2026-04-23T14:10:07.007Z</time></trkpt><trkpt lat="43.8018667" lon="11.3394"><ele>223.0</ele><time>2026-04-23T14:10:08.006Z</time></trkpt><trkpt lat="43.801825" lon="11.3395017"><ele>223.0</ele><time>2026-04-23T14:10:09.006Z</time></trkpt><trkpt lat="43.8017833" lon="11.3395867"><ele>223.0</ele><time>2026-04-23T14:10:10.006Z</time></trkpt><trkpt lat="43.8017483" lon="11.33967"><ele>223.0</ele><time>2026-04-23T14:10:11.006Z</time></trkpt><trkpt lat="43.8017133" lon="11.3397567"><ele>223.0</ele><time>2026-04-23T14:10:12.006Z</time></trkpt><trkpt lat="43.80167" lon="11.3398317"><ele>223.0</ele><time>2026-04-23T14:10:13.006Z</time></trkpt><trkpt lat="43.801625" lon="11.339925"><ele>223.0</ele><time>2026-04-23T14:10:14.006Z</time></trkpt><trkpt lat="43.8015767" lon="11.34001"><ele>223.0</ele><time>2026-04-23T14:10:15.006Z</time></trkpt><trkpt lat="43.8015317" lon="11.3400867"><ele>225.33333333333331</ele><time>2026-04-23T14:10:16.006Z</time></trkpt><trkpt lat="43.801445" lon="11.3402167"><ele>227.66666666666666</ele><time>2026-04-23T14:10:18.007Z</time></trkpt><trkpt lat="43.801395" lon="11.3402767"><ele>230.0</ele><time>2026-04-23T14:10:19.007Z</time></trkpt><trkpt lat="43.801345" lon="11.3403383"><ele>232.33333333333331</ele><time>2026-04-23T14:10:20.006Z</time></trkpt><trkpt lat="43.8012917" lon="11.340395"><ele>234.66666666666666</ele><time>2026-04-23T14:10:21.006Z</time></trkpt><trkpt lat="43.8012317" lon="11.340455"><ele>237.0</ele><time>2026-04-23T14:10:22.006Z</time></trkpt><trkpt lat="43.8011717" lon="11.34051"><ele>234.83333333333334</ele><time>2026-04-23T14:10:23.006Z</time></trkpt><trkpt lat="43.801125" lon="11.340575"><ele>232.66666666666669</ele><time>2026-04-23T14:10:24.007Z</time></trkpt><trkpt lat="43.80104" lon="11.3406817"><ele>230.5</ele><time>2026-04-23T14:10:26.006Z</time></trkpt><trkpt lat="43.800995" lon="11.3407483"><ele>228.33333333333334</ele><time>2026-04-23T14:10:27.006Z</time></trkpt><trkpt lat="43.8009533" lon="11.3408267"><ele>226.16666666666669</ele><time>2026-04-23T14:10:28.006Z</time></trkpt><trkpt lat="43.800905" lon="11.340925"><ele>224.0</ele><time>2026-04-23T14:10:29.007Z</time></trkpt><trkpt lat="43.800865" lon="11.3410183"><ele>224.0</ele><time>2026-04-23T14:10:30.006Z</time></trkpt><trkpt lat="43.800835" lon="11.3411033"><ele>223.99999999999997</ele><time>2026-04-23T14:10:31.007Z</time></trkpt><trkpt lat="43.8007933" lon="11.3412533"><ele>223.99999999999997</ele><time>2026-04-23T14:10:33.006Z</time></trkpt><trkpt lat="43.8007733" lon="11.3413767"><ele>224.0</ele><time>2026-04-23T14:10:35.006Z</time></trkpt><trkpt lat="43.8007417" lon="11.3414717"><ele>224.0</ele><time>2026-04-23T14:10:37.006Z</time></trkpt><trkpt lat="43.8006733" lon="11.3415717"><ele>227.79999999999998</ele><time>2026-04-23T14:10:39.006Z</time></trkpt><trkpt lat="43.80062" lon="11.3417133"><ele>231.59999999999997</ele><time>2026-04-23T14:10:41.006Z</time></trkpt><trkpt lat="43.800575" lon="11.3418533"><ele>235.4</ele><time>2026-04-23T14:10:43.007Z</time></trkpt><trkpt lat="43.80054" lon="11.3419883"><ele>239.2</ele><time>2026-04-23T14:10:45.006Z</time></trkpt><trkpt lat="43.8004667" lon="11.342065"><ele>243.0</ele><time>2026-04-23T14:10:47.007Z</time></trkpt><trkpt lat="43.8003867" lon="11.3421217"><ele>243.0</ele><time>2026-04-23T14:10:49.006Z</time></trkpt><trkpt lat="43.800315" lon="11.3422117"><ele>243.0</ele><time>2026-04-23T14:10:51.006Z</time></trkpt><trkpt lat="43.8002283" lon="11.3423267"><ele>243.0</ele><time>2026-04-23T14:10:53.006Z</time></trkpt><trkpt lat="43.800175" lon="11.3424"><ele>243.0</ele><time>2026-04-23T14:10:54.007Z</time></trkpt><trkpt lat="43.80012" lon="11.3424767"><ele>243.0</ele><time>2026-04-23T14:10:55.006Z</time></trkpt><trkpt lat="43.8000683" lon="11.3425617"><ele>243.66666666666666</ele><time>2026-04-23T14:10:56.006Z</time></trkpt><trkpt lat="43.8000133" lon="11.3426483"><ele>244.33333333333331</ele><time>2026-04-23T14:10:57.007Z</time></trkpt><trkpt lat="43.7999583" lon="11.3427383"><ele>245.0</ele><time>2026-04-23T14:10:58.006Z</time></trkpt><trkpt lat="43.7999" lon="11.3428133"><ele>245.66666666666666</ele><time>2026-04-23T14:10:59.006Z</time></trkpt><trkpt lat="43.7998417" lon="11.3428833"><ele>246.33333333333331</ele><time>2026-04-23T14:11:00.006Z</time></trkpt><trkpt lat="43.7997833" lon="11.342955"><ele>247.0</ele><time>2026-04-23T14:11:01.006Z</time></trkpt><trkpt lat="43.79972" lon="11.3430167"><ele>249.57142857142858</ele><time>2026-04-23T14:11:02.006Z</time></trkpt><trkpt lat="43.7996683" lon="11.3430767"><ele>252.1428571428571</ele><time>2026-04-23T14:11:03.007Z</time></trkpt><trkpt lat="43.7996183" lon="11.3431367"><ele>254.7142857142857</ele><time>2026-04-23T14:11:04.007Z</time></trkpt><trkpt lat="43.7995617" lon="11.343205"><ele>257.2857142857143</ele><time>2026-04-23T14:11:05.007Z</time></trkpt><trkpt lat="43.7995033" lon="11.3432767"><ele>259.85714285714283</ele><time>2026-04-23T14:11:06.006Z</time></trkpt><trkpt lat="43.7994467" lon="11.3433433"><ele>262.4285714285714</ele><time>2026-04-23T14:11:07.006Z</time></trkpt><trkpt lat="43.7994" lon="11.343435"><ele>265.0</ele><time>2026-04-23T14:11:08.006Z</time></trkpt><trkpt lat="43.79935" lon="11.34354"><ele>264.5</ele><time>2026-04-23T14:11:09.007Z</time></trkpt><trkpt lat="43.7992917" lon="11.3436417"><ele>264.0</ele><time>2026-04-23T14:11:10.007Z</time></trkpt><trkpt lat="43.79923" lon="11.34374"><ele>263.5</ele><time>2026-04-23T14:11:11.006Z</time></trkpt><trkpt lat="43.7991667" lon="11.343825"><ele>263.0</ele><time>2026-04-23T14:11:12.006Z</time></trkpt><trkpt lat="43.7991133" lon="11.3439133"><ele>262.5</ele><time>2026-04-23T14:11:13.007Z</time></trkpt><trkpt lat="43.7990617" lon="11.3439983"><ele>262.0</ele><time>2026-04-23T14:11:14.006Z</time></trkpt><trkpt lat="43.799005" lon="11.344075"><ele>262.0</ele><time>2026-04-23T14:11:15.006Z</time></trkpt><trkpt lat="43.7989467" lon="11.3441467"><ele>262.0</ele><time>2026-04-23T14:11:16.006Z</time></trkpt><trkpt lat="43.7988917" lon="11.3442067"><ele>262.0</ele><time>2026-04-23T14:11:17.006Z</time></trkpt><trkpt lat="43.7987867" lon="11.3442717"><ele>262.0</ele><time>2026-04-23T14:11:19.006Z</time></trkpt><trkpt lat="43.7987583" lon="11.3443883"><ele>262.0</ele><time>2026-04-23T14:11:35.006Z</time></trkpt><trkpt lat="43.7987633" lon="11.3445683"><ele>262.0</ele><time>2026-04-23T14:11:37.006Z</time></trkpt><trkpt lat="43.7987467" lon="11.3446617"><ele>262.0</ele><time>2026-04-23T14:11:38.006Z</time></trkpt><trkpt lat="43.7987183" lon="11.3447433"><ele>262.0</ele><time>2026-04-23T14:11:39.006Z</time></trkpt><trkpt lat="43.79867" lon="11.34482"><ele>262.0</ele><time>2026-04-23T14:11:40.007Z</time></trkpt><trkpt lat="43.7986117" lon="11.344885"><ele>262.0</ele><time>2026-04-23T14:11:41.006Z</time></trkpt><trkpt lat="43.798555" lon="11.3449517"><ele>262.0</ele><time>2026-04-23T14:11:42.006Z</time></trkpt><trkpt lat="43.79849" lon="11.3450117"><ele>262.0</ele><time>2026-04-23T14:11:43.006Z</time></trkpt><trkpt lat="43.798435" lon="11.3450767"><ele>262.0</ele><time>2026-04-23T14:11:44.007Z</time></trkpt><trkpt lat="43.7983767" lon="11.34513"><ele>262.0</ele><time>2026-04-23T14:11:45.006Z</time></trkpt><trkpt lat="43.7983167" lon="11.3451783"><ele>262.0</ele><time>2026-04-23T14:11:46.007Z</time></trkpt><trkpt lat="43.798265" lon="11.34524"><ele>262.0</ele><time>2026-04-23T14:11:47.006Z</time></trkpt><trkpt lat="43.798205" lon="11.3452933"><ele>262.0</ele><time>2026-04-23T14:11:48.007Z</time></trkpt><trkpt lat="43.7981533" lon="11.34535"><ele>262.0</ele><time>2026-04-23T14:11:49.007Z</time></trkpt><trkpt lat="43.798095" lon="11.3454117"><ele>262.0</ele><time>2026-04-23T14:11:50.007Z</time></trkpt><trkpt lat="43.7980417" lon="11.3454833"><ele>264.0</ele><time>2026-04-23T14:11:51.006Z</time></trkpt><trkpt lat="43.7979967" lon="11.3455517"><ele>266.0</ele><time>2026-04-23T14:11:52.006Z</time></trkpt><trkpt lat="43.797925" lon="11.3456783"><ele>268.0</ele><time>2026-04-23T14:11:54.006Z</time></trkpt><trkpt lat="43.7979" lon="11.3457667"><ele>270.0</ele><time>2026-04-23T14:11:55.007Z</time></trkpt><trkpt lat="43.7978833" lon="11.3458517"><ele>272.0</ele><time>2026-04-23T14:11:56.006Z</time></trkpt><trkpt lat="43.79787" lon="11.345945"><ele>274.0</ele><time>2026-04-23T14:11:57.006Z</time></trkpt><trkpt lat="43.7978617" lon="11.346115"><ele>274.0</ele><time>2026-04-23T14:11:59.006Z</time></trkpt><trkpt lat="43.797875" lon="11.3462417"><ele>274.0</ele><time>2026-04-23T14:12:01.006Z</time></trkpt><trkpt lat="43.7979333" lon="11.3463683"><ele>274.0</ele><time>2026-04-23T14:12:03.006Z</time></trkpt><trkpt lat="43.7979633" lon="11.3464883"><ele>274.0</ele><time>2026-04-23T14:12:05.006Z</time></trkpt><trkpt lat="43.7979283" lon="11.3466217"><ele>274.0</ele><time>2026-04-23T14:12:07.006Z</time></trkpt><trkpt lat="43.7978867" lon="11.3467083"><ele>273.66666666666663</ele><time>2026-04-23T14:12:08.006Z</time></trkpt><trkpt lat="43.7978367" lon="11.3468017"><ele>273.3333333333333</ele><time>2026-04-23T14:12:09.006Z</time></trkpt><trkpt lat="43.797785" lon="11.3469033"><ele>273.0</ele><time>2026-04-23T14:12:10.007Z</time></trkpt><trkpt lat="43.7977383" lon="11.3470033"><ele>272.6666666666667</ele><time>2026-04-23T14:12:11.006Z</time></trkpt><trkpt lat="43.7976917" lon="11.34709"><ele>272.33333333333337</ele><time>2026-04-23T14:12:12.006Z</time></trkpt><trkpt lat="43.7976567" lon="11.3471817"><ele>272.0</ele><time>2026-04-23T14:12:13.006Z</time></trkpt><trkpt lat="43.7975867" lon="11.3472867"><ele>276.6666666666667</ele><time>2026-04-23T14:12:15.006Z</time></trkpt><trkpt lat="43.7974833" lon="11.3473617"><ele>281.33333333333337</ele><time>2026-04-23T14:12:17.006Z</time></trkpt><trkpt lat="43.7974267" lon="11.3474167"><ele>286.0</ele><time>2026-04-23T14:12:18.006Z</time></trkpt><trkpt lat="43.79737" lon="11.347465"><ele>290.6666666666667</ele><time>2026-04-23T14:12:19.006Z</time></trkpt><trkpt lat="43.797305" lon="11.34751"><ele>295.3333333333333</ele><time>2026-04-23T14:12:20.006Z</time></trkpt><trkpt lat="43.7972367" lon="11.3475533"><ele>300.0</ele><time>2026-04-23T14:12:21.006Z</time></trkpt><trkpt lat="43.797165" lon="11.3475833"><ele>300.0</ele><time>2026-04-23T14:12:22.006Z</time></trkpt><trkpt lat="43.797095" lon="11.3476067"><ele>300.0</ele><time>2026-04-23T14:12:23.006Z</time></trkpt><trkpt lat="43.7970317" lon="11.3476267"><ele>300.0</ele><time>2026-04-23T14:12:24.006Z</time></trkpt><trkpt lat="43.7969583" lon="11.3476383"><ele>300.0</ele><time>2026-04-23T14:12:25.006Z</time></trkpt><trkpt lat="43.7968867" lon="11.347655"><ele>300.0</ele><time>2026-04-23T14:12:26.006Z</time></trkpt><trkpt lat="43.7968233" lon="11.3476783"><ele>300.0</ele><time>2026-04-23T14:12:27.006Z</time></trkpt><trkpt lat="43.7967133" lon="11.3477317"><ele>301.3333333333333</ele><time>2026-04-23T14:12:29.006Z</time></trkpt><trkpt lat="43.796655" lon="11.34777"><ele>302.6666666666667</ele><time>2026-04-23T14:12:30.006Z</time></trkpt><trkpt lat="43.7965933" lon="11.3477983"><ele>304.0</ele><time>2026-04-23T14:12:31.006Z</time></trkpt><trkpt lat="43.7965067" lon="11.3478633"><ele>305.33333333333337</ele><time>2026-04-23T14:12:33.007Z</time></trkpt><trkpt lat="43.79643" lon="11.3479133"><ele>306.6666666666667</ele><time>2026-04-23T14:12:35.007Z</time></trkpt><trkpt lat="43.796355" lon="11.3479817"><ele>308.0</ele><time>2026-04-23T14:12:37.007Z</time></trkpt><trkpt lat="43.7962967" lon="11.34807"><ele>308.0</ele><time>2026-04-23T14:12:39.007Z</time></trkpt><trkpt lat="43.796265" lon="11.3481983"><ele>308.0</ele><time>2026-04-23T14:12:41.006Z</time></trkpt><trkpt lat="43.796245" lon="11.348315"><ele>308.0</ele><time>2026-04-23T14:12:43.006Z</time></trkpt><trkpt lat="43.79626" lon="11.3484283"><ele>308.0</ele><time>2026-04-23T14:12:45.007Z</time></trkpt><trkpt lat="43.7962767" lon="11.3485483"><ele>308.0</ele><time>2026-04-23T14:12:47.006Z</time></trkpt><trkpt lat="43.796305" lon="11.34867"><ele>308.0</ele><time>2026-04-23T14:12:49.006Z</time></trkpt><trkpt lat="43.796335" lon="11.3488133"><ele>308.1666666666667</ele><time>2026-04-23T14:12:51.007Z</time></trkpt><trkpt lat="43.7963783" lon="11.3489467"><ele>308.33333333333337</ele><time>2026-04-23T14:12:53.006Z</time></trkpt><trkpt lat="43.796415" lon="11.3491217"><ele>308.5</ele><time>2026-04-23T14:12:55.006Z</time></trkpt><trkpt lat="43.796435" lon="11.3492083"><ele>308.6666666666667</ele><time>2026-04-23T14:12:56.006Z</time></trkpt><trkpt lat="43.7964583" lon="11.349295"><ele>308.8333333333333</ele><time>2026-04-23T14:12:57.007Z</time></trkpt><trkpt lat="43.7964833" lon="11.3493783"><ele>309.0</ele><time>2026-04-23T14:12:58.006Z</time></trkpt><trkpt lat="43.7965117" lon="11.34946"><ele>309.0</ele><time>2026-04-23T14:12:59.006Z</time></trkpt><trkpt lat="43.79654" lon="11.3495517"><ele>309.0</ele><time>2026-04-23T14:13:00.006Z</time></trkpt><trkpt lat="43.7965683" lon="11.3496483"><ele>309.0</ele><time>2026-04-23T14:13:01.006Z</time></trkpt><trkpt lat="43.7965983" lon="11.349735"><ele>309.0</ele><time>2026-04-23T14:13:02.006Z</time></trkpt><trkpt lat="43.7966383" lon="11.3498683"><ele>309.0</ele><time>2026-04-23T14:13:04.007Z</time></trkpt><trkpt lat="43.796615" lon="11.3500133"><ele>309.0</ele><time>2026-04-23T14:13:24.006Z</time></trkpt><trkpt lat="43.796605" lon="11.350115"><ele>307.6666666666667</ele><time>2026-04-23T14:13:27.006Z</time></trkpt><trkpt lat="43.7966033" lon="11.35023"><ele>306.3333333333333</ele><time>2026-04-23T14:13:30.007Z</time></trkpt><trkpt lat="43.796625" lon="11.3503217"><ele>305.0</ele><time>2026-04-23T14:13:32.007Z</time></trkpt><trkpt lat="43.7966333" lon="11.3504083"><ele>303.66666666666663</ele><time>2026-04-23T14:13:34.006Z</time></trkpt><trkpt lat="43.7966233" lon="11.350545"><ele>302.3333333333333</ele><time>2026-04-23T14:13:37.006Z</time></trkpt><trkpt lat="43.7966033" lon="11.3506583"><ele>301.0</ele><time>2026-04-23T14:13:40.006Z</time></trkpt><trkpt lat="43.7965933" lon="11.3507583"><ele>299.14285714285717</ele><time>2026-04-23T14:13:43.006Z</time></trkpt><trkpt lat="43.796565" lon="11.35084"><ele>297.2857142857143</ele><time>2026-04-23T14:13:56.007Z</time></trkpt><trkpt lat="43.7965017" lon="11.3509067"><ele>295.42857142857144</ele><time>2026-04-23T14:14:02.006Z</time></trkpt><trkpt lat="43.7964483" lon="11.3509783"><ele>293.57142857142856</ele><time>2026-04-23T14:14:07.007Z</time></trkpt><trkpt lat="43.796395" lon="11.3510267"><ele>291.7142857142857</ele><time>2026-04-23T14:14:10.006Z</time></trkpt><trkpt lat="43.7963433" lon="11.3510883"><ele>289.8571428571429</ele><time>2026-04-23T14:14:19.006Z</time></trkpt><trkpt lat="43.7963067" lon="11.3511867"><ele>288.0</ele><time>2026-04-23T14:14:24.006Z</time></trkpt><trkpt lat="43.7962823" lon="11.3512853"><ele>285.0</ele><time>2026-04-23T14:14:28.036Z</time></trkpt><trkpt lat="43.7962655" lon="11.3513863"><ele>282.0</ele><time>2026-04-23T14:14:30.086Z</time></trkpt><trkpt lat="43.7962415" lon="11.3514915"><ele>279.0</ele><time>2026-04-23T14:14:34.093Z</time></trkpt><trkpt lat="43.7962133" lon="11.351575"><ele>276.0</ele><time>2026-04-23T14:15:09.006Z</time></trkpt><trkpt lat="43.7961917" lon="11.3517083"><ele>273.0</ele><time>2026-04-23T14:15:22.006Z</time></trkpt><trkpt lat="43.7961333" lon="11.3517533"><ele>270.0</ele><time>2026-04-23T14:15:26.007Z</time></trkpt><trkpt lat="43.7960517" lon="11.3517483"><ele>268.3333333333333</ele><time>2026-04-23T14:15:29.006Z</time></trkpt><trkpt lat="43.7959667" lon="11.3517517"><ele>266.6666666666667</ele><time>2026-04-23T14:15:32.006Z</time></trkpt><trkpt lat="43.7958917" lon="11.351785"><ele>265.0</ele><time>2026-04-23T14:15:35.006Z</time></trkpt><trkpt lat="43.7958407" lon="11.3518589"><ele>263.33333333333337</ele><time>2026-04-23T14:15:39.059Z</time></trkpt><trkpt lat="43.795832" lon="11.3519516"><ele>261.6666666666667</ele><time>2026-04-23T14:15:44.114Z</time></trkpt><trkpt lat="43.795862" lon="11.3520447"><ele>260.0</ele><time>2026-04-23T14:15:47.019Z</time></trkpt><trkpt lat="43.7958952" lon="11.3521514"><ele>257.83333333333337</ele><time>2026-04-23T14:15:50.025Z</time></trkpt><trkpt lat="43.7959046" lon="11.3522484"><ele>255.66666666666669</ele><time>2026-04-23T14:15:54.032Z</time></trkpt><trkpt lat="43.7958759" lon="11.352336"><ele>253.5</ele><time>2026-04-23T14:16:01.044Z</time></trkpt><trkpt lat="43.795808" lon="11.3523616"><ele>251.33333333333331</ele><time>2026-04-23T14:16:03.959Z</time></trkpt><trkpt lat="43.7957062" lon="11.3523926"><ele>249.16666666666666</ele><time>2026-04-23T14:16:06.007Z</time></trkpt><trkpt lat="43.7956119" lon="11.3524319"><ele>247.0</ele><time>2026-04-23T14:16:08.006Z</time></trkpt><trkpt lat="43.795527" lon="11.3524934"><ele>246.99999999999997</ele><time>2026-04-23T14:16:10.006Z</time></trkpt><trkpt lat="43.7954416" lon="11.3525693"><ele>247.0</ele><time>2026-04-23T14:16:12.006Z</time></trkpt><trkpt lat="43.7953684" lon="11.3526423"><ele>247.0</ele><time>2026-04-23T14:16:14.006Z</time></trkpt><trkpt lat="43.7953004" lon="11.3527005"><ele>247.0</ele><time>2026-04-23T14:16:17.006Z</time></trkpt><trkpt lat="43.795267" lon="11.352783"><ele>246.99999999999997</ele><time>2026-04-23T14:16:21.006Z</time></trkpt><trkpt lat="43.795362" lon="11.3527947"><ele>247.0</ele><time>2026-04-23T14:16:26.006Z</time></trkpt><trkpt lat="43.7954579" lon="11.3527935"><ele>246.99999999999997</ele><time>2026-04-23T14:16:28.007Z</time></trkpt><trkpt lat="43.7955655" lon="11.3527954"><ele>247.0</ele><time>2026-04-23T14:16:30.007Z</time></trkpt><trkpt lat="43.795649" lon="11.3528105"><ele>247.0</ele><time>2026-04-23T14:16:32.006Z</time></trkpt><trkpt lat="43.795716" lon="11.3528305"><ele>247.0</ele><time>2026-04-23T14:16:34.006Z</time></trkpt><trkpt lat="43.7958022" lon="11.352868"><ele>246.99999999999997</ele><time>2026-04-23T14:16:37.007Z</time></trkpt><trkpt lat="43.7958893" lon="11.3529066"><ele>247.0</ele><time>2026-04-23T14:16:40.077Z</time></trkpt><trkpt lat="43.7959733" lon="11.3529833"><ele>245.66666666666666</ele><time>2026-04-23T14:16:42.006Z</time></trkpt><trkpt lat="43.7960467" lon="11.353085"><ele>244.33333333333331</ele><time>2026-04-23T14:16:44.006Z</time></trkpt><trkpt lat="43.7961217" lon="11.3532133"><ele>243.0</ele><time>2026-04-23T14:16:46.006Z</time></trkpt><trkpt lat="43.796165" lon="11.353285"><ele>241.66666666666669</ele><time>2026-04-23T14:16:47.006Z</time></trkpt><trkpt lat="43.79621" lon="11.3533567"><ele>240.33333333333334</ele><time>2026-04-23T14:16:48.007Z</time></trkpt><trkpt lat="43.7962517" lon="11.3534317"><ele>239.0</ele><time>2026-04-23T14:16:49.006Z</time></trkpt><trkpt lat="43.7962917" lon="11.3535"><ele>239.0</ele><time>2026-04-23T14:16:50.006Z</time></trkpt><trkpt lat="43.796335" lon="11.3535683"><ele>238.99999999999997</ele><time>2026-04-23T14:16:51.006Z</time></trkpt><trkpt lat="43.7964133" lon="11.3537"><ele>238.99999999999997</ele><time>2026-04-23T14:16:53.006Z</time></trkpt><trkpt lat="43.7964833" lon="11.3538283"><ele>239.0</ele><time>2026-04-23T14:16:55.007Z</time></trkpt><trkpt lat="43.796545" lon="11.353925"><ele>239.0</ele><time>2026-04-23T14:16:57.006Z</time></trkpt><trkpt lat="43.796615" lon="11.3540067"><ele>238.2</ele><time>2026-04-23T14:16:59.006Z</time></trkpt><trkpt lat="43.7967333" lon="11.3540917"><ele>237.39999999999998</ele><time>2026-04-23T14:17:01.007Z</time></trkpt><trkpt lat="43.7968033" lon="11.3541433"><ele>236.6</ele><time>2026-04-23T14:17:02.006Z</time></trkpt><trkpt lat="43.7968733" lon="11.3541967"><ele>235.8</ele><time>2026-04-23T14:17:03.006Z</time></trkpt><trkpt lat="43.796945" lon="11.3542467"><ele>235.0</ele><time>2026-04-23T14:17:04.007Z</time></trkpt><trkpt lat="43.797015" lon="11.354305"><ele>234.99999999999997</ele><time>2026-04-23T14:17:05.006Z</time></trkpt><trkpt lat="43.7970867" lon="11.35436"><ele>235.0</ele><time>2026-04-23T14:17:06.006Z</time></trkpt><trkpt lat="43.7971567" lon="11.3544217"><ele>235.0</ele><time>2026-04-23T14:17:07.007Z</time></trkpt><trkpt lat="43.7972367" lon="11.35448"><ele>235.0</ele><time>2026-04-23T14:17:08.006Z</time></trkpt><trkpt lat="43.7972983" lon="11.3545333"><ele>234.99999999999997</ele><time>2026-04-23T14:17:09.006Z</time></trkpt><trkpt lat="43.7974033" lon="11.3546133"><ele>235.0</ele><time>2026-04-23T14:17:11.006Z</time></trkpt><trkpt lat="43.797475" lon="11.3546667"><ele>233.16666666666666</ele><time>2026-04-23T14:17:13.007Z</time></trkpt><trkpt lat="43.797515" lon="11.35477"><ele>231.33333333333331</ele><time>2026-04-23T14:17:16.006Z</time></trkpt><trkpt lat="43.797535" lon="11.3548567"><ele>229.5</ele><time>2026-04-23T14:17:18.006Z</time></trkpt><trkpt lat="43.7975289" lon="11.3549591"><ele>227.66666666666669</ele><time>2026-04-23T14:17:22.016Z</time></trkpt><trkpt lat="43.7974383" lon="11.3551167"><ele>225.83333333333334</ele><time>2026-04-23T14:17:51.007Z</time></trkpt><trkpt lat="43.7973817" lon="11.3551733"><ele>224.0</ele><time>2026-04-23T14:18:09.006Z</time></trkpt><trkpt lat="43.7973167" lon="11.35526"><ele>224.00000000000003</ele><time>2026-04-23T14:18:11.007Z</time></trkpt><trkpt lat="43.7972617" lon="11.3553483"><ele>224.0</ele><time>2026-04-23T14:18:14.006Z</time></trkpt><trkpt lat="43.797275" lon="11.3554383"><ele>224.0</ele><time>2026-04-23T14:18:18.007Z</time></trkpt><trkpt lat="43.79735" lon="11.3553967"><ele>224.0</ele><time>2026-04-23T14:18:23.006Z</time></trkpt><trkpt lat="43.7974217" lon="11.3553567"><ele>224.00000000000003</ele><time>2026-04-23T14:18:25.006Z</time></trkpt><trkpt lat="43.797515" lon="11.355285"><ele>224.0</ele><time>2026-04-23T14:18:27.006Z</time></trkpt><trkpt lat="43.7976017" lon="11.3552367"><ele>224.0</ele><time>2026-04-23T14:18:29.007Z</time></trkpt><trkpt lat="43.7976683" lon="11.3551983"><ele>223.99999999999997</ele><time>2026-04-23T14:18:31.006Z</time></trkpt><trkpt lat="43.7977483" lon="11.3551433"><ele>223.99999999999997</ele><time>2026-04-23T14:18:52.007Z</time></trkpt><trkpt lat="43.797735" lon="11.35528"><ele>224.0</ele><time>2026-04-23T14:19:56.006Z</time></trkpt><trkpt lat="43.7977" lon="11.3553867"><ele>224.0</ele><time>2026-04-23T14:19:58.006Z</time></trkpt><trkpt lat="43.7976583" lon="11.3555617"><ele>223.0</ele><time>2026-04-23T14:20:00.007Z</time></trkpt><trkpt lat="43.7976417" lon="11.3556517"><ele>221.99999999999997</ele><time>2026-04-23T14:20:01.006Z</time></trkpt><trkpt lat="43.7976033" lon="11.3558"><ele>220.99999999999997</ele><time>2026-04-23T14:20:03.007Z</time></trkpt><trkpt lat="43.79756" lon="11.35593"><ele>220.0</ele><time>2026-04-23T14:20:05.006Z</time></trkpt><trkpt lat="43.797495" lon="11.356045"><ele>219.0</ele><time>2026-04-23T14:20:07.006Z</time></trkpt><trkpt lat="43.7974483" lon="11.3561167"><ele>219.0</ele><time>2026-04-23T14:20:09.006Z</time></trkpt><trkpt lat="43.797405" lon="11.3562033"><ele>219.0</ele><time>2026-04-23T14:20:11.006Z</time></trkpt><trkpt lat="43.797335" lon="11.3562817"><ele>219.0</ele><time>2026-04-23T14:20:13.006Z</time></trkpt><trkpt lat="43.7972767" lon="11.3563217"><ele>219.0</ele><time>2026-04-23T14:20:14.006Z</time></trkpt><trkpt lat="43.7972067" lon="11.356355"><ele>219.0</ele><time>2026-04-23T14:20:15.006Z</time></trkpt><trkpt lat="43.797135" lon="11.3563917"><ele>219.0</ele><time>2026-04-23T14:20:16.007Z</time></trkpt><trkpt lat="43.7970599" lon="11.3564347"><ele>219.0</ele><time>2026-04-23T14:20:17.006Z</time></trkpt><trkpt lat="43.7969743" lon="11.3564691"><ele>218.99999999999997</ele><time>2026-04-23T14:20:18.006Z</time></trkpt><trkpt lat="43.7968821" lon="11.356499"><ele>218.99999999999997</ele><time>2026-04-23T14:20:19.007Z</time></trkpt><trkpt lat="43.7967928" lon="11.356535"><ele>219.0</ele><time>2026-04-23T14:20:20.006Z</time></trkpt><trkpt lat="43.7967039" lon="11.3565844"><ele>219.0</ele><time>2026-04-23T14:20:21.006Z</time></trkpt><trkpt lat="43.796614" lon="11.356636"><ele>219.0</ele><time>2026-04-23T14:20:22.007Z</time></trkpt><trkpt lat="43.7965268" lon="11.3566811"><ele>219.0</ele><time>2026-04-23T14:20:23.006Z</time></trkpt><trkpt lat="43.7964457" lon="11.3567183"><ele>219.0</ele><time>2026-04-23T14:20:24.006Z</time></trkpt><trkpt lat="43.796376" lon="11.3567507"><ele>219.0</ele><time>2026-04-23T14:20:25.006Z</time></trkpt><trkpt lat="43.7963111" lon="11.3567769"><ele>219.0</ele><time>2026-04-23T14:20:26.006Z</time></trkpt><trkpt lat="43.796245" lon="11.3568033"><ele>219.0</ele><time>2026-04-23T14:20:27.007Z</time></trkpt><trkpt lat="43.7961683" lon="11.3568267"><ele>219.0</ele><time>2026-04-23T14:20:28.006Z</time></trkpt><trkpt lat="43.796085" lon="11.356835"><ele>218.99999999999997</ele><time>2026-04-23T14:20:29.006Z</time></trkpt><trkpt lat="43.7960067" lon="11.356845"><ele>218.99999999999997</ele><time>2026-04-23T14:20:30.006Z</time></trkpt><trkpt lat="43.7959383" lon="11.356865"><ele>219.0</ele><time>2026-04-23T14:20:31.006Z</time></trkpt><trkpt lat="43.7958233" lon="11.3569067"><ele>219.0</ele><time>2026-04-23T14:20:33.006Z</time></trkpt><trkpt lat="43.7957217" lon="11.3569417"><ele>217.33333333333334</ele><time>2026-04-23T14:20:35.007Z</time></trkpt><trkpt lat="43.7956433" lon="11.3569733"><ele>215.66666666666669</ele><time>2026-04-23T14:20:37.006Z</time></trkpt><trkpt lat="43.7955683" lon="11.3570117"><ele>214.0</ele><time>2026-04-23T14:20:39.006Z</time></trkpt><trkpt lat="43.7955067" lon="11.357075"><ele>212.33333333333334</ele><time>2026-04-23T14:20:41.007Z</time></trkpt><trkpt lat="43.7954533" lon="11.3571667"><ele>210.66666666666669</ele><time>2026-04-23T14:20:43.006Z</time></trkpt><trkpt lat="43.7954167" lon="11.357265"><ele>209.0</ele><time>2026-04-23T14:20:45.006Z</time></trkpt><trkpt lat="43.7953583" lon="11.357355"><ele>208.50000000000003</ele><time>2026-04-23T14:20:47.006Z</time></trkpt><trkpt lat="43.7952633" lon="11.3574533"><ele>208.0</ele><time>2026-04-23T14:20:49.006Z</time></trkpt><trkpt lat="43.7952" lon="11.35751"><ele>207.5</ele><time>2026-04-23T14:20:50.006Z</time></trkpt><trkpt lat="43.79514" lon="11.3575733"><ele>207.0</ele><time>2026-04-23T14:20:51.007Z</time></trkpt><trkpt lat="43.7950733" lon="11.3576383"><ele>206.50000000000003</ele><time>2026-04-23T14:20:52.006Z</time></trkpt><trkpt lat="43.7950117" lon="11.35771"><ele>206.0</ele><time>2026-04-23T14:20:53.006Z</time></trkpt><trkpt lat="43.7949517" lon="11.3577817"><ele>206.00000000000003</ele><time>2026-04-23T14:20:54.006Z</time></trkpt><trkpt lat="43.7948967" lon="11.3578467"><ele>206.0</ele><time>2026-04-23T14:20:55.007Z</time></trkpt><trkpt lat="43.7948517" lon="11.35791"><ele>206.0</ele><time>2026-04-23T14:20:56.006Z</time></trkpt><trkpt lat="43.794755" lon="11.3580183"><ele>206.0</ele><time>2026-04-23T14:20:58.006Z</time></trkpt><trkpt lat="43.7946983" lon="11.3580833"><ele>206.00000000000003</ele><time>2026-04-23T14:20:59.007Z</time></trkpt><trkpt lat="43.79464" lon="11.35815"><ele>206.0</ele><time>2026-04-23T14:21:00.006Z</time></trkpt><trkpt lat="43.794585" lon="11.3582233"><ele>204.85714285714283</ele><time>2026-04-23T14:21:01.007Z</time></trkpt><trkpt lat="43.7945317" lon="11.3582833"><ele>203.71428571428572</ele><time>2026-04-23T14:21:02.007Z</time></trkpt><trkpt lat="43.7944833" lon="11.3583433"><ele>202.57142857142856</ele><time>2026-04-23T14:21:03.007Z</time></trkpt><trkpt lat="43.79443" lon="11.35841"><ele>201.42857142857142</ele><time>2026-04-23T14:21:04.006Z</time></trkpt><trkpt lat="43.7943717" lon="11.3584783"><ele>200.28571428571428</ele><time>2026-04-23T14:21:05.007Z</time></trkpt><trkpt lat="43.7943133" lon="11.3585533"><ele>199.14285714285714</ele><time>2026-04-23T14:21:06.006Z</time></trkpt><trkpt lat="43.7942567" lon="11.3586283"><ele>198.0</ele><time>2026-04-23T14:21:07.006Z</time></trkpt><trkpt lat="43.7941967" lon="11.3586967"><ele>198.0</ele><time>2026-04-23T14:21:08.007Z</time></trkpt><trkpt lat="43.7941433" lon="11.3587667"><ele>198.0</ele><time>2026-04-23T14:21:09.006Z</time></trkpt><trkpt lat="43.7940917" lon="11.3588233"><ele>198.0</ele><time>2026-04-23T14:21:10.007Z</time></trkpt><trkpt lat="43.7940367" lon="11.35887"><ele>198.0</ele><time>2026-04-23T14:21:11.007Z</time></trkpt><trkpt lat="43.7939383" lon="11.3589467"><ele>198.0</ele><time>2026-04-23T14:21:13.006Z</time></trkpt><trkpt lat="43.793845" lon="11.35898"><ele>198.0</ele><time>2026-04-23T14:21:15.006Z</time></trkpt><trkpt lat="43.79376" lon="11.3590117"><ele>197.0</ele><time>2026-04-23T14:21:17.007Z</time></trkpt><trkpt lat="43.793665" lon="11.3590483"><ele>196.0</ele><time>2026-04-23T14:21:19.006Z</time></trkpt><trkpt lat="43.793545" lon="11.359085"><ele>195.0</ele><time>2026-04-23T14:21:21.006Z</time></trkpt><trkpt lat="43.79347" lon="11.3590967"><ele>194.0</ele><time>2026-04-23T14:21:22.007Z</time></trkpt><trkpt lat="43.7933983" lon="11.3591083"><ele>193.0</ele><time>2026-04-23T14:21:23.007Z</time></trkpt><trkpt lat="43.79333" lon="11.359115"><ele>192.0</ele><time>2026-04-23T14:21:24.006Z</time></trkpt><trkpt lat="43.7932533" lon="11.3591167"><ele>192.0</ele><time>2026-04-23T14:21:25.006Z</time></trkpt><trkpt lat="43.79317" lon="11.3591033"><ele>192.0</ele><time>2026-04-23T14:21:26.006Z</time></trkpt><trkpt lat="43.7930883" lon="11.35909"><ele>192.0</ele><time>2026-04-23T14:21:27.007Z</time></trkpt><trkpt lat="43.79301" lon="11.359075"><ele>192.0</ele><time>2026-04-23T14:21:28.006Z</time></trkpt><trkpt lat="43.7929217" lon="11.3590583"><ele>192.0</ele><time>2026-04-23T14:21:29.006Z</time></trkpt><trkpt lat="43.7928417" lon="11.3590517"><ele>192.0</ele><time>2026-04-23T14:21:30.006Z</time></trkpt><trkpt lat="43.7927567" lon="11.3590533"><ele>192.0</ele><time>2026-04-23T14:21:31.007Z</time></trkpt><trkpt lat="43.7926817" lon="11.3590583"><ele>192.0</ele><time>2026-04-23T14:21:32.006Z</time></trkpt><trkpt lat="43.7925667" lon="11.359085"><ele>192.0</ele><time>2026-04-23T14:21:34.007Z</time></trkpt><trkpt lat="43.79247" lon="11.3591033"><ele>192.0</ele><time>2026-04-23T14:21:36.006Z</time></trkpt><trkpt lat="43.7924017" lon="11.35919"><ele>192.0</ele><time>2026-04-23T14:21:38.006Z</time></trkpt><trkpt lat="43.7923183" lon="11.3593317"><ele>191.83333333333334</ele><time>2026-04-23T14:21:40.006Z</time></trkpt><trkpt lat="43.79227" lon="11.359425"><ele>191.66666666666666</ele><time>2026-04-23T14:21:41.006Z</time></trkpt><trkpt lat="43.7922133" lon="11.35953"><ele>191.5</ele><time>2026-04-23T14:21:42.006Z</time></trkpt><trkpt lat="43.79216" lon="11.3596367"><ele>191.33333333333331</ele><time>2026-04-23T14:21:43.006Z</time></trkpt><trkpt lat="43.7921083" lon="11.359725"><ele>191.16666666666666</ele><time>2026-04-23T14:21:44.007Z</time></trkpt><trkpt lat="43.79206" lon="11.359805"><ele>191.0</ele><time>2026-04-23T14:21:45.007Z</time></trkpt><trkpt lat="43.7920167" lon="11.359875"><ele>191.0</ele><time>2026-04-23T14:21:46.006Z</time></trkpt><trkpt lat="43.79195" lon="11.3599617"><ele>191.0</ele><time>2026-04-23T14:21:48.007Z</time></trkpt><trkpt lat="43.791885" lon="11.3600233"><ele>191.0</ele><time>2026-04-23T14:21:50.007Z</time></trkpt><trkpt lat="43.7918267" lon="11.3600733"><ele>191.0</ele><time>2026-04-23T14:22:12.006Z</time></trkpt><trkpt lat="43.79177" lon="11.3601267"><ele>191.0</ele><time>2026-04-23T14:22:13.007Z</time></trkpt><trkpt lat="43.791705" lon="11.3601783"><ele>191.0</ele><time>2026-04-23T14:22:14.006Z</time></trkpt><trkpt lat="43.7915717" lon="11.360265"><ele>191.0</ele><time>2026-04-23T14:22:16.006Z</time></trkpt><trkpt lat="43.791495" lon="11.3603117"><ele>191.0</ele><time>2026-04-23T14:22:17.007Z</time></trkpt><trkpt lat="43.79142" lon="11.360345"><ele>191.0</ele><time>2026-04-23T14:22:18.006Z</time></trkpt><trkpt lat="43.7913383" lon="11.360375"><ele>191.0</ele><time>2026-04-23T14:22:19.006Z</time></trkpt><trkpt lat="43.7912583" lon="11.3604267"><ele>191.0</ele><time>2026-04-23T14:22:20.006Z</time></trkpt><trkpt lat="43.7911883" lon="11.360465"><ele>191.0</ele><time>2026-04-23T14:22:21.007Z</time></trkpt><trkpt lat="43.791125" lon="11.360505"><ele>191.83333333333331</ele><time>2026-04-23T14:22:22.007Z</time></trkpt><trkpt lat="43.79105" lon="11.360535"><ele>192.66666666666666</ele><time>2026-04-23T14:22:23.006Z</time></trkpt><trkpt lat="43.79097" lon="11.3605683"><ele>193.5</ele><time>2026-04-23T14:22:24.006Z</time></trkpt><trkpt lat="43.7908867" lon="11.3605917"><ele>194.33333333333331</ele><time>2026-04-23T14:22:25.006Z</time></trkpt><trkpt lat="43.790805" lon="11.36062"><ele>195.16666666666666</ele><time>2026-04-23T14:22:26.006Z</time></trkpt><trkpt lat="43.7907283" lon="11.36064"><ele>196.0</ele><time>2026-04-23T14:22:27.006Z</time></trkpt><trkpt lat="43.790655" lon="11.3606633"><ele>196.0</ele><time>2026-04-23T14:22:28.006Z</time></trkpt><trkpt lat="43.790535" lon="11.360705"><ele>196.0</ele><time>2026-04-23T14:22:30.006Z</time></trkpt><trkpt lat="43.7904317" lon="11.36075"><ele>196.0</ele><time>2026-04-23T14:22:32.006Z</time></trkpt><trkpt lat="43.7903317" lon="11.3608433"><ele>196.0</ele><time>2026-04-23T14:22:34.006Z</time></trkpt><trkpt lat="43.7902833" lon="11.36091"><ele>196.0</ele><time>2026-04-23T14:22:35.006Z</time></trkpt><trkpt lat="43.7902383" lon="11.3609883"><ele>195.99999999999997</ele><time>2026-04-23T14:22:36.006Z</time></trkpt><trkpt lat="43.790195" lon="11.3610683"><ele>196.0</ele><time>2026-04-23T14:22:37.007Z</time></trkpt><trkpt lat="43.79016" lon="11.3611617"><ele>196.0</ele><time>2026-04-23T14:22:38.006Z</time></trkpt><trkpt lat="43.7901183" lon="11.3613"><ele>196.0</ele><time>2026-04-23T14:22:40.006Z</time></trkpt><trkpt lat="43.7900767" lon="11.3613917"><ele>195.99999999999997</ele><time>2026-04-23T14:22:43.006Z</time></trkpt><trkpt lat="43.7900467" lon="11.361305"><ele>196.0</ele><time>2026-04-23T14:22:47.006Z</time></trkpt><trkpt lat="43.7900317" lon="11.3612183"><ele>193.16666666666666</ele><time>2026-04-23T14:22:49.006Z</time></trkpt><trkpt lat="43.7900383" lon="11.3610583"><ele>190.33333333333331</ele><time>2026-04-23T14:22:51.007Z</time></trkpt><trkpt lat="43.7900467" lon="11.36096"><ele>187.5</ele><time>2026-04-23T14:22:52.006Z</time></trkpt><trkpt lat="43.7900567" lon="11.3608467"><ele>184.66666666666666</ele><time>2026-04-23T14:22:53.006Z</time></trkpt><trkpt lat="43.7900583" lon="11.3607283"><ele>181.83333333333331</ele><time>2026-04-23T14:22:54.007Z</time></trkpt><trkpt lat="43.7900633" lon="11.3606167"><ele>179.0</ele><time>2026-04-23T14:22:55.007Z</time></trkpt><trkpt lat="43.7900733" lon="11.36052"><ele>176.2</ele><time>2026-04-23T14:22:56.006Z</time></trkpt><trkpt lat="43.790085" lon="11.3604283"><ele>173.39999999999998</ele><time>2026-04-23T14:22:57.006Z</time></trkpt><trkpt lat="43.790125" lon="11.3602417"><ele>170.6</ele><time>2026-04-23T14:22:59.006Z</time></trkpt><trkpt lat="43.7900933" lon="11.3601517"><ele>167.8</ele><time>2026-04-23T14:23:02.006Z</time></trkpt><trkpt lat="43.7900417" lon="11.36022"><ele>165.0</ele><time>2026-04-23T14:23:04.006Z</time></trkpt><trkpt lat="43.7899867" lon="11.36038"><ele>165.00000000000003</ele><time>2026-04-23T14:23:06.006Z</time></trkpt><trkpt lat="43.7899583" lon="11.3604717"><ele>165.0</ele><time>2026-04-23T14:23:07.006Z</time></trkpt><trkpt lat="43.789925" lon="11.3605667"><ele>165.0</ele><time>2026-04-23T14:23:08.006Z</time></trkpt><trkpt lat="43.789885" lon="11.360655"><ele>165.0</ele><time>2026-04-23T14:23:09.006Z</time></trkpt><trkpt lat="43.7898417" lon="11.3607367"><ele>165.0</ele><time>2026-04-23T14:23:10.006Z</time></trkpt><trkpt lat="43.7897967" lon="11.36081"><ele>165.00000000000003</ele><time>2026-04-23T14:23:11.007Z</time></trkpt><trkpt lat="43.7897483" lon="11.3608783"><ele>165.0</ele><time>2026-04-23T14:23:12.006Z</time></trkpt><trkpt lat="43.7896967" lon="11.3609317"><ele>167.8</ele><time>2026-04-23T14:23:13.006Z</time></trkpt><trkpt lat="43.78961" lon="11.361025"><ele>170.6</ele><time>2026-04-23T14:23:15.006Z</time></trkpt><trkpt lat="43.7895583" lon="11.3611183"><ele>173.39999999999998</ele><time>2026-04-23T14:23:17.007Z</time></trkpt><trkpt lat="43.789535" lon="11.3612733"><ele>176.2</ele><time>2026-04-23T14:23:19.007Z</time></trkpt><trkpt lat="43.7895167" lon="11.3613983"><ele>179.0</ele><time>2026-04-23T14:23:20.007Z</time></trkpt><trkpt lat="43.789495" lon="11.3615467"><ele>180.25</ele><time>2026-04-23T14:23:21.006Z</time></trkpt><trkpt lat="43.7894683" lon="11.3617017"><ele>181.5</ele><time>2026-04-23T14:23:22.007Z</time></trkpt><trkpt lat="43.7894383" lon="11.3618517"><ele>182.75</ele><time>2026-04-23T14:23:23.006Z</time></trkpt><trkpt lat="43.78941" lon="11.3620217"><ele>184.0</ele><time>2026-04-23T14:23:24.006Z</time></trkpt><trkpt lat="43.7893767" lon="11.3621967"><ele>183.2</ele><time>2026-04-23T14:23:25.007Z</time></trkpt><trkpt lat="43.78936" lon="11.3623667"><ele>182.39999999999998</ele><time>2026-04-23T14:23:26.006Z</time></trkpt><trkpt lat="43.7893383" lon="11.3625167"><ele>181.6</ele><time>2026-04-23T14:23:27.006Z</time></trkpt><trkpt lat="43.78931" lon="11.3626517"><ele>180.8</ele><time>2026-04-23T14:23:28.006Z</time></trkpt><trkpt lat="43.789275" lon="11.3627917"><ele>180.0</ele><time>2026-04-23T14:23:29.006Z</time></trkpt><trkpt lat="43.7892183" lon="11.3629283"><ele>173.6</ele><time>2026-04-23T14:23:30.006Z</time></trkpt><trkpt lat="43.7891683" lon="11.36306"><ele>167.2</ele><time>2026-04-23T14:23:31.006Z</time></trkpt><trkpt lat="43.78911" lon="11.3631767"><ele>160.8</ele><time>2026-04-23T14:23:32.006Z</time></trkpt><trkpt lat="43.7890467" lon="11.363275"><ele>154.4</ele><time>2026-04-23T14:23:33.006Z</time></trkpt><trkpt lat="43.7889683" lon="11.3633617"><ele>148.0</ele><time>2026-04-23T14:23:34.007Z</time></trkpt><trkpt lat="43.7888717" lon="11.3634333"><ele>148.0</ele><time>2026-04-23T14:23:35.006Z</time></trkpt><trkpt lat="43.78877" lon="11.36351"><ele>148.0</ele><time>2026-04-23T14:23:36.007Z</time></trkpt><trkpt lat="43.7886683" lon="11.3636067"><ele>148.0</ele><time>2026-04-23T14:23:37.007Z</time></trkpt><trkpt lat="43.7885717" lon="11.3636983"><ele>148.0</ele><time>2026-04-23T14:23:38.006Z</time></trkpt><trkpt lat="43.7884817" lon="11.3637917"><ele>143.8</ele><time>2026-04-23T14:23:39.007Z</time></trkpt><trkpt lat="43.7883917" lon="11.3638767"><ele>139.60000000000002</ele><time>2026-04-23T14:23:40.006Z</time></trkpt><trkpt lat="43.7882933" lon="11.36395"><ele>135.39999999999998</ele><time>2026-04-23T14:23:41.006Z</time></trkpt><trkpt lat="43.7882" lon="11.36402"><ele>131.2</ele><time>2026-04-23T14:23:42.007Z</time></trkpt><trkpt lat="43.78811" lon="11.3640883"><ele>127.0</ele><time>2026-04-23T14:23:43.006Z</time></trkpt><trkpt lat="43.78803" lon="11.3641517"><ele>127.0</ele><time>2026-04-23T14:23:44.006Z</time></trkpt><trkpt lat="43.7879583" lon="11.3641983"><ele>126.99999999999999</ele><time>2026-04-23T14:23:45.007Z</time></trkpt><trkpt lat="43.7878733" lon="11.36426"><ele>126.99999999999999</ele><time>2026-04-23T14:23:47.006Z</time></trkpt><trkpt lat="43.7879233" lon="11.3643783"><ele>127.0</ele><time>2026-04-23T14:23:50.006Z</time></trkpt><trkpt lat="43.7880033" lon="11.3645167"><ele>127.0</ele><time>2026-04-23T14:23:52.007Z</time></trkpt><trkpt lat="43.7880333" lon="11.3646233"><ele>125.83333333333334</ele><time>2026-04-23T14:23:53.006Z</time></trkpt><trkpt lat="43.7880633" lon="11.3647467"><ele>124.66666666666667</ele><time>2026-04-23T14:23:54.006Z</time></trkpt><trkpt lat="43.7880933" lon="11.3648717"><ele>123.5</ele><time>2026-04-23T14:23:55.007Z</time></trkpt><trkpt lat="43.7881183" lon="11.3649817"><ele>122.33333333333334</ele><time>2026-04-23T14:23:56.006Z</time></trkpt><trkpt lat="43.7881367" lon="11.3650667"><ele>121.16666666666667</ele><time>2026-04-23T14:23:57.006Z</time></trkpt><trkpt lat="43.7881817" lon="11.3651483"><ele>120.0</ele><time>2026-04-23T14:24:00.006Z</time></trkpt><trkpt lat="43.7882667" lon="11.3650533"><ele>120.0</ele><time>2026-04-23T14:24:07.006Z</time></trkpt><trkpt lat="43.7883233" lon="11.3650067"><ele>120.0</ele><time>2026-04-23T14:24:09.007Z</time></trkpt><trkpt lat="43.7882633" lon="11.3650483"><ele>120.0</ele><time>2026-04-23T14:24:34.006Z</time></trkpt><trkpt lat="43.7882067" lon="11.365115"><ele>120.0</ele><time>2026-04-23T14:24:37.007Z</time></trkpt><trkpt lat="43.7881667" lon="11.365285"><ele>120.0</ele><time>2026-04-23T14:27:08.007Z</time></trkpt><trkpt lat="43.7881433" lon="11.3653783"><ele>120.0</ele><time>2026-04-23T14:27:09.007Z</time></trkpt><trkpt lat="43.7881317" lon="11.3655"><ele>120.25</ele><time>2026-04-23T14:27:10.006Z</time></trkpt><trkpt lat="43.7881367" lon="11.365665"><ele>120.5</ele><time>2026-04-23T14:27:11.007Z</time></trkpt><trkpt lat="43.788145" lon="11.3658383"><ele>120.75</ele><time>2026-04-23T14:27:12.006Z</time></trkpt><trkpt lat="43.78814" lon="11.3660167"><ele>121.0</ele><time>2026-04-23T14:27:13.007Z</time></trkpt><trkpt lat="43.7881183" lon="11.36618"><ele>121.00000000000001</ele><time>2026-04-23T14:27:14.006Z</time></trkpt><trkpt lat="43.7880933" lon="11.3663283"><ele>121.0</ele><time>2026-04-23T14:27:15.007Z</time></trkpt><trkpt lat="43.78807" lon="11.3664567"><ele>121.0</ele><time>2026-04-23T14:27:16.006Z</time></trkpt><trkpt lat="43.78804" lon="11.366565"><ele>121.0</ele><time>2026-04-23T14:27:17.006Z</time></trkpt><trkpt lat="43.7879967" lon="11.366655"><ele>121.00000000000001</ele><time>2026-04-23T14:27:18.006Z</time></trkpt><trkpt lat="43.7879533" lon="11.3667367"><ele>121.0</ele><time>2026-04-23T14:27:19.006Z</time></trkpt><trkpt lat="43.787915" lon="11.3668333"><ele>121.19999999999999</ele><time>2026-04-23T14:27:20.006Z</time></trkpt><trkpt lat="43.78787" lon="11.3669683"><ele>121.39999999999999</ele><time>2026-04-23T14:27:21.006Z</time></trkpt><trkpt lat="43.7878467" lon="11.367115"><ele>121.6</ele><time>2026-04-23T14:27:22.006Z</time></trkpt><trkpt lat="43.7878283" lon="11.3672467"><ele>121.8</ele><time>2026-04-23T14:27:23.006Z</time></trkpt><trkpt lat="43.787805" lon="11.36737"><ele>122.0</ele><time>2026-04-23T14:27:24.007Z</time></trkpt><trkpt lat="43.7877767" lon="11.367465"><ele>121.39999999999999</ele><time>2026-04-23T14:27:25.006Z</time></trkpt><trkpt lat="43.7877567" lon="11.3675567"><ele>120.79999999999998</ele><time>2026-04-23T14:27:26.007Z</time></trkpt><trkpt lat="43.787725" lon="11.367685"><ele>120.2</ele><time>2026-04-23T14:27:28.006Z</time></trkpt><trkpt lat="43.7877317" lon="11.3678283"><ele>119.6</ele><time>2026-04-23T14:27:45.006Z</time></trkpt><trkpt lat="43.7877567" lon="11.3679533"><ele>119.0</ele><time>2026-04-23T14:27:46.006Z</time></trkpt><trkpt lat="43.7877933" lon="11.3680817"><ele>118.6</ele><time>2026-04-23T14:27:47.006Z</time></trkpt><trkpt lat="43.7878483" lon="11.3682467"><ele>118.2</ele><time>2026-04-23T14:27:48.006Z</time></trkpt><trkpt lat="43.7879033" lon="11.36838"><ele>117.79999999999998</ele><time>2026-04-23T14:27:49.006Z</time></trkpt><trkpt lat="43.7879533" lon="11.36851"><ele>117.39999999999999</ele><time>2026-04-23T14:27:50.006Z</time></trkpt><trkpt lat="43.787995" lon="11.3686317"><ele>117.0</ele><time>2026-04-23T14:27:51.007Z</time></trkpt><trkpt lat="43.7880433" lon="11.368725"><ele>117.0</ele><time>2026-04-23T14:27:52.007Z</time></trkpt><trkpt lat="43.7881133" lon="11.36881"><ele>116.99999999999999</ele><time>2026-04-23T14:27:53.006Z</time></trkpt><trkpt lat="43.78819" lon="11.3688883"><ele>116.99999999999999</ele><time>2026-04-23T14:27:54.007Z</time></trkpt><trkpt lat="43.788285" lon="11.3689783"><ele>117.0</ele><time>2026-04-23T14:27:55.006Z</time></trkpt><trkpt lat="43.788395" lon="11.3690883"><ele>117.0</ele><time>2026-04-23T14:27:56.007Z</time></trkpt><trkpt lat="43.7885017" lon="11.3692033"><ele>117.75</ele><time>2026-04-23T14:27:57.007Z</time></trkpt><trkpt lat="43.7886033" lon="11.3693267"><ele>118.5</ele><time>2026-04-23T14:27:58.006Z</time></trkpt><trkpt lat="43.788705" lon="11.3694633"><ele>119.25</ele><time>2026-04-23T14:27:59.007Z</time></trkpt><trkpt lat="43.7888017" lon="11.36962"><ele>120.0</ele><time>2026-04-23T14:28:00.007Z</time></trkpt><trkpt lat="43.7888833" lon="11.3697833"><ele>120.0</ele><time>2026-04-23T14:28:01.006Z</time></trkpt><trkpt lat="43.78895" lon="11.36992"><ele>120.0</ele><time>2026-04-23T14:28:02.006Z</time></trkpt><trkpt lat="43.78901" lon="11.3700467"><ele>120.0</ele><time>2026-04-23T14:28:03.006Z</time></trkpt><trkpt lat="43.7890617" lon="11.37016"><ele>120.0</ele><time>2026-04-23T14:28:04.006Z</time></trkpt><trkpt lat="43.789125" lon="11.3702517"><ele>120.0</ele><time>2026-04-23T14:28:05.006Z</time></trkpt><trkpt lat="43.789215" lon="11.3703233"><ele>120.0</ele><time>2026-04-23T14:28:06.006Z</time></trkpt><trkpt lat="43.78933" lon="11.3703917"><ele>120.0</ele><time>2026-04-23T14:28:07.007Z</time></trkpt><trkpt lat="43.7894483" lon="11.3704583"><ele>120.0</ele><time>2026-04-23T14:28:08.006Z</time></trkpt><trkpt lat="43.789555" lon="11.37054"><ele>120.0</ele><time>2026-04-23T14:28:09.006Z</time></trkpt><trkpt lat="43.78963" lon="11.3706517"><ele>121.75</ele><time>2026-04-23T14:28:10.007Z</time></trkpt><trkpt lat="43.7896933" lon="11.370785"><ele>123.5</ele><time>2026-04-23T14:28:11.006Z</time></trkpt><trkpt lat="43.7897533" lon="11.370965"><ele>125.25</ele><time>2026-04-23T14:28:12.006Z</time></trkpt><trkpt lat="43.789795" lon="11.371175"><ele>127.0</ele><time>2026-04-23T14:28:13.006Z</time></trkpt><trkpt lat="43.7898333" lon="11.37139"><ele>127.5</ele><time>2026-04-23T14:28:14.006Z</time></trkpt><trkpt lat="43.7898767" lon="11.3715783"><ele>128.0</ele><time>2026-04-23T14:28:15.006Z</time></trkpt><trkpt lat="43.7899117" lon="11.3717517"><ele>128.5</ele><time>2026-04-23T14:28:16.007Z</time></trkpt><trkpt lat="43.789945" lon="11.3719317"><ele>129.0</ele><time>2026-04-23T14:28:17.006Z</time></trkpt><trkpt lat="43.7899783" lon="11.3720867"><ele>128.83333333333334</ele><time>2026-04-23T14:28:18.007Z</time></trkpt><trkpt lat="43.7900067" lon="11.3722083"><ele>128.66666666666666</ele><time>2026-04-23T14:28:19.006Z</time></trkpt><trkpt lat="43.7900367" lon="11.3723083"><ele>128.5</ele><time>2026-04-23T14:28:20.006Z</time></trkpt><trkpt lat="43.79007" lon="11.372395"><ele>128.33333333333331</ele><time>2026-04-23T14:28:21.006Z</time></trkpt><trkpt lat="43.790105" lon="11.3724817"><ele>128.16666666666666</ele><time>2026-04-23T14:28:22.006Z</time></trkpt><trkpt lat="43.7901633" lon="11.372625"><ele>128.0</ele><time>2026-04-23T14:28:24.007Z</time></trkpt><trkpt lat="43.79021" lon="11.3727333"><ele>130.20000000000002</ele><time>2026-04-23T14:28:26.007Z</time></trkpt><trkpt lat="43.790245" lon="11.3728533"><ele>132.4</ele><time>2026-04-23T14:28:28.006Z</time></trkpt><trkpt lat="43.7902817" lon="11.3729367"><ele>134.60000000000002</ele><time>2026-04-23T14:28:29.006Z</time></trkpt><trkpt lat="43.790335" lon="11.3730367"><ele>136.8</ele><time>2026-04-23T14:28:30.006Z</time></trkpt><trkpt lat="43.7904017" lon="11.3731483"><ele>139.0</ele><time>2026-04-23T14:28:31.007Z</time></trkpt><trkpt lat="43.7904833" lon="11.3732633"><ele>139.0</ele><time>2026-04-23T14:28:32.006Z</time></trkpt><trkpt lat="43.79057" lon="11.373375"><ele>139.0</ele><time>2026-04-23T14:28:33.006Z</time></trkpt><trkpt lat="43.7906683" lon="11.37348"><ele>139.0</ele><time>2026-04-23T14:28:34.006Z</time></trkpt><trkpt lat="43.7907717" lon="11.3735733"><ele>139.0</ele><time>2026-04-23T14:28:35.006Z</time></trkpt><trkpt lat="43.7908633" lon="11.3736633"><ele>139.0</ele><time>2026-04-23T14:28:36.006Z</time></trkpt><trkpt lat="43.7909433" lon="11.3737467"><ele>139.0</ele><time>2026-04-23T14:28:37.006Z</time></trkpt><trkpt lat="43.791005" lon="11.37382"><ele>139.0</ele><time>2026-04-23T14:28:38.007Z</time></trkpt><trkpt lat="43.791055" lon="11.3738983"><ele>139.0</ele><time>2026-04-23T14:28:39.006Z</time></trkpt><trkpt lat="43.79109" lon="11.3739783"><ele>139.0</ele><time>2026-04-23T14:28:40.006Z</time></trkpt><trkpt lat="43.7911133" lon="11.374085"><ele>139.0</ele><time>2026-04-23T14:28:41.006Z</time></trkpt><trkpt lat="43.7911233" lon="11.374205"><ele>140.5</ele><time>2026-04-23T14:28:42.007Z</time></trkpt><trkpt lat="43.791135" lon="11.374325"><ele>142.0</ele><time>2026-04-23T14:28:43.006Z</time></trkpt><trkpt lat="43.7911467" lon="11.3744233"><ele>143.5</ele><time>2026-04-23T14:28:44.006Z</time></trkpt><trkpt lat="43.79118" lon="11.3745083"><ele>145.0</ele><time>2026-04-23T14:28:45.006Z</time></trkpt><trkpt lat="43.7912467" lon="11.3745633"><ele>146.5</ele><time>2026-04-23T14:28:46.006Z</time></trkpt><trkpt lat="43.7913233" lon="11.374595"><ele>148.0</ele><time>2026-04-23T14:28:47.007Z</time></trkpt><trkpt lat="43.79141" lon="11.3746083"><ele>148.0</ele><time>2026-04-23T14:28:48.006Z</time></trkpt><trkpt lat="43.791505" lon="11.3745583"><ele>148.0</ele><time>2026-04-23T14:28:49.006Z</time></trkpt><trkpt lat="43.7916017" lon="11.3744717"><ele>148.0</ele><time>2026-04-23T14:28:50.006Z</time></trkpt><trkpt lat="43.7916917" lon="11.3744033"><ele>148.0</ele><time>2026-04-23T14:28:51.006Z</time></trkpt><trkpt lat="43.7917733" lon="11.37438"><ele>148.0</ele><time>2026-04-23T14:28:52.006Z</time></trkpt><trkpt lat="43.79184" lon="11.3743633"><ele>149.33333333333334</ele><time>2026-04-23T14:28:53.006Z</time></trkpt><trkpt lat="43.7919067" lon="11.3743517"><ele>150.66666666666669</ele><time>2026-04-23T14:28:54.006Z</time></trkpt><trkpt lat="43.7919783" lon="11.374345"><ele>152.0</ele><time>2026-04-23T14:28:55.006Z</time></trkpt><trkpt lat="43.79206" lon="11.3743367"><ele>153.33333333333334</ele><time>2026-04-23T14:28:56.007Z</time></trkpt><trkpt lat="43.7921367" lon="11.3743267"><ele>154.66666666666666</ele><time>2026-04-23T14:28:57.006Z</time></trkpt><trkpt lat="43.7922167" lon="11.3743117"><ele>156.0</ele><time>2026-04-23T14:28:58.006Z</time></trkpt><trkpt lat="43.7922883" lon="11.3743033"><ele>156.0</ele><time>2026-04-23T14:28:59.006Z</time></trkpt><trkpt lat="43.7923583" lon="11.3742967"><ele>156.0</ele><time>2026-04-23T14:29:00.006Z</time></trkpt><trkpt lat="43.7924267" lon="11.37428"><ele>156.0</ele><time>2026-04-23T14:29:01.006Z</time></trkpt><trkpt lat="43.7925" lon="11.3742667"><ele>156.0</ele><time>2026-04-23T14:29:02.007Z</time></trkpt><trkpt lat="43.79258" lon="11.3742517"><ele>156.0</ele><time>2026-04-23T14:29:03.006Z</time></trkpt><trkpt lat="43.7926633" lon="11.3742183"><ele>156.0</ele><time>2026-04-23T14:29:04.006Z</time></trkpt><trkpt lat="43.7927533" lon="11.3741833"><ele>156.0</ele><time>2026-04-23T14:29:05.007Z</time></trkpt><trkpt lat="43.7928467" lon="11.3741433"><ele>156.0</ele><time>2026-04-23T14:29:06.006Z</time></trkpt><trkpt lat="43.792945" lon="11.3740983"><ele>156.0</ele><time>2026-04-23T14:29:07.006Z</time></trkpt><trkpt lat="43.793045" lon="11.3740483"><ele>156.0</ele><time>2026-04-23T14:29:08.006Z</time></trkpt><trkpt lat="43.7931433" lon="11.3739933"><ele>156.0</ele><time>2026-04-23T14:29:09.006Z</time></trkpt><trkpt lat="43.7932417" lon="11.3739317"><ele>156.0</ele><time>2026-04-23T14:29:10.006Z</time></trkpt><trkpt lat="43.7933417" lon="11.3738633"><ele>156.0</ele><time>2026-04-23T14:29:11.006Z</time></trkpt><trkpt lat="43.79344" lon="11.3737817"><ele>156.0</ele><time>2026-04-23T14:29:12.006Z</time></trkpt><trkpt lat="43.7935283" lon="11.3736867"><ele>156.0</ele><time>2026-04-23T14:29:13.006Z</time></trkpt><trkpt lat="43.793605" lon="11.37359"><ele>156.0</ele><time>2026-04-23T14:29:14.006Z</time></trkpt><trkpt lat="43.793675" lon="11.3735183"><ele>158.16666666666666</ele><time>2026-04-23T14:29:15.006Z</time></trkpt><trkpt lat="43.79373" lon="11.3734583"><ele>160.33333333333334</ele><time>2026-04-23T14:29:16.006Z</time></trkpt><trkpt lat="43.7938217" lon="11.37336"><ele>162.5</ele><time>2026-04-23T14:29:18.006Z</time></trkpt><trkpt lat="43.79388" lon="11.3733117"><ele>164.66666666666669</ele><time>2026-04-23T14:29:19.006Z</time></trkpt><trkpt lat="43.7939433" lon="11.373255"><ele>166.83333333333334</ele><time>2026-04-23T14:29:20.006Z</time></trkpt><trkpt lat="43.7940183" lon="11.373185"><ele>169.0</ele><time>2026-04-23T14:29:21.006Z</time></trkpt><trkpt lat="43.7940967" lon="11.3731167"><ele>169.0</ele><time>2026-04-23T14:29:22.006Z</time></trkpt><trkpt lat="43.7941767" lon="11.3730383"><ele>169.0</ele><time>2026-04-23T14:29:23.007Z</time></trkpt><trkpt lat="43.7942667" lon="11.3729533"><ele>169.0</ele><time>2026-04-23T14:29:24.006Z</time></trkpt><trkpt lat="43.7943617" lon="11.3728783"><ele>169.0</ele><time>2026-04-23T14:29:25.006Z</time></trkpt><trkpt lat="43.7944533" lon="11.3727967"><ele>169.0</ele><time>2026-04-23T14:29:26.006Z</time></trkpt><trkpt lat="43.7945467" lon="11.372725"><ele>171.0</ele><time>2026-04-23T14:29:27.006Z</time></trkpt><trkpt lat="43.7946367" lon="11.37268"><ele>173.0</ele><time>2026-04-23T14:29:28.007Z</time></trkpt><trkpt lat="43.79472" lon="11.372625"><ele>175.0</ele><time>2026-04-23T14:29:29.006Z</time></trkpt><trkpt lat="43.7948017" lon="11.3725867"><ele>177.0</ele><time>2026-04-23T14:29:30.006Z</time></trkpt><trkpt lat="43.79487" lon="11.3725517"><ele>179.0</ele><time>2026-04-23T14:29:31.006Z</time></trkpt><trkpt lat="43.79498" lon="11.3724633"><ele>179.0</ele><time>2026-04-23T14:29:33.006Z</time></trkpt><trkpt lat="43.7950383" lon="11.3723967"><ele>179.0</ele><time>2026-04-23T14:29:34.006Z</time></trkpt><trkpt lat="43.79511" lon="11.3723133"><ele>179.0</ele><time>2026-04-23T14:29:35.006Z</time></trkpt><trkpt lat="43.7951833" lon="11.372235"><ele>179.0</ele><time>2026-04-23T14:29:36.007Z</time></trkpt><trkpt lat="43.7952833" lon="11.3721483"><ele>179.0</ele><time>2026-04-23T14:29:37.006Z</time></trkpt><trkpt lat="43.7954033" lon="11.372075"><ele>182.0</ele><time>2026-04-23T14:29:38.006Z</time></trkpt><trkpt lat="43.795515" lon="11.3719967"><ele>185.0</ele><time>2026-04-23T14:29:39.006Z</time></trkpt><trkpt lat="43.79562" lon="11.3719117"><ele>188.0</ele><time>2026-04-23T14:29:40.007Z</time></trkpt><trkpt lat="43.79571" lon="11.3718467"><ele>191.0</ele><time>2026-04-23T14:29:41.006Z</time></trkpt><trkpt lat="43.7957817" lon="11.37178"><ele>194.0</ele><time>2026-04-23T14:29:42.006Z</time></trkpt><trkpt lat="43.795845" lon="11.3716833"><ele>194.00000000000003</ele><time>2026-04-23T14:29:43.006Z</time></trkpt><trkpt lat="43.7959133" lon="11.3715983"><ele>194.0</ele><time>2026-04-23T14:29:44.007Z</time></trkpt><trkpt lat="43.7959633" lon="11.3715183"><ele>194.0</ele><time>2026-04-23T14:29:45.006Z</time></trkpt><trkpt lat="43.7960167" lon="11.3714417"><ele>194.0</ele><time>2026-04-23T14:29:46.006Z</time></trkpt><trkpt lat="43.7960933" lon="11.3713833"><ele>194.00000000000003</ele><time>2026-04-23T14:29:47.006Z</time></trkpt><trkpt lat="43.7961783" lon="11.371335"><ele>194.0</ele><time>2026-04-23T14:29:48.006Z</time></trkpt><trkpt lat="43.7962783" lon="11.3713033"><ele>199.75</ele><time>2026-04-23T14:29:49.007Z</time></trkpt><trkpt lat="43.7963967" lon="11.3712867"><ele>205.5</ele><time>2026-04-23T14:29:50.006Z</time></trkpt><trkpt lat="43.79652" lon="11.3712767"><ele>211.25</ele><time>2026-04-23T14:29:51.006Z</time></trkpt><trkpt lat="43.7966483" lon="11.371255"><ele>217.0</ele><time>2026-04-23T14:29:52.006Z</time></trkpt><trkpt lat="43.79677" lon="11.37124"><ele>214.83333333333331</ele><time>2026-04-23T14:29:53.006Z</time></trkpt><trkpt lat="43.7968833" lon="11.371215"><ele>212.66666666666666</ele><time>2026-04-23T14:29:54.006Z</time></trkpt><trkpt lat="43.7969733" lon="11.371185"><ele>210.5</ele><time>2026-04-23T14:29:55.006Z</time></trkpt><trkpt lat="43.7970483" lon="11.37116"><ele>208.33333333333331</ele><time>2026-04-23T14:29:56.006Z</time></trkpt><trkpt lat="43.7971317" lon="11.371125"><ele>206.16666666666666</ele><time>2026-04-23T14:29:58.006Z</time></trkpt><trkpt lat="43.7971967" lon="11.37108"><ele>204.0</ele><time>2026-04-23T14:30:02.006Z</time></trkpt><trkpt lat="43.7971" lon="11.3711217"><ele>204.0</ele><time>2026-04-23T14:33:14.006Z</time></trkpt><trkpt lat="43.796965" lon="11.3711717"><ele>204.0</ele><time>2026-04-23T14:33:16.007Z</time></trkpt><trkpt lat="43.7968783" lon="11.3712033"><ele>204.0</ele><time>2026-04-23T14:33:17.006Z</time></trkpt><trkpt lat="43.79679" lon="11.371225"><ele>204.0</ele><time>2026-04-23T14:33:18.006Z</time></trkpt><trkpt lat="43.7966883" lon="11.37125"><ele>204.0</ele><time>2026-04-23T14:33:19.006Z</time></trkpt><trkpt lat="43.7965783" lon="11.3712867"><ele>206.6</ele><time>2026-04-23T14:33:20.006Z</time></trkpt><trkpt lat="43.7964683" lon="11.371325"><ele>209.2</ele><time>2026-04-23T14:33:21.006Z</time></trkpt><trkpt lat="43.7963617" lon="11.3713533"><ele>211.79999999999998</ele><time>2026-04-23T14:33:22.006Z</time></trkpt><trkpt lat="43.796255" lon="11.3713833"><ele>214.39999999999998</ele><time>2026-04-23T14:33:23.007Z</time></trkpt><trkpt lat="43.7961633" lon="11.3714117"><ele>217.0</ele><time>2026-04-23T14:33:24.006Z</time></trkpt><trkpt lat="43.7960883" lon="11.3714633"><ele>212.39999999999998</ele><time>2026-04-23T14:33:25.006Z</time></trkpt><trkpt lat="43.7960167" lon="11.371535"><ele>207.79999999999998</ele><time>2026-04-23T14:33:26.006Z</time></trkpt><trkpt lat="43.7959467" lon="11.3716083"><ele>203.2</ele><time>2026-04-23T14:33:27.006Z</time></trkpt><trkpt lat="43.7958883" lon="11.3717067"><ele>198.6</ele><time>2026-04-23T14:33:28.006Z</time></trkpt><trkpt lat="43.7958267" lon="11.3718017"><ele>194.0</ele><time>2026-04-23T14:33:29.006Z</time></trkpt><trkpt lat="43.7957483" lon="11.37188"><ele>194.0</ele><time>2026-04-23T14:33:30.006Z</time></trkpt><trkpt lat="43.7956583" lon="11.37195"><ele>194.0</ele><time>2026-04-23T14:33:31.006Z</time></trkpt><trkpt lat="43.795565" lon="11.37202"><ele>194.0</ele><time>2026-04-23T14:33:32.006Z</time></trkpt><trkpt lat="43.7954683" lon="11.372085"><ele>194.0</ele><time>2026-04-23T14:33:33.006Z</time></trkpt><trkpt lat="43.7953683" lon="11.3721533"><ele>194.0</ele><time>2026-04-23T14:33:34.007Z</time></trkpt><trkpt lat="43.795275" lon="11.3722267"><ele>191.0</ele><time>2026-04-23T14:33:35.006Z</time></trkpt><trkpt lat="43.7951983" lon="11.37231"><ele>188.0</ele><time>2026-04-23T14:33:36.006Z</time></trkpt><trkpt lat="43.7951233" lon="11.3723983"><ele>185.0</ele><time>2026-04-23T14:33:37.006Z</time></trkpt><trkpt lat="43.79505" lon="11.3724917"><ele>182.0</ele><time>2026-04-23T14:33:38.006Z</time></trkpt><trkpt lat="43.7949833" lon="11.37259"><ele>179.0</ele><time>2026-04-23T14:33:39.006Z</time></trkpt><trkpt lat="43.7949017" lon="11.3726817"><ele>179.0</ele><time>2026-04-23T14:33:40.007Z</time></trkpt><trkpt lat="43.7948083" lon="11.37276"><ele>179.0</ele><time>2026-04-23T14:33:41.007Z</time></trkpt><trkpt lat="43.7947083" lon="11.3728317"><ele>179.0</ele><time>2026-04-23T14:33:42.006Z</time></trkpt><trkpt lat="43.7945933" lon="11.3729133"><ele>179.0</ele><time>2026-04-23T14:33:43.006Z</time></trkpt><trkpt lat="43.7944667" lon="11.373"><ele>176.5</ele><time>2026-04-23T14:33:44.006Z</time></trkpt><trkpt lat="43.7943383" lon="11.373095"><ele>174.0</ele><time>2026-04-23T14:33:45.006Z</time></trkpt><trkpt lat="43.79421" lon="11.3732"><ele>171.5</ele><time>2026-04-23T14:33:46.006Z</time></trkpt><trkpt lat="43.7940833" lon="11.3732967"><ele>169.0</ele><time>2026-04-23T14:33:47.006Z</time></trkpt><trkpt lat="43.7939567" lon="11.373375"><ele>169.0</ele><time>2026-04-23T14:33:48.006Z</time></trkpt><trkpt lat="43.7938283" lon="11.3734517"><ele>169.0</ele><time>2026-04-23T14:33:49.006Z</time></trkpt><trkpt lat="43.7937117" lon="11.3735333"><ele>169.0</ele><time>2026-04-23T14:33:50.006Z</time></trkpt><trkpt lat="43.79361" lon="11.3736233"><ele>169.0</ele><time>2026-04-23T14:33:51.007Z</time></trkpt><trkpt lat="43.7935217" lon="11.3737167"><ele>170.0</ele><time>2026-04-23T14:33:52.007Z</time></trkpt><trkpt lat="43.7934317" lon="11.3738"><ele>171.0</ele><time>2026-04-23T14:33:53.006Z</time></trkpt><trkpt lat="43.79333" lon="11.3738717"><ele>172.0</ele><time>2026-04-23T14:33:54.007Z</time></trkpt><trkpt lat="43.7932133" lon="11.3739267"><ele>173.0</ele><time>2026-04-23T14:33:55.006Z</time></trkpt><trkpt lat="43.7930933" lon="11.3739883"><ele>168.75</ele><time>2026-04-23T14:33:56.006Z</time></trkpt><trkpt lat="43.7929733" lon="11.3740417"><ele>164.5</ele><time>2026-04-23T14:33:57.007Z</time></trkpt><trkpt lat="43.79286" lon="11.3741033"><ele>160.25</ele><time>2026-04-23T14:33:58.007Z</time></trkpt><trkpt lat="43.7927483" lon="11.37416"><ele>156.0</ele><time>2026-04-23T14:33:59.008Z</time></trkpt><trkpt lat="43.7926367" lon="11.3742117"><ele>156.0</ele><time>2026-04-23T14:34:00.007Z</time></trkpt><trkpt lat="43.792525" lon="11.3742533"><ele>156.0</ele><time>2026-04-23T14:34:01.007Z</time></trkpt><trkpt lat="43.792425" lon="11.374275"><ele>156.0</ele><time>2026-04-23T14:34:02.007Z</time></trkpt><trkpt lat="43.7923333" lon="11.3742917"><ele>156.0</ele><time>2026-04-23T14:34:03.007Z</time></trkpt><trkpt lat="43.7922433" lon="11.3742983"><ele>156.0</ele><time>2026-04-23T14:34:04.007Z</time></trkpt><trkpt lat="43.7921583" lon="11.3743"><ele>156.0</ele><time>2026-04-23T14:34:05.007Z</time></trkpt><trkpt lat="43.7920733" lon="11.3743067"><ele>156.0</ele><time>2026-04-23T14:34:06.007Z</time></trkpt><trkpt lat="43.7919933" lon="11.3743117"><ele>156.0</ele><time>2026-04-23T14:34:07.007Z</time></trkpt><trkpt lat="43.7919117" lon="11.3743267"><ele>156.0</ele><time>2026-04-23T14:34:08.008Z</time></trkpt><trkpt lat="43.7918233" lon="11.374345"><ele>156.0</ele><time>2026-04-23T14:34:09.007Z</time></trkpt><trkpt lat="43.7917333" lon="11.37438"><ele>156.0</ele><time>2026-04-23T14:34:10.008Z</time></trkpt><trkpt lat="43.7916517" lon="11.3744233"><ele>154.66666666666666</ele><time>2026-04-23T14:34:11.007Z</time></trkpt><trkpt lat="43.7915733" lon="11.3744733"><ele>153.33333333333334</ele><time>2026-04-23T14:34:12.007Z</time></trkpt><trkpt lat="43.791505" lon="11.3745267"><ele>152.0</ele><time>2026-04-23T14:34:13.008Z</time></trkpt><trkpt lat="43.7914283" lon="11.374565"><ele>150.66666666666669</ele><time>2026-04-23T14:34:14.007Z</time></trkpt><trkpt lat="43.7913433" lon="11.37457"><ele>149.33333333333334</ele><time>2026-04-23T14:34:15.008Z</time></trkpt><trkpt lat="43.791265" lon="11.37455"><ele>148.0</ele><time>2026-04-23T14:34:16.007Z</time></trkpt><trkpt lat="43.7912083" lon="11.3745033"><ele>148.0</ele><time>2026-04-23T14:34:17.007Z</time></trkpt><trkpt lat="43.7911683" lon="11.374435"><ele>148.0</ele><time>2026-04-23T14:34:18.008Z</time></trkpt><trkpt lat="43.7911367" lon="11.3743433"><ele>148.0</ele><time>2026-04-23T14:34:19.008Z</time></trkpt><trkpt lat="43.791115" lon="11.374225"><ele>148.0</ele><time>2026-04-23T14:34:20.007Z</time></trkpt><trkpt lat="43.7910967" lon="11.3740917"><ele>148.0</ele><time>2026-04-23T14:34:21.007Z</time></trkpt><trkpt lat="43.791075" lon="11.3739567"><ele>148.0</ele><time>2026-04-23T14:34:22.007Z</time></trkpt><trkpt lat="43.7910383" lon="11.3738467"><ele>145.75</ele><time>2026-04-23T14:34:23.007Z</time></trkpt><trkpt lat="43.7909633" lon="11.3737617"><ele>143.5</ele><time>2026-04-23T14:34:24.008Z</time></trkpt><trkpt lat="43.79086" lon="11.3736717"><ele>141.25</ele><time>2026-04-23T14:34:25.007Z</time></trkpt><trkpt lat="43.79075" lon="11.3735633"><ele>139.0</ele><time>2026-04-23T14:34:26.007Z</time></trkpt><trkpt lat="43.7906483" lon="11.3734517"><ele>139.0</ele><time>2026-04-23T14:34:27.008Z</time></trkpt><trkpt lat="43.7905667" lon="11.3733483"><ele>139.0</ele><time>2026-04-23T14:34:28.007Z</time></trkpt><trkpt lat="43.790495" lon="11.3732583"><ele>139.0</ele><time>2026-04-23T14:34:29.007Z</time></trkpt><trkpt lat="43.790435" lon="11.3731717"><ele>139.0</ele><time>2026-04-23T14:34:30.007Z</time></trkpt><trkpt lat="43.790385" lon="11.3730967"><ele>139.0</ele><time>2026-04-23T14:34:31.007Z</time></trkpt><trkpt lat="43.7903417" lon="11.3730317"><ele>139.0</ele><time>2026-04-23T14:34:32.008Z</time></trkpt><trkpt lat="43.7902683" lon="11.37291"><ele>140.5</ele><time>2026-04-23T14:34:34.008Z</time></trkpt><trkpt lat="43.7902267" lon="11.3728367"><ele>142.0</ele><time>2026-04-23T14:34:35.007Z</time></trkpt><trkpt lat="43.790185" lon="11.3727483"><ele>143.5</ele><time>2026-04-23T14:34:36.008Z</time></trkpt><trkpt lat="43.7901417" lon="11.3726383"><ele>145.0</ele><time>2026-04-23T14:34:37.007Z</time></trkpt><trkpt lat="43.7900983" lon="11.3725067"><ele>146.5</ele><time>2026-04-23T14:34:38.007Z</time></trkpt><trkpt lat="43.790055" lon="11.3723683"><ele>148.0</ele><time>2026-04-23T14:34:39.007Z</time></trkpt><trkpt lat="43.7900133" lon="11.3722333"><ele>143.25</ele><time>2026-04-23T14:34:40.007Z</time></trkpt><trkpt lat="43.7899767" lon="11.3720917"><ele>138.5</ele><time>2026-04-23T14:34:41.008Z</time></trkpt><trkpt lat="43.789945" lon="11.3719267"><ele>133.75</ele><time>2026-04-23T14:34:42.008Z</time></trkpt><trkpt lat="43.7899117" lon="11.3717483"><ele>129.0</ele><time>2026-04-23T14:34:43.007Z</time></trkpt><trkpt lat="43.789885" lon="11.371575"><ele>129.0</ele><time>2026-04-23T14:34:44.007Z</time></trkpt><trkpt lat="43.7898517" lon="11.3713767"><ele>129.0</ele><time>2026-04-23T14:34:45.008Z</time></trkpt><trkpt lat="43.7898183" lon="11.3711917"><ele>129.0</ele><time>2026-04-23T14:34:46.007Z</time></trkpt><trkpt lat="43.7897733" lon="11.3710167"><ele>129.0</ele><time>2026-04-23T14:34:47.007Z</time></trkpt><trkpt lat="43.7897333" lon="11.3708667"><ele>129.0</ele><time>2026-04-23T14:34:48.007Z</time></trkpt><trkpt lat="43.7896883" lon="11.37074"><ele>129.0</ele><time>2026-04-23T14:34:49.007Z</time></trkpt><trkpt lat="43.7896383" lon="11.37063"><ele>129.0</ele><time>2026-04-23T14:34:50.007Z</time></trkpt><trkpt lat="43.78956" lon="11.3705367"><ele>129.0</ele><time>2026-04-23T14:34:51.008Z</time></trkpt><trkpt lat="43.7894567" lon="11.3704583"><ele>129.0</ele><time>2026-04-23T14:34:52.007Z</time></trkpt><trkpt lat="43.7893517" lon="11.3703933"><ele>127.5</ele><time>2026-04-23T14:34:53.007Z</time></trkpt><trkpt lat="43.7892567" lon="11.3703367"><ele>126.0</ele><time>2026-04-23T14:34:54.008Z</time></trkpt><trkpt lat="43.7891733" lon="11.3702783"><ele>124.5</ele><time>2026-04-23T14:34:55.007Z</time></trkpt><trkpt lat="43.789105" lon="11.3702167"><ele>123.0</ele><time>2026-04-23T14:34:56.007Z</time></trkpt><trkpt lat="43.7890583" lon="11.370155"><ele>121.5</ele><time>2026-04-23T14:34:57.007Z</time></trkpt><trkpt lat="43.7889967" lon="11.37013"><ele>120.0</ele><time>2026-04-23T14:34:59.007Z</time></trkpt><trkpt lat="43.788925" lon="11.3702233"><ele>120.0</ele><time>2026-04-23T14:35:01.007Z</time></trkpt><trkpt lat="43.7888417" lon="11.3703283"><ele>120.0</ele><time>2026-04-23T14:35:03.008Z</time></trkpt><trkpt lat="43.7887433" lon="11.3704267"><ele>120.0</ele><time>2026-04-23T14:35:05.008Z</time></trkpt><trkpt lat="43.7886883" lon="11.370485"><ele>120.0</ele><time>2026-04-23T14:35:06.007Z</time></trkpt><trkpt lat="43.7886367" lon="11.3705417"><ele>120.0</ele><time>2026-04-23T14:35:07.008Z</time></trkpt><trkpt lat="43.7885783" lon="11.3706"><ele>120.0</ele><time>2026-04-23T14:35:08.007Z</time></trkpt><trkpt lat="43.7885217" lon="11.3706633"><ele>118.42857142857143</ele><time>2026-04-23T14:35:09.008Z</time></trkpt><trkpt lat="43.7884683" lon="11.370725"><ele>116.85714285714285</ele><time>2026-04-23T14:35:10.007Z</time></trkpt><trkpt lat="43.78841" lon="11.3707817"><ele>115.28571428571428</ele><time>2026-04-23T14:35:11.007Z</time></trkpt><trkpt lat="43.788355" lon="11.3708367"><ele>113.71428571428572</ele><time>2026-04-23T14:35:12.007Z</time></trkpt><trkpt lat="43.7883" lon="11.3709"><ele>112.14285714285714</ele><time>2026-04-23T14:35:13.007Z</time></trkpt><trkpt lat="43.7882433" lon="11.3709567"><ele>110.57142857142857</ele><time>2026-04-23T14:35:14.007Z</time></trkpt><trkpt lat="43.7881683" lon="11.37103"><ele>109.0</ele><time>2026-04-23T14:35:16.008Z</time></trkpt><trkpt lat="43.78808" lon="11.371075"><ele>109.00000000000001</ele><time>2026-04-23T14:35:24.007Z</time></trkpt><trkpt lat="43.78797" lon="11.3711117"><ele>109.0</ele><time>2026-04-23T14:35:26.007Z</time></trkpt><trkpt lat="43.7879033" lon="11.3711383"><ele>109.0</ele><time>2026-04-23T14:35:27.007Z</time></trkpt><trkpt lat="43.7878417" lon="11.37117"><ele>109.0</ele><time>2026-04-23T14:35:28.007Z</time></trkpt><trkpt lat="43.7877783" lon="11.37119"><ele>109.00000000000001</ele><time>2026-04-23T14:35:29.008Z</time></trkpt><trkpt lat="43.787715" lon="11.3712117"><ele>109.0</ele><time>2026-04-23T14:35:30.008Z</time></trkpt><trkpt lat="43.7876467" lon="11.37124"><ele>107.33333333333334</ele><time>2026-04-23T14:35:31.008Z</time></trkpt><trkpt lat="43.7875817" lon="11.37127"><ele>105.66666666666667</ele><time>2026-04-23T14:35:32.008Z</time></trkpt><trkpt lat="43.7875117" lon="11.3713033"><ele>104.0</ele><time>2026-04-23T14:35:33.008Z</time></trkpt><trkpt lat="43.787425" lon="11.3713383"><ele>102.33333333333334</ele><time>2026-04-23T14:35:34.007Z</time></trkpt><trkpt lat="43.7873567" lon="11.3713683"><ele>100.66666666666667</ele><time>2026-04-23T14:35:35.008Z</time></trkpt><trkpt lat="43.7872967" lon="11.3714"><ele>99.0</ele><time>2026-04-23T14:35:36.008Z</time></trkpt><trkpt lat="43.787225" lon="11.37146"><ele>97.83333333333333</ele><time>2026-04-23T14:35:38.008Z</time></trkpt><trkpt lat="43.7871783" lon="11.3715267"><ele>96.66666666666667</ele><time>2026-04-23T14:35:40.007Z</time></trkpt><trkpt lat="43.7871433" lon="11.371635"><ele>95.5</ele><time>2026-04-23T14:35:42.008Z</time></trkpt><trkpt lat="43.7871083" lon="11.3717933"><ele>94.33333333333334</ele><time>2026-04-23T14:35:44.007Z</time></trkpt><trkpt lat="43.7870933" lon="11.37188"><ele>93.16666666666667</ele><time>2026-04-23T14:35:45.007Z</time></trkpt><trkpt lat="43.7870817" lon="11.3719667"><ele>92.0</ele><time>2026-04-23T14:35:46.008Z</time></trkpt><trkpt lat="43.78707" lon="11.372055"><ele>92.0</ele><time>2026-04-23T14:35:47.007Z</time></trkpt><trkpt lat="43.787055" lon="11.3721783"><ele>92.0</ele><time>2026-04-23T14:35:49.007Z</time></trkpt><trkpt lat="43.7869983" lon="11.3722683"><ele>92.0</ele><time>2026-04-23T14:36:09.007Z</time></trkpt><trkpt lat="43.7868867" lon="11.3722933"><ele>92.0</ele><time>2026-04-23T14:36:11.007Z</time></trkpt><trkpt lat="43.7868033" lon="11.3723033"><ele>92.0</ele><time>2026-04-23T14:36:12.007Z</time></trkpt><trkpt lat="43.7867067" lon="11.3723217"><ele>90.0</ele><time>2026-04-23T14:36:13.008Z</time></trkpt><trkpt lat="43.78661" lon="11.3723367"><ele>88.0</ele><time>2026-04-23T14:36:14.008Z</time></trkpt><trkpt lat="43.78651" lon="11.37235"><ele>86.0</ele><time>2026-04-23T14:36:15.007Z</time></trkpt><trkpt lat="43.786405" lon="11.37236"><ele>84.0</ele><time>2026-04-23T14:36:16.007Z</time></trkpt><trkpt lat="43.7863117" lon="11.3723717"><ele>82.0</ele><time>2026-04-23T14:36:17.007Z</time></trkpt><trkpt lat="43.7862267" lon="11.3723817"><ele>82.0</ele><time>2026-04-23T14:36:18.008Z</time></trkpt><trkpt lat="43.7861483" lon="11.3723883"><ele>82.0</ele><time>2026-04-23T14:36:19.007Z</time></trkpt><trkpt lat="43.7860817" lon="11.3723867"><ele>82.0</ele><time>2026-04-23T14:36:20.007Z</time></trkpt><trkpt lat="43.7860067" lon="11.37233"><ele>82.0</ele><time>2026-04-23T14:36:22.007Z</time></trkpt><trkpt lat="43.7860017" lon="11.3722183"><ele>82.0</ele><time>2026-04-23T14:36:24.007Z</time></trkpt><trkpt lat="43.7860017" lon="11.372085"><ele>82.0</ele><time>2026-04-23T14:36:26.007Z</time></trkpt><trkpt lat="43.7859483" lon="11.37201"><ele>81.6</ele><time>2026-04-23T14:36:29.007Z</time></trkpt><trkpt lat="43.78585" lon="11.3720317"><ele>81.19999999999999</ele><time>2026-04-23T14:36:33.007Z</time></trkpt><trkpt lat="43.7857833" lon="11.3720817"><ele>80.8</ele><time>2026-04-23T14:36:35.007Z</time></trkpt><trkpt lat="43.7856717" lon="11.37192"><ele>80.4</ele><time>2026-04-23T14:36:49.007Z</time></trkpt><trkpt lat="43.785635" lon="11.3718333"><ele>80.0</ele><time>2026-04-23T14:36:50.007Z</time></trkpt><trkpt lat="43.7855967" lon="11.37173"><ele>80.0</ele><time>2026-04-23T14:36:51.007Z</time></trkpt><trkpt lat="43.78556" lon="11.3716317"><ele>80.0</ele><time>2026-04-23T14:36:52.007Z</time></trkpt><trkpt lat="43.785505" lon="11.371505"><ele>80.0</ele><time>2026-04-23T14:36:54.007Z</time></trkpt><trkpt lat="43.7854267" lon="11.3715233"><ele>80.0</ele><time>2026-04-23T14:37:01.007Z</time></trkpt><trkpt lat="43.785465" lon="11.3716933"><ele>80.0</ele><time>2026-04-23T14:37:03.008Z</time></trkpt><trkpt lat="43.7855117" lon="11.3718117"><ele>80.0</ele><time>2026-04-23T14:37:04.008Z</time></trkpt><trkpt lat="43.785565" lon="11.371955"><ele>80.0</ele><time>2026-04-23T14:37:05.007Z</time></trkpt><trkpt lat="43.7856167" lon="11.3721067"><ele>80.0</ele><time>2026-04-23T14:37:06.007Z</time></trkpt><trkpt lat="43.785665" lon="11.3722733"><ele>80.0</ele><time>2026-04-23T14:37:07.007Z</time></trkpt><trkpt lat="43.78571" lon="11.3724517"><ele>79.75</ele><time>2026-04-23T14:37:08.007Z</time></trkpt><trkpt lat="43.7857517" lon="11.3726417"><ele>79.5</ele><time>2026-04-23T14:37:09.007Z</time></trkpt><trkpt lat="43.7857933" lon="11.372845"><ele>79.25</ele><time>2026-04-23T14:37:10.007Z</time></trkpt><trkpt lat="43.7858367" lon="11.3730467"><ele>79.0</ele><time>2026-04-23T14:37:11.007Z</time></trkpt><trkpt lat="43.785885" lon="11.3732633"><ele>79.0</ele><time>2026-04-23T14:37:12.007Z</time></trkpt><trkpt lat="43.7859267" lon="11.37348"><ele>79.0</ele><time>2026-04-23T14:37:13.007Z</time></trkpt><trkpt lat="43.7859717" lon="11.3736933"><ele>79.0</ele><time>2026-04-23T14:37:14.007Z</time></trkpt><trkpt lat="43.78601" lon="11.3739167"><ele>81.0</ele><time>2026-04-23T14:37:15.008Z</time></trkpt><trkpt lat="43.7860517" lon="11.374125"><ele>83.0</ele><time>2026-04-23T14:37:16.008Z</time></trkpt><trkpt lat="43.7860933" lon="11.374335"><ele>85.0</ele><time>2026-04-23T14:37:17.007Z</time></trkpt><trkpt lat="43.7861367" lon="11.3745283"><ele>85.5</ele><time>2026-04-23T14:37:18.007Z</time></trkpt><trkpt lat="43.7861767" lon="11.3747117"><ele>86.0</ele><time>2026-04-23T14:37:19.008Z</time></trkpt><trkpt lat="43.7862217" lon="11.37489"><ele>86.5</ele><time>2026-04-23T14:37:20.007Z</time></trkpt><trkpt lat="43.786255" lon="11.37506"><ele>87.0</ele><time>2026-04-23T14:37:21.007Z</time></trkpt><trkpt lat="43.7862917" lon="11.3752267"><ele>87.0</ele><time>2026-04-23T14:37:22.008Z</time></trkpt><trkpt lat="43.7863167" lon="11.3753733"><ele>87.0</ele><time>2026-04-23T14:37:23.008Z</time></trkpt><trkpt lat="43.7863067" lon="11.375485"><ele>87.0</ele><time>2026-04-23T14:37:24.007Z</time></trkpt><trkpt lat="43.786255" lon="11.3755733"><ele>87.0</ele><time>2026-04-23T14:37:25.007Z</time></trkpt><trkpt lat="43.7862083" lon="11.3756783"><ele>87.0</ele><time>2026-04-23T14:37:26.007Z</time></trkpt><trkpt lat="43.7861933" lon="11.3757967"><ele>87.0</ele><time>2026-04-23T14:37:27.008Z</time></trkpt><trkpt lat="43.7862117" lon="11.3759317"><ele>86.0</ele><time>2026-04-23T14:37:28.007Z</time></trkpt><trkpt lat="43.7862583" lon="11.3760917"><ele>85.0</ele><time>2026-04-23T14:37:29.007Z</time></trkpt><trkpt lat="43.7863183" lon="11.3762783"><ele>84.0</ele><time>2026-04-23T14:37:30.007Z</time></trkpt><trkpt lat="43.7863867" lon="11.3764833"><ele>83.0</ele><time>2026-04-23T14:37:31.007Z</time></trkpt><trkpt lat="43.786455" lon="11.3766867"><ele>82.0</ele><time>2026-04-23T14:37:32.007Z</time></trkpt><trkpt lat="43.7865283" lon="11.3769117"><ele>81.0</ele><time>2026-04-23T14:37:33.007Z</time></trkpt><trkpt lat="43.7866" lon="11.3771367"><ele>80.0</ele><time>2026-04-23T14:37:34.007Z</time></trkpt><trkpt lat="43.78668" lon="11.37735"><ele>79.66666666666667</ele><time>2026-04-23T14:37:35.007Z</time></trkpt><trkpt lat="43.786755" lon="11.3775767"><ele>79.33333333333333</ele><time>2026-04-23T14:37:36.008Z</time></trkpt><trkpt lat="43.7868267" lon="11.3777983"><ele>79.0</ele><time>2026-04-23T14:37:37.007Z</time></trkpt><trkpt lat="43.7868933" lon="11.3780083"><ele>82.0</ele><time>2026-04-23T14:37:38.007Z</time></trkpt><trkpt lat="43.78695" lon="11.378195"><ele>85.0</ele><time>2026-04-23T14:37:39.007Z</time></trkpt><trkpt lat="43.787025" lon="11.378365"><ele>88.0</ele><time>2026-04-23T14:37:40.007Z</time></trkpt><trkpt lat="43.7871167" lon="11.3785233"><ele>91.0</ele><time>2026-04-23T14:37:41.007Z</time></trkpt><trkpt lat="43.78723" lon="11.37867"><ele>91.0</ele><time>2026-04-23T14:37:42.007Z</time></trkpt><trkpt lat="43.7873517" lon="11.378795"><ele>91.0</ele><time>2026-04-23T14:37:43.007Z</time></trkpt><trkpt lat="43.7874617" lon="11.3789233"><ele>91.0</ele><time>2026-04-23T14:37:44.008Z</time></trkpt><trkpt lat="43.7875617" lon="11.379065"><ele>91.0</ele><time>2026-04-23T14:37:45.007Z</time></trkpt><trkpt lat="43.7876617" lon="11.3792133"><ele>94.0</ele><time>2026-04-23T14:37:46.007Z</time></trkpt><trkpt lat="43.7877633" lon="11.37937"><ele>97.0</ele><time>2026-04-23T14:37:47.007Z</time></trkpt><trkpt lat="43.7878667" lon="11.379525"><ele>100.0</ele><time>2026-04-23T14:37:48.007Z</time></trkpt><trkpt lat="43.7879667" lon="11.379675"><ele>94.0</ele><time>2026-04-23T14:37:49.007Z</time></trkpt><trkpt lat="43.7880733" lon="11.3798233"><ele>88.0</ele><time>2026-04-23T14:37:50.007Z</time></trkpt><trkpt lat="43.7881833" lon="11.3799633"><ele>82.0</ele><time>2026-04-23T14:37:51.008Z</time></trkpt><trkpt lat="43.7883" lon="11.3801067"><ele>82.0</ele><time>2026-04-23T14:37:52.007Z</time></trkpt><trkpt lat="43.7884183" lon="11.3802483"><ele>82.0</ele><time>2026-04-23T14:37:53.007Z</time></trkpt><trkpt lat="43.7885417" lon="11.3804"><ele>82.0</ele><time>2026-04-23T14:37:54.008Z</time></trkpt><trkpt lat="43.78867" lon="11.380545"><ele>81.33333333333333</ele><time>2026-04-23T14:37:55.008Z</time></trkpt><trkpt lat="43.7888067" lon="11.3807"><ele>80.66666666666667</ele><time>2026-04-23T14:37:56.007Z</time></trkpt><trkpt lat="43.78895" lon="11.38087"><ele>80.0</ele><time>2026-04-23T14:37:57.007Z</time></trkpt><trkpt lat="43.7890917" lon="11.3810417"><ele>80.0</ele><time>2026-04-23T14:37:58.008Z</time></trkpt><trkpt lat="43.789245" lon="11.3812033"><ele>80.0</ele><time>2026-04-23T14:37:59.007Z</time></trkpt><trkpt lat="43.7894017" lon="11.381365"><ele>80.0</ele><time>2026-04-23T14:38:00.007Z</time></trkpt><trkpt lat="43.78955" lon="11.3815133"><ele>80.0</ele><time>2026-04-23T14:38:01.008Z</time></trkpt><trkpt lat="43.7896867" lon="11.3816533"><ele>80.0</ele><time>2026-04-23T14:38:02.007Z</time></trkpt><trkpt lat="43.7898167" lon="11.3817917"><ele>80.0</ele><time>2026-04-23T14:38:03.008Z</time></trkpt><trkpt lat="43.7899283" lon="11.3819117"><ele>80.0</ele><time>2026-04-23T14:38:04.007Z</time></trkpt><trkpt lat="43.790015" lon="11.3820583"><ele>80.0</ele><time>2026-04-23T14:38:05.007Z</time></trkpt><trkpt lat="43.79007" lon="11.382235"><ele>80.0</ele><time>2026-04-23T14:38:06.007Z</time></trkpt><trkpt lat="43.7900833" lon="11.3824417"><ele>80.0</ele><time>2026-04-23T14:38:07.007Z</time></trkpt><trkpt lat="43.79007" lon="11.3826533"><ele>79.5</ele><time>2026-04-23T14:38:08.008Z</time></trkpt><trkpt lat="43.7900583" lon="11.382855"><ele>79.0</ele><time>2026-04-23T14:38:09.007Z</time></trkpt><trkpt lat="43.7900483" lon="11.383045"><ele>78.5</ele><time>2026-04-23T14:38:10.008Z</time></trkpt><trkpt lat="43.7900533" lon="11.38323"><ele>78.0</ele><time>2026-04-23T14:38:11.007Z</time></trkpt><trkpt lat="43.7900733" lon="11.38341"><ele>77.5</ele><time>2026-04-23T14:38:12.007Z</time></trkpt><trkpt lat="43.7901533" lon="11.3835683"><ele>77.0</ele><time>2026-04-23T14:38:13.007Z</time></trkpt><trkpt lat="43.790275" lon="11.3836817"><ele>76.5</ele><time>2026-04-23T14:38:14.008Z</time></trkpt><trkpt lat="43.7904117" lon="11.383775"><ele>76.0</ele><time>2026-04-23T14:38:15.007Z</time></trkpt><trkpt lat="43.7905583" lon="11.383855"><ele>75.33333333333333</ele><time>2026-04-23T14:38:16.007Z</time></trkpt><trkpt lat="43.790715" lon="11.3839267"><ele>74.66666666666667</ele><time>2026-04-23T14:38:17.007Z</time></trkpt><trkpt lat="43.7908733" lon="11.383975"><ele>74.0</ele><time>2026-04-23T14:38:18.007Z</time></trkpt><trkpt lat="43.7910317" lon="11.3840117"><ele>74.0</ele><time>2026-04-23T14:38:19.007Z</time></trkpt><trkpt lat="43.7911817" lon="11.3840433"><ele>74.0</ele><time>2026-04-23T14:38:20.007Z</time></trkpt><trkpt lat="43.7913217" lon="11.38408"><ele>74.0</ele><time>2026-04-23T14:38:21.007Z</time></trkpt><trkpt lat="43.791465" lon="11.3841117"><ele>74.0</ele><time>2026-04-23T14:38:22.008Z</time></trkpt><trkpt lat="43.7915983" lon="11.3841417"><ele>74.0</ele><time>2026-04-23T14:38:23.007Z</time></trkpt><trkpt lat="43.7917283" lon="11.3841817"><ele>74.0</ele><time>2026-04-23T14:38:24.008Z</time></trkpt><trkpt lat="43.79185" lon="11.3842383"><ele>74.0</ele><time>2026-04-23T14:38:25.007Z</time></trkpt><trkpt lat="43.7919583" lon="11.3843217"><ele>74.0</ele><time>2026-04-23T14:38:26.007Z</time></trkpt><trkpt lat="43.7920517" lon="11.3844383"><ele>74.25</ele><time>2026-04-23T14:38:27.007Z</time></trkpt><trkpt lat="43.7921367" lon="11.38456"><ele>74.5</ele><time>2026-04-23T14:38:28.007Z</time></trkpt><trkpt lat="43.7922117" lon="11.38469"><ele>74.75</ele><time>2026-04-23T14:38:29.007Z</time></trkpt><trkpt lat="43.7922867" lon="11.3848333"><ele>75.0</ele><time>2026-04-23T14:38:30.007Z</time></trkpt><trkpt lat="43.79234" lon="11.3849783"><ele>75.0</ele><time>2026-04-23T14:38:31.008Z</time></trkpt><trkpt lat="43.7923767" lon="11.385125"><ele>75.0</ele><time>2026-04-23T14:38:32.007Z</time></trkpt><trkpt lat="43.79241" lon="11.385265"><ele>75.0</ele><time>2026-04-23T14:38:33.008Z</time></trkpt><trkpt lat="43.7924417" lon="11.385415"><ele>75.0</ele><time>2026-04-23T14:38:34.007Z</time></trkpt><trkpt lat="43.7924733" lon="11.3855733"><ele>74.0</ele><time>2026-04-23T14:38:35.008Z</time></trkpt><trkpt lat="43.7925" lon="11.38572"><ele>73.0</ele><time>2026-04-23T14:38:36.007Z</time></trkpt><trkpt lat="43.792535" lon="11.3858583"><ele>72.0</ele><time>2026-04-23T14:38:37.007Z</time></trkpt><trkpt lat="43.7925633" lon="11.3859767"><ele>71.0</ele><time>2026-04-23T14:38:38.007Z</time></trkpt><trkpt lat="43.7925883" lon="11.3860933"><ele>70.0</ele><time>2026-04-23T14:38:39.007Z</time></trkpt><trkpt lat="43.7926167" lon="11.38621"><ele>70.0</ele><time>2026-04-23T14:38:40.007Z</time></trkpt><trkpt lat="43.7926333" lon="11.38631"><ele>70.0</ele><time>2026-04-23T14:38:41.008Z</time></trkpt><trkpt lat="43.7926667" lon="11.3864483"><ele>70.0</ele><time>2026-04-23T14:38:43.007Z</time></trkpt><trkpt lat="43.7927167" lon="11.3866333"><ele>70.0</ele><time>2026-04-23T14:38:45.007Z</time></trkpt><trkpt lat="43.792745" lon="11.3867583"><ele>70.0</ele><time>2026-04-23T14:38:46.007Z</time></trkpt><trkpt lat="43.7927767" lon="11.3868917"><ele>71.6</ele><time>2026-04-23T14:38:47.008Z</time></trkpt><trkpt lat="43.7928017" lon="11.387025"><ele>73.2</ele><time>2026-04-23T14:38:48.007Z</time></trkpt><trkpt lat="43.7928267" lon="11.3871667"><ele>74.8</ele><time>2026-04-23T14:38:49.007Z</time></trkpt><trkpt lat="43.7928483" lon="11.3872817"><ele>76.4</ele><time>2026-04-23T14:38:50.008Z</time></trkpt><trkpt lat="43.7928683" lon="11.38738"><ele>78.0</ele><time>2026-04-23T14:38:51.007Z</time></trkpt><trkpt lat="43.7928967" lon="11.387505"><ele>78.0</ele><time>2026-04-23T14:38:52.007Z</time></trkpt><trkpt lat="43.792925" lon="11.3876483"><ele>78.0</ele><time>2026-04-23T14:38:53.008Z</time></trkpt><trkpt lat="43.7929517" lon="11.3877817"><ele>78.0</ele><time>2026-04-23T14:38:54.007Z</time></trkpt><trkpt lat="43.7929667" lon="11.3878933"><ele>78.0</ele><time>2026-04-23T14:38:55.007Z</time></trkpt><trkpt lat="43.79299" lon="11.38805"><ele>78.0</ele><time>2026-04-23T14:38:57.007Z</time></trkpt><trkpt lat="43.7929933" lon="11.388145"><ele>77.5</ele><time>2026-04-23T14:38:58.007Z</time></trkpt><trkpt lat="43.7929967" lon="11.3882433"><ele>77.0</ele><time>2026-04-23T14:38:59.007Z</time></trkpt><trkpt lat="43.793005" lon="11.3883367"><ele>76.5</ele><time>2026-04-23T14:39:00.007Z</time></trkpt><trkpt lat="43.7930133" lon="11.3884267"><ele>76.0</ele><time>2026-04-23T14:39:01.007Z</time></trkpt><trkpt lat="43.7930017" lon="11.3886083"><ele>75.5</ele><time>2026-04-23T14:39:03.007Z</time></trkpt><trkpt lat="43.792995" lon="11.3886967"><ele>75.0</ele><time>2026-04-23T14:39:04.007Z</time></trkpt><trkpt lat="43.7929733" lon="11.3888033"><ele>74.83333333333333</ele><time>2026-04-23T14:39:05.007Z</time></trkpt><trkpt lat="43.7929383" lon="11.3889183"><ele>74.66666666666667</ele><time>2026-04-23T14:39:06.007Z</time></trkpt><trkpt lat="43.7929017" lon="11.3890317"><ele>74.5</ele><time>2026-04-23T14:39:07.007Z</time></trkpt><trkpt lat="43.7928667" lon="11.3891417"><ele>74.33333333333334</ele><time>2026-04-23T14:39:08.007Z</time></trkpt><trkpt lat="43.79282" lon="11.38924"><ele>74.16666666666667</ele><time>2026-04-23T14:39:09.008Z</time></trkpt><trkpt lat="43.792785" lon="11.38933"><ele>74.0</ele><time>2026-04-23T14:39:10.007Z</time></trkpt><trkpt lat="43.792755" lon="11.3894217"><ele>74.0</ele><time>2026-04-23T14:39:11.007Z</time></trkpt><trkpt lat="43.7927433" lon="11.3895583"><ele>74.0</ele><time>2026-04-23T14:39:13.007Z</time></trkpt><trkpt lat="43.79281" lon="11.3896317"><ele>74.0</ele><time>2026-04-23T14:39:15.007Z</time></trkpt><trkpt lat="43.792945" lon="11.3896767"><ele>74.0</ele><time>2026-04-23T14:39:17.008Z</time></trkpt><trkpt lat="43.7930317" lon="11.3897133"><ele>74.0</ele><time>2026-04-23T14:39:18.007Z</time></trkpt><trkpt lat="43.7931233" lon="11.38976"><ele>74.5</ele><time>2026-04-23T14:39:19.007Z</time></trkpt><trkpt lat="43.7932117" lon="11.3898067"><ele>75.0</ele><time>2026-04-23T14:39:20.007Z</time></trkpt><trkpt lat="43.7933033" lon="11.3898883"><ele>75.5</ele><time>2026-04-23T14:39:21.007Z</time></trkpt><trkpt lat="43.793405" lon="11.3899717"><ele>76.0</ele><time>2026-04-23T14:39:22.007Z</time></trkpt><trkpt lat="43.793525" lon="11.3900417"><ele>76.2</ele><time>2026-04-23T14:39:23.008Z</time></trkpt><trkpt lat="43.7936283" lon="11.3901017"><ele>76.39999999999999</ele><time>2026-04-23T14:39:24.007Z</time></trkpt><trkpt lat="43.79372" lon="11.3901383"><ele>76.6</ele><time>2026-04-23T14:39:25.007Z</time></trkpt><trkpt lat="43.7938067" lon="11.3901567"><ele>76.8</ele><time>2026-04-23T14:39:26.008Z</time></trkpt><trkpt lat="43.7938917" lon="11.390165"><ele>77.0</ele><time>2026-04-23T14:39:27.007Z</time></trkpt><trkpt lat="43.793965" lon="11.390155"><ele>77.0</ele><time>2026-04-23T14:39:28.008Z</time></trkpt><trkpt lat="43.7940433" lon="11.3901317"><ele>77.0</ele><time>2026-04-23T14:39:29.007Z</time></trkpt><trkpt lat="43.794145" lon="11.3901067"><ele>77.0</ele><time>2026-04-23T14:39:30.008Z</time></trkpt><trkpt lat="43.7942483" lon="11.3900767"><ele>77.0</ele><time>2026-04-23T14:39:31.008Z</time></trkpt><trkpt lat="43.7943433" lon="11.3900517"><ele>77.0</ele><time>2026-04-23T14:39:32.007Z</time></trkpt><trkpt lat="43.7944333" lon="11.3900133"><ele>77.0</ele><time>2026-04-23T14:39:33.007Z</time></trkpt><trkpt lat="43.7945267" lon="11.389985"><ele>77.0</ele><time>2026-04-23T14:39:34.007Z</time></trkpt><trkpt lat="43.79462" lon="11.38994"><ele>77.0</ele><time>2026-04-23T14:39:35.008Z</time></trkpt><trkpt lat="43.79472" lon="11.3899"><ele>77.0</ele><time>2026-04-23T14:39:36.007Z</time></trkpt><trkpt lat="43.794815" lon="11.3898667"><ele>77.0</ele><time>2026-04-23T14:39:37.007Z</time></trkpt><trkpt lat="43.7949017" lon="11.3898383"><ele>77.0</ele><time>2026-04-23T14:39:38.008Z</time></trkpt><trkpt lat="43.7949733" lon="11.3898167"><ele>77.0</ele><time>2026-04-23T14:39:39.007Z</time></trkpt><trkpt lat="43.79504" lon="11.3898017"><ele>77.0</ele><time>2026-04-23T14:39:40.008Z</time></trkpt><trkpt lat="43.79511" lon="11.3897783"><ele>77.0</ele><time>2026-04-23T14:39:42.007Z</time></trkpt><trkpt lat="43.795185" lon="11.3897367"><ele>77.0</ele><time>2026-04-23T14:40:23.007Z</time></trkpt><trkpt lat="43.7953267" lon="11.3896883"><ele>77.0</ele><time>2026-04-23T14:40:25.007Z</time></trkpt><trkpt lat="43.795415" lon="11.3896733"><ele>77.14285714285714</ele><time>2026-04-23T14:40:26.007Z</time></trkpt><trkpt lat="43.7954867" lon="11.38967"><ele>77.28571428571428</ele><time>2026-04-23T14:40:27.008Z</time></trkpt><trkpt lat="43.7955517" lon="11.3896617"><ele>77.42857142857143</ele><time>2026-04-23T14:40:28.008Z</time></trkpt><trkpt lat="43.7956233" lon="11.3896483"><ele>77.57142857142857</ele><time>2026-04-23T14:40:29.008Z</time></trkpt><trkpt lat="43.79569" lon="11.3896433"><ele>77.71428571428571</ele><time>2026-04-23T14:40:30.008Z</time></trkpt><trkpt lat="43.795765" lon="11.3896267"><ele>77.85714285714286</ele><time>2026-04-23T14:40:31.008Z</time></trkpt><trkpt lat="43.7958333" lon="11.38961"><ele>78.0</ele><time>2026-04-23T14:40:32.007Z</time></trkpt><trkpt lat="43.7958983" lon="11.3895933"><ele>78.0</ele><time>2026-04-23T14:40:33.007Z</time></trkpt><trkpt lat="43.7960067" lon="11.3895583"><ele>78.0</ele><time>2026-04-23T14:40:35.008Z</time></trkpt><trkpt lat="43.7960883" lon="11.3895183"><ele>78.0</ele><time>2026-04-23T14:40:37.007Z</time></trkpt><trkpt lat="43.79622" lon="11.389515"><ele>78.0</ele><time>2026-04-23T14:42:11.007Z</time></trkpt><trkpt lat="43.79633" lon="11.38951"><ele>78.0</ele><time>2026-04-23T14:42:12.007Z</time></trkpt><trkpt lat="43.7964567" lon="11.3895117"><ele>78.0</ele><time>2026-04-23T14:42:13.007Z</time></trkpt><trkpt lat="43.7965767" lon="11.3895183"><ele>78.0</ele><time>2026-04-23T14:42:14.008Z</time></trkpt><trkpt lat="43.79668" lon="11.3895283"><ele>78.0</ele><time>2026-04-23T14:42:15.008Z</time></trkpt><trkpt lat="43.7967683" lon="11.389545"><ele>78.0</ele><time>2026-04-23T14:42:16.007Z</time></trkpt><trkpt lat="43.7968367" lon="11.38957"><ele>78.0</ele><time>2026-04-23T14:42:17.007Z</time></trkpt><trkpt lat="43.7969" lon="11.3897"><ele>78.2</ele><time>2026-04-23T14:42:19.007Z</time></trkpt><trkpt lat="43.79683" lon="11.389835"><ele>78.4</ele><time>2026-04-23T14:42:21.007Z</time></trkpt><trkpt lat="43.79676" lon="11.3898883"><ele>78.60000000000001</ele><time>2026-04-23T14:42:22.008Z</time></trkpt><trkpt lat="43.7966633" lon="11.3899167"><ele>78.8</ele><time>2026-04-23T14:42:23.007Z</time></trkpt><trkpt lat="43.7965467" lon="11.3899383"><ele>79.0</ele><time>2026-04-23T14:42:24.007Z</time></trkpt><trkpt lat="43.79643" lon="11.389975"><ele>79.0</ele><time>2026-04-23T14:42:25.007Z</time></trkpt><trkpt lat="43.7963083" lon="11.39001"><ele>79.0</ele><time>2026-04-23T14:42:26.007Z</time></trkpt><trkpt lat="43.7961817" lon="11.3900367"><ele>79.0</ele><time>2026-04-23T14:42:27.007Z</time></trkpt><trkpt lat="43.79606" lon="11.390075"><ele>79.0</ele><time>2026-04-23T14:42:28.007Z</time></trkpt><trkpt lat="43.7959183" lon="11.3901117"><ele>78.25</ele><time>2026-04-23T14:42:29.008Z</time></trkpt><trkpt lat="43.7957867" lon="11.390165"><ele>77.5</ele><time>2026-04-23T14:42:30.007Z</time></trkpt><trkpt lat="43.795665" lon="11.390205"><ele>76.75</ele><time>2026-04-23T14:42:31.007Z</time></trkpt><trkpt lat="43.7955483" lon="11.3902383"><ele>76.0</ele><time>2026-04-23T14:42:32.007Z</time></trkpt><trkpt lat="43.7954583" lon="11.3902617"><ele>76.0</ele><time>2026-04-23T14:42:33.007Z</time></trkpt><trkpt lat="43.7953833" lon="11.3902867"><ele>76.0</ele><time>2026-04-23T14:42:34.007Z</time></trkpt><trkpt lat="43.795385" lon="11.3903983"><ele>76.0</ele><time>2026-04-23T14:42:37.007Z</time></trkpt><trkpt lat="43.7954467" lon="11.3904883"><ele>76.0</ele><time>2026-04-23T14:42:39.007Z</time></trkpt><trkpt lat="43.7954967" lon="11.3905867"><ele>76.0</ele><time>2026-04-23T14:42:41.007Z</time></trkpt><trkpt lat="43.7955183" lon="11.39071"><ele>76.0</ele><time>2026-04-23T14:42:43.007Z</time></trkpt><trkpt lat="43.7955267" lon="11.3907983"><ele>77.8</ele><time>2026-04-23T14:42:44.008Z</time></trkpt><trkpt lat="43.7955367" lon="11.3908967"><ele>79.6</ele><time>2026-04-23T14:42:45.007Z</time></trkpt><trkpt lat="43.7955417" lon="11.3910017"><ele>81.4</ele><time>2026-04-23T14:42:46.007Z</time></trkpt><trkpt lat="43.7955567" lon="11.39113"><ele>83.2</ele><time>2026-04-23T14:42:47.008Z</time></trkpt><trkpt lat="43.7955783" lon="11.39127"><ele>85.0</ele><time>2026-04-23T14:42:48.007Z</time></trkpt><trkpt lat="43.7955883" lon="11.391415"><ele>86.83333333333333</ele><time>2026-04-23T14:42:49.007Z</time></trkpt><trkpt lat="43.7956017" lon="11.3915417"><ele>88.66666666666666</ele><time>2026-04-23T14:42:50.007Z</time></trkpt><trkpt lat="43.7956083" lon="11.3916417"><ele>90.5</ele><time>2026-04-23T14:42:51.007Z</time></trkpt><trkpt lat="43.7955933" lon="11.3917267"><ele>92.33333333333333</ele><time>2026-04-23T14:42:52.007Z</time></trkpt><trkpt lat="43.7955117" lon="11.3918533"><ele>94.16666666666667</ele><time>2026-04-23T14:42:54.007Z</time></trkpt><trkpt lat="43.7954233" lon="11.391855"><ele>96.0</ele><time>2026-04-23T14:42:55.007Z</time></trkpt><trkpt lat="43.7953483" lon="11.3918467"><ele>96.0</ele><time>2026-04-23T14:42:56.007Z</time></trkpt><trkpt lat="43.7952533" lon="11.3918433"><ele>96.0</ele><time>2026-04-23T14:42:58.008Z</time></trkpt><trkpt lat="43.79519" lon="11.3918417"><ele>96.0</ele><time>2026-04-23T14:43:00.007Z</time></trkpt><trkpt lat="43.7950867" lon="11.3918267"><ele>96.0</ele><time>2026-04-23T14:43:02.007Z</time></trkpt><trkpt lat="43.7950217" lon="11.391815"><ele>96.0</ele><time>2026-04-23T14:43:03.007Z</time></trkpt><trkpt lat="43.7949517" lon="11.3918133"><ele>96.0</ele><time>2026-04-23T14:43:04.007Z</time></trkpt><trkpt lat="43.7948817" lon="11.3918217"><ele>96.0</ele><time>2026-04-23T14:43:05.007Z</time></trkpt><trkpt lat="43.794815" lon="11.3918217"><ele>96.0</ele><time>2026-04-23T14:43:06.007Z</time></trkpt><trkpt lat="43.7947467" lon="11.3918"><ele>96.0</ele><time>2026-04-23T14:43:07.007Z</time></trkpt><trkpt lat="43.794665" lon="11.3917567"><ele>96.0</ele><time>2026-04-23T14:43:08.007Z</time></trkpt><trkpt lat="43.7945683" lon="11.3917133"><ele>96.0</ele><time>2026-04-23T14:43:09.007Z</time></trkpt><trkpt lat="43.794475" lon="11.391645"><ele>96.0</ele><time>2026-04-23T14:43:10.008Z</time></trkpt><trkpt lat="43.79439" lon="11.3915567"><ele>95.5</ele><time>2026-04-23T14:43:11.007Z</time></trkpt><trkpt lat="43.794325" lon="11.3914683"><ele>95.0</ele><time>2026-04-23T14:43:12.008Z</time></trkpt><trkpt lat="43.79427" lon="11.39139"><ele>94.5</ele><time>2026-04-23T14:43:13.007Z</time></trkpt><trkpt lat="43.794195" lon="11.3913017"><ele>94.0</ele><time>2026-04-23T14:43:15.008Z</time></trkpt><trkpt lat="43.7941133" lon="11.391305"><ele>93.5</ele><time>2026-04-23T14:43:19.007Z</time></trkpt><trkpt lat="43.79406" lon="11.3914183"><ele>93.0</ele><time>2026-04-23T14:43:22.007Z</time></trkpt><trkpt lat="43.79401" lon="11.3915167"><ele>93.0</ele><time>2026-04-23T14:43:25.007Z</time></trkpt><trkpt lat="43.7939633" lon="11.3915817"><ele>93.0</ele><time>2026-04-23T14:43:27.008Z</time></trkpt><trkpt lat="43.7939" lon="11.3916483"><ele>93.0</ele><time>2026-04-23T14:43:29.007Z</time></trkpt><trkpt lat="43.7938317" lon="11.3917267"><ele>93.0</ele><time>2026-04-23T14:43:31.007Z</time></trkpt><trkpt lat="43.79377" lon="11.3918083"><ele>93.0</ele><time>2026-04-23T14:43:33.007Z</time></trkpt><trkpt lat="43.7937083" lon="11.39189"><ele>93.0</ele><time>2026-04-23T14:43:35.007Z</time></trkpt><trkpt lat="43.7936383" lon="11.3919767"><ele>93.0</ele><time>2026-04-23T14:43:37.008Z</time></trkpt><trkpt lat="43.7935833" lon="11.3920483"><ele>93.0</ele><time>2026-04-23T14:43:39.008Z</time></trkpt><trkpt lat="43.79353" lon="11.3921183"><ele>93.0</ele><time>2026-04-23T14:43:41.008Z</time></trkpt><trkpt lat="43.793485" lon="11.39218"><ele>93.0</ele><time>2026-04-23T14:43:43.007Z</time></trkpt><trkpt lat="43.7934333" lon="11.3922517"><ele>93.0</ele><time>2026-04-23T14:43:46.008Z</time></trkpt><trkpt lat="43.79337" lon="11.3923233"><ele>93.0</ele><time>2026-04-23T14:43:49.007Z</time></trkpt><trkpt lat="43.7932967" lon="11.3923933"><ele>94.5</ele><time>2026-04-23T14:43:52.008Z</time></trkpt><trkpt lat="43.7932417" lon="11.392455"><ele>96.0</ele><time>2026-04-23T14:43:54.007Z</time></trkpt><trkpt lat="43.7931817" lon="11.392515"><ele>97.5</ele><time>2026-04-23T14:43:57.007Z</time></trkpt><trkpt lat="43.793125" lon="11.39256"><ele>99.0</ele><time>2026-04-23T14:43:59.007Z</time></trkpt><trkpt lat="43.7930567" lon="11.3926133"><ele>100.5</ele><time>2026-04-23T14:44:01.007Z</time></trkpt><trkpt lat="43.7929917" lon="11.3926733"><ele>102.0</ele><time>2026-04-23T14:44:03.008Z</time></trkpt><trkpt lat="43.79292" lon="11.39274"><ele>102.0</ele><time>2026-04-23T14:44:05.007Z</time></trkpt><trkpt lat="43.7928633" lon="11.39281"><ele>102.0</ele><time>2026-04-23T14:44:07.007Z</time></trkpt><trkpt lat="43.7928167" lon="11.3928717"><ele>102.0</ele><time>2026-04-23T14:44:09.007Z</time></trkpt><trkpt lat="43.79275" lon="11.3929583"><ele>102.0</ele><time>2026-04-23T14:44:12.007Z</time></trkpt><trkpt lat="43.7927267" lon="11.3930667"><ele>102.0</ele><time>2026-04-23T14:44:16.007Z</time></trkpt><trkpt lat="43.7927267" lon="11.393165"><ele>102.0</ele><time>2026-04-23T14:44:19.008Z</time></trkpt><trkpt lat="43.7927033" lon="11.3932567"><ele>101.5</ele><time>2026-04-23T14:44:24.008Z</time></trkpt><trkpt lat="43.7926517" lon="11.3933717"><ele>101.0</ele><time>2026-04-23T14:44:27.008Z</time></trkpt><trkpt lat="43.79263" lon="11.3934617"><ele>100.5</ele><time>2026-04-23T14:44:29.007Z</time></trkpt><trkpt lat="43.7926033" lon="11.3935533"><ele>100.0</ele><time>2026-04-23T14:44:31.007Z</time></trkpt><trkpt lat="43.7925917" lon="11.393655"><ele>99.5</ele><time>2026-04-23T14:44:35.008Z</time></trkpt><trkpt lat="43.79259" lon="11.3937567"><ele>99.0</ele><time>2026-04-23T14:44:39.008Z</time></trkpt><trkpt lat="43.7925817" lon="11.3938483"><ele>100.28571428571429</ele><time>2026-04-23T14:44:43.007Z</time></trkpt><trkpt lat="43.7925717" lon="11.3939467"><ele>101.57142857142857</ele><time>2026-04-23T14:44:47.007Z</time></trkpt><trkpt lat="43.79256" lon="11.3940383"><ele>102.85714285714286</ele><time>2026-04-23T14:44:50.007Z</time></trkpt><trkpt lat="43.7925483" lon="11.3941267"><ele>104.14285714285714</ele><time>2026-04-23T14:44:52.007Z</time></trkpt><trkpt lat="43.7925367" lon="11.3942317"><ele>105.42857142857142</ele><time>2026-04-23T14:44:55.007Z</time></trkpt><trkpt lat="43.7925167" lon="11.394355"><ele>106.71428571428571</ele><time>2026-04-23T14:44:58.007Z</time></trkpt><trkpt lat="43.7925117" lon="11.3944467"><ele>108.0</ele><time>2026-04-23T14:45:00.007Z</time></trkpt><trkpt lat="43.7925" lon="11.39454"><ele>108.0</ele><time>2026-04-23T14:45:02.007Z</time></trkpt><trkpt lat="43.79249" lon="11.39466"><ele>108.0</ele><time>2026-04-23T14:45:05.007Z</time></trkpt><trkpt lat="43.7924767" lon="11.3947517"><ele>108.0</ele><time>2026-04-23T14:45:09.007Z</time></trkpt><trkpt lat="43.7924517" lon="11.3948683"><ele>108.0</ele><time>2026-04-23T14:45:12.008Z</time></trkpt><trkpt lat="43.792455" lon="11.3949733"><ele>108.0</ele><time>2026-04-23T14:45:15.007Z</time></trkpt><trkpt lat="43.792475" lon="11.395085"><ele>108.0</ele><time>2026-04-23T14:45:18.008Z</time></trkpt><trkpt lat="43.7924617" lon="11.395185"><ele>108.0</ele><time>2026-04-23T14:45:21.008Z</time></trkpt><trkpt lat="43.7924633" lon="11.39529"><ele>108.0</ele><time>2026-04-23T14:45:25.008Z</time></trkpt><trkpt lat="43.7924883" lon="11.3954067"><ele>108.0</ele><time>2026-04-23T14:45:28.008Z</time></trkpt><trkpt lat="43.792505" lon="11.3955133"><ele>108.0</ele><time>2026-04-23T14:45:31.007Z</time></trkpt><trkpt lat="43.7925317" lon="11.39562"><ele>108.0</ele><time>2026-04-23T14:45:34.007Z</time></trkpt><trkpt lat="43.7925533" lon="11.3957117"><ele>108.0</ele><time>2026-04-23T14:45:37.007Z</time></trkpt><trkpt lat="43.7925767" lon="11.3958267"><ele>108.0</ele><time>2026-04-23T14:47:04.006Z</time></trkpt><trkpt lat="43.7925983" lon="11.395925"><ele>108.0</ele><time>2026-04-23T14:47:07.006Z</time></trkpt><trkpt lat="43.7926317" lon="11.396045"><ele>108.0</ele><time>2026-04-23T14:47:10.006Z</time></trkpt><trkpt lat="43.7926633" lon="11.3961267"><ele>108.0</ele><time>2026-04-23T14:47:12.007Z</time></trkpt><trkpt lat="43.7926817" lon="11.3962133"><ele>108.0</ele><time>2026-04-23T14:47:15.006Z</time></trkpt><trkpt lat="43.7926833" lon="11.3963117"><ele>108.0</ele><time>2026-04-23T14:47:19.006Z</time></trkpt><trkpt lat="43.7926533" lon="11.3963967"><ele>108.0</ele><time>2026-04-23T14:47:22.006Z</time></trkpt><trkpt lat="43.7926117" lon="11.39648"><ele>108.33333333333333</ele><time>2026-04-23T14:47:25.006Z</time></trkpt><trkpt lat="43.7925817" lon="11.3965717"><ele>108.66666666666666</ele><time>2026-04-23T14:47:27.006Z</time></trkpt><trkpt lat="43.79255" lon="11.3966683"><ele>109.0</ele><time>2026-04-23T14:47:29.006Z</time></trkpt><trkpt lat="43.7925217" lon="11.3967517"><ele>109.33333333333333</ele><time>2026-04-23T14:47:31.006Z</time></trkpt><trkpt lat="43.792525" lon="11.3969367"><ele>109.66666666666666</ele><time>2026-04-23T14:47:39.006Z</time></trkpt><trkpt lat="43.7925483" lon="11.397065"><ele>110.0</ele><time>2026-04-23T14:47:41.007Z</time></trkpt><trkpt lat="43.7925383" lon="11.3971633"><ele>112.2</ele><time>2026-04-23T14:47:43.006Z</time></trkpt><trkpt lat="43.7924817" lon="11.3972767"><ele>114.4</ele><time>2026-04-23T14:47:45.006Z</time></trkpt><trkpt lat="43.7924033" lon="11.3974033"><ele>116.6</ele><time>2026-04-23T14:47:47.006Z</time></trkpt><trkpt lat="43.7923267" lon="11.3975167"><ele>118.8</ele><time>2026-04-23T14:47:49.007Z</time></trkpt><trkpt lat="43.7922517" lon="11.3976133"><ele>121.0</ele><time>2026-04-23T14:47:51.006Z</time></trkpt><trkpt lat="43.7921917" lon="11.397695"><ele>121.0</ele><time>2026-04-23T14:47:54.006Z</time></trkpt><trkpt lat="43.79216" lon="11.3977883"><ele>121.0</ele><time>2026-04-23T14:47:56.006Z</time></trkpt><trkpt lat="43.7921067" lon="11.3979017"><ele>121.0</ele><time>2026-04-23T14:47:58.006Z</time></trkpt><trkpt lat="43.7920433" lon="11.3980333"><ele>121.0</ele><time>2026-04-23T14:48:00.006Z</time></trkpt><trkpt lat="43.792015" lon="11.3981117"><ele>121.0</ele><time>2026-04-23T14:48:01.006Z</time></trkpt><trkpt lat="43.79196" lon="11.39823"><ele>118.6</ele><time>2026-04-23T14:48:03.006Z</time></trkpt><trkpt lat="43.79191" lon="11.3983433"><ele>116.19999999999999</ele><time>2026-04-23T14:48:05.006Z</time></trkpt><trkpt lat="43.791865" lon="11.39846"><ele>113.80000000000001</ele><time>2026-04-23T14:48:07.006Z</time></trkpt><trkpt lat="43.7918217" lon="11.3985867"><ele>111.4</ele><time>2026-04-23T14:48:09.006Z</time></trkpt><trkpt lat="43.7917817" lon="11.3987"><ele>109.0</ele><time>2026-04-23T14:48:11.006Z</time></trkpt><trkpt lat="43.7917433" lon="11.3987967"><ele>110.0</ele><time>2026-04-23T14:48:14.006Z</time></trkpt><trkpt lat="43.791695" lon="11.3988667"><ele>111.0</ele><time>2026-04-23T14:48:17.006Z</time></trkpt><trkpt lat="43.7916633" lon="11.3989483"><ele>112.0</ele><time>2026-04-23T14:48:19.006Z</time></trkpt><trkpt lat="43.7916333" lon="11.399035"><ele>113.0</ele><time>2026-04-23T14:48:21.006Z</time></trkpt><trkpt lat="43.791595" lon="11.3991267"><ele>114.0</ele><time>2026-04-23T14:48:24.006Z</time></trkpt><trkpt lat="43.7915617" lon="11.3992217"><ele>115.00000000000001</ele><time>2026-04-23T14:48:27.006Z</time></trkpt><trkpt lat="43.7915217" lon="11.39929"><ele>116.00000000000001</ele><time>2026-04-23T14:48:29.006Z</time></trkpt><trkpt lat="43.79148" lon="11.3993633"><ele>115.99999999999999</ele><time>2026-04-23T14:48:31.007Z</time></trkpt><trkpt lat="43.7914367" lon="11.399435"><ele>116.0</ele><time>2026-04-23T14:48:33.006Z</time></trkpt><trkpt lat="43.79139" lon="11.3995233"><ele>116.0</ele><time>2026-04-23T14:48:35.007Z</time></trkpt><trkpt lat="43.79133" lon="11.3996133"><ele>116.0</ele><time>2026-04-23T14:48:37.006Z</time></trkpt><trkpt lat="43.791275" lon="11.3997067"><ele>115.99999999999999</ele><time>2026-04-23T14:48:39.006Z</time></trkpt><trkpt lat="43.7912283" lon="11.3997733"><ele>116.0</ele><time>2026-04-23T14:48:41.007Z</time></trkpt><trkpt lat="43.791145" lon="11.3998267"><ele>117.49999999999999</ele><time>2026-04-23T14:48:44.006Z</time></trkpt><trkpt lat="43.7910667" lon="11.399875"><ele>119.0</ele><time>2026-04-23T14:48:47.006Z</time></trkpt><trkpt lat="43.7910117" lon="11.3999317"><ele>120.5</ele><time>2026-04-23T14:48:50.006Z</time></trkpt><trkpt lat="43.7909383" lon="11.3999933"><ele>122.0</ele><time>2026-04-23T14:48:53.007Z</time></trkpt><trkpt lat="43.79087" lon="11.4000517"><ele>123.49999999999999</ele><time>2026-04-23T14:48:56.006Z</time></trkpt><trkpt lat="43.7908" lon="11.4001117"><ele>125.0</ele><time>2026-04-23T14:48:59.006Z</time></trkpt><trkpt lat="43.79073" lon="11.4001617"><ele>122.66666666666666</ele><time>2026-04-23T14:49:02.006Z</time></trkpt><trkpt lat="43.790645" lon="11.40022"><ele>120.33333333333333</ele><time>2026-04-23T14:49:05.006Z</time></trkpt><trkpt lat="43.790585" lon="11.4002633"><ele>118.0</ele><time>2026-04-23T14:49:07.006Z</time></trkpt><trkpt lat="43.7905217" lon="11.4003133"><ele>115.66666666666666</ele><time>2026-04-23T14:49:09.006Z</time></trkpt><trkpt lat="43.790455" lon="11.400365"><ele>113.33333333333333</ele><time>2026-04-23T14:49:11.007Z</time></trkpt><trkpt lat="43.7904017" lon="11.4004233"><ele>111.0</ele><time>2026-04-23T14:49:14.006Z</time></trkpt><trkpt lat="43.79035" lon="11.4005067"><ele>111.0</ele><time>2026-04-23T14:49:23.006Z</time></trkpt><trkpt lat="43.7903367" lon="11.400625"><ele>111.0</ele><time>2026-04-23T14:49:32.007Z</time></trkpt><trkpt lat="43.7903717" lon="11.4007267"><ele>111.0</ele><time>2026-04-23T14:49:34.006Z</time></trkpt><trkpt lat="43.7903983" lon="11.4008267"><ele>111.0</ele><time>2026-04-23T14:49:36.006Z</time></trkpt><trkpt lat="43.79044" lon="11.4009167"><ele>111.0</ele><time>2026-04-23T14:49:39.007Z</time></trkpt><trkpt lat="43.7905067" lon="11.4009917"><ele>111.0</ele><time>2026-04-23T14:49:42.006Z</time></trkpt><trkpt lat="43.7905767" lon="11.4010167"><ele>111.0</ele><time>2026-04-23T14:49:44.006Z</time></trkpt><trkpt lat="43.7906483" lon="11.4010333"><ele>111.0</ele><time>2026-04-23T14:49:46.007Z</time></trkpt><trkpt lat="43.7908017" lon="11.40104"><ele>111.0</ele><time>2026-04-23T14:50:06.006Z</time></trkpt><trkpt lat="43.7908833" lon="11.4010617"><ele>111.0</ele><time>2026-04-23T14:50:08.007Z</time></trkpt><trkpt lat="43.7909883" lon="11.4010767"><ele>111.0</ele><time>2026-04-23T14:50:10.006Z</time></trkpt><trkpt lat="43.791095" lon="11.4010833"><ele>115.4</ele><time>2026-04-23T14:50:12.007Z</time></trkpt><trkpt lat="43.791195" lon="11.4011033"><ele>119.8</ele><time>2026-04-23T14:50:14.006Z</time></trkpt><trkpt lat="43.7912867" lon="11.40113"><ele>124.20000000000002</ele><time>2026-04-23T14:50:16.006Z</time></trkpt><trkpt lat="43.79138" lon="11.4011667"><ele>128.6</ele><time>2026-04-23T14:50:18.007Z</time></trkpt><trkpt lat="43.7914533" lon="11.4012"><ele>133.0</ele><time>2026-04-23T14:50:20.006Z</time></trkpt><trkpt lat="43.7915436" lon="11.4012495"><ele>133.0</ele><time>2026-04-23T14:50:42.007Z</time></trkpt><trkpt lat="43.7916688" lon="11.4013064"><ele>133.0</ele><time>2026-04-23T14:50:45.006Z</time></trkpt><trkpt lat="43.7917665" lon="11.4013547"><ele>133.0</ele><time>2026-04-23T14:50:47.007Z</time></trkpt><trkpt lat="43.7918548" lon="11.4014018"><ele>133.0</ele><time>2026-04-23T14:50:49.007Z</time></trkpt><trkpt lat="43.791935" lon="11.4014267"><ele>133.0</ele><time>2026-04-23T14:50:51.006Z</time></trkpt><trkpt lat="43.7920283" lon="11.4014283"><ele>135.5</ele><time>2026-04-23T14:50:53.007Z</time></trkpt><trkpt lat="43.79213" lon="11.401425"><ele>138.0</ele><time>2026-04-23T14:50:55.006Z</time></trkpt><trkpt lat="43.792235" lon="11.4014067"><ele>140.5</ele><time>2026-04-23T14:50:57.006Z</time></trkpt><trkpt lat="43.7923133" lon="11.40139"><ele>143.0</ele><time>2026-04-23T14:50:59.006Z</time></trkpt><trkpt lat="43.7923833" lon="11.40134"><ele>145.5</ele><time>2026-04-23T14:51:01.006Z</time></trkpt><trkpt lat="43.7924383" lon="11.4012733"><ele>148.0</ele><time>2026-04-23T14:51:03.006Z</time></trkpt><trkpt lat="43.7925183" lon="11.40129"><ele>148.0</ele><time>2026-04-23T14:51:06.006Z</time></trkpt><trkpt lat="43.79258" lon="11.40139"><ele>148.0</ele><time>2026-04-23T14:51:09.006Z</time></trkpt><trkpt lat="43.7926933" lon="11.40153"><ele>148.0</ele><time>2026-04-23T14:51:45.006Z</time></trkpt><trkpt lat="43.792765" lon="11.40166"><ele>148.0</ele><time>2026-04-23T14:51:47.006Z</time></trkpt><trkpt lat="43.79283" lon="11.4017917"><ele>147.20000000000002</ele><time>2026-04-23T14:51:49.007Z</time></trkpt><trkpt lat="43.7929" lon="11.4019267"><ele>146.4</ele><time>2026-04-23T14:51:51.006Z</time></trkpt><trkpt lat="43.7929433" lon="11.402005"><ele>145.60000000000002</ele><time>2026-04-23T14:51:52.006Z</time></trkpt><trkpt lat="43.79298" lon="11.4020783"><ele>144.8</ele><time>2026-04-23T14:51:53.006Z</time></trkpt><trkpt lat="43.7930533" lon="11.40223"><ele>144.0</ele><time>2026-04-23T14:51:55.007Z</time></trkpt><trkpt lat="43.7930817" lon="11.40231"><ele>144.0</ele><time>2026-04-23T14:51:56.006Z</time></trkpt><trkpt lat="43.7931083" lon="11.4024033"><ele>144.0</ele><time>2026-04-23T14:51:57.007Z</time></trkpt><trkpt lat="43.793135" lon="11.40249"><ele>144.0</ele><time>2026-04-23T14:51:58.006Z</time></trkpt><trkpt lat="43.7931617" lon="11.40257"><ele>144.0</ele><time>2026-04-23T14:51:59.006Z</time></trkpt><trkpt lat="43.7932083" lon="11.402725"><ele>144.0</ele><time>2026-04-23T14:52:01.006Z</time></trkpt><trkpt lat="43.7932683" lon="11.40287"><ele>144.0</ele><time>2026-04-23T14:52:03.006Z</time></trkpt><trkpt lat="43.7933033" lon="11.4029433"><ele>144.57142857142858</ele><time>2026-04-23T14:52:04.006Z</time></trkpt><trkpt lat="43.7933417" lon="11.403015"><ele>145.14285714285714</ele><time>2026-04-23T14:52:05.006Z</time></trkpt><trkpt lat="43.7933833" lon="11.4030883"><ele>145.71428571428572</ele><time>2026-04-23T14:52:06.007Z</time></trkpt><trkpt lat="43.7934183" lon="11.4031633"><ele>146.28571428571428</ele><time>2026-04-23T14:52:07.006Z</time></trkpt><trkpt lat="43.7934583" lon="11.40325"><ele>146.85714285714286</ele><time>2026-04-23T14:52:08.006Z</time></trkpt><trkpt lat="43.7934967" lon="11.4033267"><ele>147.42857142857144</ele><time>2026-04-23T14:52:09.007Z</time></trkpt><trkpt lat="43.79353" lon="11.4034033"><ele>148.0</ele><time>2026-04-23T14:52:10.007Z</time></trkpt><trkpt lat="43.7935617" lon="11.40348"><ele>148.0</ele><time>2026-04-23T14:52:11.006Z</time></trkpt><trkpt lat="43.7935983" lon="11.4035717"><ele>148.0</ele><time>2026-04-23T14:52:12.006Z</time></trkpt><trkpt lat="43.7936433" lon="11.40367"><ele>148.0</ele><time>2026-04-23T14:52:13.006Z</time></trkpt><trkpt lat="43.7936833" lon="11.4037617"><ele>148.0</ele><time>2026-04-23T14:52:14.006Z</time></trkpt><trkpt lat="43.7937183" lon="11.4038667"><ele>148.0</ele><time>2026-04-23T14:52:15.006Z</time></trkpt><trkpt lat="43.793755" lon="11.4039717"><ele>148.0</ele><time>2026-04-23T14:52:16.007Z</time></trkpt><trkpt lat="43.7937917" lon="11.4040733"><ele>145.83333333333334</ele><time>2026-04-23T14:52:17.006Z</time></trkpt><trkpt lat="43.7938233" lon="11.4041633"><ele>143.66666666666669</ele><time>2026-04-23T14:52:18.006Z</time></trkpt><trkpt lat="43.7938433" lon="11.40425"><ele>141.5</ele><time>2026-04-23T14:52:19.007Z</time></trkpt><trkpt lat="43.7938667" lon="11.404385"><ele>139.33333333333334</ele><time>2026-04-23T14:52:21.006Z</time></trkpt><trkpt lat="43.7938517" lon="11.4044917"><ele>137.16666666666666</ele><time>2026-04-23T14:52:23.006Z</time></trkpt><trkpt lat="43.7938183" lon="11.404585"><ele>135.0</ele><time>2026-04-23T14:52:25.006Z</time></trkpt><trkpt lat="43.7937633" lon="11.404645"><ele>135.0</ele><time>2026-04-23T14:52:27.006Z</time></trkpt><trkpt lat="43.7936967" lon="11.4046867"><ele>135.0</ele><time>2026-04-23T14:52:29.007Z</time></trkpt><trkpt lat="43.7935517" lon="11.4047267"><ele>135.0</ele><time>2026-04-23T14:52:31.006Z</time></trkpt><trkpt lat="43.793445" lon="11.40474"><ele>135.0</ele><time>2026-04-23T14:52:32.006Z</time></trkpt><trkpt lat="43.793335" lon="11.4047433"><ele>135.0</ele><time>2026-04-23T14:52:33.006Z</time></trkpt><trkpt lat="43.793225" lon="11.404755"><ele>134.66666666666666</ele><time>2026-04-23T14:52:34.006Z</time></trkpt><trkpt lat="43.793125" lon="11.4047667"><ele>134.33333333333334</ele><time>2026-04-23T14:52:35.007Z</time></trkpt><trkpt lat="43.793035" lon="11.40479"><ele>134.0</ele><time>2026-04-23T14:52:36.006Z</time></trkpt><trkpt lat="43.7929767" lon="11.40484"><ele>133.66666666666669</ele><time>2026-04-23T14:52:37.006Z</time></trkpt><trkpt lat="43.792935" lon="11.4049067"><ele>133.33333333333334</ele><time>2026-04-23T14:52:38.006Z</time></trkpt><trkpt lat="43.7929367" lon="11.4050083"><ele>133.0</ele><time>2026-04-23T14:52:39.006Z</time></trkpt><trkpt lat="43.7929617" lon="11.4051183"><ele>133.0</ele><time>2026-04-23T14:52:40.007Z</time></trkpt><trkpt lat="43.7930117" lon="11.4052417"><ele>133.0</ele><time>2026-04-23T14:52:41.006Z</time></trkpt><trkpt lat="43.7930483" lon="11.4053583"><ele>133.0</ele><time>2026-04-23T14:52:42.006Z</time></trkpt><trkpt lat="43.7930767" lon="11.405465"><ele>133.0</ele><time>2026-04-23T14:52:43.006Z</time></trkpt><trkpt lat="43.79311" lon="11.4055683"><ele>133.0</ele><time>2026-04-23T14:52:44.006Z</time></trkpt><trkpt lat="43.7931417" lon="11.405665"><ele>133.0</ele><time>2026-04-23T14:52:45.006Z</time></trkpt><trkpt lat="43.7931617" lon="11.4057567"><ele>134.6</ele><time>2026-04-23T14:52:46.006Z</time></trkpt><trkpt lat="43.79317" lon="11.4058467"><ele>136.20000000000002</ele><time>2026-04-23T14:52:47.006Z</time></trkpt><trkpt lat="43.7931467" lon="11.4060017"><ele>137.8</ele><time>2026-04-23T14:52:49.006Z</time></trkpt><trkpt lat="43.793155" lon="11.4061567"><ele>139.4</ele><time>2026-04-23T14:52:51.006Z</time></trkpt><trkpt lat="43.7931967" lon="11.4062583"><ele>141.0</ele><time>2026-04-23T14:52:52.006Z</time></trkpt><trkpt lat="43.7932467" lon="11.4063683"><ele>142.8</ele><time>2026-04-23T14:52:53.006Z</time></trkpt><trkpt lat="43.7932967" lon="11.40648"><ele>144.6</ele><time>2026-04-23T14:52:54.006Z</time></trkpt><trkpt lat="43.7933517" lon="11.406595"><ele>146.4</ele><time>2026-04-23T14:52:55.006Z</time></trkpt><trkpt lat="43.7934083" lon="11.4067167"><ele>148.2</ele><time>2026-04-23T14:52:56.006Z</time></trkpt><trkpt lat="43.79348" lon="11.4068317"><ele>150.0</ele><time>2026-04-23T14:52:57.007Z</time></trkpt><trkpt lat="43.7935483" lon="11.406935"><ele>150.0</ele><time>2026-04-23T14:52:58.007Z</time></trkpt><trkpt lat="43.79364" lon="11.4070217"><ele>150.0</ele><time>2026-04-23T14:52:59.007Z</time></trkpt><trkpt lat="43.7937333" lon="11.4070967"><ele>150.0</ele><time>2026-04-23T14:53:00.007Z</time></trkpt><trkpt lat="43.7938117" lon="11.40717"><ele>150.0</ele><time>2026-04-23T14:53:01.006Z</time></trkpt><trkpt lat="43.7938817" lon="11.4072567"><ele>150.0</ele><time>2026-04-23T14:53:02.006Z</time></trkpt><trkpt lat="43.7939483" lon="11.4073817"><ele>152.0</ele><time>2026-04-23T14:53:03.007Z</time></trkpt><trkpt lat="43.793995" lon="11.40752"><ele>154.0</ele><time>2026-04-23T14:53:04.007Z</time></trkpt><trkpt lat="43.79402" lon="11.4076217"><ele>156.0</ele><time>2026-04-23T14:53:05.006Z</time></trkpt><trkpt lat="43.7940217" lon="11.4077567"><ele>158.0</ele><time>2026-04-23T14:53:07.007Z</time></trkpt><trkpt lat="43.79396" lon="11.407795"><ele>160.0</ele><time>2026-04-23T14:53:09.006Z</time></trkpt><trkpt lat="43.7938767" lon="11.4076617"><ele>160.0</ele><time>2026-04-23T14:53:11.006Z</time></trkpt><trkpt lat="43.793825" lon="11.4075683"><ele>160.0</ele><time>2026-04-23T14:53:12.006Z</time></trkpt><trkpt lat="43.7937567" lon="11.40749"><ele>160.0</ele><time>2026-04-23T14:53:13.007Z</time></trkpt><trkpt lat="43.7936667" lon="11.40742"><ele>160.0</ele><time>2026-04-23T14:53:14.006Z</time></trkpt><trkpt lat="43.7935683" lon="11.4073833"><ele>160.0</ele><time>2026-04-23T14:53:15.006Z</time></trkpt><trkpt lat="43.7934633" lon="11.4073867"><ele>162.8</ele><time>2026-04-23T14:53:16.006Z</time></trkpt><trkpt lat="43.7933583" lon="11.407405"><ele>165.6</ele><time>2026-04-23T14:53:17.006Z</time></trkpt><trkpt lat="43.7932567" lon="11.4074317"><ele>168.39999999999998</ele><time>2026-04-23T14:53:18.006Z</time></trkpt><trkpt lat="43.7931483" lon="11.4074733"><ele>171.2</ele><time>2026-04-23T14:53:19.006Z</time></trkpt><trkpt lat="43.79304" lon="11.4075233"><ele>174.0</ele><time>2026-04-23T14:53:20.006Z</time></trkpt><trkpt lat="43.792915" lon="11.4075667"><ele>174.0</ele><time>2026-04-23T14:53:21.006Z</time></trkpt><trkpt lat="43.792805" lon="11.4076133"><ele>174.0</ele><time>2026-04-23T14:53:22.006Z</time></trkpt><trkpt lat="43.7927167" lon="11.4076533"><ele>174.0</ele><time>2026-04-23T14:53:23.007Z</time></trkpt><trkpt lat="43.79264" lon="11.4076817"><ele>174.0</ele><time>2026-04-23T14:53:24.007Z</time></trkpt><trkpt lat="43.7925917" lon="11.4077983"><ele>174.0</ele><time>2026-04-23T14:53:26.006Z</time></trkpt><trkpt lat="43.79264" lon="11.4079083"><ele>174.0</ele><time>2026-04-23T14:53:28.006Z</time></trkpt><trkpt lat="43.7927683" lon="11.40794"><ele>174.0</ele><time>2026-04-23T14:53:30.006Z</time></trkpt><trkpt lat="43.7928583" lon="11.4079667"><ele>174.0</ele><time>2026-04-23T14:53:31.007Z</time></trkpt><trkpt lat="43.7929567" lon="11.4080017"><ele>174.0</ele><time>2026-04-23T14:53:32.006Z</time></trkpt><trkpt lat="43.79307" lon="11.40806"><ele>174.0</ele><time>2026-04-23T14:53:33.007Z</time></trkpt><trkpt lat="43.7931617" lon="11.40813"><ele>177.25</ele><time>2026-04-23T14:53:34.006Z</time></trkpt><trkpt lat="43.7932517" lon="11.40823"><ele>180.5</ele><time>2026-04-23T14:53:35.006Z</time></trkpt><trkpt lat="43.793345" lon="11.4083467"><ele>183.75</ele><time>2026-04-23T14:53:36.006Z</time></trkpt><trkpt lat="43.7934283" lon="11.40847"><ele>187.0</ele><time>2026-04-23T14:53:37.007Z</time></trkpt><trkpt lat="43.7935017" lon="11.4086033"><ele>185.2</ele><time>2026-04-23T14:53:38.006Z</time></trkpt><trkpt lat="43.7935683" lon="11.4087383"><ele>183.39999999999998</ele><time>2026-04-23T14:53:39.006Z</time></trkpt><trkpt lat="43.79362" lon="11.408865"><ele>181.60000000000002</ele><time>2026-04-23T14:53:40.007Z</time></trkpt><trkpt lat="43.7936567" lon="11.4089983"><ele>179.8</ele><time>2026-04-23T14:53:41.006Z</time></trkpt><trkpt lat="43.7936767" lon="11.4091267"><ele>178.0</ele><time>2026-04-23T14:53:42.006Z</time></trkpt><trkpt lat="43.7936667" lon="11.4092633"><ele>178.0</ele><time>2026-04-23T14:53:43.006Z</time></trkpt><trkpt lat="43.793665" lon="11.4094033"><ele>178.0</ele><time>2026-04-23T14:53:44.006Z</time></trkpt><trkpt lat="43.7936517" lon="11.4095533"><ele>178.0</ele><time>2026-04-23T14:53:45.006Z</time></trkpt><trkpt lat="43.7936467" lon="11.4096933"><ele>178.0</ele><time>2026-04-23T14:53:46.006Z</time></trkpt><trkpt lat="43.793665" lon="11.4098283"><ele>178.0</ele><time>2026-04-23T14:53:47.007Z</time></trkpt><trkpt lat="43.7937033" lon="11.4099667"><ele>180.4</ele><time>2026-04-23T14:53:48.006Z</time></trkpt><trkpt lat="43.7937483" lon="11.4101033"><ele>182.8</ele><time>2026-04-23T14:53:49.007Z</time></trkpt><trkpt lat="43.7938" lon="11.4102283"><ele>185.2</ele><time>2026-04-23T14:53:50.006Z</time></trkpt><trkpt lat="43.79385" lon="11.410345"><ele>187.6</ele><time>2026-04-23T14:53:51.006Z</time></trkpt><trkpt lat="43.7939117" lon="11.4104483"><ele>190.0</ele><time>2026-04-23T14:53:52.006Z</time></trkpt><trkpt lat="43.7939933" lon="11.4105417"><ele>191.0</ele><time>2026-04-23T14:53:53.006Z</time></trkpt><trkpt lat="43.79409" lon="11.4106133"><ele>192.0</ele><time>2026-04-23T14:53:54.007Z</time></trkpt><trkpt lat="43.7941867" lon="11.410675"><ele>193.0</ele><time>2026-04-23T14:53:55.006Z</time></trkpt><trkpt lat="43.7942883" lon="11.4107333"><ele>194.0</ele><time>2026-04-23T14:53:56.006Z</time></trkpt><trkpt lat="43.7943883" lon="11.4107883"><ele>195.0</ele><time>2026-04-23T14:53:57.007Z</time></trkpt><trkpt lat="43.7944833" lon="11.4108567"><ele>195.8</ele><time>2026-04-23T14:53:58.006Z</time></trkpt><trkpt lat="43.79458" lon="11.4109233"><ele>196.6</ele><time>2026-04-23T14:53:59.006Z</time></trkpt><trkpt lat="43.794675" lon="11.4109933"><ele>197.39999999999998</ele><time>2026-04-23T14:54:00.006Z</time></trkpt><trkpt lat="43.7947667" lon="11.4110517"><ele>198.2</ele><time>2026-04-23T14:54:01.007Z</time></trkpt><trkpt lat="43.7948667" lon="11.411105"><ele>199.0</ele><time>2026-04-23T14:54:02.006Z</time></trkpt><trkpt lat="43.7949783" lon="11.4111533"><ele>199.0</ele><time>2026-04-23T14:54:03.007Z</time></trkpt><trkpt lat="43.7951" lon="11.4112083"><ele>199.0</ele><time>2026-04-23T14:54:04.006Z</time></trkpt><trkpt lat="43.7952433" lon="11.4112717"><ele>199.0</ele><time>2026-04-23T14:54:05.006Z</time></trkpt><trkpt lat="43.7954" lon="11.4113533"><ele>199.0</ele><time>2026-04-23T14:54:06.006Z</time></trkpt><trkpt lat="43.7955633" lon="11.4114367"><ele>203.75</ele><time>2026-04-23T14:54:07.007Z</time></trkpt><trkpt lat="43.7957083" lon="11.4115067"><ele>208.5</ele><time>2026-04-23T14:54:08.007Z</time></trkpt><trkpt lat="43.7958383" lon="11.411575"><ele>213.25</ele><time>2026-04-23T14:54:09.006Z</time></trkpt><trkpt lat="43.7959517" lon="11.4116267"><ele>218.0</ele><time>2026-04-23T14:54:10.006Z</time></trkpt><trkpt lat="43.79605" lon="11.4116667"><ele>218.0</ele><time>2026-04-23T14:54:11.006Z</time></trkpt><trkpt lat="43.7961167" lon="11.4117017"><ele>218.0</ele><time>2026-04-23T14:54:12.007Z</time></trkpt><trkpt lat="43.7961917" lon="11.4117917"><ele>218.0</ele><time>2026-04-23T14:54:14.006Z</time></trkpt><trkpt lat="43.7961617" lon="11.4118967"><ele>218.0</ele><time>2026-04-23T14:54:16.006Z</time></trkpt><trkpt lat="43.7960267" lon="11.4118967"><ele>218.0</ele><time>2026-04-23T14:54:18.006Z</time></trkpt><trkpt lat="43.795935" lon="11.41188"><ele>218.0</ele><time>2026-04-23T14:54:19.007Z</time></trkpt><trkpt lat="43.79584" lon="11.4118483"><ele>218.0</ele><time>2026-04-23T14:54:20.006Z</time></trkpt><trkpt lat="43.7957617" lon="11.411845"><ele>218.0</ele><time>2026-04-23T14:54:21.006Z</time></trkpt><trkpt lat="43.7957067" lon="11.4119317"><ele>218.0</ele><time>2026-04-23T14:54:23.007Z</time></trkpt><trkpt lat="43.7957617" lon="11.41209"><ele>218.0</ele><time>2026-04-23T14:54:25.006Z</time></trkpt><trkpt lat="43.7958233" lon="11.41218"><ele>219.60000000000002</ele><time>2026-04-23T14:54:26.006Z</time></trkpt><trkpt lat="43.7958983" lon="11.4122767"><ele>221.20000000000002</ele><time>2026-04-23T14:54:27.006Z</time></trkpt><trkpt lat="43.7959867" lon="11.4123667"><ele>222.8</ele><time>2026-04-23T14:54:28.007Z</time></trkpt><trkpt lat="43.7960783" lon="11.4124567"><ele>224.4</ele><time>2026-04-23T14:54:29.006Z</time></trkpt><trkpt lat="43.79617" lon="11.4125433"><ele>226.0</ele><time>2026-04-23T14:54:30.007Z</time></trkpt><trkpt lat="43.79625" lon="11.4125983"><ele>226.83333333333331</ele><time>2026-04-23T14:54:31.006Z</time></trkpt><trkpt lat="43.79631" lon="11.41263"><ele>227.66666666666666</ele><time>2026-04-23T14:54:32.007Z</time></trkpt><trkpt lat="43.7963833" lon="11.41268"><ele>228.5</ele><time>2026-04-23T14:54:34.006Z</time></trkpt><trkpt lat="43.796405" lon="11.4128233"><ele>229.33333333333331</ele><time>2026-04-23T14:54:37.007Z</time></trkpt><trkpt lat="43.7963783" lon="11.4129183"><ele>230.16666666666666</ele><time>2026-04-23T14:54:38.006Z</time></trkpt><trkpt lat="43.79634" lon="11.413025"><ele>231.0</ele><time>2026-04-23T14:54:39.006Z</time></trkpt><trkpt lat="43.7963017" lon="11.4131333"><ele>232.4</ele><time>2026-04-23T14:54:40.006Z</time></trkpt><trkpt lat="43.796275" lon="11.4132267"><ele>233.8</ele><time>2026-04-23T14:54:41.006Z</time></trkpt><trkpt lat="43.7962567" lon="11.4133683"><ele>235.20000000000002</ele><time>2026-04-23T14:54:43.006Z</time></trkpt><trkpt lat="43.796265" lon="11.4134733"><ele>236.60000000000002</ele><time>2026-04-23T14:54:45.006Z</time></trkpt><trkpt lat="43.7963233" lon="11.413605"><ele>238.0</ele><time>2026-04-23T14:54:47.006Z</time></trkpt><trkpt lat="43.7963583" lon="11.413725"><ele>237.99999999999997</ele><time>2026-04-23T14:54:49.006Z</time></trkpt><trkpt lat="43.7963833" lon="11.4138067"><ele>238.0</ele><time>2026-04-23T14:54:50.007Z</time></trkpt><trkpt lat="43.7964033" lon="11.413895"><ele>238.0</ele><time>2026-04-23T14:54:51.006Z</time></trkpt><trkpt lat="43.7964267" lon="11.4139883"><ele>238.0</ele><time>2026-04-23T14:54:52.007Z</time></trkpt><trkpt lat="43.79644" lon="11.4141867"><ele>237.99999999999997</ele><time>2026-04-23T14:54:54.007Z</time></trkpt><trkpt lat="43.796415" lon="11.4143067"><ele>238.0</ele><time>2026-04-23T14:54:55.006Z</time></trkpt><trkpt lat="43.79638" lon="11.4144517"><ele>239.33333333333331</ele><time>2026-04-23T14:54:56.006Z</time></trkpt><trkpt lat="43.7963517" lon="11.4145733"><ele>240.66666666666666</ele><time>2026-04-23T14:54:57.006Z</time></trkpt><trkpt lat="43.79634" lon="11.4146817"><ele>242.0</ele><time>2026-04-23T14:54:58.006Z</time></trkpt><trkpt lat="43.796325" lon="11.4147767"><ele>243.33333333333331</ele><time>2026-04-23T14:54:59.006Z</time></trkpt><trkpt lat="43.7963067" lon="11.41488"><ele>244.66666666666666</ele><time>2026-04-23T14:55:00.006Z</time></trkpt><trkpt lat="43.7962917" lon="11.4149833"><ele>246.0</ele><time>2026-04-23T14:55:01.007Z</time></trkpt><trkpt lat="43.7962733" lon="11.4150983"><ele>248.0</ele><time>2026-04-23T14:55:02.007Z</time></trkpt><trkpt lat="43.7962533" lon="11.4152133"><ele>250.0</ele><time>2026-04-23T14:55:03.007Z</time></trkpt><trkpt lat="43.7962317" lon="11.4153133"><ele>252.0</ele><time>2026-04-23T14:55:04.006Z</time></trkpt><trkpt lat="43.796195" lon="11.41541"><ele>254.0</ele><time>2026-04-23T14:55:06.006Z</time></trkpt><trkpt lat="43.7962" lon="11.4155333"><ele>256.0</ele><time>2026-04-23T14:55:09.007Z</time></trkpt><trkpt lat="43.79629" lon="11.4156417"><ele>258.0</ele><time>2026-04-23T14:55:41.006Z</time></trkpt><trkpt lat="43.796365" lon="11.4156783"><ele>258.8</ele><time>2026-04-23T14:55:42.006Z</time></trkpt><trkpt lat="43.7964333" lon="11.415705"><ele>259.6</ele><time>2026-04-23T14:55:43.006Z</time></trkpt><trkpt lat="43.796505" lon="11.415735"><ele>260.4</ele><time>2026-04-23T14:55:44.006Z</time></trkpt><trkpt lat="43.7965667" lon="11.415755"><ele>261.2</ele><time>2026-04-23T14:55:45.006Z</time></trkpt><trkpt lat="43.7966717" lon="11.4157967"><ele>262.0</ele><time>2026-04-23T14:55:47.007Z</time></trkpt><trkpt lat="43.796795" lon="11.41586"><ele>262.7142857142857</ele><time>2026-04-23T14:55:49.006Z</time></trkpt><trkpt lat="43.7968667" lon="11.4158983"><ele>263.42857142857144</ele><time>2026-04-23T14:55:50.006Z</time></trkpt><trkpt lat="43.7969317" lon="11.415925"><ele>264.14285714285717</ele><time>2026-04-23T14:55:51.006Z</time></trkpt><trkpt lat="43.7970033" lon="11.4159617"><ele>264.8571428571429</ele><time>2026-04-23T14:55:52.006Z</time></trkpt><trkpt lat="43.7970667" lon="11.4159917"><ele>265.57142857142856</ele><time>2026-04-23T14:55:53.006Z</time></trkpt><trkpt lat="43.7971317" lon="11.4160317"><ele>266.28571428571433</ele><time>2026-04-23T14:55:54.006Z</time></trkpt><trkpt lat="43.7971883" lon="11.4160817"><ele>267.0</ele><time>2026-04-23T14:55:55.007Z</time></trkpt><trkpt lat="43.7972617" lon="11.41614"><ele>267.0</ele><time>2026-04-23T14:55:57.006Z</time></trkpt><trkpt lat="43.7973267" lon="11.4162083"><ele>267.0</ele><time>2026-04-23T14:55:59.006Z</time></trkpt><trkpt lat="43.797405" lon="11.41628"><ele>267.0</ele><time>2026-04-23T14:56:01.007Z</time></trkpt><trkpt lat="43.7974917" lon="11.4163617"><ele>267.0</ele><time>2026-04-23T14:56:03.006Z</time></trkpt><trkpt lat="43.79758" lon="11.4164333"><ele>267.0</ele><time>2026-04-23T14:56:05.006Z</time></trkpt><trkpt lat="43.79767" lon="11.41651"><ele>264.0</ele><time>2026-04-23T14:56:07.006Z</time></trkpt><trkpt lat="43.7977633" lon="11.4166017"><ele>261.0</ele><time>2026-04-23T14:56:09.006Z</time></trkpt><trkpt lat="43.7978517" lon="11.4166833"><ele>258.0</ele><time>2026-04-23T14:56:11.007Z</time></trkpt><trkpt lat="43.79792" lon="11.4167533"><ele>255.0</ele><time>2026-04-23T14:56:13.006Z</time></trkpt><trkpt lat="43.7979767" lon="11.416855"><ele>252.0</ele><time>2026-04-23T14:56:15.007Z</time></trkpt><trkpt lat="43.7980201" lon="11.4169661"><ele>252.0</ele><time>2026-04-23T14:56:17.007Z</time></trkpt><trkpt lat="43.7980429" lon="11.4170993"><ele>252.0</ele><time>2026-04-23T14:56:19.006Z</time></trkpt><trkpt lat="43.79808" lon="11.41719"><ele>252.0</ele><time>2026-04-23T14:56:21.006Z</time></trkpt><trkpt lat="43.7981133" lon="11.4172733"><ele>252.0</ele><time>2026-04-23T14:56:23.006Z</time></trkpt><trkpt lat="43.798155" lon="11.417375"><ele>252.0</ele><time>2026-04-23T14:56:25.006Z</time></trkpt><trkpt lat="43.7981783" lon="11.417495"><ele>252.0</ele><time>2026-04-23T14:56:27.007Z</time></trkpt><trkpt lat="43.7981917" lon="11.41762"><ele>252.33333333333334</ele><time>2026-04-23T14:56:29.006Z</time></trkpt><trkpt lat="43.798205" lon="11.4177233"><ele>252.66666666666669</ele><time>2026-04-23T14:56:31.006Z</time></trkpt><trkpt lat="43.79825" lon="11.4178083"><ele>253.0</ele><time>2026-04-23T14:56:33.006Z</time></trkpt><trkpt lat="43.7983367" lon="11.417885"><ele>253.33333333333334</ele><time>2026-04-23T14:56:35.006Z</time></trkpt><trkpt lat="43.798395" lon="11.4179533"><ele>253.66666666666669</ele><time>2026-04-23T14:56:36.006Z</time></trkpt><trkpt lat="43.7984583" lon="11.4180367"><ele>254.0</ele><time>2026-04-23T14:56:37.007Z</time></trkpt><trkpt lat="43.798535" lon="11.4181217"><ele>254.6</ele><time>2026-04-23T14:56:38.006Z</time></trkpt><trkpt lat="43.79861" lon="11.4182217"><ele>255.2</ele><time>2026-04-23T14:56:39.007Z</time></trkpt><trkpt lat="43.798685" lon="11.4183217"><ele>255.79999999999998</ele><time>2026-04-23T14:56:40.006Z</time></trkpt><trkpt lat="43.798755" lon="11.4184067"><ele>256.4</ele><time>2026-04-23T14:56:41.006Z</time></trkpt><trkpt lat="43.7988133" lon="11.4184833"><ele>257.0</ele><time>2026-04-23T14:56:42.006Z</time></trkpt><trkpt lat="43.7988767" lon="11.4185617"><ele>257.0</ele><time>2026-04-23T14:56:43.007Z</time></trkpt><trkpt lat="43.7989433" lon="11.4186683"><ele>257.0</ele><time>2026-04-23T14:56:44.006Z</time></trkpt><trkpt lat="43.799" lon="11.4187867"><ele>257.0</ele><time>2026-04-23T14:56:45.007Z</time></trkpt><trkpt lat="43.79905" lon="11.4189317"><ele>257.0</ele><time>2026-04-23T14:56:46.007Z</time></trkpt><trkpt lat="43.7990933" lon="11.41909"><ele>257.0</ele><time>2026-04-23T14:56:47.006Z</time></trkpt><trkpt lat="43.7991383" lon="11.419235"><ele>258.25</ele><time>2026-04-23T14:56:48.007Z</time></trkpt><trkpt lat="43.7991817" lon="11.4193933"><ele>259.5</ele><time>2026-04-23T14:56:49.007Z</time></trkpt><trkpt lat="43.7992267" lon="11.419555"><ele>260.75</ele><time>2026-04-23T14:56:50.006Z</time></trkpt><trkpt lat="43.7992633" lon="11.419715"><ele>262.0</ele><time>2026-04-23T14:56:51.007Z</time></trkpt><trkpt lat="43.7993117" lon="11.4198667"><ele>261.0</ele><time>2026-04-23T14:56:52.006Z</time></trkpt><trkpt lat="43.799365" lon="11.420025"><ele>260.0</ele><time>2026-04-23T14:56:53.006Z</time></trkpt><trkpt lat="43.799425" lon="11.4201817"><ele>259.0</ele><time>2026-04-23T14:56:54.006Z</time></trkpt><trkpt lat="43.7994933" lon="11.4203267"><ele>258.0</ele><time>2026-04-23T14:56:55.006Z</time></trkpt><trkpt lat="43.7995683" lon="11.4204667"><ele>261.4</ele><time>2026-04-23T14:56:56.007Z</time></trkpt><trkpt lat="43.799645" lon="11.4206083"><ele>264.8</ele><time>2026-04-23T14:56:57.007Z</time></trkpt><trkpt lat="43.7997183" lon="11.42073"><ele>268.2</ele><time>2026-04-23T14:56:58.006Z</time></trkpt><trkpt lat="43.7997867" lon="11.4208317"><ele>271.6</ele><time>2026-04-23T14:56:59.006Z</time></trkpt><trkpt lat="43.7998617" lon="11.420905"><ele>275.0</ele><time>2026-04-23T14:57:00.006Z</time></trkpt><trkpt lat="43.7999467" lon="11.420965"><ele>275.0</ele><time>2026-04-23T14:57:01.006Z</time></trkpt><trkpt lat="43.800035" lon="11.420995"><ele>275.0</ele><time>2026-04-23T14:57:02.006Z</time></trkpt><trkpt lat="43.8001383" lon="11.4209867"><ele>275.0</ele><time>2026-04-23T14:57:03.006Z</time></trkpt><trkpt lat="43.800255" lon="11.420985"><ele>275.0</ele><time>2026-04-23T14:57:04.006Z</time></trkpt><trkpt lat="43.8003783" lon="11.420975"><ele>275.0</ele><time>2026-04-23T14:57:05.006Z</time></trkpt><trkpt lat="43.800495" lon="11.4209683"><ele>276.2</ele><time>2026-04-23T14:57:06.006Z</time></trkpt><trkpt lat="43.8006167" lon="11.4209667"><ele>277.4</ele><time>2026-04-23T14:57:07.006Z</time></trkpt><trkpt lat="43.8007283" lon="11.420955"><ele>278.6</ele><time>2026-04-23T14:57:08.006Z</time></trkpt><trkpt lat="43.8008267" lon="11.42093"><ele>279.8</ele><time>2026-04-23T14:57:09.007Z</time></trkpt><trkpt lat="43.8009233" lon="11.4208983"><ele>281.0</ele><time>2026-04-23T14:57:10.006Z</time></trkpt><trkpt lat="43.801025" lon="11.4208533"><ele>283.40000000000003</ele><time>2026-04-23T14:57:11.007Z</time></trkpt><trkpt lat="43.8011233" lon="11.4207867"><ele>285.8</ele><time>2026-04-23T14:57:12.006Z</time></trkpt><trkpt lat="43.8012283" lon="11.4207267"><ele>288.20000000000005</ele><time>2026-04-23T14:57:13.006Z</time></trkpt><trkpt lat="43.80133" lon="11.4206633"><ele>290.6</ele><time>2026-04-23T14:57:14.006Z</time></trkpt><trkpt lat="43.8014267" lon="11.4206167"><ele>293.0</ele><time>2026-04-23T14:57:15.007Z</time></trkpt><trkpt lat="43.80152" lon="11.42058"><ele>293.0</ele><time>2026-04-23T14:57:16.006Z</time></trkpt><trkpt lat="43.8016083" lon="11.4205483"><ele>293.0</ele><time>2026-04-23T14:57:17.006Z</time></trkpt><trkpt lat="43.8016917" lon="11.4205117"><ele>293.0</ele><time>2026-04-23T14:57:18.006Z</time></trkpt><trkpt lat="43.8017767" lon="11.4204583"><ele>293.0</ele><time>2026-04-23T14:57:19.006Z</time></trkpt><trkpt lat="43.8018533" lon="11.4203767"><ele>293.0</ele><time>2026-04-23T14:57:20.006Z</time></trkpt><trkpt lat="43.8019233" lon="11.4202783"><ele>289.6666666666667</ele><time>2026-04-23T14:57:21.006Z</time></trkpt><trkpt lat="43.8019967" lon="11.4201917"><ele>286.33333333333337</ele><time>2026-04-23T14:57:22.006Z</time></trkpt><trkpt lat="43.8020683" lon="11.4201217"><ele>283.0</ele><time>2026-04-23T14:57:23.006Z</time></trkpt><trkpt lat="43.8021433" lon="11.4200717"><ele>279.6666666666667</ele><time>2026-04-23T14:57:24.007Z</time></trkpt><trkpt lat="43.8022183" lon="11.4200483"><ele>276.3333333333333</ele><time>2026-04-23T14:57:25.006Z</time></trkpt><trkpt lat="43.802305" lon="11.4200367"><ele>273.0</ele><time>2026-04-23T14:57:27.006Z</time></trkpt><trkpt lat="43.8022233" lon="11.4200533"><ele>273.0</ele><time>2026-04-23T14:57:38.006Z</time></trkpt><trkpt lat="43.8021267" lon="11.4200867"><ele>273.0</ele><time>2026-04-23T14:57:40.006Z</time></trkpt><trkpt lat="43.8020583" lon="11.4201467"><ele>273.0</ele><time>2026-04-23T14:57:41.007Z</time></trkpt><trkpt lat="43.8019817" lon="11.4202167"><ele>273.0</ele><time>2026-04-23T14:57:42.007Z</time></trkpt><trkpt lat="43.801905" lon="11.4203033"><ele>273.0</ele><time>2026-04-23T14:57:43.006Z</time></trkpt><trkpt lat="43.8018383" lon="11.4203883"><ele>270.6</ele><time>2026-04-23T14:57:44.006Z</time></trkpt><trkpt lat="43.8017683" lon="11.4204683"><ele>268.20000000000005</ele><time>2026-04-23T14:57:45.007Z</time></trkpt><trkpt lat="43.8016633" lon="11.4205417"><ele>265.8</ele><time>2026-04-23T14:57:46.006Z</time></trkpt><trkpt lat="43.8015567" lon="11.4205983"><ele>263.40000000000003</ele><time>2026-04-23T14:57:47.006Z</time></trkpt><trkpt lat="43.8014433" lon="11.4206517"><ele>261.0</ele><time>2026-04-23T14:57:48.007Z</time></trkpt><trkpt lat="43.8013283" lon="11.4207133"><ele>266.0</ele><time>2026-04-23T14:57:49.006Z</time></trkpt><trkpt lat="43.8012167" lon="11.420775"><ele>271.0</ele><time>2026-04-23T14:57:50.007Z</time></trkpt><trkpt lat="43.8011083" lon="11.4208367"><ele>276.0</ele><time>2026-04-23T14:57:51.007Z</time></trkpt><trkpt lat="43.8010117" lon="11.42089"><ele>281.0</ele><time>2026-04-23T14:57:52.006Z</time></trkpt><trkpt lat="43.800905" lon="11.4209267"><ele>281.0</ele><time>2026-04-23T14:57:53.006Z</time></trkpt><trkpt lat="43.8007983" lon="11.4209567"><ele>281.0</ele><time>2026-04-23T14:57:54.007Z</time></trkpt><trkpt lat="43.8007" lon="11.4209667"><ele>281.0</ele><time>2026-04-23T14:57:55.006Z</time></trkpt><trkpt lat="43.8005967" lon="11.4209683"><ele>281.0</ele><time>2026-04-23T14:57:56.006Z</time></trkpt><trkpt lat="43.80049" lon="11.4209717"><ele>281.0</ele><time>2026-04-23T14:57:57.006Z</time></trkpt><trkpt lat="43.800375" lon="11.4209767"><ele>281.0</ele><time>2026-04-23T14:57:58.006Z</time></trkpt><trkpt lat="43.80027" lon="11.42097"><ele>281.0</ele><time>2026-04-23T14:57:59.006Z</time></trkpt><trkpt lat="43.8001717" lon="11.4209717"><ele>281.0</ele><time>2026-04-23T14:58:00.006Z</time></trkpt><trkpt lat="43.8000833" lon="11.4209667"><ele>281.0</ele><time>2026-04-23T14:58:01.006Z</time></trkpt><trkpt lat="43.8000017" lon="11.4209617"><ele>281.0</ele><time>2026-04-23T14:58:02.006Z</time></trkpt><trkpt lat="43.7999183" lon="11.4209517"><ele>279.8</ele><time>2026-04-23T14:58:03.006Z</time></trkpt><trkpt lat="43.79984" lon="11.4209117"><ele>278.6</ele><time>2026-04-23T14:58:04.006Z</time></trkpt><trkpt lat="43.7997483" lon="11.4208133"><ele>277.4</ele><time>2026-04-23T14:58:05.006Z</time></trkpt><trkpt lat="43.7996817" lon="11.4206717"><ele>276.2</ele><time>2026-04-23T14:58:06.006Z</time></trkpt><trkpt lat="43.7996167" lon="11.420525"><ele>275.0</ele><time>2026-04-23T14:58:07.006Z</time></trkpt><trkpt lat="43.7995383" lon="11.4203767"><ele>272.0</ele><time>2026-04-23T14:58:08.006Z</time></trkpt><trkpt lat="43.7994633" lon="11.42022"><ele>269.0</ele><time>2026-04-23T14:58:09.006Z</time></trkpt><trkpt lat="43.7993917" lon="11.4200583"><ele>266.0</ele><time>2026-04-23T14:58:10.006Z</time></trkpt><trkpt lat="43.7993267" lon="11.419875"><ele>263.0</ele><time>2026-04-23T14:58:11.006Z</time></trkpt><trkpt lat="43.7992667" lon="11.41966"><ele>262.75</ele><time>2026-04-23T14:58:12.006Z</time></trkpt><trkpt lat="43.7992183" lon="11.4194633"><ele>262.5</ele><time>2026-04-23T14:58:13.007Z</time></trkpt><trkpt lat="43.7991633" lon="11.419275"><ele>262.25</ele><time>2026-04-23T14:58:14.007Z</time></trkpt><trkpt lat="43.7991267" lon="11.4191017"><ele>262.0</ele><time>2026-04-23T14:58:15.006Z</time></trkpt><trkpt lat="43.7990817" lon="11.4189517"><ele>260.75</ele><time>2026-04-23T14:58:16.006Z</time></trkpt><trkpt lat="43.7990233" lon="11.4188067"><ele>259.5</ele><time>2026-04-23T14:58:17.007Z</time></trkpt><trkpt lat="43.798955" lon="11.4186733"><ele>258.25</ele><time>2026-04-23T14:58:18.007Z</time></trkpt><trkpt lat="43.7988767" lon="11.41856"><ele>257.0</ele><time>2026-04-23T14:58:19.007Z</time></trkpt><trkpt lat="43.798795" lon="11.418455"><ele>257.0</ele><time>2026-04-23T14:58:20.006Z</time></trkpt><trkpt lat="43.7987083" lon="11.4183533"><ele>257.0</ele><time>2026-04-23T14:58:21.006Z</time></trkpt><trkpt lat="43.7986283" lon="11.4182533"><ele>257.0</ele><time>2026-04-23T14:58:22.006Z</time></trkpt><trkpt lat="43.7985467" lon="11.41815"><ele>257.0</ele><time>2026-04-23T14:58:23.007Z</time></trkpt><trkpt lat="43.7984817" lon="11.41805"><ele>257.0</ele><time>2026-04-23T14:58:24.007Z</time></trkpt><trkpt lat="43.7984133" lon="11.4179583"><ele>257.0</ele><time>2026-04-23T14:58:25.007Z</time></trkpt><trkpt lat="43.7983533" lon="11.41789"><ele>257.0</ele><time>2026-04-23T14:58:26.006Z</time></trkpt><trkpt lat="43.79828" lon="11.4178267"><ele>257.0</ele><time>2026-04-23T14:58:28.006Z</time></trkpt><trkpt lat="43.798205" lon="11.4178433"><ele>257.0</ele><time>2026-04-23T14:58:30.007Z</time></trkpt><trkpt lat="43.7981167" lon="11.4179383"><ele>257.0</ele><time>2026-04-23T14:58:32.006Z</time></trkpt><trkpt lat="43.79806" lon="11.4180133"><ele>257.0</ele><time>2026-04-23T14:58:33.006Z</time></trkpt><trkpt lat="43.798" lon="11.418085"><ele>257.0</ele><time>2026-04-23T14:58:34.006Z</time></trkpt><trkpt lat="43.79794" lon="11.4181483"><ele>257.0</ele><time>2026-04-23T14:58:35.006Z</time></trkpt><trkpt lat="43.7978883" lon="11.41821"><ele>257.0</ele><time>2026-04-23T14:58:36.007Z</time></trkpt><trkpt lat="43.7978533" lon="11.4182883"><ele>257.0</ele><time>2026-04-23T14:58:37.006Z</time></trkpt><trkpt lat="43.797835" lon="11.4183783"><ele>257.0</ele><time>2026-04-23T14:58:38.006Z</time></trkpt><trkpt lat="43.7978417" lon="11.4184767"><ele>257.0</ele><time>2026-04-23T14:58:39.006Z</time></trkpt><trkpt lat="43.79786" lon="11.41859"><ele>257.0</ele><time>2026-04-23T14:58:40.006Z</time></trkpt><trkpt lat="43.797875" lon="11.418715"><ele>256.6</ele><time>2026-04-23T14:58:41.006Z</time></trkpt><trkpt lat="43.7978867" lon="11.4188467"><ele>256.2</ele><time>2026-04-23T14:58:42.006Z</time></trkpt><trkpt lat="43.7978967" lon="11.4189783"><ele>255.8</ele><time>2026-04-23T14:58:43.006Z</time></trkpt><trkpt lat="43.79791" lon="11.419125"><ele>255.4</ele><time>2026-04-23T14:58:44.006Z</time></trkpt><trkpt lat="43.7979183" lon="11.41926"><ele>255.0</ele><time>2026-04-23T14:58:45.006Z</time></trkpt><trkpt lat="43.7979083" lon="11.41941"><ele>255.0</ele><time>2026-04-23T14:58:46.006Z</time></trkpt><trkpt lat="43.7978933" lon="11.4195517"><ele>255.0</ele><time>2026-04-23T14:58:47.006Z</time></trkpt><trkpt lat="43.797875" lon="11.4196917"><ele>255.0</ele><time>2026-04-23T14:58:48.007Z</time></trkpt><trkpt lat="43.79784" lon="11.41983"><ele>255.0</ele><time>2026-04-23T14:58:49.006Z</time></trkpt><trkpt lat="43.797805" lon="11.4199617"><ele>255.0</ele><time>2026-04-23T14:58:50.007Z</time></trkpt><trkpt lat="43.79776" lon="11.420085"><ele>254.2</ele><time>2026-04-23T14:58:51.006Z</time></trkpt><trkpt lat="43.7977117" lon="11.4201967"><ele>253.4</ele><time>2026-04-23T14:58:52.006Z</time></trkpt><trkpt lat="43.797655" lon="11.4202967"><ele>252.60000000000002</ele><time>2026-04-23T14:58:53.006Z</time></trkpt><trkpt lat="43.7976" lon="11.4203917"><ele>251.8</ele><time>2026-04-23T14:58:54.007Z</time></trkpt><trkpt lat="43.79754" lon="11.42049"><ele>251.0</ele><time>2026-04-23T14:58:55.007Z</time></trkpt><trkpt lat="43.79748" lon="11.42059"><ele>248.60000000000002</ele><time>2026-04-23T14:58:56.006Z</time></trkpt><trkpt lat="43.7974117" lon="11.4207033"><ele>246.20000000000002</ele><time>2026-04-23T14:58:57.006Z</time></trkpt><trkpt lat="43.797355" lon="11.4208283"><ele>243.79999999999998</ele><time>2026-04-23T14:58:58.006Z</time></trkpt><trkpt lat="43.7973033" lon="11.42096"><ele>241.39999999999998</ele><time>2026-04-23T14:58:59.006Z</time></trkpt><trkpt lat="43.797245" lon="11.4210883"><ele>239.0</ele><time>2026-04-23T14:59:00.006Z</time></trkpt><trkpt lat="43.7971883" lon="11.4212067"><ele>239.79999999999998</ele><time>2026-04-23T14:59:01.006Z</time></trkpt><trkpt lat="43.79714" lon="11.421325"><ele>240.59999999999997</ele><time>2026-04-23T14:59:02.007Z</time></trkpt><trkpt lat="43.7970917" lon="11.42145"><ele>241.4</ele><time>2026-04-23T14:59:03.006Z</time></trkpt><trkpt lat="43.7970417" lon="11.4215783"><ele>242.2</ele><time>2026-04-23T14:59:04.006Z</time></trkpt><trkpt lat="43.79699" lon="11.421705"><ele>243.0</ele><time>2026-04-23T14:59:05.006Z</time></trkpt><trkpt lat="43.7969483" lon="11.42182"><ele>243.0</ele><time>2026-04-23T14:59:06.006Z</time></trkpt><trkpt lat="43.7969133" lon="11.4219217"><ele>243.0</ele><time>2026-04-23T14:59:07.006Z</time></trkpt><trkpt lat="43.7968817" lon="11.422005"><ele>243.0</ele><time>2026-04-23T14:59:08.007Z</time></trkpt><trkpt lat="43.79686" lon="11.422095"><ele>243.0</ele><time>2026-04-23T14:59:09.007Z</time></trkpt><trkpt lat="43.7968383" lon="11.4221867"><ele>243.0</ele><time>2026-04-23T14:59:10.006Z</time></trkpt><trkpt lat="43.7968417" lon="11.4222883"><ele>243.0</ele><time>2026-04-23T14:59:11.006Z</time></trkpt><trkpt lat="43.79685" lon="11.4223833"><ele>243.0</ele><time>2026-04-23T14:59:12.006Z</time></trkpt><trkpt lat="43.79685" lon="11.4224783"><ele>243.16666666666666</ele><time>2026-04-23T14:59:13.006Z</time></trkpt><trkpt lat="43.7968483" lon="11.4225917"><ele>243.33333333333331</ele><time>2026-04-23T14:59:14.007Z</time></trkpt><trkpt lat="43.7968467" lon="11.4227033"><ele>243.5</ele><time>2026-04-23T14:59:15.007Z</time></trkpt><trkpt lat="43.796825" lon="11.4228117"><ele>243.66666666666666</ele><time>2026-04-23T14:59:16.007Z</time></trkpt><trkpt lat="43.796785" lon="11.4229067"><ele>243.83333333333331</ele><time>2026-04-23T14:59:17.006Z</time></trkpt><trkpt lat="43.7967267" lon="11.4229967"><ele>244.0</ele><time>2026-04-23T14:59:18.006Z</time></trkpt><trkpt lat="43.7966533" lon="11.4230933"><ele>239.79999999999998</ele><time>2026-04-23T14:59:19.007Z</time></trkpt><trkpt lat="43.7965967" lon="11.42316"><ele>235.59999999999997</ele><time>2026-04-23T14:59:20.006Z</time></trkpt><trkpt lat="43.7965467" lon="11.4232767"><ele>231.4</ele><time>2026-04-23T14:59:21.006Z</time></trkpt><trkpt lat="43.796515" lon="11.42341"><ele>227.2</ele><time>2026-04-23T14:59:22.006Z</time></trkpt><trkpt lat="43.7964883" lon="11.42358"><ele>223.0</ele><time>2026-04-23T14:59:23.006Z</time></trkpt><trkpt lat="43.7964633" lon="11.42376"><ele>224.25</ele><time>2026-04-23T14:59:24.006Z</time></trkpt><trkpt lat="43.7964367" lon="11.4239317"><ele>225.5</ele><time>2026-04-23T14:59:25.006Z</time></trkpt><trkpt lat="43.7964067" lon="11.4240967"><ele>226.75</ele><time>2026-04-23T14:59:26.006Z</time></trkpt><trkpt lat="43.79637" lon="11.4242517"><ele>228.0</ele><time>2026-04-23T14:59:27.006Z</time></trkpt><trkpt lat="43.7963233" lon="11.42439"><ele>228.0</ele><time>2026-04-23T14:59:28.006Z</time></trkpt><trkpt lat="43.7962767" lon="11.42451"><ele>228.0</ele><time>2026-04-23T14:59:29.006Z</time></trkpt><trkpt lat="43.7962383" lon="11.4246217"><ele>228.0</ele><time>2026-04-23T14:59:30.006Z</time></trkpt><trkpt lat="43.796215" lon="11.4247433"><ele>228.0</ele><time>2026-04-23T14:59:31.007Z</time></trkpt><trkpt lat="43.7962083" lon="11.4248733"><ele>228.0</ele><time>2026-04-23T14:59:32.006Z</time></trkpt><trkpt lat="43.796205" lon="11.4249933"><ele>228.8</ele><time>2026-04-23T14:59:33.006Z</time></trkpt><trkpt lat="43.7961967" lon="11.4250917"><ele>229.60000000000002</ele><time>2026-04-23T14:59:34.007Z</time></trkpt><trkpt lat="43.79615" lon="11.4252267"><ele>230.39999999999998</ele><time>2026-04-23T14:59:36.007Z</time></trkpt><trkpt lat="43.7960617" lon="11.4252567"><ele>231.2</ele><time>2026-04-23T14:59:38.006Z</time></trkpt><trkpt lat="43.795945" lon="11.4251917"><ele>232.0</ele><time>2026-04-23T14:59:40.006Z</time></trkpt><trkpt lat="43.7958433" lon="11.425135"><ele>228.6</ele><time>2026-04-23T14:59:42.006Z</time></trkpt><trkpt lat="43.7957417" lon="11.425095"><ele>225.2</ele><time>2026-04-23T14:59:44.006Z</time></trkpt><trkpt lat="43.7956717" lon="11.4250833"><ele>221.8</ele><time>2026-04-23T14:59:45.006Z</time></trkpt><trkpt lat="43.795585" lon="11.4250683"><ele>218.4</ele><time>2026-04-23T14:59:46.006Z</time></trkpt><trkpt lat="43.79549" lon="11.425055"><ele>215.0</ele><time>2026-04-23T14:59:47.006Z</time></trkpt><trkpt lat="43.795385" lon="11.4250417"><ele>215.0</ele><time>2026-04-23T14:59:48.007Z</time></trkpt><trkpt lat="43.79529" lon="11.425015"><ele>215.0</ele><time>2026-04-23T14:59:49.007Z</time></trkpt><trkpt lat="43.795195" lon="11.4249667"><ele>215.0</ele><time>2026-04-23T14:59:50.007Z</time></trkpt><trkpt lat="43.79509" lon="11.4249017"><ele>215.0</ele><time>2026-04-23T14:59:51.006Z</time></trkpt><trkpt lat="43.794975" lon="11.4248367"><ele>215.0</ele><time>2026-04-23T14:59:52.006Z</time></trkpt><trkpt lat="43.7948683" lon="11.424775"><ele>215.66666666666669</ele><time>2026-04-23T14:59:53.007Z</time></trkpt><trkpt lat="43.7947667" lon="11.42472"><ele>216.33333333333334</ele><time>2026-04-23T14:59:54.006Z</time></trkpt><trkpt lat="43.7946817" lon="11.424665"><ele>217.0</ele><time>2026-04-23T14:59:55.006Z</time></trkpt><trkpt lat="43.7946117" lon="11.424605"><ele>217.66666666666669</ele><time>2026-04-23T14:59:56.006Z</time></trkpt><trkpt lat="43.79455" lon="11.42454"><ele>218.33333333333334</ele><time>2026-04-23T14:59:57.007Z</time></trkpt><trkpt lat="43.7944983" lon="11.42446"><ele>219.0</ele><time>2026-04-23T14:59:58.006Z</time></trkpt><trkpt lat="43.7944633" lon="11.4243667"><ele>216.83333333333334</ele><time>2026-04-23T14:59:59.006Z</time></trkpt><trkpt lat="43.7944433" lon="11.4242617"><ele>214.66666666666669</ele><time>2026-04-23T15:00:00.006Z</time></trkpt><trkpt lat="43.794435" lon="11.4241517"><ele>212.5</ele><time>2026-04-23T15:00:01.007Z</time></trkpt><trkpt lat="43.7944417" lon="11.4240467"><ele>210.33333333333334</ele><time>2026-04-23T15:00:02.006Z</time></trkpt><trkpt lat="43.7944617" lon="11.4239483"><ele>208.16666666666669</ele><time>2026-04-23T15:00:03.006Z</time></trkpt><trkpt lat="43.7944833" lon="11.4238633"><ele>206.0</ele><time>2026-04-23T15:00:04.006Z</time></trkpt><trkpt lat="43.7944917" lon="11.4237567"><ele>206.33333333333334</ele><time>2026-04-23T15:00:05.006Z</time></trkpt><trkpt lat="43.7944717" lon="11.4236667"><ele>206.66666666666669</ele><time>2026-04-23T15:00:06.006Z</time></trkpt><trkpt lat="43.7944383" lon="11.4235867"><ele>207.0</ele><time>2026-04-23T15:00:07.006Z</time></trkpt><trkpt lat="43.7943817" lon="11.4235267"><ele>207.33333333333331</ele><time>2026-04-23T15:00:08.007Z</time></trkpt><trkpt lat="43.7943233" lon="11.4234783"><ele>207.66666666666666</ele><time>2026-04-23T15:00:09.006Z</time></trkpt><trkpt lat="43.794215" lon="11.42341"><ele>208.0</ele><time>2026-04-23T15:00:11.006Z</time></trkpt><trkpt lat="43.79414" lon="11.4234217"><ele>208.0</ele><time>2026-04-23T15:00:12.006Z</time></trkpt><trkpt lat="43.7940467" lon="11.42346"><ele>208.0</ele><time>2026-04-23T15:00:13.007Z</time></trkpt><trkpt lat="43.7939467" lon="11.4234833"><ele>208.0</ele><time>2026-04-23T15:00:14.007Z</time></trkpt><trkpt lat="43.7938533" lon="11.4235"><ele>208.0</ele><time>2026-04-23T15:00:15.006Z</time></trkpt><trkpt lat="43.7937633" lon="11.423495"><ele>208.0</ele><time>2026-04-23T15:00:16.007Z</time></trkpt><trkpt lat="43.7936783" lon="11.4234767"><ele>208.0</ele><time>2026-04-23T15:00:17.006Z</time></trkpt><trkpt lat="43.793585" lon="11.4234417"><ele>208.0</ele><time>2026-04-23T15:00:18.006Z</time></trkpt><trkpt lat="43.7934917" lon="11.4233933"><ele>208.0</ele><time>2026-04-23T15:00:19.007Z</time></trkpt><trkpt lat="43.7934" lon="11.423335"><ele>208.0</ele><time>2026-04-23T15:00:20.006Z</time></trkpt><trkpt lat="43.7933167" lon="11.4232717"><ele>208.0</ele><time>2026-04-23T15:00:21.006Z</time></trkpt><trkpt lat="43.7932517" lon="11.4232083"><ele>209.16666666666666</ele><time>2026-04-23T15:00:22.006Z</time></trkpt><trkpt lat="43.79319" lon="11.4231317"><ele>210.33333333333331</ele><time>2026-04-23T15:00:23.006Z</time></trkpt><trkpt lat="43.7931317" lon="11.4230733"><ele>211.5</ele><time>2026-04-23T15:00:24.007Z</time></trkpt><trkpt lat="43.7930767" lon="11.4230183"><ele>212.66666666666669</ele><time>2026-04-23T15:00:25.006Z</time></trkpt><trkpt lat="43.7930083" lon="11.4229883"><ele>213.83333333333334</ele><time>2026-04-23T15:00:26.006Z</time></trkpt><trkpt lat="43.79291" lon="11.422965"><ele>215.0</ele><time>2026-04-23T15:00:27.006Z</time></trkpt><trkpt lat="43.7928017" lon="11.422935"><ele>213.6</ele><time>2026-04-23T15:00:28.006Z</time></trkpt><trkpt lat="43.7926933" lon="11.4228983"><ele>212.2</ele><time>2026-04-23T15:00:29.006Z</time></trkpt><trkpt lat="43.7926" lon="11.422845"><ele>210.8</ele><time>2026-04-23T15:00:30.006Z</time></trkpt><trkpt lat="43.79252" lon="11.4227917"><ele>209.4</ele><time>2026-04-23T15:00:31.006Z</time></trkpt><trkpt lat="43.792445" lon="11.4227617"><ele>208.0</ele><time>2026-04-23T15:00:32.006Z</time></trkpt><trkpt lat="43.7923617" lon="11.4227633"><ele>207.99999999999997</ele><time>2026-04-23T15:00:33.006Z</time></trkpt><trkpt lat="43.7922767" lon="11.4228017"><ele>208.0</ele><time>2026-04-23T15:00:34.006Z</time></trkpt><trkpt lat="43.7921867" lon="11.4228567"><ele>208.0</ele><time>2026-04-23T15:00:35.007Z</time></trkpt><trkpt lat="43.7921" lon="11.42291"><ele>208.0</ele><time>2026-04-23T15:00:36.007Z</time></trkpt><trkpt lat="43.7920217" lon="11.422935"><ele>207.99999999999997</ele><time>2026-04-23T15:00:37.006Z</time></trkpt><trkpt lat="43.7919533" lon="11.4229233"><ele>208.0</ele><time>2026-04-23T15:00:38.006Z</time></trkpt><trkpt lat="43.7918983" lon="11.42288"><ele>208.0</ele><time>2026-04-23T15:00:39.006Z</time></trkpt><trkpt lat="43.791875" lon="11.422695"><ele>208.0</ele><time>2026-04-23T15:00:41.006Z</time></trkpt><trkpt lat="43.7918967" lon="11.4225667"><ele>208.0</ele><time>2026-04-23T15:00:42.006Z</time></trkpt><trkpt lat="43.7919067" lon="11.4224183"><ele>208.0</ele><time>2026-04-23T15:00:43.007Z</time></trkpt><trkpt lat="43.7918867" lon="11.4222667"><ele>208.0</ele><time>2026-04-23T15:00:44.007Z</time></trkpt><trkpt lat="43.79186" lon="11.42213"><ele>208.99999999999997</ele><time>2026-04-23T15:00:45.006Z</time></trkpt><trkpt lat="43.7918333" lon="11.42201"><ele>210.0</ele><time>2026-04-23T15:00:46.006Z</time></trkpt><trkpt lat="43.7917917" lon="11.4219067"><ele>211.0</ele><time>2026-04-23T15:00:47.006Z</time></trkpt><trkpt lat="43.79175" lon="11.4218283"><ele>212.0</ele><time>2026-04-23T15:00:48.006Z</time></trkpt><trkpt lat="43.79169" lon="11.4217783"><ele>212.99999999999997</ele><time>2026-04-23T15:00:49.006Z</time></trkpt><trkpt lat="43.7916083" lon="11.4217533"><ele>214.0</ele><time>2026-04-23T15:00:50.006Z</time></trkpt><trkpt lat="43.79152" lon="11.4217317"><ele>214.0</ele><time>2026-04-23T15:00:51.006Z</time></trkpt><trkpt lat="43.7914267" lon="11.421695"><ele>213.99999999999997</ele><time>2026-04-23T15:00:52.006Z</time></trkpt><trkpt lat="43.7913283" lon="11.4216583"><ele>213.99999999999997</ele><time>2026-04-23T15:00:53.006Z</time></trkpt><trkpt lat="43.7912317" lon="11.42162"><ele>214.0</ele><time>2026-04-23T15:00:54.006Z</time></trkpt><trkpt lat="43.7911383" lon="11.4215733"><ele>214.0</ele><time>2026-04-23T15:00:55.007Z</time></trkpt><trkpt lat="43.7910583" lon="11.4215133"><ele>213.83333333333331</ele><time>2026-04-23T15:00:56.007Z</time></trkpt><trkpt lat="43.7909883" lon="11.4214267"><ele>213.66666666666666</ele><time>2026-04-23T15:00:57.007Z</time></trkpt><trkpt lat="43.7909417" lon="11.4213233"><ele>213.5</ele><time>2026-04-23T15:00:58.007Z</time></trkpt><trkpt lat="43.7909017" lon="11.4212383"><ele>213.33333333333331</ele><time>2026-04-23T15:00:59.006Z</time></trkpt><trkpt lat="43.79085" lon="11.42117"><ele>213.16666666666666</ele><time>2026-04-23T15:01:00.007Z</time></trkpt><trkpt lat="43.7907967" lon="11.4211083"><ele>213.0</ele><time>2026-04-23T15:01:01.007Z</time></trkpt><trkpt lat="43.7907333" lon="11.42108"><ele>213.0</ele><time>2026-04-23T15:01:02.007Z</time></trkpt><trkpt lat="43.7906617" lon="11.4210783"><ele>213.0</ele><time>2026-04-23T15:01:03.007Z</time></trkpt><trkpt lat="43.79057" lon="11.42111"><ele>213.0</ele><time>2026-04-23T15:01:04.006Z</time></trkpt><trkpt lat="43.79046" lon="11.42117"><ele>213.0</ele><time>2026-04-23T15:01:05.006Z</time></trkpt><trkpt lat="43.7903367" lon="11.4212467"><ele>213.0</ele><time>2026-04-23T15:01:06.006Z</time></trkpt><trkpt lat="43.7902083" lon="11.421335"><ele>217.0</ele><time>2026-04-23T15:01:07.006Z</time></trkpt><trkpt lat="43.790075" lon="11.4214217"><ele>221.0</ele><time>2026-04-23T15:01:08.007Z</time></trkpt><trkpt lat="43.7899533" lon="11.4214983"><ele>225.0</ele><time>2026-04-23T15:01:09.007Z</time></trkpt><trkpt lat="43.789855" lon="11.4215467"><ele>229.0</ele><time>2026-04-23T15:01:10.006Z</time></trkpt><trkpt lat="43.7897733" lon="11.421575"><ele>229.0</ele><time>2026-04-23T15:01:11.007Z</time></trkpt><trkpt lat="43.7896933" lon="11.4215583"><ele>228.99999999999997</ele><time>2026-04-23T15:01:12.006Z</time></trkpt><trkpt lat="43.7896133" lon="11.4214833"><ele>228.99999999999997</ele><time>2026-04-23T15:01:13.006Z</time></trkpt><trkpt lat="43.7895317" lon="11.4213767"><ele>229.0</ele><time>2026-04-23T15:01:14.006Z</time></trkpt><trkpt lat="43.78945" lon="11.4212633"><ele>229.0</ele><time>2026-04-23T15:01:15.007Z</time></trkpt><trkpt lat="43.7893717" lon="11.4211467"><ele>229.0</ele><time>2026-04-23T15:01:16.007Z</time></trkpt><trkpt lat="43.789295" lon="11.421045"><ele>229.0</ele><time>2026-04-23T15:01:17.007Z</time></trkpt><trkpt lat="43.7892083" lon="11.4209633"><ele>229.0</ele><time>2026-04-23T15:01:18.006Z</time></trkpt><trkpt lat="43.7890983" lon="11.420895"><ele>229.0</ele><time>2026-04-23T15:01:19.007Z</time></trkpt><trkpt lat="43.7889767" lon="11.42083"><ele>229.0</ele><time>2026-04-23T15:01:20.007Z</time></trkpt><trkpt lat="43.7888633" lon="11.4207567"><ele>229.0</ele><time>2026-04-23T15:01:21.007Z</time></trkpt><trkpt lat="43.788735" lon="11.4206933"><ele>229.0</ele><time>2026-04-23T15:01:22.007Z</time></trkpt><trkpt lat="43.788605" lon="11.4206417"><ele>229.0</ele><time>2026-04-23T15:01:23.007Z</time></trkpt><trkpt lat="43.7884783" lon="11.42059"><ele>228.5</ele><time>2026-04-23T15:01:24.006Z</time></trkpt><trkpt lat="43.7883533" lon="11.420555"><ele>228.0</ele><time>2026-04-23T15:01:25.006Z</time></trkpt><trkpt lat="43.7882283" lon="11.420515"><ele>227.5</ele><time>2026-04-23T15:01:26.006Z</time></trkpt><trkpt lat="43.7881217" lon="11.4204783"><ele>227.0</ele><time>2026-04-23T15:01:27.007Z</time></trkpt><trkpt lat="43.7880433" lon="11.4204283"><ele>227.00000000000003</ele><time>2026-04-23T15:01:28.006Z</time></trkpt><trkpt lat="43.7879483" lon="11.4203767"><ele>227.0</ele><time>2026-04-23T15:01:30.006Z</time></trkpt><trkpt lat="43.78788" lon="11.420395"><ele>227.0</ele><time>2026-04-23T15:01:32.007Z</time></trkpt><trkpt lat="43.7878183" lon="11.4204483"><ele>227.0</ele><time>2026-04-23T15:01:34.007Z</time></trkpt><trkpt lat="43.787775" lon="11.42052"><ele>227.00000000000003</ele><time>2026-04-23T15:01:36.006Z</time></trkpt><trkpt lat="43.78774" lon="11.4205933"><ele>227.0</ele><time>2026-04-23T15:01:38.006Z</time></trkpt><trkpt lat="43.7876817" lon="11.4207067"><ele>227.2</ele><time>2026-04-23T15:01:40.007Z</time></trkpt><trkpt lat="43.787605" lon="11.420845"><ele>227.39999999999998</ele><time>2026-04-23T15:01:42.006Z</time></trkpt><trkpt lat="43.787555" lon="11.4209283"><ele>227.60000000000002</ele><time>2026-04-23T15:01:43.007Z</time></trkpt><trkpt lat="43.7874933" lon="11.4210217"><ele>227.8</ele><time>2026-04-23T15:01:44.006Z</time></trkpt><trkpt lat="43.7874167" lon="11.42113"><ele>228.0</ele><time>2026-04-23T15:01:45.007Z</time></trkpt><trkpt lat="43.7873417" lon="11.421245"><ele>229.0</ele><time>2026-04-23T15:01:46.006Z</time></trkpt><trkpt lat="43.787265" lon="11.4213683"><ele>230.0</ele><time>2026-04-23T15:01:47.006Z</time></trkpt><trkpt lat="43.78719" lon="11.42151"><ele>231.0</ele><time>2026-04-23T15:01:48.006Z</time></trkpt><trkpt lat="43.7871167" lon="11.4216783"><ele>232.0</ele><time>2026-04-23T15:01:49.007Z</time></trkpt><trkpt lat="43.7870433" lon="11.4218517"><ele>232.0</ele><time>2026-04-23T15:01:50.007Z</time></trkpt><trkpt lat="43.7869583" lon="11.4220217"><ele>232.0</ele><time>2026-04-23T15:01:51.006Z</time></trkpt><trkpt lat="43.786885" lon="11.4222033"><ele>232.0</ele><time>2026-04-23T15:01:52.006Z</time></trkpt><trkpt lat="43.7868233" lon="11.42238"><ele>232.0</ele><time>2026-04-23T15:01:53.006Z</time></trkpt><trkpt lat="43.786765" lon="11.42255"><ele>229.5</ele><time>2026-04-23T15:01:54.006Z</time></trkpt><trkpt lat="43.7867117" lon="11.4227117"><ele>227.0</ele><time>2026-04-23T15:01:55.006Z</time></trkpt><trkpt lat="43.7866533" lon="11.4228717"><ele>224.5</ele><time>2026-04-23T15:01:56.007Z</time></trkpt><trkpt lat="43.7865967" lon="11.423025"><ele>222.0</ele><time>2026-04-23T15:01:57.006Z</time></trkpt><trkpt lat="43.7865467" lon="11.4231683"><ele>222.0</ele><time>2026-04-23T15:01:58.006Z</time></trkpt><trkpt lat="43.7864967" lon="11.4233017"><ele>222.0</ele><time>2026-04-23T15:01:59.006Z</time></trkpt><trkpt lat="43.7864433" lon="11.4234233"><ele>222.0</ele><time>2026-04-23T15:02:00.006Z</time></trkpt><trkpt lat="43.7863833" lon="11.4235217"><ele>222.0</ele><time>2026-04-23T15:02:01.006Z</time></trkpt><trkpt lat="43.7863167" lon="11.4236033"><ele>222.0</ele><time>2026-04-23T15:02:02.006Z</time></trkpt><trkpt lat="43.78624" lon="11.4236883"><ele>222.0</ele><time>2026-04-23T15:02:03.006Z</time></trkpt><trkpt lat="43.78616" lon="11.4237583"><ele>222.0</ele><time>2026-04-23T15:02:04.006Z</time></trkpt><trkpt lat="43.7860783" lon="11.4238383"><ele>222.0</ele><time>2026-04-23T15:02:05.007Z</time></trkpt><trkpt lat="43.7859933" lon="11.4239383"><ele>222.0</ele><time>2026-04-23T15:02:06.006Z</time></trkpt><trkpt lat="43.785915" lon="11.4240483"><ele>222.0</ele><time>2026-04-23T15:02:07.006Z</time></trkpt><trkpt lat="43.7858383" lon="11.4241583"><ele>219.8</ele><time>2026-04-23T15:02:08.007Z</time></trkpt><trkpt lat="43.7857583" lon="11.424265"><ele>217.6</ele><time>2026-04-23T15:02:09.006Z</time></trkpt><trkpt lat="43.7856833" lon="11.4243733"><ele>215.4</ele><time>2026-04-23T15:02:10.006Z</time></trkpt><trkpt lat="43.7856167" lon="11.424475"><ele>213.20000000000002</ele><time>2026-04-23T15:02:11.007Z</time></trkpt><trkpt lat="43.7855483" lon="11.4245667"><ele>211.0</ele><time>2026-04-23T15:02:12.007Z</time></trkpt><trkpt lat="43.7854717" lon="11.4246417"><ele>211.33333333333331</ele><time>2026-04-23T15:02:13.007Z</time></trkpt><trkpt lat="43.7853933" lon="11.4247117"><ele>211.66666666666666</ele><time>2026-04-23T15:02:14.006Z</time></trkpt><trkpt lat="43.785325" lon="11.4247983"><ele>212.0</ele><time>2026-04-23T15:02:15.006Z</time></trkpt><trkpt lat="43.7852717" lon="11.4248933"><ele>212.33333333333331</ele><time>2026-04-23T15:02:16.006Z</time></trkpt><trkpt lat="43.7852383" lon="11.424995"><ele>212.66666666666666</ele><time>2026-04-23T15:02:17.006Z</time></trkpt><trkpt lat="43.7852317" lon="11.4251033"><ele>213.0</ele><time>2026-04-23T15:02:18.006Z</time></trkpt><trkpt lat="43.7852233" lon="11.42521"><ele>213.0</ele><time>2026-04-23T15:02:19.006Z</time></trkpt><trkpt lat="43.7852033" lon="11.425315"><ele>213.0</ele><time>2026-04-23T15:02:20.007Z</time></trkpt><trkpt lat="43.7851467" lon="11.4253983"><ele>213.0</ele><time>2026-04-23T15:02:21.006Z</time></trkpt><trkpt lat="43.7850617" lon="11.42544"><ele>213.0</ele><time>2026-04-23T15:02:22.006Z</time></trkpt><trkpt lat="43.7849467" lon="11.42545"><ele>213.0</ele><time>2026-04-23T15:02:23.006Z</time></trkpt><trkpt lat="43.7848417" lon="11.4254467"><ele>211.60000000000002</ele><time>2026-04-23T15:02:24.006Z</time></trkpt><trkpt lat="43.784745" lon="11.4254417"><ele>210.20000000000002</ele><time>2026-04-23T15:02:25.006Z</time></trkpt><trkpt lat="43.7846433" lon="11.425455"><ele>208.8</ele><time>2026-04-23T15:02:26.006Z</time></trkpt><trkpt lat="43.7845533" lon="11.425475"><ele>207.4</ele><time>2026-04-23T15:02:27.007Z</time></trkpt><trkpt lat="43.784465" lon="11.425505"><ele>206.0</ele><time>2026-04-23T15:02:28.006Z</time></trkpt><trkpt lat="43.7843883" lon="11.425565"><ele>204.60000000000002</ele><time>2026-04-23T15:02:29.006Z</time></trkpt><trkpt lat="43.784305" lon="11.4256333"><ele>203.2</ele><time>2026-04-23T15:02:30.006Z</time></trkpt><trkpt lat="43.7842133" lon="11.425705"><ele>201.8</ele><time>2026-04-23T15:02:31.006Z</time></trkpt><trkpt lat="43.78411" lon="11.4257717"><ele>200.39999999999998</ele><time>2026-04-23T15:02:32.007Z</time></trkpt><trkpt lat="43.78401" lon="11.4258433"><ele>199.0</ele><time>2026-04-23T15:02:33.006Z</time></trkpt><trkpt lat="43.7839033" lon="11.4259017"><ele>199.0</ele><time>2026-04-23T15:02:34.006Z</time></trkpt><trkpt lat="43.7837967" lon="11.4259567"><ele>199.0</ele><time>2026-04-23T15:02:35.006Z</time></trkpt><trkpt lat="43.783685" lon="11.4259817"><ele>199.0</ele><time>2026-04-23T15:02:36.006Z</time></trkpt><trkpt lat="43.7835583" lon="11.42599"><ele>199.0</ele><time>2026-04-23T15:02:37.007Z</time></trkpt><trkpt lat="43.7834317" lon="11.4259933"><ele>197.25</ele><time>2026-04-23T15:02:38.007Z</time></trkpt><trkpt lat="43.7832883" lon="11.4259967"><ele>195.5</ele><time>2026-04-23T15:02:39.006Z</time></trkpt><trkpt lat="43.7831483" lon="11.4259967"><ele>193.75</ele><time>2026-04-23T15:02:40.006Z</time></trkpt><trkpt lat="43.7830083" lon="11.4260033"><ele>192.0</ele><time>2026-04-23T15:02:41.006Z</time></trkpt><trkpt lat="43.7828683" lon="11.426"><ele>192.0</ele><time>2026-04-23T15:02:42.006Z</time></trkpt><trkpt lat="43.7827167" lon="11.426005"><ele>192.0</ele><time>2026-04-23T15:02:43.006Z</time></trkpt><trkpt lat="43.7825667" lon="11.426005"><ele>192.0</ele><time>2026-04-23T15:02:44.006Z</time></trkpt><trkpt lat="43.7824267" lon="11.4260017"><ele>192.0</ele><time>2026-04-23T15:02:45.006Z</time></trkpt><trkpt lat="43.7822917" lon="11.425995"><ele>189.75</ele><time>2026-04-23T15:02:46.006Z</time></trkpt><trkpt lat="43.7821517" lon="11.4259933"><ele>187.5</ele><time>2026-04-23T15:02:47.006Z</time></trkpt><trkpt lat="43.7820067" lon="11.4259917"><ele>185.25</ele><time>2026-04-23T15:02:48.007Z</time></trkpt><trkpt lat="43.7818633" lon="11.42599"><ele>183.0</ele><time>2026-04-23T15:02:49.006Z</time></trkpt><trkpt lat="43.781725" lon="11.4260033"><ele>182.0</ele><time>2026-04-23T15:02:50.006Z</time></trkpt><trkpt lat="43.7815983" lon="11.426025"><ele>181.0</ele><time>2026-04-23T15:02:51.006Z</time></trkpt><trkpt lat="43.781475" lon="11.426045"><ele>180.0</ele><time>2026-04-23T15:02:52.006Z</time></trkpt><trkpt lat="43.7813583" lon="11.4260583"><ele>179.0</ele><time>2026-04-23T15:02:53.006Z</time></trkpt><trkpt lat="43.7812417" lon="11.426085"><ele>179.0</ele><time>2026-04-23T15:02:54.007Z</time></trkpt><trkpt lat="43.78113" lon="11.4261117"><ele>179.0</ele><time>2026-04-23T15:02:55.006Z</time></trkpt><trkpt lat="43.781025" lon="11.4261567"><ele>179.0</ele><time>2026-04-23T15:02:56.007Z</time></trkpt><trkpt lat="43.7809233" lon="11.4262233"><ele>179.0</ele><time>2026-04-23T15:02:57.006Z</time></trkpt><trkpt lat="43.7808333" lon="11.4263267"><ele>177.25</ele><time>2026-04-23T15:02:58.006Z</time></trkpt><trkpt lat="43.7807617" lon="11.4264633"><ele>175.5</ele><time>2026-04-23T15:02:59.007Z</time></trkpt><trkpt lat="43.780715" lon="11.4266233"><ele>173.75</ele><time>2026-04-23T15:03:00.006Z</time></trkpt><trkpt lat="43.7806733" lon="11.4267833"><ele>172.0</ele><time>2026-04-23T15:03:01.007Z</time></trkpt><trkpt lat="43.7806317" lon="11.42693"><ele>172.0</ele><time>2026-04-23T15:03:02.006Z</time></trkpt><trkpt lat="43.7805933" lon="11.42707"><ele>172.0</ele><time>2026-04-23T15:03:03.006Z</time></trkpt><trkpt lat="43.7805533" lon="11.4272083"><ele>172.0</ele><time>2026-04-23T15:03:04.007Z</time></trkpt><trkpt lat="43.780515" lon="11.42734"><ele>172.0</ele><time>2026-04-23T15:03:05.006Z</time></trkpt><trkpt lat="43.78047" lon="11.42748"><ele>172.0</ele><time>2026-04-23T15:03:06.006Z</time></trkpt><trkpt lat="43.780425" lon="11.4276117"><ele>172.5</ele><time>2026-04-23T15:03:07.006Z</time></trkpt><trkpt lat="43.780375" lon="11.42776"><ele>173.0</ele><time>2026-04-23T15:03:08.006Z</time></trkpt><trkpt lat="43.7803167" lon="11.42795"><ele>173.5</ele><time>2026-04-23T15:03:09.006Z</time></trkpt><trkpt lat="43.78026" lon="11.428145"><ele>174.0</ele><time>2026-04-23T15:03:10.006Z</time></trkpt><trkpt lat="43.7802067" lon="11.4283267"><ele>168.5</ele><time>2026-04-23T15:03:11.007Z</time></trkpt><trkpt lat="43.7801517" lon="11.428495"><ele>163.0</ele><time>2026-04-23T15:03:12.006Z</time></trkpt><trkpt lat="43.7801067" lon="11.4286583"><ele>157.5</ele><time>2026-04-23T15:03:13.006Z</time></trkpt><trkpt lat="43.7800617" lon="11.4288367"><ele>152.0</ele><time>2026-04-23T15:03:14.006Z</time></trkpt><trkpt lat="43.78001" lon="11.4290417"><ele>151.33333333333331</ele><time>2026-04-23T15:03:15.006Z</time></trkpt><trkpt lat="43.77995" lon="11.4292533"><ele>150.66666666666666</ele><time>2026-04-23T15:03:16.006Z</time></trkpt><trkpt lat="43.7798867" lon="11.4294583"><ele>150.0</ele><time>2026-04-23T15:03:17.006Z</time></trkpt><trkpt lat="43.779835" lon="11.4296667"><ele>149.66666666666666</ele><time>2026-04-23T15:03:18.007Z</time></trkpt><trkpt lat="43.77979" lon="11.4298667"><ele>149.33333333333331</ele><time>2026-04-23T15:03:19.006Z</time></trkpt><trkpt lat="43.7797383" lon="11.4300517"><ele>149.0</ele><time>2026-04-23T15:03:20.007Z</time></trkpt><trkpt lat="43.7796583" lon="11.4302367"><ele>149.0</ele><time>2026-04-23T15:03:21.006Z</time></trkpt><trkpt lat="43.779565" lon="11.43042"><ele>149.0</ele><time>2026-04-23T15:03:22.006Z</time></trkpt><trkpt lat="43.77946" lon="11.4306017"><ele>149.0</ele><time>2026-04-23T15:03:23.006Z</time></trkpt><trkpt lat="43.7793583" lon="11.43077"><ele>149.5</ele><time>2026-04-23T15:03:24.006Z</time></trkpt><trkpt lat="43.7792633" lon="11.4309217"><ele>150.0</ele><time>2026-04-23T15:03:25.007Z</time></trkpt><trkpt lat="43.7791783" lon="11.4310683"><ele>150.5</ele><time>2026-04-23T15:03:26.006Z</time></trkpt><trkpt lat="43.7790983" lon="11.43121"><ele>151.0</ele><time>2026-04-23T15:03:27.007Z</time></trkpt><trkpt lat="43.7790083" lon="11.4313517"><ele>151.0</ele><time>2026-04-23T15:03:28.006Z</time></trkpt><trkpt lat="43.778925" lon="11.4314983"><ele>151.0</ele><time>2026-04-23T15:03:29.006Z</time></trkpt><trkpt lat="43.7788467" lon="11.4316233"><ele>151.0</ele><time>2026-04-23T15:03:30.006Z</time></trkpt><trkpt lat="43.7787817" lon="11.43173"><ele>151.0</ele><time>2026-04-23T15:03:31.006Z</time></trkpt><trkpt lat="43.77872" lon="11.4318267"><ele>151.0</ele><time>2026-04-23T15:03:32.006Z</time></trkpt><trkpt lat="43.7786683" lon="11.4319267"><ele>151.0</ele><time>2026-04-23T15:03:33.006Z</time></trkpt><trkpt lat="43.7786083" lon="11.4320333"><ele>151.0</ele><time>2026-04-23T15:03:34.006Z</time></trkpt><trkpt lat="43.7785483" lon="11.4321467"><ele>151.0</ele><time>2026-04-23T15:03:35.006Z</time></trkpt><trkpt lat="43.7784817" lon="11.43226"><ele>151.0</ele><time>2026-04-23T15:03:36.006Z</time></trkpt><trkpt lat="43.7784083" lon="11.43239"><ele>151.0</ele><time>2026-04-23T15:03:37.006Z</time></trkpt><trkpt lat="43.778335" lon="11.4325217"><ele>148.75</ele><time>2026-04-23T15:03:38.007Z</time></trkpt><trkpt lat="43.7782567" lon="11.4326517"><ele>146.5</ele><time>2026-04-23T15:03:39.006Z</time></trkpt><trkpt lat="43.77817" lon="11.4327833"><ele>144.25</ele><time>2026-04-23T15:03:40.006Z</time></trkpt><trkpt lat="43.778075" lon="11.43291"><ele>142.0</ele><time>2026-04-23T15:03:41.006Z</time></trkpt><trkpt lat="43.77798" lon="11.4330417"><ele>142.0</ele><time>2026-04-23T15:03:42.007Z</time></trkpt><trkpt lat="43.7778883" lon="11.4331583"><ele>142.0</ele><time>2026-04-23T15:03:43.006Z</time></trkpt><trkpt lat="43.7777983" lon="11.43328"><ele>142.0</ele><time>2026-04-23T15:03:44.007Z</time></trkpt><trkpt lat="43.7777017" lon="11.433405"><ele>142.0</ele><time>2026-04-23T15:03:45.006Z</time></trkpt><trkpt lat="43.7776" lon="11.4335483"><ele>138.5</ele><time>2026-04-23T15:03:46.006Z</time></trkpt><trkpt lat="43.7775" lon="11.4336867"><ele>135.0</ele><time>2026-04-23T15:03:47.006Z</time></trkpt><trkpt lat="43.7774017" lon="11.433815"><ele>131.5</ele><time>2026-04-23T15:03:48.006Z</time></trkpt><trkpt lat="43.7773067" lon="11.4339333"><ele>128.0</ele><time>2026-04-23T15:03:49.007Z</time></trkpt><trkpt lat="43.7772033" lon="11.4340433"><ele>128.0</ele><time>2026-04-23T15:03:50.006Z</time></trkpt><trkpt lat="43.7770917" lon="11.4341567"><ele>128.0</ele><time>2026-04-23T15:03:51.007Z</time></trkpt><trkpt lat="43.7769783" lon="11.4342783"><ele>128.0</ele><time>2026-04-23T15:03:52.006Z</time></trkpt><trkpt lat="43.776875" lon="11.4344017"><ele>128.0</ele><time>2026-04-23T15:03:53.006Z</time></trkpt><trkpt lat="43.776765" lon="11.4345133"><ele>124.5</ele><time>2026-04-23T15:03:54.007Z</time></trkpt><trkpt lat="43.77667" lon="11.4346283"><ele>121.0</ele><time>2026-04-23T15:03:55.007Z</time></trkpt><trkpt lat="43.7765817" lon="11.4347367"><ele>117.5</ele><time>2026-04-23T15:03:56.006Z</time></trkpt><trkpt lat="43.7764917" lon="11.4348333"><ele>114.0</ele><time>2026-04-23T15:03:57.006Z</time></trkpt><trkpt lat="43.77641" lon="11.4349133"><ele>113.6</ele><time>2026-04-23T15:03:58.006Z</time></trkpt><trkpt lat="43.7763367" lon="11.4349917"><ele>113.2</ele><time>2026-04-23T15:03:59.006Z</time></trkpt><trkpt lat="43.7762617" lon="11.4350667"><ele>112.79999999999998</ele><time>2026-04-23T15:04:00.006Z</time></trkpt><trkpt lat="43.7762033" lon="11.4351717"><ele>112.39999999999999</ele><time>2026-04-23T15:04:01.007Z</time></trkpt><trkpt lat="43.7761533" lon="11.4352733"><ele>112.0</ele><time>2026-04-23T15:04:02.006Z</time></trkpt><trkpt lat="43.7760933" lon="11.4353517"><ele>112.0</ele><time>2026-04-23T15:04:03.006Z</time></trkpt><trkpt lat="43.7760367" lon="11.4354233"><ele>111.99999999999999</ele><time>2026-04-23T15:04:04.006Z</time></trkpt><trkpt lat="43.775985" lon="11.4355567"><ele>111.99999999999999</ele><time>2026-04-23T15:04:06.006Z</time></trkpt><trkpt lat="43.7760033" lon="11.4357033"><ele>112.0</ele><time>2026-04-23T15:04:08.007Z</time></trkpt><trkpt lat="43.776025" lon="11.4358033"><ele>112.0</ele><time>2026-04-23T15:04:09.006Z</time></trkpt><trkpt lat="43.7760533" lon="11.4359283"><ele>112.19999999999999</ele><time>2026-04-23T15:04:10.006Z</time></trkpt><trkpt lat="43.77607" lon="11.4360783"><ele>112.39999999999999</ele><time>2026-04-23T15:04:11.006Z</time></trkpt><trkpt lat="43.7760817" lon="11.436225"><ele>112.60000000000001</ele><time>2026-04-23T15:04:12.006Z</time></trkpt><trkpt lat="43.7760967" lon="11.43637"><ele>112.80000000000001</ele><time>2026-04-23T15:04:13.006Z</time></trkpt><trkpt lat="43.7761017" lon="11.436525"><ele>113.0</ele><time>2026-04-23T15:04:14.007Z</time></trkpt><trkpt lat="43.7761083" lon="11.436685"><ele>114.4</ele><time>2026-04-23T15:04:15.006Z</time></trkpt><trkpt lat="43.7761117" lon="11.4368367"><ele>115.80000000000001</ele><time>2026-04-23T15:04:16.006Z</time></trkpt><trkpt lat="43.7761183" lon="11.436975"><ele>117.2</ele><time>2026-04-23T15:04:17.006Z</time></trkpt><trkpt lat="43.776135" lon="11.4371183"><ele>118.6</ele><time>2026-04-23T15:04:18.006Z</time></trkpt><trkpt lat="43.7761383" lon="11.43726"><ele>120.0</ele><time>2026-04-23T15:04:19.006Z</time></trkpt><trkpt lat="43.77615" lon="11.4373967"><ele>120.0</ele><time>2026-04-23T15:04:20.007Z</time></trkpt><trkpt lat="43.7761567" lon="11.4375533"><ele>120.0</ele><time>2026-04-23T15:04:21.006Z</time></trkpt><trkpt lat="43.7761617" lon="11.4377417"><ele>120.0</ele><time>2026-04-23T15:04:22.006Z</time></trkpt><trkpt lat="43.7761767" lon="11.4379833"><ele>120.0</ele><time>2026-04-23T15:04:23.007Z</time></trkpt><trkpt lat="43.7761917" lon="11.4382083"><ele>120.0</ele><time>2026-04-23T15:04:24.006Z</time></trkpt><trkpt lat="43.7761983" lon="11.4383967"><ele>120.0</ele><time>2026-04-23T15:04:25.006Z</time></trkpt><trkpt lat="43.7761867" lon="11.4385717"><ele>120.0</ele><time>2026-04-23T15:04:26.006Z</time></trkpt><trkpt lat="43.7761983" lon="11.4387083"><ele>120.0</ele><time>2026-04-23T15:04:27.007Z</time></trkpt><trkpt lat="43.77621" lon="11.43884"><ele>120.33333333333333</ele><time>2026-04-23T15:04:28.006Z</time></trkpt><trkpt lat="43.7762217" lon="11.4389733"><ele>120.66666666666666</ele><time>2026-04-23T15:04:29.006Z</time></trkpt><trkpt lat="43.7762233" lon="11.43908"><ele>121.0</ele><time>2026-04-23T15:04:30.006Z</time></trkpt><trkpt lat="43.7762367" lon="11.4391767"><ele>121.33333333333333</ele><time>2026-04-23T15:04:31.006Z</time></trkpt><trkpt lat="43.7762267" lon="11.439295"><ele>121.66666666666666</ele><time>2026-04-23T15:04:33.006Z</time></trkpt><trkpt lat="43.7762483" lon="11.4394067"><ele>122.0</ele><time>2026-04-23T15:04:35.006Z</time></trkpt><trkpt lat="43.7762633" lon="11.4395717"><ele>121.19999999999999</ele><time>2026-04-23T15:04:37.006Z</time></trkpt><trkpt lat="43.7762917" lon="11.4397417"><ele>120.39999999999999</ele><time>2026-04-23T15:04:39.006Z</time></trkpt><trkpt lat="43.776305" lon="11.439925"><ele>119.60000000000001</ele><time>2026-04-23T15:04:41.006Z</time></trkpt><trkpt lat="43.776325" lon="11.4400217"><ele>118.80000000000001</ele><time>2026-04-23T15:04:42.006Z</time></trkpt><trkpt lat="43.7763467" lon="11.4401267"><ele>118.0</ele><time>2026-04-23T15:04:43.006Z</time></trkpt><trkpt lat="43.7763733" lon="11.4402283"><ele>118.00000000000001</ele><time>2026-04-23T15:04:44.006Z</time></trkpt><trkpt lat="43.776395" lon="11.44033"><ele>118.0</ele><time>2026-04-23T15:04:45.006Z</time></trkpt><trkpt lat="43.7764117" lon="11.4404317"><ele>118.0</ele><time>2026-04-23T15:04:46.006Z</time></trkpt><trkpt lat="43.77644" lon="11.4405267"><ele>118.0</ele><time>2026-04-23T15:04:47.007Z</time></trkpt><trkpt lat="43.7764667" lon="11.4406133"><ele>118.00000000000001</ele><time>2026-04-23T15:04:48.006Z</time></trkpt><trkpt lat="43.7765217" lon="11.4407767"><ele>118.0</ele><time>2026-04-23T15:04:50.006Z</time></trkpt><trkpt lat="43.776565" lon="11.4408733"><ele>118.2</ele><time>2026-04-23T15:04:51.006Z</time></trkpt><trkpt lat="43.7766183" lon="11.4409733"><ele>118.4</ele><time>2026-04-23T15:04:52.006Z</time></trkpt><trkpt lat="43.7766917" lon="11.4410767"><ele>118.60000000000001</ele><time>2026-04-23T15:04:53.006Z</time></trkpt><trkpt lat="43.7767833" lon="11.44118"><ele>118.80000000000001</ele><time>2026-04-23T15:04:54.007Z</time></trkpt><trkpt lat="43.7768833" lon="11.4412783"><ele>119.0</ele><time>2026-04-23T15:04:55.006Z</time></trkpt><trkpt lat="43.77698" lon="11.4413617"><ele>115.5</ele><time>2026-04-23T15:04:56.006Z</time></trkpt><trkpt lat="43.7770917" lon="11.441445"><ele>112.0</ele><time>2026-04-23T15:04:57.006Z</time></trkpt><trkpt lat="43.7772017" lon="11.4415333"><ele>108.5</ele><time>2026-04-23T15:04:58.006Z</time></trkpt><trkpt lat="43.77731" lon="11.441625"><ele>105.0</ele><time>2026-04-23T15:04:59.006Z</time></trkpt><trkpt lat="43.77743" lon="11.4417183"><ele>105.0</ele><time>2026-04-23T15:05:00.006Z</time></trkpt><trkpt lat="43.7775467" lon="11.4418083"><ele>105.0</ele><time>2026-04-23T15:05:01.006Z</time></trkpt><trkpt lat="43.7776633" lon="11.4419033"><ele>105.0</ele><time>2026-04-23T15:05:02.006Z</time></trkpt><trkpt lat="43.77778" lon="11.4420017"><ele>105.0</ele><time>2026-04-23T15:05:03.006Z</time></trkpt><trkpt lat="43.7778917" lon="11.4420917"><ele>104.75</ele><time>2026-04-23T15:05:04.006Z</time></trkpt><trkpt lat="43.7780017" lon="11.4421817"><ele>104.5</ele><time>2026-04-23T15:05:05.006Z</time></trkpt><trkpt lat="43.778105" lon="11.44228"><ele>104.25</ele><time>2026-04-23T15:05:06.006Z</time></trkpt><trkpt lat="43.7782017" lon="11.44238"><ele>104.0</ele><time>2026-04-23T15:05:07.006Z</time></trkpt><trkpt lat="43.7782833" lon="11.4424683"><ele>104.0</ele><time>2026-04-23T15:05:08.007Z</time></trkpt><trkpt lat="43.7783683" lon="11.4425617"><ele>104.0</ele><time>2026-04-23T15:05:09.006Z</time></trkpt><trkpt lat="43.7784467" lon="11.4426633"><ele>104.0</ele><time>2026-04-23T15:05:10.006Z</time></trkpt><trkpt lat="43.778525" lon="11.4427617"><ele>104.0</ele><time>2026-04-23T15:05:11.006Z</time></trkpt><trkpt lat="43.7786117" lon="11.44286"><ele>104.0</ele><time>2026-04-23T15:05:12.006Z</time></trkpt><trkpt lat="43.7786917" lon="11.4429517"><ele>102.6</ele><time>2026-04-23T15:05:13.006Z</time></trkpt><trkpt lat="43.7787667" lon="11.443035"><ele>101.2</ele><time>2026-04-23T15:05:14.006Z</time></trkpt><trkpt lat="43.7788467" lon="11.4431167"><ele>99.8</ele><time>2026-04-23T15:05:15.007Z</time></trkpt><trkpt lat="43.77893" lon="11.4432033"><ele>98.39999999999999</ele><time>2026-04-23T15:05:16.007Z</time></trkpt><trkpt lat="43.7790267" lon="11.443295"><ele>97.0</ele><time>2026-04-23T15:05:17.006Z</time></trkpt><trkpt lat="43.77913" lon="11.4433767"><ele>97.0</ele><time>2026-04-23T15:05:18.006Z</time></trkpt><trkpt lat="43.7792333" lon="11.4434483"><ele>97.0</ele><time>2026-04-23T15:05:19.006Z</time></trkpt><trkpt lat="43.7793367" lon="11.443525"><ele>97.0</ele><time>2026-04-23T15:05:20.007Z</time></trkpt><trkpt lat="43.7794383" lon="11.4435983"><ele>97.0</ele><time>2026-04-23T15:05:21.006Z</time></trkpt><trkpt lat="43.7795483" lon="11.4436467"><ele>95.75</ele><time>2026-04-23T15:05:22.006Z</time></trkpt><trkpt lat="43.7796633" lon="11.4437"><ele>94.5</ele><time>2026-04-23T15:05:23.006Z</time></trkpt><trkpt lat="43.779765" lon="11.4437533"><ele>93.25</ele><time>2026-04-23T15:05:24.006Z</time></trkpt><trkpt lat="43.77987" lon="11.44384"><ele>92.0</ele><time>2026-04-23T15:05:25.006Z</time></trkpt><trkpt lat="43.779975" lon="11.44391"><ele>92.0</ele><time>2026-04-23T15:05:26.007Z</time></trkpt><trkpt lat="43.78007" lon="11.4440083"><ele>92.0</ele><time>2026-04-23T15:05:27.006Z</time></trkpt><trkpt lat="43.78015" lon="11.44414"><ele>92.0</ele><time>2026-04-23T15:05:28.006Z</time></trkpt><trkpt lat="43.780225" lon="11.4442733"><ele>92.0</ele><time>2026-04-23T15:05:29.006Z</time></trkpt><trkpt lat="43.7803033" lon="11.4443983"><ele>91.75</ele><time>2026-04-23T15:05:30.007Z</time></trkpt><trkpt lat="43.78039" lon="11.4445283"><ele>91.5</ele><time>2026-04-23T15:05:31.007Z</time></trkpt><trkpt lat="43.7804683" lon="11.444655"><ele>91.25</ele><time>2026-04-23T15:05:32.007Z</time></trkpt><trkpt lat="43.7805333" lon="11.4447667"><ele>91.0</ele><time>2026-04-23T15:05:33.006Z</time></trkpt><trkpt lat="43.780605" lon="11.4448717"><ele>91.0</ele><time>2026-04-23T15:05:34.006Z</time></trkpt><trkpt lat="43.7806717" lon="11.4449633"><ele>91.0</ele><time>2026-04-23T15:05:35.006Z</time></trkpt><trkpt lat="43.7807283" lon="11.4450467"><ele>91.0</ele><time>2026-04-23T15:05:36.006Z</time></trkpt><trkpt lat="43.7807833" lon="11.4451433"><ele>91.0</ele><time>2026-04-23T15:05:37.006Z</time></trkpt><trkpt lat="43.7808533" lon="11.445245"><ele>91.0</ele><time>2026-04-23T15:05:38.006Z</time></trkpt><trkpt lat="43.7809283" lon="11.44535"><ele>91.0</ele><time>2026-04-23T15:05:39.006Z</time></trkpt><trkpt lat="43.7810083" lon="11.44545"><ele>91.0</ele><time>2026-04-23T15:05:40.006Z</time></trkpt><trkpt lat="43.781085" lon="11.445545"><ele>91.0</ele><time>2026-04-23T15:05:41.006Z</time></trkpt><trkpt lat="43.7811517" lon="11.4456333"><ele>91.0</ele><time>2026-04-23T15:05:42.006Z</time></trkpt><trkpt lat="43.78121" lon="11.4457283"><ele>91.0</ele><time>2026-04-23T15:05:43.006Z</time></trkpt><trkpt lat="43.7812617" lon="11.44581"><ele>90.83333333333333</ele><time>2026-04-23T15:05:44.006Z</time></trkpt><trkpt lat="43.7813233" lon="11.4458483"><ele>90.66666666666666</ele><time>2026-04-23T15:05:45.006Z</time></trkpt><trkpt lat="43.7813833" lon="11.4458817"><ele>90.5</ele><time>2026-04-23T15:05:46.006Z</time></trkpt><trkpt lat="43.7814483" lon="11.4459267"><ele>90.33333333333333</ele><time>2026-04-23T15:05:47.006Z</time></trkpt><trkpt lat="43.7815167" lon="11.445975"><ele>90.16666666666667</ele><time>2026-04-23T15:05:48.007Z</time></trkpt><trkpt lat="43.7815967" lon="11.4460217"><ele>90.0</ele><time>2026-04-23T15:05:49.006Z</time></trkpt><trkpt lat="43.7816933" lon="11.446075"><ele>90.0</ele><time>2026-04-23T15:05:50.006Z</time></trkpt><trkpt lat="43.7817883" lon="11.44614"><ele>90.0</ele><time>2026-04-23T15:05:51.007Z</time></trkpt><trkpt lat="43.7818883" lon="11.4462017"><ele>90.0</ele><time>2026-04-23T15:05:52.006Z</time></trkpt><trkpt lat="43.7820017" lon="11.4462567"><ele>90.0</ele><time>2026-04-23T15:05:53.006Z</time></trkpt><trkpt lat="43.7821017" lon="11.4463117"><ele>90.0</ele><time>2026-04-23T15:05:54.006Z</time></trkpt><trkpt lat="43.782205" lon="11.446365"><ele>90.0</ele><time>2026-04-23T15:05:55.007Z</time></trkpt><trkpt lat="43.7823" lon="11.4464133"><ele>90.0</ele><time>2026-04-23T15:05:56.006Z</time></trkpt><trkpt lat="43.7823817" lon="11.4464617"><ele>90.0</ele><time>2026-04-23T15:05:57.007Z</time></trkpt><trkpt lat="43.782455" lon="11.4465117"><ele>90.0</ele><time>2026-04-23T15:05:58.006Z</time></trkpt><trkpt lat="43.7825117" lon="11.4465783"><ele>90.0</ele><time>2026-04-23T15:05:59.007Z</time></trkpt><trkpt lat="43.7825683" lon="11.4466617"><ele>90.0</ele><time>2026-04-23T15:06:00.006Z</time></trkpt><trkpt lat="43.7826217" lon="11.4467717"><ele>90.0</ele><time>2026-04-23T15:06:01.006Z</time></trkpt><trkpt lat="43.7826767" lon="11.446895"><ele>90.0</ele><time>2026-04-23T15:06:02.006Z</time></trkpt><trkpt lat="43.7827533" lon="11.447035"><ele>90.0</ele><time>2026-04-23T15:06:03.007Z</time></trkpt><trkpt lat="43.782835" lon="11.4471667"><ele>90.0</ele><time>2026-04-23T15:06:04.006Z</time></trkpt><trkpt lat="43.78291" lon="11.4472867"><ele>89.75</ele><time>2026-04-23T15:06:05.006Z</time></trkpt><trkpt lat="43.783005" lon="11.4473917"><ele>89.5</ele><time>2026-04-23T15:06:06.007Z</time></trkpt><trkpt lat="43.783105" lon="11.447495"><ele>89.25</ele><time>2026-04-23T15:06:07.007Z</time></trkpt><trkpt lat="43.7832083" lon="11.4475833"><ele>89.0</ele><time>2026-04-23T15:06:08.006Z</time></trkpt><trkpt lat="43.7833167" lon="11.44766"><ele>89.0</ele><time>2026-04-23T15:06:09.006Z</time></trkpt><trkpt lat="43.7834317" lon="11.4477267"><ele>89.0</ele><time>2026-04-23T15:06:10.007Z</time></trkpt><trkpt lat="43.783535" lon="11.447805"><ele>89.0</ele><time>2026-04-23T15:06:11.007Z</time></trkpt><trkpt lat="43.7836367" lon="11.4479133"><ele>89.0</ele><time>2026-04-23T15:06:12.007Z</time></trkpt><trkpt lat="43.7837383" lon="11.4480483"><ele>89.25</ele><time>2026-04-23T15:06:13.006Z</time></trkpt><trkpt lat="43.7838367" lon="11.4481783"><ele>89.5</ele><time>2026-04-23T15:06:14.006Z</time></trkpt><trkpt lat="43.78391" lon="11.4483083"><ele>89.75</ele><time>2026-04-23T15:06:15.007Z</time></trkpt><trkpt lat="43.7839783" lon="11.4484333"><ele>90.0</ele><time>2026-04-23T15:06:16.006Z</time></trkpt><trkpt lat="43.7840417" lon="11.4485533"><ele>90.0</ele><time>2026-04-23T15:06:17.007Z</time></trkpt><trkpt lat="43.7841133" lon="11.4486633"><ele>90.0</ele><time>2026-04-23T15:06:18.007Z</time></trkpt><trkpt lat="43.7841933" lon="11.4487583"><ele>90.0</ele><time>2026-04-23T15:06:19.006Z</time></trkpt><trkpt lat="43.7842817" lon="11.44884"><ele>90.0</ele><time>2026-04-23T15:06:20.006Z</time></trkpt><trkpt lat="43.78438" lon="11.448915"><ele>90.0</ele><time>2026-04-23T15:06:21.006Z</time></trkpt><trkpt lat="43.784475" lon="11.4489883"><ele>90.25</ele><time>2026-04-23T15:06:22.006Z</time></trkpt><trkpt lat="43.7845767" lon="11.4490833"><ele>90.5</ele><time>2026-04-23T15:06:23.006Z</time></trkpt><trkpt lat="43.7846733" lon="11.4491783"><ele>90.75</ele><time>2026-04-23T15:06:24.006Z</time></trkpt><trkpt lat="43.78477" lon="11.44928"><ele>91.0</ele><time>2026-04-23T15:06:25.006Z</time></trkpt><trkpt lat="43.7848683" lon="11.44939"><ele>91.0</ele><time>2026-04-23T15:06:26.006Z</time></trkpt><trkpt lat="43.7849633" lon="11.44951"><ele>91.0</ele><time>2026-04-23T15:06:27.006Z</time></trkpt><trkpt lat="43.7850417" lon="11.4496433"><ele>91.0</ele><time>2026-04-23T15:06:28.006Z</time></trkpt><trkpt lat="43.78512" lon="11.4497733"><ele>91.0</ele><time>2026-04-23T15:06:29.006Z</time></trkpt><trkpt lat="43.7852017" lon="11.4499083"><ele>91.8</ele><time>2026-04-23T15:06:30.006Z</time></trkpt><trkpt lat="43.785275" lon="11.45002"><ele>92.6</ele><time>2026-04-23T15:06:31.006Z</time></trkpt><trkpt lat="43.7853483" lon="11.4501083"><ele>93.4</ele><time>2026-04-23T15:06:32.007Z</time></trkpt><trkpt lat="43.7854083" lon="11.4501683"><ele>94.2</ele><time>2026-04-23T15:06:33.007Z</time></trkpt><trkpt lat="43.7854717" lon="11.45019"><ele>95.0</ele><time>2026-04-23T15:06:35.007Z</time></trkpt><trkpt lat="43.7855617" lon="11.4501067"><ele>95.0</ele><time>2026-04-23T15:06:37.006Z</time></trkpt><trkpt lat="43.7856433" lon="11.45004"><ele>95.0</ele><time>2026-04-23T15:06:38.007Z</time></trkpt><trkpt lat="43.7857567" lon="11.4499717"><ele>95.0</ele><time>2026-04-23T15:06:39.006Z</time></trkpt><trkpt lat="43.78588" lon="11.4499083"><ele>95.0</ele><time>2026-04-23T15:06:40.007Z</time></trkpt><trkpt lat="43.7859983" lon="11.4498367"><ele>96.5</ele><time>2026-04-23T15:06:41.006Z</time></trkpt><trkpt lat="43.78611" lon="11.44976"><ele>98.0</ele><time>2026-04-23T15:06:42.006Z</time></trkpt><trkpt lat="43.786225" lon="11.4497"><ele>99.5</ele><time>2026-04-23T15:06:43.007Z</time></trkpt><trkpt lat="43.7863633" lon="11.44968"><ele>101.0</ele><time>2026-04-23T15:06:44.006Z</time></trkpt><trkpt lat="43.7864967" lon="11.4497"><ele>101.0</ele><time>2026-04-23T15:06:45.006Z</time></trkpt><trkpt lat="43.7866317" lon="11.4497383"><ele>101.0</ele><time>2026-04-23T15:06:46.007Z</time></trkpt><trkpt lat="43.7867683" lon="11.449785"><ele>101.0</ele><time>2026-04-23T15:06:47.006Z</time></trkpt><trkpt lat="43.7869067" lon="11.4498517"><ele>101.0</ele><time>2026-04-23T15:06:48.007Z</time></trkpt><trkpt lat="43.78704" lon="11.449925"><ele>105.0</ele><time>2026-04-23T15:06:49.006Z</time></trkpt><trkpt lat="43.787175" lon="11.450005"><ele>109.0</ele><time>2026-04-23T15:06:50.006Z</time></trkpt><trkpt lat="43.7872917" lon="11.4500667"><ele>113.0</ele><time>2026-04-23T15:06:51.007Z</time></trkpt><trkpt lat="43.78738" lon="11.4501283"><ele>117.0</ele><time>2026-04-23T15:06:52.006Z</time></trkpt><trkpt lat="43.787445" lon="11.4502133"><ele>117.0</ele><time>2026-04-23T15:06:53.006Z</time></trkpt><trkpt lat="43.787485" lon="11.4503083"><ele>117.0</ele><time>2026-04-23T15:06:54.006Z</time></trkpt><trkpt lat="43.78751" lon="11.4504133"><ele>117.0</ele><time>2026-04-23T15:06:55.006Z</time></trkpt><trkpt lat="43.78753" lon="11.4505117"><ele>117.0</ele><time>2026-04-23T15:06:56.006Z</time></trkpt><trkpt lat="43.787555" lon="11.4506067"><ele>117.0</ele><time>2026-04-23T15:06:57.006Z</time></trkpt><trkpt lat="43.78759" lon="11.4506867"><ele>117.0</ele><time>2026-04-23T15:06:58.006Z</time></trkpt><trkpt lat="43.7876483" lon="11.4508183"><ele>119.39999999999999</ele><time>2026-04-23T15:07:00.006Z</time></trkpt><trkpt lat="43.7877067" lon="11.450935"><ele>121.79999999999998</ele><time>2026-04-23T15:07:02.006Z</time></trkpt><trkpt lat="43.78777" lon="11.4510517"><ele>124.2</ele><time>2026-04-23T15:07:04.006Z</time></trkpt><trkpt lat="43.787815" lon="11.451125"><ele>126.6</ele><time>2026-04-23T15:07:05.006Z</time></trkpt><trkpt lat="43.7878667" lon="11.4512183"><ele>129.0</ele><time>2026-04-23T15:07:06.007Z</time></trkpt><trkpt lat="43.7879283" lon="11.45133"><ele>129.0</ele><time>2026-04-23T15:07:07.006Z</time></trkpt><trkpt lat="43.7879967" lon="11.4514433"><ele>129.0</ele><time>2026-04-23T15:07:08.006Z</time></trkpt><trkpt lat="43.7880667" lon="11.451575"><ele>129.0</ele><time>2026-04-23T15:07:09.006Z</time></trkpt><trkpt lat="43.78815" lon="11.4517133"><ele>129.0</ele><time>2026-04-23T15:07:10.007Z</time></trkpt><trkpt lat="43.7882333" lon="11.4518433"><ele>129.0</ele><time>2026-04-23T15:07:11.007Z</time></trkpt><trkpt lat="43.7883267" lon="11.4519667"><ele>129.0</ele><time>2026-04-23T15:07:12.007Z</time></trkpt><trkpt lat="43.7884283" lon="11.45209"><ele>129.0</ele><time>2026-04-23T15:07:13.007Z</time></trkpt><trkpt lat="43.7885367" lon="11.4522183"><ele>129.0</ele><time>2026-04-23T15:07:14.006Z</time></trkpt><trkpt lat="43.78864" lon="11.4523533"><ele>131.75</ele><time>2026-04-23T15:07:15.007Z</time></trkpt><trkpt lat="43.788745" lon="11.452495"><ele>134.5</ele><time>2026-04-23T15:07:16.006Z</time></trkpt><trkpt lat="43.78885" lon="11.4526417"><ele>137.25</ele><time>2026-04-23T15:07:17.007Z</time></trkpt><trkpt lat="43.7889533" lon="11.452795"><ele>140.0</ele><time>2026-04-23T15:07:18.006Z</time></trkpt><trkpt lat="43.7890517" lon="11.452955"><ele>141.25</ele><time>2026-04-23T15:07:19.006Z</time></trkpt><trkpt lat="43.78915" lon="11.45311"><ele>142.5</ele><time>2026-04-23T15:07:20.007Z</time></trkpt><trkpt lat="43.7892417" lon="11.4532533"><ele>143.75</ele><time>2026-04-23T15:07:21.006Z</time></trkpt><trkpt lat="43.7893267" lon="11.4533983"><ele>145.0</ele><time>2026-04-23T15:07:22.006Z</time></trkpt><trkpt lat="43.789405" lon="11.453535"><ele>145.0</ele><time>2026-04-23T15:07:23.007Z</time></trkpt><trkpt lat="43.78948" lon="11.453655"><ele>145.0</ele><time>2026-04-23T15:07:24.006Z</time></trkpt><trkpt lat="43.789555" lon="11.4537533"><ele>145.0</ele><time>2026-04-23T15:07:25.007Z</time></trkpt><trkpt lat="43.7896383" lon="11.4538283"><ele>145.0</ele><time>2026-04-23T15:07:26.007Z</time></trkpt><trkpt lat="43.78976" lon="11.4538767"><ele>145.0</ele><time>2026-04-23T15:07:27.007Z</time></trkpt><trkpt lat="43.7898817" lon="11.45391"><ele>146.0</ele><time>2026-04-23T15:07:28.007Z</time></trkpt><trkpt lat="43.7900083" lon="11.4539367"><ele>147.0</ele><time>2026-04-23T15:07:29.006Z</time></trkpt><trkpt lat="43.7901383" lon="11.4539633"><ele>148.0</ele><time>2026-04-23T15:07:30.006Z</time></trkpt><trkpt lat="43.790265" lon="11.4539867"><ele>149.0</ele><time>2026-04-23T15:07:31.006Z</time></trkpt><trkpt lat="43.7903933" lon="11.4540167"><ele>149.0</ele><time>2026-04-23T15:07:32.006Z</time></trkpt><trkpt lat="43.7905183" lon="11.454035"><ele>149.0</ele><time>2026-04-23T15:07:33.006Z</time></trkpt><trkpt lat="43.7906517" lon="11.4540417"><ele>149.0</ele><time>2026-04-23T15:07:34.006Z</time></trkpt><trkpt lat="43.7907917" lon="11.45402"><ele>149.0</ele><time>2026-04-23T15:07:35.006Z</time></trkpt><trkpt lat="43.790935" lon="11.4539967"><ele>150.25</ele><time>2026-04-23T15:07:36.006Z</time></trkpt><trkpt lat="43.79108" lon="11.4539683"><ele>151.5</ele><time>2026-04-23T15:07:37.006Z</time></trkpt><trkpt lat="43.79122" lon="11.4539417"><ele>152.75</ele><time>2026-04-23T15:07:38.006Z</time></trkpt><trkpt lat="43.7913517" lon="11.4539117"><ele>154.0</ele><time>2026-04-23T15:07:39.006Z</time></trkpt><trkpt lat="43.7914717" lon="11.4538633"><ele>154.0</ele><time>2026-04-23T15:07:40.006Z</time></trkpt><trkpt lat="43.7915667" lon="11.4538117"><ele>154.0</ele><time>2026-04-23T15:07:41.006Z</time></trkpt><trkpt lat="43.79164" lon="11.4537383"><ele>154.0</ele><time>2026-04-23T15:07:42.006Z</time></trkpt><trkpt lat="43.791705" lon="11.453645"><ele>154.0</ele><time>2026-04-23T15:07:43.007Z</time></trkpt><trkpt lat="43.7917533" lon="11.4535217"><ele>154.0</ele><time>2026-04-23T15:07:44.006Z</time></trkpt><trkpt lat="43.7917867" lon="11.453375"><ele>155.75</ele><time>2026-04-23T15:07:45.007Z</time></trkpt><trkpt lat="43.791805" lon="11.453205"><ele>157.5</ele><time>2026-04-23T15:07:46.006Z</time></trkpt><trkpt lat="43.7918017" lon="11.45303"><ele>159.25</ele><time>2026-04-23T15:07:47.006Z</time></trkpt><trkpt lat="43.7917833" lon="11.45287"><ele>161.0</ele><time>2026-04-23T15:07:48.007Z</time></trkpt><trkpt lat="43.791735" lon="11.4527267"><ele>163.25</ele><time>2026-04-23T15:07:49.006Z</time></trkpt><trkpt lat="43.791645" lon="11.4525817"><ele>165.5</ele><time>2026-04-23T15:07:50.006Z</time></trkpt><trkpt lat="43.7915333" lon="11.4524283"><ele>167.75</ele><time>2026-04-23T15:07:51.006Z</time></trkpt><trkpt lat="43.79143" lon="11.4522933"><ele>170.0</ele><time>2026-04-23T15:07:52.006Z</time></trkpt><trkpt lat="43.79133" lon="11.452165"><ele>172.4</ele><time>2026-04-23T15:07:53.006Z</time></trkpt><trkpt lat="43.7912483" lon="11.4520517"><ele>174.8</ele><time>2026-04-23T15:07:54.006Z</time></trkpt><trkpt lat="43.79118" lon="11.45194"><ele>177.2</ele><time>2026-04-23T15:07:55.007Z</time></trkpt><trkpt lat="43.79114" lon="11.4518333"><ele>179.6</ele><time>2026-04-23T15:07:56.006Z</time></trkpt><trkpt lat="43.79113" lon="11.45173"><ele>182.0</ele><time>2026-04-23T15:07:57.006Z</time></trkpt><trkpt lat="43.79115" lon="11.4516367"><ele>182.0</ele><time>2026-04-23T15:07:58.006Z</time></trkpt><trkpt lat="43.7912" lon="11.4515817"><ele>182.0</ele><time>2026-04-23T15:07:59.006Z</time></trkpt><trkpt lat="43.791275" lon="11.4515683"><ele>182.0</ele><time>2026-04-23T15:08:00.006Z</time></trkpt><trkpt lat="43.79136" lon="11.45159"><ele>182.0</ele><time>2026-04-23T15:08:01.006Z</time></trkpt><trkpt lat="43.7914533" lon="11.4516167"><ele>182.0</ele><time>2026-04-23T15:08:02.006Z</time></trkpt><trkpt lat="43.7915583" lon="11.451635"><ele>182.0</ele><time>2026-04-23T15:08:03.006Z</time></trkpt><trkpt lat="43.7916683" lon="11.4516383"><ele>182.0</ele><time>2026-04-23T15:08:04.006Z</time></trkpt><trkpt lat="43.7917933" lon="11.4516317"><ele>182.0</ele><time>2026-04-23T15:08:05.006Z</time></trkpt><trkpt lat="43.7919267" lon="11.45163"><ele>182.0</ele><time>2026-04-23T15:08:06.006Z</time></trkpt><trkpt lat="43.7920633" lon="11.45162"><ele>182.0</ele><time>2026-04-23T15:08:07.006Z</time></trkpt><trkpt lat="43.792195" lon="11.4516183"><ele>183.5</ele><time>2026-04-23T15:08:08.006Z</time></trkpt><trkpt lat="43.7923383" lon="11.4516133"><ele>185.0</ele><time>2026-04-23T15:08:09.007Z</time></trkpt><trkpt lat="43.7924833" lon="11.4516067"><ele>186.5</ele><time>2026-04-23T15:08:10.007Z</time></trkpt><trkpt lat="43.79263" lon="11.4516033"><ele>188.0</ele><time>2026-04-23T15:08:11.006Z</time></trkpt><trkpt lat="43.7927767" lon="11.4516"><ele>190.33333333333331</ele><time>2026-04-23T15:08:12.007Z</time></trkpt><trkpt lat="43.7929233" lon="11.451595"><ele>192.66666666666666</ele><time>2026-04-23T15:08:13.006Z</time></trkpt><trkpt lat="43.79307" lon="11.4516033"><ele>195.0</ele><time>2026-04-23T15:08:14.007Z</time></trkpt><trkpt lat="43.7932267" lon="11.4516133"><ele>195.0</ele><time>2026-04-23T15:08:15.006Z</time></trkpt><trkpt lat="43.793385" lon="11.4516283"><ele>195.0</ele><time>2026-04-23T15:08:16.006Z</time></trkpt><trkpt lat="43.79354" lon="11.45165"><ele>195.0</ele><time>2026-04-23T15:08:17.006Z</time></trkpt><trkpt lat="43.7936967" lon="11.4516733"><ele>197.25</ele><time>2026-04-23T15:08:18.006Z</time></trkpt><trkpt lat="43.7938467" lon="11.4517"><ele>199.5</ele><time>2026-04-23T15:08:19.006Z</time></trkpt><trkpt lat="43.7939833" lon="11.4517217"><ele>201.75</ele><time>2026-04-23T15:08:20.006Z</time></trkpt><trkpt lat="43.7941033" lon="11.4517483"><ele>204.0</ele><time>2026-04-23T15:08:21.007Z</time></trkpt><trkpt lat="43.7942083" lon="11.451765"><ele>204.0</ele><time>2026-04-23T15:08:22.006Z</time></trkpt><trkpt lat="43.7943133" lon="11.4517717"><ele>204.0</ele><time>2026-04-23T15:08:23.006Z</time></trkpt><trkpt lat="43.7944033" lon="11.45176"><ele>204.0</ele><time>2026-04-23T15:08:24.006Z</time></trkpt><trkpt lat="43.7944967" lon="11.4517333"><ele>204.0</ele><time>2026-04-23T15:08:25.007Z</time></trkpt><trkpt lat="43.794575" lon="11.4516983"><ele>204.0</ele><time>2026-04-23T15:08:26.006Z</time></trkpt><trkpt lat="43.7946367" lon="11.4516233"><ele>206.0</ele><time>2026-04-23T15:08:27.006Z</time></trkpt><trkpt lat="43.7947117" lon="11.4515233"><ele>208.0</ele><time>2026-04-23T15:08:28.006Z</time></trkpt><trkpt lat="43.7947817" lon="11.451425"><ele>209.99999999999997</ele><time>2026-04-23T15:08:29.006Z</time></trkpt><trkpt lat="43.794845" lon="11.45136"><ele>212.0</ele><time>2026-04-23T15:08:30.006Z</time></trkpt><trkpt lat="43.79491" lon="11.4513233"><ele>214.0</ele><time>2026-04-23T15:08:31.006Z</time></trkpt><trkpt lat="43.7950183" lon="11.45141"><ele>214.0</ele><time>2026-04-23T15:08:33.006Z</time></trkpt><trkpt lat="43.795055" lon="11.4515317"><ele>213.99999999999997</ele><time>2026-04-23T15:08:34.007Z</time></trkpt><trkpt lat="43.7950833" lon="11.4516817"><ele>213.99999999999997</ele><time>2026-04-23T15:08:35.006Z</time></trkpt><trkpt lat="43.7951267" lon="11.4518267"><ele>214.0</ele><time>2026-04-23T15:08:36.006Z</time></trkpt><trkpt lat="43.7951917" lon="11.451975"><ele>214.0</ele><time>2026-04-23T15:08:37.006Z</time></trkpt><trkpt lat="43.79526" lon="11.452105"><ele>216.0</ele><time>2026-04-23T15:08:38.006Z</time></trkpt><trkpt lat="43.7953233" lon="11.45223"><ele>217.99999999999997</ele><time>2026-04-23T15:08:39.006Z</time></trkpt><trkpt lat="43.79538" lon="11.45235"><ele>219.99999999999997</ele><time>2026-04-23T15:08:40.006Z</time></trkpt><trkpt lat="43.79543" lon="11.4524667"><ele>222.0</ele><time>2026-04-23T15:08:41.006Z</time></trkpt><trkpt lat="43.795495" lon="11.4525683"><ele>224.0</ele><time>2026-04-23T15:08:42.007Z</time></trkpt><trkpt lat="43.7956083" lon="11.4526383"><ele>224.0</ele><time>2026-04-23T15:08:43.006Z</time></trkpt><trkpt lat="43.79572" lon="11.4526983"><ele>224.0</ele><time>2026-04-23T15:08:44.006Z</time></trkpt><trkpt lat="43.7958383" lon="11.452735"><ele>224.0</ele><time>2026-04-23T15:08:45.006Z</time></trkpt><trkpt lat="43.795975" lon="11.452755"><ele>224.0</ele><time>2026-04-23T15:08:46.006Z</time></trkpt><trkpt lat="43.796105" lon="11.4527783"><ele>225.39999999999998</ele><time>2026-04-23T15:08:47.006Z</time></trkpt><trkpt lat="43.7962183" lon="11.45278"><ele>226.79999999999998</ele><time>2026-04-23T15:08:48.006Z</time></trkpt><trkpt lat="43.796325" lon="11.4527667"><ele>228.20000000000002</ele><time>2026-04-23T15:08:49.006Z</time></trkpt><trkpt lat="43.7964067" lon="11.4527317"><ele>229.60000000000002</ele><time>2026-04-23T15:08:50.007Z</time></trkpt><trkpt lat="43.7964617" lon="11.4526717"><ele>231.0</ele><time>2026-04-23T15:08:51.007Z</time></trkpt><trkpt lat="43.79649" lon="11.4525217"><ele>231.0</ele><time>2026-04-23T15:08:53.006Z</time></trkpt><trkpt lat="43.7964217" lon="11.4523367"><ele>231.0</ele><time>2026-04-23T15:08:55.007Z</time></trkpt><trkpt lat="43.796355" lon="11.4522183"><ele>231.0</ele><time>2026-04-23T15:08:56.007Z</time></trkpt><trkpt lat="43.7962767" lon="11.4520983"><ele>231.0</ele><time>2026-04-23T15:08:57.006Z</time></trkpt><trkpt lat="43.7962067" lon="11.451975"><ele>232.16666666666666</ele><time>2026-04-23T15:08:58.007Z</time></trkpt><trkpt lat="43.796145" lon="11.4518633"><ele>233.33333333333331</ele><time>2026-04-23T15:08:59.006Z</time></trkpt><trkpt lat="43.7960983" lon="11.4517617"><ele>234.5</ele><time>2026-04-23T15:09:00.007Z</time></trkpt><trkpt lat="43.7960667" lon="11.45167"><ele>235.66666666666666</ele><time>2026-04-23T15:09:01.006Z</time></trkpt><trkpt lat="43.79606" lon="11.4515767"><ele>236.83333333333331</ele><time>2026-04-23T15:09:02.006Z</time></trkpt><trkpt lat="43.796105" lon="11.4514867"><ele>238.0</ele><time>2026-04-23T15:09:03.006Z</time></trkpt><trkpt lat="43.796175" lon="11.45141"><ele>238.0</ele><time>2026-04-23T15:09:04.006Z</time></trkpt><trkpt lat="43.796255" lon="11.45134"><ele>238.0</ele><time>2026-04-23T15:09:05.006Z</time></trkpt><trkpt lat="43.7963417" lon="11.4512433"><ele>238.0</ele><time>2026-04-23T15:09:06.007Z</time></trkpt><trkpt lat="43.7964317" lon="11.4511367"><ele>238.0</ele><time>2026-04-23T15:09:07.006Z</time></trkpt><trkpt lat="43.7965233" lon="11.4510383"><ele>238.0</ele><time>2026-04-23T15:09:08.006Z</time></trkpt><trkpt lat="43.7966067" lon="11.4509483"><ele>238.99999999999997</ele><time>2026-04-23T15:09:09.007Z</time></trkpt><trkpt lat="43.7966817" lon="11.45087"><ele>240.0</ele><time>2026-04-23T15:09:10.006Z</time></trkpt><trkpt lat="43.79675" lon="11.4507867"><ele>241.0</ele><time>2026-04-23T15:09:11.007Z</time></trkpt><trkpt lat="43.7967933" lon="11.4507033"><ele>242.0</ele><time>2026-04-23T15:09:12.006Z</time></trkpt><trkpt lat="43.7968267" lon="11.4505983"><ele>242.99999999999997</ele><time>2026-04-23T15:09:13.006Z</time></trkpt><trkpt lat="43.796835" lon="11.45047"><ele>244.0</ele><time>2026-04-23T15:09:14.006Z</time></trkpt><trkpt lat="43.7968233" lon="11.4503333"><ele>244.5</ele><time>2026-04-23T15:09:15.006Z</time></trkpt><trkpt lat="43.7968033" lon="11.4501633"><ele>245.0</ele><time>2026-04-23T15:09:16.006Z</time></trkpt><trkpt lat="43.7967833" lon="11.4499817"><ele>245.5</ele><time>2026-04-23T15:09:17.007Z</time></trkpt><trkpt lat="43.7967683" lon="11.449805"><ele>246.0</ele><time>2026-04-23T15:09:18.006Z</time></trkpt><trkpt lat="43.796755" lon="11.4496567"><ele>247.4</ele><time>2026-04-23T15:09:19.006Z</time></trkpt><trkpt lat="43.7967433" lon="11.4495267"><ele>248.8</ele><time>2026-04-23T15:09:20.006Z</time></trkpt><trkpt lat="43.796745" lon="11.4494317"><ele>250.20000000000002</ele><time>2026-04-23T15:09:21.006Z</time></trkpt><trkpt lat="43.796825" lon="11.4493083"><ele>251.60000000000002</ele><time>2026-04-23T15:09:23.007Z</time></trkpt><trkpt lat="43.7969683" lon="11.4493217"><ele>253.0</ele><time>2026-04-23T15:09:25.006Z</time></trkpt><trkpt lat="43.797055" lon="11.44938"><ele>254.2</ele><time>2026-04-23T15:09:26.007Z</time></trkpt><trkpt lat="43.7971317" lon="11.44947"><ele>255.4</ele><time>2026-04-23T15:09:27.006Z</time></trkpt><trkpt lat="43.7971867" lon="11.44958"><ele>256.59999999999997</ele><time>2026-04-23T15:09:28.006Z</time></trkpt><trkpt lat="43.7972283" lon="11.449715"><ele>257.8</ele><time>2026-04-23T15:09:29.007Z</time></trkpt><trkpt lat="43.7972817" lon="11.4498617"><ele>259.0</ele><time>2026-04-23T15:09:30.006Z</time></trkpt><trkpt lat="43.797335" lon="11.4500133"><ele>259.0</ele><time>2026-04-23T15:09:31.006Z</time></trkpt><trkpt lat="43.79738" lon="11.45016"><ele>259.0</ele><time>2026-04-23T15:09:32.006Z</time></trkpt><trkpt lat="43.797435" lon="11.450315"><ele>259.0</ele><time>2026-04-23T15:09:33.007Z</time></trkpt><trkpt lat="43.7974567" lon="11.4504667"><ele>259.0</ele><time>2026-04-23T15:09:34.006Z</time></trkpt><trkpt lat="43.79748" lon="11.450625"><ele>258.8</ele><time>2026-04-23T15:09:35.007Z</time></trkpt><trkpt lat="43.797505" lon="11.450775"><ele>258.59999999999997</ele><time>2026-04-23T15:09:36.007Z</time></trkpt><trkpt lat="43.7975317" lon="11.4509117"><ele>258.4</ele><time>2026-04-23T15:09:37.006Z</time></trkpt><trkpt lat="43.797575" lon="11.4510433"><ele>258.2</ele><time>2026-04-23T15:09:38.006Z</time></trkpt><trkpt lat="43.797645" lon="11.4511467"><ele>258.0</ele><time>2026-04-23T15:09:39.006Z</time></trkpt><trkpt lat="43.79772" lon="11.4512433"><ele>260.8</ele><time>2026-04-23T15:09:40.007Z</time></trkpt><trkpt lat="43.7977967" lon="11.451325"><ele>263.6</ele><time>2026-04-23T15:09:41.006Z</time></trkpt><trkpt lat="43.797875" lon="11.451405"><ele>266.4</ele><time>2026-04-23T15:09:42.006Z</time></trkpt><trkpt lat="43.797955" lon="11.4514917"><ele>269.2</ele><time>2026-04-23T15:09:43.006Z</time></trkpt><trkpt lat="43.7980383" lon="11.4515683"><ele>272.0</ele><time>2026-04-23T15:09:44.006Z</time></trkpt><trkpt lat="43.7981183" lon="11.4516533"><ele>272.0</ele><time>2026-04-23T15:09:45.006Z</time></trkpt><trkpt lat="43.7982017" lon="11.451735"><ele>272.0</ele><time>2026-04-23T15:09:46.006Z</time></trkpt><trkpt lat="43.798285" lon="11.4518217"><ele>272.0</ele><time>2026-04-23T15:09:47.007Z</time></trkpt><trkpt lat="43.7983667" lon="11.451915"><ele>272.0</ele><time>2026-04-23T15:09:48.006Z</time></trkpt><trkpt lat="43.7984533" lon="11.452005"><ele>272.0</ele><time>2026-04-23T15:09:49.006Z</time></trkpt><trkpt lat="43.79854" lon="11.452095"><ele>275.5</ele><time>2026-04-23T15:09:50.006Z</time></trkpt><trkpt lat="43.7986233" lon="11.4521867"><ele>279.0</ele><time>2026-04-23T15:09:51.006Z</time></trkpt><trkpt lat="43.7987183" lon="11.4522783"><ele>282.5</ele><time>2026-04-23T15:09:52.006Z</time></trkpt><trkpt lat="43.7988317" lon="11.452385"><ele>286.0</ele><time>2026-04-23T15:09:53.006Z</time></trkpt><trkpt lat="43.7989717" lon="11.4525"><ele>286.0</ele><time>2026-04-23T15:09:54.006Z</time></trkpt><trkpt lat="43.7990967" lon="11.4526117"><ele>286.0</ele><time>2026-04-23T15:09:55.006Z</time></trkpt><trkpt lat="43.799215" lon="11.4527383"><ele>286.0</ele><time>2026-04-23T15:09:56.007Z</time></trkpt><trkpt lat="43.7993233" lon="11.4528617"><ele>286.0</ele><time>2026-04-23T15:09:57.006Z</time></trkpt><trkpt lat="43.7994233" lon="11.45295"><ele>285.8</ele><time>2026-04-23T15:09:58.007Z</time></trkpt><trkpt lat="43.7995183" lon="11.45303"><ele>285.6</ele><time>2026-04-23T15:09:59.006Z</time></trkpt><trkpt lat="43.7995917" lon="11.4530867"><ele>285.4</ele><time>2026-04-23T15:10:00.006Z</time></trkpt><trkpt lat="43.7996517" lon="11.4531333"><ele>285.2</ele><time>2026-04-23T15:10:01.006Z</time></trkpt><trkpt lat="43.7997133" lon="11.4531583"><ele>285.0</ele><time>2026-04-23T15:10:03.006Z</time></trkpt><trkpt lat="43.799855" lon="11.4531867"><ele>285.0</ele><time>2026-04-23T15:10:28.006Z</time></trkpt><trkpt lat="43.7999333" lon="11.4531967"><ele>285.0</ele><time>2026-04-23T15:10:29.006Z</time></trkpt><trkpt lat="43.800025" lon="11.4532067"><ele>285.0</ele><time>2026-04-23T15:10:30.006Z</time></trkpt><trkpt lat="43.8001433" lon="11.453215"><ele>285.0</ele><time>2026-04-23T15:10:31.006Z</time></trkpt><trkpt lat="43.8002683" lon="11.4532317"><ele>285.0</ele><time>2026-04-23T15:10:32.006Z</time></trkpt><trkpt lat="43.8003817" lon="11.4532433"><ele>286.5</ele><time>2026-04-23T15:10:33.006Z</time></trkpt><trkpt lat="43.80049" lon="11.45326"><ele>288.0</ele><time>2026-04-23T15:10:34.006Z</time></trkpt><trkpt lat="43.8006083" lon="11.45328"><ele>289.5</ele><time>2026-04-23T15:10:35.006Z</time></trkpt><trkpt lat="43.8007117" lon="11.4533333"><ele>291.0</ele><time>2026-04-23T15:10:36.006Z</time></trkpt><trkpt lat="43.8008133" lon="11.4534217"><ele>291.0</ele><time>2026-04-23T15:10:37.006Z</time></trkpt><trkpt lat="43.8009017" lon="11.4535533"><ele>291.0</ele><time>2026-04-23T15:10:38.006Z</time></trkpt><trkpt lat="43.8009767" lon="11.4536933"><ele>291.0</ele><time>2026-04-23T15:10:39.006Z</time></trkpt><trkpt lat="43.8010467" lon="11.4538483"><ele>291.0</ele><time>2026-04-23T15:10:40.006Z</time></trkpt><trkpt lat="43.8011267" lon="11.4539933"><ele>296.5</ele><time>2026-04-23T15:10:41.006Z</time></trkpt><trkpt lat="43.8012183" lon="11.45413"><ele>302.0</ele><time>2026-04-23T15:10:42.006Z</time></trkpt><trkpt lat="43.8013117" lon="11.4542683"><ele>307.5</ele><time>2026-04-23T15:10:43.006Z</time></trkpt><trkpt lat="43.8014067" lon="11.4544"><ele>313.0</ele><time>2026-04-23T15:10:44.006Z</time></trkpt><trkpt lat="43.8015083" lon="11.4545217"><ele>312.25</ele><time>2026-04-23T15:10:45.006Z</time></trkpt><trkpt lat="43.8016" lon="11.45465"><ele>311.5</ele><time>2026-04-23T15:10:46.006Z</time></trkpt><trkpt lat="43.8017" lon="11.4547717"><ele>310.75</ele><time>2026-04-23T15:10:47.006Z</time></trkpt><trkpt lat="43.8018" lon="11.45488"><ele>310.0</ele><time>2026-04-23T15:10:48.007Z</time></trkpt><trkpt lat="43.801915" lon="11.4549917"><ele>310.0</ele><time>2026-04-23T15:10:49.006Z</time></trkpt><trkpt lat="43.8020283" lon="11.4550883"><ele>310.0</ele><time>2026-04-23T15:10:50.006Z</time></trkpt><trkpt lat="43.8021283" lon="11.4551833"><ele>310.0</ele><time>2026-04-23T15:10:51.006Z</time></trkpt><trkpt lat="43.8022217" lon="11.4552767"><ele>310.0</ele><time>2026-04-23T15:10:52.006Z</time></trkpt><trkpt lat="43.8023083" lon="11.455365"><ele>310.0</ele><time>2026-04-23T15:10:53.007Z</time></trkpt><trkpt lat="43.8023983" lon="11.4554517"><ele>310.0</ele><time>2026-04-23T15:10:54.006Z</time></trkpt><trkpt lat="43.8024933" lon="11.4555233"><ele>310.0</ele><time>2026-04-23T15:10:55.006Z</time></trkpt><trkpt lat="43.8025883" lon="11.4555917"><ele>310.0</ele><time>2026-04-23T15:10:56.006Z</time></trkpt><trkpt lat="43.8026833" lon="11.455655"><ele>310.0</ele><time>2026-04-23T15:10:57.006Z</time></trkpt><trkpt lat="43.802785" lon="11.4557017"><ele>305.4</ele><time>2026-04-23T15:10:58.006Z</time></trkpt><trkpt lat="43.80289" lon="11.4557417"><ele>300.8</ele><time>2026-04-23T15:10:59.007Z</time></trkpt><trkpt lat="43.8029833" lon="11.4557933"><ele>296.2</ele><time>2026-04-23T15:11:00.006Z</time></trkpt><trkpt lat="43.8030867" lon="11.455855"><ele>291.6</ele><time>2026-04-23T15:11:01.007Z</time></trkpt><trkpt lat="43.80318" lon="11.4559467"><ele>287.0</ele><time>2026-04-23T15:11:02.006Z</time></trkpt><trkpt lat="43.80325" lon="11.45603"><ele>287.0</ele><time>2026-04-23T15:11:03.006Z</time></trkpt><trkpt lat="43.803325" lon="11.4561133"><ele>287.0</ele><time>2026-04-23T15:11:04.006Z</time></trkpt><trkpt lat="43.8033933" lon="11.45619"><ele>287.0</ele><time>2026-04-23T15:11:05.006Z</time></trkpt><trkpt lat="43.80346" lon="11.4562667"><ele>287.0</ele><time>2026-04-23T15:11:06.006Z</time></trkpt><trkpt lat="43.8035417" lon="11.4563633"><ele>287.0</ele><time>2026-04-23T15:11:07.006Z</time></trkpt><trkpt lat="43.8036267" lon="11.45647"><ele>286.75</ele><time>2026-04-23T15:11:08.006Z</time></trkpt><trkpt lat="43.8037233" lon="11.4565783"><ele>286.5</ele><time>2026-04-23T15:11:09.006Z</time></trkpt><trkpt lat="43.8038183" lon="11.4566983"><ele>286.25</ele><time>2026-04-23T15:11:10.006Z</time></trkpt><trkpt lat="43.8039183" lon="11.4568217"><ele>286.0</ele><time>2026-04-23T15:11:11.006Z</time></trkpt><trkpt lat="43.804015" lon="11.4569367"><ele>286.0</ele><time>2026-04-23T15:11:12.006Z</time></trkpt><trkpt lat="43.8041" lon="11.4570533"><ele>286.0</ele><time>2026-04-23T15:11:13.007Z</time></trkpt><trkpt lat="43.8041867" lon="11.45717"><ele>286.0</ele><time>2026-04-23T15:11:14.006Z</time></trkpt><trkpt lat="43.8042667" lon="11.4572783"><ele>286.0</ele><time>2026-04-23T15:11:15.007Z</time></trkpt><trkpt lat="43.804345" lon="11.4573983"><ele>286.0</ele><time>2026-04-23T15:11:16.006Z</time></trkpt><trkpt lat="43.804415" lon="11.45754"><ele>286.0</ele><time>2026-04-23T15:11:17.006Z</time></trkpt><trkpt lat="43.80449" lon="11.45769"><ele>286.0</ele><time>2026-04-23T15:11:18.007Z</time></trkpt><trkpt lat="43.8045633" lon="11.457845"><ele>286.0</ele><time>2026-04-23T15:11:19.006Z</time></trkpt><trkpt lat="43.8046367" lon="11.4580017"><ele>286.0</ele><time>2026-04-23T15:11:20.006Z</time></trkpt><trkpt lat="43.8047083" lon="11.4581667"><ele>286.0</ele><time>2026-04-23T15:11:21.006Z</time></trkpt><trkpt lat="43.8047733" lon="11.4583183"><ele>286.0</ele><time>2026-04-23T15:11:22.007Z</time></trkpt><trkpt lat="43.8048283" lon="11.4584433"><ele>286.0</ele><time>2026-04-23T15:11:23.006Z</time></trkpt><trkpt lat="43.8048767" lon="11.458545"><ele>286.0</ele><time>2026-04-23T15:11:24.007Z</time></trkpt><trkpt lat="43.804925" lon="11.45862"><ele>286.0</ele><time>2026-04-23T15:11:25.006Z</time></trkpt><trkpt lat="43.8050383" lon="11.4586883"><ele>286.0</ele><time>2026-04-23T15:11:27.006Z</time></trkpt><trkpt lat="43.8051067" lon="11.458705"><ele>286.0</ele><time>2026-04-23T15:11:28.007Z</time></trkpt><trkpt lat="43.80519" lon="11.458695"><ele>286.0</ele><time>2026-04-23T15:11:29.006Z</time></trkpt><trkpt lat="43.8052683" lon="11.4586833"><ele>286.0</ele><time>2026-04-23T15:11:30.006Z</time></trkpt><trkpt lat="43.8053533" lon="11.4586867"><ele>288.6</ele><time>2026-04-23T15:11:31.006Z</time></trkpt><trkpt lat="43.8054433" lon="11.4587067"><ele>291.20000000000005</ele><time>2026-04-23T15:11:32.007Z</time></trkpt><trkpt lat="43.8055383" lon="11.4587433"><ele>293.79999999999995</ele><time>2026-04-23T15:11:33.006Z</time></trkpt><trkpt lat="43.80563" lon="11.458805"><ele>296.4</ele><time>2026-04-23T15:11:34.006Z</time></trkpt><trkpt lat="43.805715" lon="11.4588817"><ele>299.0</ele><time>2026-04-23T15:11:35.006Z</time></trkpt><trkpt lat="43.8057883" lon="11.45895"><ele>299.0</ele><time>2026-04-23T15:11:36.006Z</time></trkpt><trkpt lat="43.80587" lon="11.459005"><ele>299.0</ele><time>2026-04-23T15:11:37.006Z</time></trkpt><trkpt lat="43.805945" lon="11.45905"><ele>299.0</ele><time>2026-04-23T15:11:38.006Z</time></trkpt><trkpt lat="43.8060067" lon="11.459085"><ele>299.0</ele><time>2026-04-23T15:11:39.006Z</time></trkpt><trkpt lat="43.8060667" lon="11.4591117"><ele>299.0</ele><time>2026-04-23T15:11:40.007Z</time></trkpt><trkpt lat="43.80618" lon="11.4591017"><ele>299.0</ele><time>2026-04-23T15:11:42.007Z</time></trkpt><trkpt lat="43.8063133" lon="11.45909"><ele>299.2</ele><time>2026-04-23T15:11:49.007Z</time></trkpt><trkpt lat="43.806395" lon="11.45908"><ele>299.4</ele><time>2026-04-23T15:12:36.006Z</time></trkpt><trkpt lat="43.80644" lon="11.45899"><ele>299.6</ele><time>2026-04-23T15:12:38.006Z</time></trkpt><trkpt lat="43.806535" lon="11.4588533"><ele>299.8</ele><time>2026-04-23T15:12:40.006Z</time></trkpt><trkpt lat="43.8065967" lon="11.4587483"><ele>300.0</ele><time>2026-04-23T15:12:41.006Z</time></trkpt><trkpt lat="43.806645" lon="11.458665"><ele>299.99999999999994</ele><time>2026-04-23T15:12:42.007Z</time></trkpt><trkpt lat="43.8067067" lon="11.4585717"><ele>300.0</ele><time>2026-04-23T15:12:44.006Z</time></trkpt><trkpt lat="43.8067683" lon="11.4585533"><ele>300.0</ele><time>2026-04-23T15:13:06.006Z</time></trkpt><trkpt lat="43.80683" lon="11.458515"><ele>300.0</ele><time>2026-04-23T15:13:34.007Z</time></trkpt><trkpt lat="43.8067683" lon="11.458555"><ele>300.0</ele><time>2026-04-23T15:13:48.006Z</time></trkpt><trkpt lat="43.80672" lon="11.4586267"><ele>299.99999999999994</ele><time>2026-04-23T15:13:49.006Z</time></trkpt><trkpt lat="43.806665" lon="11.4587117"><ele>300.0</ele><time>2026-04-23T15:13:50.006Z</time></trkpt><trkpt lat="43.8065983" lon="11.4587983"><ele>299.0</ele><time>2026-04-23T15:13:51.007Z</time></trkpt><trkpt lat="43.806535" lon="11.4588733"><ele>298.0</ele><time>2026-04-23T15:13:52.006Z</time></trkpt><trkpt lat="43.806475" lon="11.4589417"><ele>297.0</ele><time>2026-04-23T15:13:53.007Z</time></trkpt><trkpt lat="43.8064" lon="11.4590133"><ele>296.0</ele><time>2026-04-23T15:13:54.006Z</time></trkpt><trkpt lat="43.8063367" lon="11.45906"><ele>295.0</ele><time>2026-04-23T15:13:55.006Z</time></trkpt><trkpt lat="43.8062667" lon="11.4590867"><ele>294.0</ele><time>2026-04-23T15:13:56.006Z</time></trkpt><trkpt lat="43.8061983" lon="11.4590967"><ele>294.0</ele><time>2026-04-23T15:13:57.006Z</time></trkpt><trkpt lat="43.80607" lon="11.4590767"><ele>294.0</ele><time>2026-04-23T15:13:59.006Z</time></trkpt><trkpt lat="43.8060117" lon="11.4590367"><ele>294.0</ele><time>2026-04-23T15:14:00.006Z</time></trkpt><trkpt lat="43.8059583" lon="11.4589783"><ele>294.0</ele><time>2026-04-23T15:14:01.007Z</time></trkpt><trkpt lat="43.8059017" lon="11.4589167"><ele>294.0</ele><time>2026-04-23T15:14:02.006Z</time></trkpt><trkpt lat="43.805825" lon="11.458865"><ele>294.0</ele><time>2026-04-23T15:14:03.006Z</time></trkpt><trkpt lat="43.8057517" lon="11.4588117"><ele>295.0</ele><time>2026-04-23T15:14:04.006Z</time></trkpt><trkpt lat="43.8056733" lon="11.4587733"><ele>296.0</ele><time>2026-04-23T15:14:05.006Z</time></trkpt><trkpt lat="43.8055983" lon="11.4587317"><ele>297.0</ele><time>2026-04-23T15:14:06.006Z</time></trkpt><trkpt lat="43.805525" lon="11.45869"><ele>298.0</ele><time>2026-04-23T15:14:07.006Z</time></trkpt><trkpt lat="43.8054517" lon="11.4586533"><ele>299.0</ele><time>2026-04-23T15:14:08.007Z</time></trkpt><trkpt lat="43.8053667" lon="11.4586383"><ele>300.0</ele><time>2026-04-23T15:14:09.006Z</time></trkpt><trkpt lat="43.805275" lon="11.4586317"><ele>300.0</ele><time>2026-04-23T15:14:10.006Z</time></trkpt><trkpt lat="43.8051933" lon="11.4586217"><ele>300.0</ele><time>2026-04-23T15:14:11.007Z</time></trkpt><trkpt lat="43.8051217" lon="11.4586083"><ele>300.0</ele><time>2026-04-23T15:14:12.007Z</time></trkpt><trkpt lat="43.8050317" lon="11.4586167"><ele>300.0</ele><time>2026-04-23T15:14:14.006Z</time></trkpt><trkpt lat="43.80496" lon="11.45866"><ele>300.0</ele><time>2026-04-23T15:14:17.006Z</time></trkpt><trkpt lat="43.804905" lon="11.458615"><ele>300.0</ele><time>2026-04-23T15:14:22.006Z</time></trkpt><trkpt lat="43.8048783" lon="11.4585067"><ele>297.8</ele><time>2026-04-23T15:14:26.006Z</time></trkpt><trkpt lat="43.8047817" lon="11.45849"><ele>295.6</ele><time>2026-04-23T15:14:39.006Z</time></trkpt><trkpt lat="43.8047167" lon="11.4586"><ele>293.4</ele><time>2026-04-23T15:14:42.007Z</time></trkpt><trkpt lat="43.8046583" lon="11.458695"><ele>291.2</ele><time>2026-04-23T15:14:44.006Z</time></trkpt><trkpt lat="43.804595" lon="11.45876"><ele>289.0</ele><time>2026-04-23T15:14:46.006Z</time></trkpt><trkpt lat="43.8045133" lon="11.45879"><ele>289.0</ele><time>2026-04-23T15:14:48.006Z</time></trkpt><trkpt lat="43.804405" lon="11.4588358"><ele>289.0</ele><time>2026-04-23T15:14:50.006Z</time></trkpt><trkpt lat="43.8043006" lon="11.4588741"><ele>289.0</ele><time>2026-04-23T15:14:52.006Z</time></trkpt><trkpt lat="43.8041982" lon="11.4588961"><ele>289.0</ele><time>2026-04-23T15:14:54.006Z</time></trkpt><trkpt lat="43.8041199" lon="11.4589152"><ele>289.0</ele><time>2026-04-23T15:14:56.007Z</time></trkpt><trkpt lat="43.8040518" lon="11.4589582"><ele>285.66666666666663</ele><time>2026-04-23T15:15:01.006Z</time></trkpt><trkpt lat="43.8040421" lon="11.4590765"><ele>282.3333333333333</ele><time>2026-04-23T15:15:04.006Z</time></trkpt><trkpt lat="43.8040561" lon="11.4592354"><ele>279.0</ele><time>2026-04-23T15:15:06.006Z</time></trkpt><trkpt lat="43.8040604" lon="11.4593327"><ele>275.6666666666667</ele><time>2026-04-23T15:15:07.006Z</time></trkpt><trkpt lat="43.8040664" lon="11.4594399"><ele>272.33333333333337</ele><time>2026-04-23T15:15:08.007Z</time></trkpt><trkpt lat="43.8040757" lon="11.4595508"><ele>269.0</ele><time>2026-04-23T15:15:09.007Z</time></trkpt><trkpt lat="43.8040848" lon="11.4596645"><ele>269.0</ele><time>2026-04-23T15:15:10.007Z</time></trkpt><trkpt lat="43.8040986" lon="11.4597733"><ele>269.0</ele><time>2026-04-23T15:15:11.006Z</time></trkpt><trkpt lat="43.804111" lon="11.4598758"><ele>269.0</ele><time>2026-04-23T15:15:12.006Z</time></trkpt><trkpt lat="43.8041217" lon="11.4599767"><ele>269.0</ele><time>2026-04-23T15:15:13.006Z</time></trkpt><trkpt lat="43.8041283" lon="11.46013"><ele>269.0</ele><time>2026-04-23T15:15:15.007Z</time></trkpt><trkpt lat="43.80414" lon="11.460225"><ele>269.0</ele><time>2026-04-23T15:15:18.006Z</time></trkpt><trkpt lat="43.8042067" lon="11.4602717"><ele>269.0</ele><time>2026-04-23T15:15:21.006Z</time></trkpt><trkpt lat="43.804295" lon="11.4603317"><ele>269.0</ele><time>2026-04-23T15:15:23.006Z</time></trkpt><trkpt lat="43.8043533" lon="11.4603667"><ele>269.0</ele><time>2026-04-23T15:15:24.006Z</time></trkpt><trkpt lat="43.8044133" lon="11.4604133"><ele>269.0</ele><time>2026-04-23T15:15:25.007Z</time></trkpt><trkpt lat="43.8044767" lon="11.4604567"><ele>269.0</ele><time>2026-04-23T15:15:26.006Z</time></trkpt><trkpt lat="43.8045367" lon="11.4605017"><ele>269.0</ele><time>2026-04-23T15:15:27.006Z</time></trkpt><trkpt lat="43.8046017" lon="11.4605467"><ele>269.0</ele><time>2026-04-23T15:15:28.006Z</time></trkpt><trkpt lat="43.8046717" lon="11.4605883"><ele>270.14285714285717</ele><time>2026-04-23T15:15:29.007Z</time></trkpt><trkpt lat="43.8047367" lon="11.4606283"><ele>271.28571428571433</ele><time>2026-04-23T15:15:30.006Z</time></trkpt><trkpt lat="43.8048017" lon="11.4606633"><ele>272.42857142857144</ele><time>2026-04-23T15:15:31.007Z</time></trkpt><trkpt lat="43.8048617" lon="11.460695"><ele>273.57142857142856</ele><time>2026-04-23T15:15:32.006Z</time></trkpt><trkpt lat="43.8049233" lon="11.4607267"><ele>274.71428571428567</ele><time>2026-04-23T15:15:33.006Z</time></trkpt><trkpt lat="43.8049817" lon="11.4607667"><ele>275.85714285714283</ele><time>2026-04-23T15:15:34.007Z</time></trkpt><trkpt lat="43.8050383" lon="11.4608183"><ele>277.0</ele><time>2026-04-23T15:15:35.007Z</time></trkpt><trkpt lat="43.8051033" lon="11.460875"><ele>278.0</ele><time>2026-04-23T15:15:36.007Z</time></trkpt><trkpt lat="43.8051683" lon="11.46093"><ele>279.0</ele><time>2026-04-23T15:15:37.006Z</time></trkpt><trkpt lat="43.8052317" lon="11.460985"><ele>280.0</ele><time>2026-04-23T15:15:38.006Z</time></trkpt><trkpt lat="43.8052983" lon="11.4610433"><ele>281.0</ele><time>2026-04-23T15:15:39.006Z</time></trkpt><trkpt lat="43.8053617" lon="11.4611"><ele>282.0</ele><time>2026-04-23T15:15:40.007Z</time></trkpt><trkpt lat="43.8054217" lon="11.4611517"><ele>283.0</ele><time>2026-04-23T15:15:41.006Z</time></trkpt><trkpt lat="43.8055283" lon="11.4612417"><ele>283.0</ele><time>2026-04-23T15:15:43.006Z</time></trkpt><trkpt lat="43.8056033" lon="11.461305"><ele>283.0</ele><time>2026-04-23T15:15:45.007Z</time></trkpt><trkpt lat="43.805675" lon="11.461375"><ele>283.0</ele><time>2026-04-23T15:15:47.007Z</time></trkpt><trkpt lat="43.8057533" lon="11.4614017"><ele>283.0</ele><time>2026-04-23T15:15:49.007Z</time></trkpt><trkpt lat="43.8058367" lon="11.4613867"><ele>283.0</ele><time>2026-04-23T15:15:53.006Z</time></trkpt><trkpt lat="43.8058783" lon="11.4613117"><ele>283.0</ele><time>2026-04-23T15:15:55.007Z</time></trkpt><trkpt lat="43.8059467" lon="11.4611933"><ele>280.5</ele><time>2026-04-23T15:15:57.006Z</time></trkpt><trkpt lat="43.80601" lon="11.4610833"><ele>278.0</ele><time>2026-04-23T15:15:59.006Z</time></trkpt><trkpt lat="43.8060733" lon="11.4610033"><ele>275.5</ele><time>2026-04-23T15:16:01.006Z</time></trkpt><trkpt lat="43.80614" lon="11.4609617"><ele>273.0</ele><time>2026-04-23T15:16:04.006Z</time></trkpt><trkpt lat="43.8062133" lon="11.4609833"><ele>270.5</ele><time>2026-04-23T15:16:07.006Z</time></trkpt><trkpt lat="43.80623" lon="11.46109"><ele>268.0</ele><time>2026-04-23T15:16:14.006Z</time></trkpt><trkpt lat="43.80619" lon="11.4611883"><ele>264.0</ele><time>2026-04-23T15:16:16.006Z</time></trkpt><trkpt lat="43.8061483" lon="11.4613167"><ele>260.0</ele><time>2026-04-23T15:16:18.006Z</time></trkpt><trkpt lat="43.8061167" lon="11.4614733"><ele>256.0</ele><time>2026-04-23T15:16:20.006Z</time></trkpt><trkpt lat="43.8060767" lon="11.4616083"><ele>252.0</ele><time>2026-04-23T15:16:22.006Z</time></trkpt><trkpt lat="43.8060833" lon="11.4617167"><ele>248.0</ele><time>2026-04-23T15:16:25.006Z</time></trkpt><trkpt lat="43.8061567" lon="11.46172"><ele>248.00000000000003</ele><time>2026-04-23T15:16:31.006Z</time></trkpt><trkpt lat="43.8062067" lon="11.4616633"><ele>248.0</ele><time>2026-04-23T15:16:34.007Z</time></trkpt><trkpt lat="43.8062833" lon="11.4616117"><ele>248.0</ele><time>2026-04-23T15:16:37.007Z</time></trkpt><trkpt lat="43.8063617" lon="11.4615817"><ele>248.0</ele><time>2026-04-23T15:16:40.007Z</time></trkpt><trkpt lat="43.806445" lon="11.4615333"><ele>248.00000000000003</ele><time>2026-04-23T15:16:42.006Z</time></trkpt><trkpt lat="43.8065483" lon="11.4614617"><ele>248.0</ele><time>2026-04-23T15:16:44.007Z</time></trkpt><trkpt lat="43.8066433" lon="11.46139"><ele>248.00000000000003</ele><time>2026-04-23T15:16:46.007Z</time></trkpt><trkpt lat="43.806705" lon="11.46131"><ele>248.0</ele><time>2026-04-23T15:16:48.006Z</time></trkpt><trkpt lat="43.8067867" lon="11.4611983"><ele>248.0</ele><time>2026-04-23T15:16:50.006Z</time></trkpt><trkpt lat="43.8068533" lon="11.4611083"><ele>248.0</ele><time>2026-04-23T15:16:52.007Z</time></trkpt><trkpt lat="43.8069117" lon="11.4610733"><ele>248.00000000000003</ele><time>2026-04-23T15:16:54.007Z</time></trkpt><trkpt lat="43.806975" lon="11.461095"><ele>248.0</ele><time>2026-04-23T15:16:56.006Z</time></trkpt><trkpt lat="43.8070583" lon="11.461185"><ele>246.8</ele><time>2026-04-23T15:17:07.006Z</time></trkpt><trkpt lat="43.8071033" lon="11.4612467"><ele>245.60000000000002</ele><time>2026-04-23T15:17:10.006Z</time></trkpt><trkpt lat="43.8072183" lon="11.4613817"><ele>244.39999999999998</ele><time>2026-04-23T15:17:20.006Z</time></trkpt><trkpt lat="43.807275" lon="11.4614433"><ele>243.2</ele><time>2026-04-23T15:17:22.007Z</time></trkpt><trkpt lat="43.8073467" lon="11.4615533"><ele>242.0</ele><time>2026-04-23T15:17:24.007Z</time></trkpt><trkpt lat="43.8073667" lon="11.46174"><ele>242.0</ele><time>2026-04-23T15:17:39.006Z</time></trkpt><trkpt lat="43.8073667" lon="11.4618367"><ele>242.0</ele><time>2026-04-23T15:17:42.006Z</time></trkpt><trkpt lat="43.807395" lon="11.4619767"><ele>242.0</ele><time>2026-04-23T15:17:45.006Z</time></trkpt><trkpt lat="43.8074283" lon="11.4621217"><ele>242.0</ele><time>2026-04-23T15:17:47.007Z</time></trkpt><trkpt lat="43.8074583" lon="11.4622933"><ele>242.0</ele><time>2026-04-23T15:17:49.007Z</time></trkpt><trkpt lat="43.80747" lon="11.4623917"><ele>240.50000000000003</ele><time>2026-04-23T15:17:50.006Z</time></trkpt><trkpt lat="43.807495" lon="11.46249"><ele>239.0</ele><time>2026-04-23T15:17:51.006Z</time></trkpt><trkpt lat="43.8075167" lon="11.4625833"><ele>237.5</ele><time>2026-04-23T15:17:52.007Z</time></trkpt><trkpt lat="43.8075467" lon="11.4627317"><ele>236.0</ele><time>2026-04-23T15:17:54.006Z</time></trkpt><trkpt lat="43.8075517" lon="11.4628417"><ele>234.50000000000003</ele><time>2026-04-23T15:17:56.006Z</time></trkpt><trkpt lat="43.8075633" lon="11.4629633"><ele>233.0</ele><time>2026-04-23T15:17:58.006Z</time></trkpt><trkpt lat="43.8075733" lon="11.46308"><ele>232.0</ele><time>2026-04-23T15:18:00.006Z</time></trkpt><trkpt lat="43.80757" lon="11.46317"><ele>231.0</ele><time>2026-04-23T15:18:02.006Z</time></trkpt><trkpt lat="43.8075567" lon="11.463285"><ele>230.0</ele><time>2026-04-23T15:18:05.006Z</time></trkpt><trkpt lat="43.8075467" lon="11.46342"><ele>229.0</ele><time>2026-04-23T15:18:09.007Z</time></trkpt><trkpt lat="43.8075517" lon="11.4635583"><ele>228.0</ele><time>2026-04-23T15:18:11.007Z</time></trkpt><trkpt lat="43.8075533" lon="11.4637383"><ele>226.83333333333334</ele><time>2026-04-23T15:18:13.007Z</time></trkpt><trkpt lat="43.8075417" lon="11.4639"><ele>225.66666666666669</ele><time>2026-04-23T15:18:15.006Z</time></trkpt><trkpt lat="43.8075383" lon="11.4639933"><ele>224.5</ele><time>2026-04-23T15:18:16.006Z</time></trkpt><trkpt lat="43.8075533" lon="11.4640783"><ele>223.33333333333334</ele><time>2026-04-23T15:18:17.006Z</time></trkpt><trkpt lat="43.8075617" lon="11.46418"><ele>222.16666666666669</ele><time>2026-04-23T15:18:18.006Z</time></trkpt><trkpt lat="43.80757" lon="11.4642817"><ele>221.0</ele><time>2026-04-23T15:18:19.007Z</time></trkpt><trkpt lat="43.8075733" lon="11.4643733"><ele>221.0</ele><time>2026-04-23T15:18:20.006Z</time></trkpt><trkpt lat="43.807575" lon="11.464475"><ele>221.00000000000003</ele><time>2026-04-23T15:18:21.006Z</time></trkpt><trkpt lat="43.8075767" lon="11.4645767"><ele>221.00000000000003</ele><time>2026-04-23T15:18:22.007Z</time></trkpt><trkpt lat="43.8075817" lon="11.4646717"><ele>221.0</ele><time>2026-04-23T15:18:23.006Z</time></trkpt><trkpt lat="43.8075867" lon="11.46484"><ele>221.0</ele><time>2026-04-23T15:18:25.006Z</time></trkpt><trkpt lat="43.8075933" lon="11.465"><ele>220.60000000000002</ele><time>2026-04-23T15:18:27.007Z</time></trkpt><trkpt lat="43.8076133" lon="11.4651433"><ele>220.20000000000002</ele><time>2026-04-23T15:18:29.006Z</time></trkpt><trkpt lat="43.8076267" lon="11.4652817"><ele>219.79999999999998</ele><time>2026-04-23T15:18:31.007Z</time></trkpt><trkpt lat="43.8076383" lon="11.46542"><ele>219.39999999999998</ele><time>2026-04-23T15:18:33.006Z</time></trkpt><trkpt lat="43.8076383" lon="11.4655467"><ele>219.0</ele><time>2026-04-23T15:18:35.007Z</time></trkpt><trkpt lat="43.8076367" lon="11.4656583"><ele>218.66666666666666</ele><time>2026-04-23T15:18:37.006Z</time></trkpt><trkpt lat="43.807635" lon="11.465805"><ele>218.33333333333331</ele><time>2026-04-23T15:18:47.006Z</time></trkpt><trkpt lat="43.8075683" lon="11.4658567"><ele>218.0</ele><time>2026-04-23T15:18:52.006Z</time></trkpt><trkpt lat="43.8075017" lon="11.4658267"><ele>217.66666666666666</ele><time>2026-04-23T15:18:56.006Z</time></trkpt><trkpt lat="43.807465" lon="11.4657333"><ele>217.33333333333331</ele><time>2026-04-23T15:19:00.006Z</time></trkpt><trkpt lat="43.8074417" lon="11.4656317"><ele>217.0</ele><time>2026-04-23T15:19:13.007Z</time></trkpt><trkpt lat="43.8073983" lon="11.4655617"><ele>217.0</ele><time>2026-04-23T15:19:16.006Z</time></trkpt><trkpt lat="43.8073667" lon="11.4654783"><ele>217.0</ele><time>2026-04-23T15:19:22.006Z</time></trkpt><trkpt lat="43.8073283" lon="11.4654017"><ele>217.0</ele><time>2026-04-23T15:19:27.007Z</time></trkpt><trkpt lat="43.80729" lon="11.4653217"><ele>217.0</ele><time>2026-04-23T15:19:31.007Z</time></trkpt><trkpt lat="43.80724" lon="11.46525"><ele>217.0</ele><time>2026-04-23T15:19:37.007Z</time></trkpt><trkpt lat="43.8071917" lon="11.4651733"><ele>217.0</ele><time>2026-04-23T15:19:42.006Z</time></trkpt><trkpt lat="43.8071367" lon="11.4650783"><ele>217.0</ele><time>2026-04-23T15:19:45.007Z</time></trkpt><trkpt lat="43.8071017" lon="11.465005"><ele>217.39999999999998</ele><time>2026-04-23T15:19:47.006Z</time></trkpt><trkpt lat="43.8070517" lon="11.4649033"><ele>217.79999999999998</ele><time>2026-04-23T15:19:50.006Z</time></trkpt><trkpt lat="43.8069933" lon="11.4648"><ele>218.2</ele><time>2026-04-23T15:19:53.007Z</time></trkpt><trkpt lat="43.8069483" lon="11.4647"><ele>218.6</ele><time>2026-04-23T15:19:57.006Z</time></trkpt><trkpt lat="43.8068967" lon="11.4645483"><ele>219.0</ele><time>2026-04-23T15:20:04.006Z</time></trkpt><trkpt lat="43.8068517" lon="11.4644633"><ele>215.42857142857144</ele><time>2026-04-23T15:20:06.006Z</time></trkpt><trkpt lat="43.806805" lon="11.46439"><ele>211.85714285714283</ele><time>2026-04-23T15:20:08.006Z</time></trkpt><trkpt lat="43.806765" lon="11.4643183"><ele>208.28571428571428</ele><time>2026-04-23T15:20:10.007Z</time></trkpt><trkpt lat="43.8067233" lon="11.4642417"><ele>204.71428571428572</ele><time>2026-04-23T15:20:12.006Z</time></trkpt><trkpt lat="43.8066883" lon="11.4641317"><ele>201.14285714285717</ele><time>2026-04-23T15:20:15.007Z</time></trkpt><trkpt lat="43.8066833" lon="11.4640417"><ele>197.57142857142856</ele><time>2026-04-23T15:20:17.006Z</time></trkpt><trkpt lat="43.80668" lon="11.46395"><ele>194.0</ele><time>2026-04-23T15:20:19.006Z</time></trkpt><trkpt lat="43.8066967" lon="11.4638533"><ele>196.00000000000003</ele><time>2026-04-23T15:20:21.007Z</time></trkpt><trkpt lat="43.806705" lon="11.46374"><ele>198.0</ele><time>2026-04-23T15:20:23.006Z</time></trkpt><trkpt lat="43.806675" lon="11.46362"><ele>200.0</ele><time>2026-04-23T15:20:26.006Z</time></trkpt><trkpt lat="43.8066467" lon="11.4635333"><ele>202.0</ele><time>2026-04-23T15:20:28.006Z</time></trkpt><trkpt lat="43.80659" lon="11.4634683"><ele>204.00000000000003</ele><time>2026-04-23T15:20:31.006Z</time></trkpt><trkpt lat="43.8065283" lon="11.4634333"><ele>206.0</ele><time>2026-04-23T15:20:34.007Z</time></trkpt><trkpt lat="43.80645" lon="11.4634317"><ele>206.0</ele><time>2026-04-23T15:20:36.006Z</time></trkpt><trkpt lat="43.80634" lon="11.4634467"><ele>206.0</ele><time>2026-04-23T15:20:38.007Z</time></trkpt><trkpt lat="43.8062633" lon="11.4634417"><ele>206.0</ele><time>2026-04-23T15:20:39.007Z</time></trkpt><trkpt lat="43.806175" lon="11.46345"><ele>206.0</ele><time>2026-04-23T15:20:40.006Z</time></trkpt><trkpt lat="43.806095" lon="11.463445"><ele>206.0</ele><time>2026-04-23T15:20:41.006Z</time></trkpt><trkpt lat="43.8059806" lon="11.4634333"><ele>205.99999999999997</ele><time>2026-04-23T15:20:43.006Z</time></trkpt><trkpt lat="43.8060433" lon="11.463425"><ele>206.0</ele><time>2026-04-23T15:22:45.006Z</time></trkpt><trkpt lat="43.8061183" lon="11.4634067"><ele>206.0</ele><time>2026-04-23T15:22:47.007Z</time></trkpt><trkpt lat="43.806205" lon="11.4633883"><ele>206.0</ele><time>2026-04-23T15:22:49.006Z</time></trkpt><trkpt lat="43.8062833" lon="11.4633683"><ele>206.0</ele><time>2026-04-23T15:22:51.006Z</time></trkpt><trkpt lat="43.8063467" lon="11.4633633"><ele>205.99999999999997</ele><time>2026-04-23T15:22:54.006Z</time></trkpt><trkpt lat="43.80641" lon="11.4633483"><ele>206.0</ele><time>2026-04-23T15:22:57.006Z</time></trkpt><trkpt lat="43.8064883" lon="11.4633717"><ele>206.0</ele><time>2026-04-23T15:23:00.006Z</time></trkpt><trkpt lat="43.8065667" lon="11.4635083"><ele>206.0</ele><time>2026-04-23T15:23:03.006Z</time></trkpt><trkpt lat="43.8065983" lon="11.463615"><ele>206.0</ele><time>2026-04-23T15:23:05.006Z</time></trkpt><trkpt lat="43.8066117" lon="11.4637017"><ele>206.0</ele><time>2026-04-23T15:23:07.006Z</time></trkpt><trkpt lat="43.8066033" lon="11.463845"><ele>206.0</ele><time>2026-04-23T15:23:09.006Z</time></trkpt><trkpt lat="43.8066033" lon="11.464"><ele>203.60000000000002</ele><time>2026-04-23T15:23:11.007Z</time></trkpt><trkpt lat="43.8066567" lon="11.4641367"><ele>201.2</ele><time>2026-04-23T15:23:13.007Z</time></trkpt><trkpt lat="43.8067317" lon="11.4642417"><ele>198.8</ele><time>2026-04-23T15:23:15.006Z</time></trkpt><trkpt lat="43.806805" lon="11.4643033"><ele>196.39999999999998</ele><time>2026-04-23T15:23:25.006Z</time></trkpt><trkpt lat="43.8068433" lon="11.4643883"><ele>194.0</ele><time>2026-04-23T15:23:27.006Z</time></trkpt><trkpt lat="43.8068967" lon="11.4644967"><ele>198.16666666666669</ele><time>2026-04-23T15:23:29.006Z</time></trkpt><trkpt lat="43.806935" lon="11.4645817"><ele>202.33333333333334</ele><time>2026-04-23T15:23:31.007Z</time></trkpt><trkpt lat="43.80698" lon="11.4646667"><ele>206.5</ele><time>2026-04-23T15:23:34.006Z</time></trkpt><trkpt lat="43.8070133" lon="11.464745"><ele>210.66666666666669</ele><time>2026-04-23T15:23:36.006Z</time></trkpt><trkpt lat="43.80705" lon="11.46482"><ele>214.83333333333334</ele><time>2026-04-23T15:23:38.007Z</time></trkpt><trkpt lat="43.8070967" lon="11.46494"><ele>219.0</ele><time>2026-04-23T15:23:40.006Z</time></trkpt><trkpt lat="43.8071467" lon="11.465055"><ele>219.0</ele><time>2026-04-23T15:23:42.006Z</time></trkpt><trkpt lat="43.8072017" lon="11.465155"><ele>218.99999999999997</ele><time>2026-04-23T15:23:44.007Z</time></trkpt><trkpt lat="43.80727" lon="11.465265"><ele>218.99999999999997</ele><time>2026-04-23T15:23:46.006Z</time></trkpt><trkpt lat="43.8073333" lon="11.4653717"><ele>219.0</ele><time>2026-04-23T15:23:48.006Z</time></trkpt><trkpt lat="43.8073917" lon="11.4654883"><ele>219.0</ele><time>2026-04-23T15:23:50.006Z</time></trkpt><trkpt lat="43.80745" lon="11.4656167"><ele>218.66666666666666</ele><time>2026-04-23T15:23:52.006Z</time></trkpt><trkpt lat="43.80749" lon="11.46575"><ele>218.33333333333331</ele><time>2026-04-23T15:23:54.006Z</time></trkpt><trkpt lat="43.8075317" lon="11.4658383"><ele>218.0</ele><time>2026-04-23T15:23:56.007Z</time></trkpt><trkpt lat="43.8076133" lon="11.465835"><ele>217.66666666666666</ele><time>2026-04-23T15:24:09.006Z</time></trkpt><trkpt lat="43.8076933" lon="11.4657733"><ele>217.33333333333331</ele><time>2026-04-23T15:24:12.006Z</time></trkpt><trkpt lat="43.8077767" lon="11.465735"><ele>217.0</ele><time>2026-04-23T15:24:14.006Z</time></trkpt><trkpt lat="43.807845" lon="11.4657017"><ele>220.39999999999998</ele><time>2026-04-23T15:24:16.007Z</time></trkpt><trkpt lat="43.8078983" lon="11.4656233"><ele>223.79999999999998</ele><time>2026-04-23T15:24:35.006Z</time></trkpt><trkpt lat="43.8079933" lon="11.4655667"><ele>227.2</ele><time>2026-04-23T15:24:47.006Z</time></trkpt><trkpt lat="43.8080883" lon="11.4655033"><ele>230.6</ele><time>2026-04-23T15:25:23.006Z</time></trkpt><trkpt lat="43.8082167" lon="11.4654883"><ele>234.0</ele><time>2026-04-23T15:25:47.006Z</time></trkpt><trkpt lat="43.80829" lon="11.465475"><ele>234.0</ele><time>2026-04-23T15:25:51.006Z</time></trkpt><trkpt lat="43.8083733" lon="11.4654633"><ele>234.0</ele><time>2026-04-23T15:25:55.006Z</time></trkpt><trkpt lat="43.8084617" lon="11.4654783"><ele>234.0</ele><time>2026-04-23T15:25:58.007Z</time></trkpt><trkpt lat="43.8085233" lon="11.4654983"><ele>234.0</ele><time>2026-04-23T15:26:02.006Z</time></trkpt><trkpt lat="43.8085867" lon="11.4655117"><ele>234.0</ele><time>2026-04-23T15:26:13.006Z</time></trkpt><trkpt lat="43.8086783" lon="11.4655767"><ele>234.0</ele><time>2026-04-23T15:27:39.006Z</time></trkpt><trkpt lat="43.8087533" lon="11.4656"><ele>238.0</ele><time>2026-04-23T15:27:43.006Z</time></trkpt><trkpt lat="43.8088133" lon="11.46563"><ele>242.0</ele><time>2026-04-23T15:27:46.006Z</time></trkpt><trkpt lat="43.8088783" lon="11.4656517"><ele>246.0</ele><time>2026-04-23T15:27:49.006Z</time></trkpt><trkpt lat="43.80894" lon="11.4656783"><ele>250.0</ele><time>2026-04-23T15:27:53.006Z</time></trkpt><trkpt lat="43.8090117" lon="11.4657283"><ele>254.0</ele><time>2026-04-23T15:27:58.006Z</time></trkpt><trkpt lat="43.8091167" lon="11.465745"><ele>258.0</ele><time>2026-04-23T15:28:25.006Z</time></trkpt><trkpt lat="43.8092" lon="11.46579"><ele>258.0</ele><time>2026-04-23T15:28:29.007Z</time></trkpt><trkpt lat="43.8092733" lon="11.4658517"><ele>258.0</ele><time>2026-04-23T15:28:32.006Z</time></trkpt><trkpt lat="43.80934" lon="11.4658883"><ele>258.0</ele><time>2026-04-23T15:28:34.006Z</time></trkpt><trkpt lat="43.80941" lon="11.4659117"><ele>258.0</ele><time>2026-04-23T15:28:36.006Z</time></trkpt><trkpt lat="43.809495" lon="11.465945"><ele>258.0</ele><time>2026-04-23T15:28:39.007Z</time></trkpt><trkpt lat="43.8095783" lon="11.4659883"><ele>258.0</ele><time>2026-04-23T15:28:42.006Z</time></trkpt><trkpt lat="43.80963" lon="11.46604"><ele>257.71428571428567</ele><time>2026-04-23T15:28:44.006Z</time></trkpt><trkpt lat="43.8096817" lon="11.4661033"><ele>257.42857142857144</ele><time>2026-04-23T15:28:46.006Z</time></trkpt><trkpt lat="43.8097417" lon="11.4661717"><ele>257.1428571428571</ele><time>2026-04-23T15:28:48.007Z</time></trkpt><trkpt lat="43.8097983" lon="11.4662133"><ele>256.85714285714283</ele><time>2026-04-23T15:28:52.007Z</time></trkpt><trkpt lat="43.8098567" lon="11.466275"><ele>256.57142857142856</ele><time>2026-04-23T15:28:59.006Z</time></trkpt><trkpt lat="43.8099067" lon="11.4663433"><ele>256.2857142857143</ele><time>2026-04-23T15:29:02.007Z</time></trkpt><trkpt lat="43.809945" lon="11.4664183"><ele>256.0</ele><time>2026-04-23T15:29:04.006Z</time></trkpt><trkpt lat="43.80999" lon="11.4664867"><ele>256.0</ele><time>2026-04-23T15:29:06.007Z</time></trkpt><trkpt lat="43.8100267" lon="11.4665633"><ele>255.99999999999997</ele><time>2026-04-23T15:29:09.006Z</time></trkpt><trkpt lat="43.8100817" lon="11.466615"><ele>256.0</ele><time>2026-04-23T15:29:11.007Z</time></trkpt><trkpt lat="43.8101633" lon="11.4666617"><ele>256.0</ele><time>2026-04-23T15:29:14.006Z</time></trkpt><trkpt lat="43.810225" lon="11.466685"><ele>255.99999999999997</ele><time>2026-04-23T15:29:17.006Z</time></trkpt><trkpt lat="43.81029" lon="11.4666933"><ele>256.0</ele><time>2026-04-23T15:29:20.006Z</time></trkpt><trkpt lat="43.810375" lon="11.4667017"><ele>256.0</ele><time>2026-04-23T15:29:24.006Z</time></trkpt><trkpt lat="43.8104483" lon="11.4667233"><ele>258.16666666666663</ele><time>2026-04-23T15:29:27.006Z</time></trkpt><trkpt lat="43.81052" lon="11.4667367"><ele>260.3333333333333</ele><time>2026-04-23T15:29:30.007Z</time></trkpt><trkpt lat="43.810595" lon="11.4667383"><ele>262.5</ele><time>2026-04-23T15:29:33.007Z</time></trkpt><trkpt lat="43.810685" lon="11.4667483"><ele>264.6666666666667</ele><time>2026-04-23T15:29:36.006Z</time></trkpt><trkpt lat="43.8107567" lon="11.4667533"><ele>266.83333333333337</ele><time>2026-04-23T15:29:39.006Z</time></trkpt><trkpt lat="43.8108583" lon="11.46675"><ele>269.0</ele><time>2026-04-23T15:29:55.006Z</time></trkpt><trkpt lat="43.8109267" lon="11.4667417"><ele>268.6666666666667</ele><time>2026-04-23T15:29:59.007Z</time></trkpt><trkpt lat="43.8109933" lon="11.4667217"><ele>268.33333333333337</ele><time>2026-04-23T15:30:03.006Z</time></trkpt><trkpt lat="43.81107" lon="11.46668"><ele>268.0</ele><time>2026-04-23T15:30:08.006Z</time></trkpt><trkpt lat="43.811155" lon="11.4666717"><ele>267.6666666666667</ele><time>2026-04-23T15:30:11.006Z</time></trkpt><trkpt lat="43.8112383" lon="11.4667117"><ele>267.3333333333333</ele><time>2026-04-23T15:30:13.007Z</time></trkpt><trkpt lat="43.8113283" lon="11.4667667"><ele>267.0</ele><time>2026-04-23T15:30:15.006Z</time></trkpt><trkpt lat="43.8114333" lon="11.46683"><ele>267.0</ele><time>2026-04-23T15:30:17.006Z</time></trkpt><trkpt lat="43.8115217" lon="11.4668917"><ele>267.0</ele><time>2026-04-23T15:30:19.007Z</time></trkpt><trkpt lat="43.8116117" lon="11.4669517"><ele>267.0</ele><time>2026-04-23T15:30:21.006Z</time></trkpt><trkpt lat="43.8116883" lon="11.466975"><ele>267.0</ele><time>2026-04-23T15:30:23.007Z</time></trkpt><trkpt lat="43.81176" lon="11.466975"><ele>267.0</ele><time>2026-04-23T15:30:25.006Z</time></trkpt><trkpt lat="43.8118283" lon="11.466965"><ele>267.0</ele><time>2026-04-23T15:30:28.006Z</time></trkpt><trkpt lat="43.8118933" lon="11.4669233"><ele>264.6666666666667</ele><time>2026-04-23T15:30:32.006Z</time></trkpt><trkpt lat="43.8119667" lon="11.4668833"><ele>262.3333333333333</ele><time>2026-04-23T15:30:36.006Z</time></trkpt><trkpt lat="43.8120483" lon="11.4668517"><ele>260.0</ele><time>2026-04-23T15:30:39.006Z</time></trkpt><trkpt lat="43.81213" lon="11.46681"><ele>257.66666666666663</ele><time>2026-04-23T15:30:42.006Z</time></trkpt><trkpt lat="43.8122" lon="11.4667567"><ele>255.33333333333331</ele><time>2026-04-23T15:30:46.006Z</time></trkpt><trkpt lat="43.8122633" lon="11.4667083"><ele>253.0</ele><time>2026-04-23T15:30:50.007Z</time></trkpt><trkpt lat="43.8123217" lon="11.466665"><ele>253.00000000000003</ele><time>2026-04-23T15:30:54.006Z</time></trkpt><trkpt lat="43.8123733" lon="11.4666117"><ele>253.0</ele><time>2026-04-23T15:30:58.006Z</time></trkpt><trkpt lat="43.8124183" lon="11.4665433"><ele>253.00000000000003</ele><time>2026-04-23T15:31:02.007Z</time></trkpt><trkpt lat="43.81237" lon="11.466485"><ele>253.00000000000003</ele><time>2026-04-23T15:31:10.006Z</time></trkpt><trkpt lat="43.8122983" lon="11.4664767"><ele>253.0</ele><time>2026-04-23T15:31:12.006Z</time></trkpt><trkpt lat="43.81219" lon="11.46649"><ele>253.00000000000003</ele><time>2026-04-23T15:31:14.006Z</time></trkpt><trkpt lat="43.8121233" lon="11.4664967"><ele>253.00000000000003</ele><time>2026-04-23T15:31:15.007Z</time></trkpt><trkpt lat="43.8120467" lon="11.4664933"><ele>253.0</ele><time>2026-04-23T15:31:16.006Z</time></trkpt><trkpt lat="43.811975" lon="11.4664867"><ele>253.0</ele><time>2026-04-23T15:31:17.007Z</time></trkpt><trkpt lat="43.8118517" lon="11.466505"><ele>253.0</ele><time>2026-04-23T15:31:19.007Z</time></trkpt><trkpt lat="43.8117467" lon="11.466495"><ele>253.0</ele><time>2026-04-23T15:31:21.007Z</time></trkpt><trkpt lat="43.8116717" lon="11.46643"><ele>253.0</ele><time>2026-04-23T15:31:23.006Z</time></trkpt><trkpt lat="43.8116067" lon="11.46631"><ele>256.5</ele><time>2026-04-23T15:31:25.007Z</time></trkpt><trkpt lat="43.8115517" lon="11.4661867"><ele>260.0</ele><time>2026-04-23T15:31:27.006Z</time></trkpt><trkpt lat="43.811475" lon="11.46605"><ele>263.5</ele><time>2026-04-23T15:31:29.007Z</time></trkpt><trkpt lat="43.81138" lon="11.465945"><ele>267.0</ele><time>2026-04-23T15:31:31.006Z</time></trkpt><trkpt lat="43.8112667" lon="11.4658767"><ele>267.0</ele><time>2026-04-23T15:31:33.006Z</time></trkpt><trkpt lat="43.8111717" lon="11.46583"><ele>267.0</ele><time>2026-04-23T15:31:35.007Z</time></trkpt><trkpt lat="43.8111" lon="11.4657767"><ele>267.0</ele><time>2026-04-23T15:31:37.006Z</time></trkpt><trkpt lat="43.8110517" lon="11.4656583"><ele>267.0</ele><time>2026-04-23T15:31:39.007Z</time></trkpt><trkpt lat="43.8110083" lon="11.4655217"><ele>267.0</ele><time>2026-04-23T15:31:41.006Z</time></trkpt><trkpt lat="43.81097" lon="11.4653683"><ele>273.0</ele><time>2026-04-23T15:31:43.006Z</time></trkpt><trkpt lat="43.8109333" lon="11.465235"><ele>279.0</ele><time>2026-04-23T15:31:45.007Z</time></trkpt><trkpt lat="43.8109033" lon="11.46508"><ele>285.0</ele><time>2026-04-23T15:31:47.006Z</time></trkpt><trkpt lat="43.81089" lon="11.46499"><ele>291.0</ele><time>2026-04-23T15:31:48.006Z</time></trkpt><trkpt lat="43.810855" lon="11.4648333"><ele>297.0</ele><time>2026-04-23T15:31:50.006Z</time></trkpt><trkpt lat="43.8108133" lon="11.46468"><ele>296.3333333333333</ele><time>2026-04-23T15:31:52.006Z</time></trkpt><trkpt lat="43.81079" lon="11.4645933"><ele>295.6666666666667</ele><time>2026-04-23T15:31:53.006Z</time></trkpt><trkpt lat="43.81075" lon="11.4644883"><ele>295.0</ele><time>2026-04-23T15:31:55.007Z</time></trkpt><trkpt lat="43.810725" lon="11.464375"><ele>294.33333333333337</ele><time>2026-04-23T15:32:56.007Z</time></trkpt><trkpt lat="43.8107" lon="11.46427"><ele>293.6666666666667</ele><time>2026-04-23T15:32:59.007Z</time></trkpt><trkpt lat="43.810685" lon="11.464185"><ele>293.0</ele><time>2026-04-23T15:33:02.007Z</time></trkpt><trkpt lat="43.8106417" lon="11.4640733"><ele>293.0</ele><time>2026-04-23T15:33:05.008Z</time></trkpt><trkpt lat="43.8106117" lon="11.4639833"><ele>293.0</ele><time>2026-04-23T15:33:07.007Z</time></trkpt><trkpt lat="43.810595" lon="11.4638533"><ele>293.0</ele><time>2026-04-23T15:33:09.007Z</time></trkpt><trkpt lat="43.8105683" lon="11.4636933"><ele>293.0</ele><time>2026-04-23T15:33:11.008Z</time></trkpt><trkpt lat="43.8105517" lon="11.46355"><ele>293.0</ele><time>2026-04-23T15:33:13.007Z</time></trkpt><trkpt lat="43.810555" lon="11.463425"><ele>293.1666666666667</ele><time>2026-04-23T15:33:15.007Z</time></trkpt><trkpt lat="43.8105433" lon="11.46333"><ele>293.33333333333337</ele><time>2026-04-23T15:33:17.007Z</time></trkpt><trkpt lat="43.8105267" lon="11.4632233"><ele>293.5</ele><time>2026-04-23T15:33:48.008Z</time></trkpt><trkpt lat="43.810525" lon="11.4630917"><ele>293.6666666666667</ele><time>2026-04-23T15:33:50.007Z</time></trkpt><trkpt lat="43.8105367" lon="11.4630017"><ele>293.8333333333333</ele><time>2026-04-23T15:33:51.007Z</time></trkpt><trkpt lat="43.8105467" lon="11.4629083"><ele>294.0</ele><time>2026-04-23T15:33:52.007Z</time></trkpt><trkpt lat="43.8105517" lon="11.4627533"><ele>296.0</ele><time>2026-04-23T15:33:54.007Z</time></trkpt><trkpt lat="43.8105683" lon="11.4626417"><ele>298.0</ele><time>2026-04-23T15:33:56.007Z</time></trkpt><trkpt lat="43.8106317" lon="11.4625433"><ele>300.0</ele><time>2026-04-23T15:33:58.007Z</time></trkpt><trkpt lat="43.81073" lon="11.462475"><ele>302.0</ele><time>2026-04-23T15:34:00.007Z</time></trkpt><trkpt lat="43.81079" lon="11.4624367"><ele>304.0</ele><time>2026-04-23T15:34:01.008Z</time></trkpt><trkpt lat="43.810855" lon="11.4623967"><ele>306.0</ele><time>2026-04-23T15:34:02.007Z</time></trkpt><trkpt lat="43.810915" lon="11.4623583"><ele>306.0</ele><time>2026-04-23T15:34:03.007Z</time></trkpt><trkpt lat="43.81097" lon="11.4623083"><ele>306.0</ele><time>2026-04-23T15:34:04.007Z</time></trkpt><trkpt lat="43.8110233" lon="11.4622567"><ele>306.0</ele><time>2026-04-23T15:34:05.007Z</time></trkpt><trkpt lat="43.8110783" lon="11.4622"><ele>306.0</ele><time>2026-04-23T15:34:06.007Z</time></trkpt><trkpt lat="43.8111333" lon="11.4621417"><ele>306.0</ele><time>2026-04-23T15:34:07.008Z</time></trkpt><trkpt lat="43.81119" lon="11.462085"><ele>306.0</ele><time>2026-04-23T15:34:08.007Z</time></trkpt><trkpt lat="43.8112417" lon="11.4620317"><ele>306.0</ele><time>2026-04-23T15:34:09.008Z</time></trkpt><trkpt lat="43.8113017" lon="11.46197"><ele>308.3333333333333</ele><time>2026-04-23T15:34:10.007Z</time></trkpt><trkpt lat="43.8113583" lon="11.4619017"><ele>310.6666666666667</ele><time>2026-04-23T15:34:11.007Z</time></trkpt><trkpt lat="43.8114" lon="11.46183"><ele>313.0</ele><time>2026-04-23T15:34:12.007Z</time></trkpt><trkpt lat="43.8114567" lon="11.4616683"><ele>315.33333333333337</ele><time>2026-04-23T15:34:14.007Z</time></trkpt><trkpt lat="43.8114783" lon="11.4615683"><ele>317.6666666666667</ele><time>2026-04-23T15:34:15.008Z</time></trkpt><trkpt lat="43.8114967" lon="11.4614783"><ele>320.0</ele><time>2026-04-23T15:34:16.008Z</time></trkpt><trkpt lat="43.81152" lon="11.461315"><ele>321.5</ele><time>2026-04-23T15:34:18.007Z</time></trkpt><trkpt lat="43.8115133" lon="11.46114"><ele>323.0</ele><time>2026-04-23T15:34:20.008Z</time></trkpt><trkpt lat="43.8115067" lon="11.4610417"><ele>324.5</ele><time>2026-04-23T15:34:21.007Z</time></trkpt><trkpt lat="43.8115067" lon="11.46093"><ele>326.0</ele><time>2026-04-23T15:34:22.008Z</time></trkpt><trkpt lat="43.8115133" lon="11.460815"><ele>327.5</ele><time>2026-04-23T15:34:23.007Z</time></trkpt><trkpt lat="43.8115167" lon="11.4606983"><ele>329.0</ele><time>2026-04-23T15:34:24.007Z</time></trkpt><trkpt lat="43.8115117" lon="11.46058"><ele>329.0</ele><time>2026-04-23T15:34:25.007Z</time></trkpt><trkpt lat="43.8115183" lon="11.4604733"><ele>329.0</ele><time>2026-04-23T15:34:26.007Z</time></trkpt><trkpt lat="43.8115283" lon="11.4603817"><ele>329.0</ele><time>2026-04-23T15:34:27.007Z</time></trkpt><trkpt lat="43.8115383" lon="11.4602483"><ele>329.0</ele><time>2026-04-23T15:34:29.007Z</time></trkpt><trkpt lat="43.8115517" lon="11.4601067"><ele>329.0</ele><time>2026-04-23T15:34:32.007Z</time></trkpt><trkpt lat="43.811545" lon="11.4599567"><ele>330.2</ele><time>2026-04-23T15:34:34.008Z</time></trkpt><trkpt lat="43.8115117" lon="11.4598117"><ele>331.4</ele><time>2026-04-23T15:34:36.008Z</time></trkpt><trkpt lat="43.8114333" lon="11.4596933"><ele>332.6</ele><time>2026-04-23T15:34:38.008Z</time></trkpt><trkpt lat="43.8113333" lon="11.4596"><ele>333.8</ele><time>2026-04-23T15:34:40.007Z</time></trkpt><trkpt lat="43.8112833" lon="11.459545"><ele>335.0</ele><time>2026-04-23T15:34:41.007Z</time></trkpt><trkpt lat="43.81123" lon="11.4594717"><ele>335.5</ele><time>2026-04-23T15:34:42.007Z</time></trkpt><trkpt lat="43.8111833" lon="11.4594033"><ele>336.0</ele><time>2026-04-23T15:34:43.008Z</time></trkpt><trkpt lat="43.8111167" lon="11.459285"><ele>336.5</ele><time>2026-04-23T15:34:45.007Z</time></trkpt><trkpt lat="43.8110633" lon="11.45918"><ele>337.0</ele><time>2026-04-23T15:34:47.007Z</time></trkpt><trkpt lat="43.81102" lon="11.4591"><ele>337.5</ele><time>2026-04-23T15:34:57.007Z</time></trkpt><trkpt lat="43.810935" lon="11.4590533"><ele>338.0</ele><time>2026-04-23T15:35:07.007Z</time></trkpt><trkpt lat="43.8108617" lon="11.459045"><ele>338.33333333333337</ele><time>2026-04-23T15:35:09.007Z</time></trkpt><trkpt lat="43.8107833" lon="11.4590417"><ele>338.6666666666667</ele><time>2026-04-23T15:35:10.007Z</time></trkpt><trkpt lat="43.8106917" lon="11.4590317"><ele>339.0</ele><time>2026-04-23T15:35:11.007Z</time></trkpt><trkpt lat="43.8106017" lon="11.45901"><ele>339.3333333333333</ele><time>2026-04-23T15:35:12.007Z</time></trkpt><trkpt lat="43.8105167" lon="11.4589933"><ele>339.66666666666663</ele><time>2026-04-23T15:35:13.007Z</time></trkpt><trkpt lat="43.8104233" lon="11.4589883"><ele>340.0</ele><time>2026-04-23T15:35:15.007Z</time></trkpt><trkpt lat="43.810555" lon="11.4590267"><ele>340.0</ele><time>2026-04-23T15:36:31.007Z</time></trkpt><trkpt lat="43.81066" lon="11.45905"><ele>340.0</ele><time>2026-04-23T15:36:32.007Z</time></trkpt><trkpt lat="43.8107717" lon="11.4590617"><ele>340.0</ele><time>2026-04-23T15:36:33.007Z</time></trkpt><trkpt lat="43.8108683" lon="11.4590533"><ele>340.0</ele><time>2026-04-23T15:36:34.007Z</time></trkpt><trkpt lat="43.8109767" lon="11.45901"><ele>340.0</ele><time>2026-04-23T15:36:35.007Z</time></trkpt><trkpt lat="43.8110567" lon="11.4589517"><ele>339.66666666666663</ele><time>2026-04-23T15:36:36.008Z</time></trkpt><trkpt lat="43.8111067" lon="11.4588583"><ele>339.3333333333333</ele><time>2026-04-23T15:36:37.007Z</time></trkpt><trkpt lat="43.8111367" lon="11.4587367"><ele>339.0</ele><time>2026-04-23T15:36:38.008Z</time></trkpt><trkpt lat="43.8111683" lon="11.4586167"><ele>338.6666666666667</ele><time>2026-04-23T15:36:39.007Z</time></trkpt><trkpt lat="43.8112" lon="11.458505"><ele>338.33333333333337</ele><time>2026-04-23T15:36:40.008Z</time></trkpt><trkpt lat="43.8112267" lon="11.4583883"><ele>338.0</ele><time>2026-04-23T15:36:41.007Z</time></trkpt><trkpt lat="43.81125" lon="11.45829"><ele>337.83333333333337</ele><time>2026-04-23T15:36:42.007Z</time></trkpt><trkpt lat="43.81128" lon="11.4582017"><ele>337.6666666666667</ele><time>2026-04-23T15:36:43.007Z</time></trkpt><trkpt lat="43.81133" lon="11.458085"><ele>337.5</ele><time>2026-04-23T15:36:45.008Z</time></trkpt><trkpt lat="43.811305" lon="11.4579817"><ele>337.3333333333333</ele><time>2026-04-23T15:37:18.007Z</time></trkpt><trkpt lat="43.8113167" lon="11.45786"><ele>337.16666666666663</ele><time>2026-04-23T15:37:21.008Z</time></trkpt><trkpt lat="43.811315" lon="11.457755"><ele>337.0</ele><time>2026-04-23T15:37:23.008Z</time></trkpt><trkpt lat="43.8113283" lon="11.4576383"><ele>337.8571428571429</ele><time>2026-04-23T15:37:25.008Z</time></trkpt><trkpt lat="43.8113467" lon="11.4575317"><ele>338.7142857142857</ele><time>2026-04-23T15:37:27.007Z</time></trkpt><trkpt lat="43.8113617" lon="11.457435"><ele>339.57142857142856</ele><time>2026-04-23T15:37:29.007Z</time></trkpt><trkpt lat="43.811375" lon="11.457345"><ele>340.42857142857144</ele><time>2026-04-23T15:37:31.008Z</time></trkpt><trkpt lat="43.8113933" lon="11.4572517"><ele>341.2857142857143</ele><time>2026-04-23T15:37:34.007Z</time></trkpt><trkpt lat="43.8114083" lon="11.4571617"><ele>342.14285714285717</ele><time>2026-04-23T15:37:38.007Z</time></trkpt><trkpt lat="43.811365" lon="11.45708"><ele>343.0</ele><time>2026-04-23T15:37:46.007Z</time></trkpt><trkpt lat="43.811255" lon="11.4570667"><ele>343.0</ele><time>2026-04-23T15:39:22.007Z</time></trkpt><trkpt lat="43.81136" lon="11.4570933"><ele>343.0</ele><time>2026-04-23T15:39:30.007Z</time></trkpt><trkpt lat="43.8113817" lon="11.4571767"><ele>343.0</ele><time>2026-04-23T15:39:41.007Z</time></trkpt><trkpt lat="43.8113617" lon="11.45728"><ele>343.0</ele><time>2026-04-23T15:39:46.007Z</time></trkpt><trkpt lat="43.8113433" lon="11.457405"><ele>343.0</ele><time>2026-04-23T15:39:49.007Z</time></trkpt><trkpt lat="43.8113317" lon="11.457515"><ele>343.0</ele><time>2026-04-23T15:39:52.007Z</time></trkpt><trkpt lat="43.8113183" lon="11.45761"><ele>343.0</ele><time>2026-04-23T15:39:55.007Z</time></trkpt><trkpt lat="43.8113117" lon="11.4577"><ele>343.0</ele><time>2026-04-23T15:39:57.007Z</time></trkpt><trkpt lat="43.8113033" lon="11.45782"><ele>343.0</ele><time>2026-04-23T15:40:00.007Z</time></trkpt><trkpt lat="43.8113183" lon="11.4579083"><ele>343.0</ele><time>2026-04-23T15:40:04.007Z</time></trkpt><trkpt lat="43.811385" lon="11.4578483"><ele>343.0</ele><time>2026-04-23T15:40:12.007Z</time></trkpt><trkpt lat="43.811435" lon="11.45772"><ele>343.0</ele><time>2026-04-23T15:40:13.007Z</time></trkpt><trkpt lat="43.8115083" lon="11.4575417"><ele>343.0</ele><time>2026-04-23T15:40:14.007Z</time></trkpt><trkpt lat="43.8115783" lon="11.45737"><ele>343.0</ele><time>2026-04-23T15:40:15.008Z</time></trkpt><trkpt lat="43.8116333" lon="11.4572167"><ele>343.0</ele><time>2026-04-23T15:40:16.008Z</time></trkpt><trkpt lat="43.8116883" lon="11.457085"><ele>343.0</ele><time>2026-04-23T15:40:17.007Z</time></trkpt><trkpt lat="43.8117367" lon="11.4569683"><ele>342.3333333333333</ele><time>2026-04-23T15:40:18.007Z</time></trkpt><trkpt lat="43.8117833" lon="11.456875"><ele>341.66666666666663</ele><time>2026-04-23T15:40:19.007Z</time></trkpt><trkpt lat="43.8118467" lon="11.4567833"><ele>341.0</ele><time>2026-04-23T15:40:20.007Z</time></trkpt><trkpt lat="43.8118883" lon="11.4566933"><ele>340.3333333333333</ele><time>2026-04-23T15:40:21.007Z</time></trkpt><trkpt lat="43.8119433" lon="11.4566133"><ele>339.6666666666667</ele><time>2026-04-23T15:40:22.007Z</time></trkpt><trkpt lat="43.8120183" lon="11.456525"><ele>339.0</ele><time>2026-04-23T15:40:23.007Z</time></trkpt><trkpt lat="43.81209" lon="11.456435"><ele>339.0</ele><time>2026-04-23T15:40:24.007Z</time></trkpt><trkpt lat="43.8121667" lon="11.456345"><ele>339.0</ele><time>2026-04-23T15:40:25.007Z</time></trkpt><trkpt lat="43.8122417" lon="11.4562417"><ele>339.0</ele><time>2026-04-23T15:40:26.007Z</time></trkpt><trkpt lat="43.8123083" lon="11.4561483"><ele>339.0</ele><time>2026-04-23T15:40:27.008Z</time></trkpt><trkpt lat="43.8123533" lon="11.4560483"><ele>339.0</ele><time>2026-04-23T15:40:28.008Z</time></trkpt><trkpt lat="43.8123917" lon="11.455945"><ele>341.0</ele><time>2026-04-23T15:40:29.007Z</time></trkpt><trkpt lat="43.812425" lon="11.4558233"><ele>343.0</ele><time>2026-04-23T15:40:30.007Z</time></trkpt><trkpt lat="43.8124383" lon="11.45569"><ele>345.0</ele><time>2026-04-23T15:40:31.007Z</time></trkpt><trkpt lat="43.8124333" lon="11.45554"><ele>347.0</ele><time>2026-04-23T15:40:32.007Z</time></trkpt><trkpt lat="43.8124233" lon="11.4553917"><ele>349.0</ele><time>2026-04-23T15:40:33.007Z</time></trkpt><trkpt lat="43.81241" lon="11.4552567"><ele>351.0</ele><time>2026-04-23T15:40:34.008Z</time></trkpt><trkpt lat="43.8124017" lon="11.4551083"><ele>353.0</ele><time>2026-04-23T15:40:35.008Z</time></trkpt><trkpt lat="43.8124183" lon="11.4549417"><ele>355.0</ele><time>2026-04-23T15:40:36.007Z</time></trkpt><trkpt lat="43.8124533" lon="11.4547733"><ele>357.0</ele><time>2026-04-23T15:40:37.008Z</time></trkpt><trkpt lat="43.812485" lon="11.4546033"><ele>358.40000000000003</ele><time>2026-04-23T15:40:38.008Z</time></trkpt><trkpt lat="43.8125083" lon="11.454445"><ele>359.8</ele><time>2026-04-23T15:40:39.007Z</time></trkpt><trkpt lat="43.812535" lon="11.4543017"><ele>361.2</ele><time>2026-04-23T15:40:40.007Z</time></trkpt><trkpt lat="43.812555" lon="11.4541617"><ele>362.6</ele><time>2026-04-23T15:40:41.008Z</time></trkpt><trkpt lat="43.8125767" lon="11.4540283"><ele>364.0</ele><time>2026-04-23T15:40:42.007Z</time></trkpt><trkpt lat="43.8126033" lon="11.4539"><ele>363.8333333333333</ele><time>2026-04-23T15:40:43.007Z</time></trkpt><trkpt lat="43.812625" lon="11.4537783"><ele>363.66666666666663</ele><time>2026-04-23T15:40:44.007Z</time></trkpt><trkpt lat="43.81264" lon="11.453665"><ele>363.5</ele><time>2026-04-23T15:40:45.008Z</time></trkpt><trkpt lat="43.8126483" lon="11.4535467"><ele>363.3333333333333</ele><time>2026-04-23T15:40:46.007Z</time></trkpt><trkpt lat="43.81265" lon="11.4534233"><ele>363.1666666666667</ele><time>2026-04-23T15:40:47.008Z</time></trkpt><trkpt lat="43.812645" lon="11.4532917"><ele>363.0</ele><time>2026-04-23T15:40:48.008Z</time></trkpt><trkpt lat="43.8126367" lon="11.45316"><ele>363.0</ele><time>2026-04-23T15:40:49.007Z</time></trkpt><trkpt lat="43.812625" lon="11.4530183"><ele>363.0</ele><time>2026-04-23T15:40:50.007Z</time></trkpt><trkpt lat="43.81261" lon="11.45288"><ele>363.0</ele><time>2026-04-23T15:40:51.007Z</time></trkpt><trkpt lat="43.8125983" lon="11.452735"><ele>363.0</ele><time>2026-04-23T15:40:52.008Z</time></trkpt><trkpt lat="43.8125817" lon="11.452585"><ele>363.0</ele><time>2026-04-23T15:40:53.007Z</time></trkpt><trkpt lat="43.812575" lon="11.4524283"><ele>362.75</ele><time>2026-04-23T15:40:54.008Z</time></trkpt><trkpt lat="43.8125717" lon="11.452265"><ele>362.5</ele><time>2026-04-23T15:40:55.007Z</time></trkpt><trkpt lat="43.8125683" lon="11.4521067"><ele>362.25</ele><time>2026-04-23T15:40:56.008Z</time></trkpt><trkpt lat="43.8125733" lon="11.45195"><ele>362.0</ele><time>2026-04-23T15:40:57.007Z</time></trkpt><trkpt lat="43.8126033" lon="11.4518083"><ele>361.0</ele><time>2026-04-23T15:40:58.007Z</time></trkpt><trkpt lat="43.8126567" lon="11.4516817"><ele>360.0</ele><time>2026-04-23T15:40:59.007Z</time></trkpt><trkpt lat="43.8127133" lon="11.451535"><ele>359.0</ele><time>2026-04-23T15:41:00.007Z</time></trkpt><trkpt lat="43.81277" lon="11.45137"><ele>358.0</ele><time>2026-04-23T15:41:01.008Z</time></trkpt><trkpt lat="43.8128383" lon="11.45121"><ele>358.0</ele><time>2026-04-23T15:41:02.007Z</time></trkpt><trkpt lat="43.81291" lon="11.4510467"><ele>358.0</ele><time>2026-04-23T15:41:03.007Z</time></trkpt><trkpt lat="43.8129733" lon="11.4508867"><ele>358.0</ele><time>2026-04-23T15:41:04.007Z</time></trkpt><trkpt lat="43.813035" lon="11.45075"><ele>358.0</ele><time>2026-04-23T15:41:05.007Z</time></trkpt><trkpt lat="43.8130917" lon="11.4506533"><ele>358.0</ele><time>2026-04-23T15:41:06.007Z</time></trkpt><trkpt lat="43.8131383" lon="11.4505667"><ele>358.0</ele><time>2026-04-23T15:41:07.007Z</time></trkpt><trkpt lat="43.8131817" lon="11.4504967"><ele>358.0</ele><time>2026-04-23T15:41:08.007Z</time></trkpt><trkpt lat="43.8132733" lon="11.4504133"><ele>358.0</ele><time>2026-04-23T15:41:10.007Z</time></trkpt><trkpt lat="43.8133333" lon="11.450375"><ele>358.0</ele><time>2026-04-23T15:41:11.007Z</time></trkpt><trkpt lat="43.8134117" lon="11.4503333"><ele>358.0</ele><time>2026-04-23T15:41:12.007Z</time></trkpt><trkpt lat="43.813505" lon="11.4502783"><ele>358.79999999999995</ele><time>2026-04-23T15:41:13.007Z</time></trkpt><trkpt lat="43.8136033" lon="11.4502283"><ele>359.6</ele><time>2026-04-23T15:41:14.008Z</time></trkpt><trkpt lat="43.8137033" lon="11.4501617"><ele>360.4</ele><time>2026-04-23T15:41:15.008Z</time></trkpt><trkpt lat="43.8138083" lon="11.4501033"><ele>361.20000000000005</ele><time>2026-04-23T15:41:16.007Z</time></trkpt><trkpt lat="43.813915" lon="11.4500467"><ele>362.0</ele><time>2026-04-23T15:41:17.007Z</time></trkpt><trkpt lat="43.8140233" lon="11.4499867"><ele>362.0</ele><time>2026-04-23T15:41:18.007Z</time></trkpt><trkpt lat="43.814125" lon="11.44993"><ele>362.0</ele><time>2026-04-23T15:41:19.007Z</time></trkpt><trkpt lat="43.8142183" lon="11.44988"><ele>362.0</ele><time>2026-04-23T15:41:20.008Z</time></trkpt><trkpt lat="43.8143217" lon="11.4498183"><ele>362.0</ele><time>2026-04-23T15:41:21.007Z</time></trkpt><trkpt lat="43.8144117" lon="11.449745"><ele>362.0</ele><time>2026-04-23T15:41:22.007Z</time></trkpt><trkpt lat="43.8144767" lon="11.44966"><ele>361.6</ele><time>2026-04-23T15:41:23.007Z</time></trkpt><trkpt lat="43.8145383" lon="11.44957"><ele>361.20000000000005</ele><time>2026-04-23T15:41:24.007Z</time></trkpt><trkpt lat="43.8145867" lon="11.4494667"><ele>360.8</ele><time>2026-04-23T15:41:25.007Z</time></trkpt><trkpt lat="43.81464" lon="11.4493483"><ele>360.4</ele><time>2026-04-23T15:41:26.007Z</time></trkpt><trkpt lat="43.8146767" lon="11.4492067"><ele>360.0</ele><time>2026-04-23T15:41:27.007Z</time></trkpt><trkpt lat="43.8147283" lon="11.4490267"><ele>360.0</ele><time>2026-04-23T15:41:28.007Z</time></trkpt><trkpt lat="43.8147917" lon="11.4488433"><ele>360.0</ele><time>2026-04-23T15:41:29.007Z</time></trkpt><trkpt lat="43.8148533" lon="11.4486683"><ele>360.0</ele><time>2026-04-23T15:41:30.008Z</time></trkpt><trkpt lat="43.814905" lon="11.4484867"><ele>360.0</ele><time>2026-04-23T15:41:31.007Z</time></trkpt><trkpt lat="43.814965" lon="11.4483067"><ele>360.25</ele><time>2026-04-23T15:41:32.007Z</time></trkpt><trkpt lat="43.8150233" lon="11.4481383"><ele>360.5</ele><time>2026-04-23T15:41:33.007Z</time></trkpt><trkpt lat="43.8150783" lon="11.4479783"><ele>360.75</ele><time>2026-04-23T15:41:34.007Z</time></trkpt><trkpt lat="43.8151233" lon="11.447825"><ele>361.0</ele><time>2026-04-23T15:41:35.008Z</time></trkpt><trkpt lat="43.8151667" lon="11.4476933"><ele>361.0</ele><time>2026-04-23T15:41:36.008Z</time></trkpt><trkpt lat="43.8152067" lon="11.4475783"><ele>361.0</ele><time>2026-04-23T15:41:37.007Z</time></trkpt><trkpt lat="43.8152417" lon="11.4474833"><ele>361.0</ele><time>2026-04-23T15:41:38.007Z</time></trkpt><trkpt lat="43.8152883" lon="11.4473967"><ele>361.0</ele><time>2026-04-23T15:41:39.008Z</time></trkpt><trkpt lat="43.815345" lon="11.4473283"><ele>361.0</ele><time>2026-04-23T15:41:40.008Z</time></trkpt><trkpt lat="43.81542" lon="11.4472733"><ele>361.0</ele><time>2026-04-23T15:41:41.007Z</time></trkpt><trkpt lat="43.8155083" lon="11.44722"><ele>361.0</ele><time>2026-04-23T15:41:42.007Z</time></trkpt><trkpt lat="43.8156" lon="11.447165"><ele>361.0</ele><time>2026-04-23T15:41:43.007Z</time></trkpt><trkpt lat="43.8156917" lon="11.4471033"><ele>361.0</ele><time>2026-04-23T15:41:44.008Z</time></trkpt><trkpt lat="43.8157833" lon="11.447035"><ele>361.0</ele><time>2026-04-23T15:41:45.007Z</time></trkpt><trkpt lat="43.815865" lon="11.446965"><ele>361.0</ele><time>2026-04-23T15:41:46.007Z</time></trkpt><trkpt lat="43.815945" lon="11.4468983"><ele>361.66666666666663</ele><time>2026-04-23T15:41:47.007Z</time></trkpt><trkpt lat="43.8160167" lon="11.446865"><ele>362.3333333333333</ele><time>2026-04-23T15:41:48.007Z</time></trkpt><trkpt lat="43.816095" lon="11.446865"><ele>363.0</ele><time>2026-04-23T15:41:49.008Z</time></trkpt><trkpt lat="43.8161767" lon="11.4468767"><ele>363.6666666666667</ele><time>2026-04-23T15:41:50.007Z</time></trkpt><trkpt lat="43.8162633" lon="11.4468833"><ele>364.33333333333337</ele><time>2026-04-23T15:41:51.007Z</time></trkpt><trkpt lat="43.8163333" lon="11.44688"><ele>365.0</ele><time>2026-04-23T15:41:52.008Z</time></trkpt><trkpt lat="43.8164133" lon="11.446885"><ele>365.0</ele><time>2026-04-23T15:41:53.007Z</time></trkpt><trkpt lat="43.8164967" lon="11.446885"><ele>365.0</ele><time>2026-04-23T15:41:54.007Z</time></trkpt><trkpt lat="43.8165683" lon="11.4468833"><ele>365.0</ele><time>2026-04-23T15:41:55.007Z</time></trkpt><trkpt lat="43.8166417" lon="11.4468917"><ele>365.0</ele><time>2026-04-23T15:41:57.007Z</time></trkpt><trkpt lat="43.8167117" lon="11.446845"><ele>365.0</ele><time>2026-04-23T15:42:29.007Z</time></trkpt><trkpt lat="43.8166667" lon="11.4467433"><ele>365.0</ele><time>2026-04-23T15:42:33.007Z</time></trkpt><trkpt lat="43.8165167" lon="11.44673"><ele>365.0</ele><time>2026-04-23T15:42:35.007Z</time></trkpt><trkpt lat="43.8164083" lon="11.4467567"><ele>365.0</ele><time>2026-04-23T15:42:36.007Z</time></trkpt><trkpt lat="43.81632" lon="11.446785"><ele>365.0</ele><time>2026-04-23T15:42:37.007Z</time></trkpt><trkpt lat="43.8162417" lon="11.44682"><ele>365.0</ele><time>2026-04-23T15:42:38.007Z</time></trkpt><trkpt lat="43.8161583" lon="11.44689"><ele>365.0</ele><time>2026-04-23T15:42:40.008Z</time></trkpt><trkpt lat="43.8162017" lon="11.447035"><ele>365.0</ele><time>2026-04-23T15:42:43.007Z</time></trkpt><trkpt lat="43.8162833" lon="11.4471067"><ele>365.0</ele><time>2026-04-23T15:42:44.008Z</time></trkpt><trkpt lat="43.8163833" lon="11.447195"><ele>365.0</ele><time>2026-04-23T15:42:45.007Z</time></trkpt><trkpt lat="43.816485" lon="11.4472983"><ele>365.0</ele><time>2026-04-23T15:42:46.007Z</time></trkpt><trkpt lat="43.8165867" lon="11.4474067"><ele>364.5</ele><time>2026-04-23T15:42:47.008Z</time></trkpt><trkpt lat="43.816695" lon="11.4475117"><ele>364.0</ele><time>2026-04-23T15:42:48.007Z</time></trkpt><trkpt lat="43.8167983" lon="11.4476117"><ele>363.5</ele><time>2026-04-23T15:42:49.007Z</time></trkpt><trkpt lat="43.8168933" lon="11.44771"><ele>363.0</ele><time>2026-04-23T15:42:50.007Z</time></trkpt><trkpt lat="43.8169783" lon="11.4478033"><ele>363.0</ele><time>2026-04-23T15:42:51.007Z</time></trkpt><trkpt lat="43.8170333" lon="11.4479"><ele>363.0</ele><time>2026-04-23T15:42:52.007Z</time></trkpt><trkpt lat="43.8170633" lon="11.44801"><ele>363.0</ele><time>2026-04-23T15:42:53.008Z</time></trkpt><trkpt lat="43.8170433" lon="11.4481183"><ele>363.0</ele><time>2026-04-23T15:42:54.007Z</time></trkpt><trkpt lat="43.81698" lon="11.44823"><ele>363.0</ele><time>2026-04-23T15:42:55.007Z</time></trkpt><trkpt lat="43.816875" lon="11.4483367"><ele>359.75</ele><time>2026-04-23T15:42:56.007Z</time></trkpt><trkpt lat="43.8167567" lon="11.4484383"><ele>356.5</ele><time>2026-04-23T15:42:57.007Z</time></trkpt><trkpt lat="43.81664" lon="11.4485433"><ele>353.25</ele><time>2026-04-23T15:42:58.008Z</time></trkpt><trkpt lat="43.8165217" lon="11.448635"><ele>350.0</ele><time>2026-04-23T15:42:59.007Z</time></trkpt><trkpt lat="43.8164033" lon="11.4487317"><ele>349.25</ele><time>2026-04-23T15:43:00.008Z</time></trkpt><trkpt lat="43.8162867" lon="11.4488333"><ele>348.5</ele><time>2026-04-23T15:43:01.007Z</time></trkpt><trkpt lat="43.8161817" lon="11.448935"><ele>347.75</ele><time>2026-04-23T15:43:02.007Z</time></trkpt><trkpt lat="43.81608" lon="11.4490567"><ele>347.0</ele><time>2026-04-23T15:43:03.008Z</time></trkpt><trkpt lat="43.8159817" lon="11.4492"><ele>347.0</ele><time>2026-04-23T15:43:04.007Z</time></trkpt><trkpt lat="43.81589" lon="11.449345"><ele>347.0</ele><time>2026-04-23T15:43:05.007Z</time></trkpt><trkpt lat="43.815805" lon="11.4495"><ele>347.0</ele><time>2026-04-23T15:43:06.008Z</time></trkpt><trkpt lat="43.8157417" lon="11.4496583"><ele>347.0</ele><time>2026-04-23T15:43:07.007Z</time></trkpt><trkpt lat="43.8156933" lon="11.4498117"><ele>345.20000000000005</ele><time>2026-04-23T15:43:08.007Z</time></trkpt><trkpt lat="43.81567" lon="11.4499517"><ele>343.4</ele><time>2026-04-23T15:43:09.007Z</time></trkpt><trkpt lat="43.8156717" lon="11.45008"><ele>341.6</ele><time>2026-04-23T15:43:10.008Z</time></trkpt><trkpt lat="43.81571" lon="11.45019"><ele>339.79999999999995</ele><time>2026-04-23T15:43:11.007Z</time></trkpt><trkpt lat="43.8157933" lon="11.4502783"><ele>338.0</ele><time>2026-04-23T15:43:12.007Z</time></trkpt><trkpt lat="43.8158983" lon="11.4503567"><ele>336.75</ele><time>2026-04-23T15:43:13.007Z</time></trkpt><trkpt lat="43.8160083" lon="11.4504217"><ele>335.5</ele><time>2026-04-23T15:43:14.008Z</time></trkpt><trkpt lat="43.81614" lon="11.4504617"><ele>334.25</ele><time>2026-04-23T15:43:15.007Z</time></trkpt><trkpt lat="43.8163" lon="11.4504883"><ele>333.0</ele><time>2026-04-23T15:43:16.007Z</time></trkpt><trkpt lat="43.8164667" lon="11.45052"><ele>330.0</ele><time>2026-04-23T15:43:17.007Z</time></trkpt><trkpt lat="43.8166233" lon="11.450555"><ele>327.0</ele><time>2026-04-23T15:43:18.008Z</time></trkpt><trkpt lat="43.8167717" lon="11.4506"><ele>324.0</ele><time>2026-04-23T15:43:19.008Z</time></trkpt><trkpt lat="43.8169083" lon="11.45066"><ele>323.5</ele><time>2026-04-23T15:43:20.007Z</time></trkpt><trkpt lat="43.817035" lon="11.4507317"><ele>323.0</ele><time>2026-04-23T15:43:21.007Z</time></trkpt><trkpt lat="43.817145" lon="11.450835"><ele>322.5</ele><time>2026-04-23T15:43:22.008Z</time></trkpt><trkpt lat="43.8172383" lon="11.4509517"><ele>322.0</ele><time>2026-04-23T15:43:23.007Z</time></trkpt><trkpt lat="43.8173" lon="11.4510917"><ele>322.0</ele><time>2026-04-23T15:43:24.008Z</time></trkpt><trkpt lat="43.8173333" lon="11.4512467"><ele>322.0</ele><time>2026-04-23T15:43:25.007Z</time></trkpt><trkpt lat="43.81735" lon="11.4514167"><ele>322.0</ele><time>2026-04-23T15:43:26.007Z</time></trkpt><trkpt lat="43.8173717" lon="11.4515883"><ele>322.0</ele><time>2026-04-23T15:43:27.007Z</time></trkpt><trkpt lat="43.8173983" lon="11.4517417"><ele>320.5</ele><time>2026-04-23T15:43:28.008Z</time></trkpt><trkpt lat="43.8174367" lon="11.451885"><ele>319.0</ele><time>2026-04-23T15:43:29.008Z</time></trkpt><trkpt lat="43.817505" lon="11.45201"><ele>317.5</ele><time>2026-04-23T15:43:30.007Z</time></trkpt><trkpt lat="43.8176033" lon="11.4521117"><ele>316.0</ele><time>2026-04-23T15:43:31.008Z</time></trkpt><trkpt lat="43.8177217" lon="11.4521867"><ele>314.5</ele><time>2026-04-23T15:43:32.007Z</time></trkpt><trkpt lat="43.8178467" lon="11.452245"><ele>313.0</ele><time>2026-04-23T15:43:33.007Z</time></trkpt><trkpt lat="43.8179683" lon="11.45229"><ele>311.5</ele><time>2026-04-23T15:43:34.008Z</time></trkpt><trkpt lat="43.8180817" lon="11.4523417"><ele>310.0</ele><time>2026-04-23T15:43:35.007Z</time></trkpt><trkpt lat="43.8181917" lon="11.4524267"><ele>310.0</ele><time>2026-04-23T15:43:36.008Z</time></trkpt><trkpt lat="43.818275" lon="11.4525483"><ele>310.0</ele><time>2026-04-23T15:43:37.008Z</time></trkpt><trkpt lat="43.818345" lon="11.4526967"><ele>310.0</ele><time>2026-04-23T15:43:38.007Z</time></trkpt><trkpt lat="43.8184067" lon="11.4528433"><ele>310.0</ele><time>2026-04-23T15:43:39.008Z</time></trkpt><trkpt lat="43.8184583" lon="11.4529983"><ele>309.0</ele><time>2026-04-23T15:43:40.008Z</time></trkpt><trkpt lat="43.8185" lon="11.453155"><ele>308.0</ele><time>2026-04-23T15:43:41.007Z</time></trkpt><trkpt lat="43.8185433" lon="11.4533"><ele>307.0</ele><time>2026-04-23T15:43:42.008Z</time></trkpt><trkpt lat="43.8185867" lon="11.4534383"><ele>306.0</ele><time>2026-04-23T15:43:43.007Z</time></trkpt><trkpt lat="43.818635" lon="11.4535517"><ele>305.0</ele><time>2026-04-23T15:43:44.007Z</time></trkpt><trkpt lat="43.8186933" lon="11.4536367"><ele>305.0</ele><time>2026-04-23T15:43:45.007Z</time></trkpt><trkpt lat="43.8187667" lon="11.453685"><ele>305.0</ele><time>2026-04-23T15:43:46.007Z</time></trkpt><trkpt lat="43.8188633" lon="11.4536983"><ele>305.0</ele><time>2026-04-23T15:43:47.007Z</time></trkpt><trkpt lat="43.8189667" lon="11.45369"><ele>305.0</ele><time>2026-04-23T15:43:48.008Z</time></trkpt><trkpt lat="43.8190617" lon="11.4536983"><ele>305.0</ele><time>2026-04-23T15:43:49.007Z</time></trkpt><trkpt lat="43.8191367" lon="11.4537483"><ele>303.8</ele><time>2026-04-23T15:43:50.007Z</time></trkpt><trkpt lat="43.8191867" lon="11.4538583"><ele>302.6</ele><time>2026-04-23T15:43:51.007Z</time></trkpt><trkpt lat="43.8192133" lon="11.4540067"><ele>301.4</ele><time>2026-04-23T15:43:52.007Z</time></trkpt><trkpt lat="43.8192283" lon="11.4541717"><ele>300.2</ele><time>2026-04-23T15:43:53.007Z</time></trkpt><trkpt lat="43.8192333" lon="11.4543433"><ele>299.0</ele><time>2026-04-23T15:43:54.007Z</time></trkpt><trkpt lat="43.81924" lon="11.454515"><ele>297.5</ele><time>2026-04-23T15:43:55.007Z</time></trkpt><trkpt lat="43.8192483" lon="11.45468"><ele>296.0</ele><time>2026-04-23T15:43:56.007Z</time></trkpt><trkpt lat="43.819255" lon="11.454845"><ele>294.5</ele><time>2026-04-23T15:43:57.008Z</time></trkpt><trkpt lat="43.8192533" lon="11.45502"><ele>293.0</ele><time>2026-04-23T15:43:58.007Z</time></trkpt><trkpt lat="43.8192567" lon="11.4552183"><ele>293.0</ele><time>2026-04-23T15:43:59.007Z</time></trkpt><trkpt lat="43.81925" lon="11.455425"><ele>293.0</ele><time>2026-04-23T15:44:00.007Z</time></trkpt><trkpt lat="43.8192317" lon="11.45563"><ele>293.0</ele><time>2026-04-23T15:44:01.008Z</time></trkpt><trkpt lat="43.819205" lon="11.4558333"><ele>293.0</ele><time>2026-04-23T15:44:02.008Z</time></trkpt><trkpt lat="43.8191867" lon="11.4560133"><ele>292.0</ele><time>2026-04-23T15:44:03.008Z</time></trkpt><trkpt lat="43.819165" lon="11.4561983"><ele>291.0</ele><time>2026-04-23T15:44:04.007Z</time></trkpt><trkpt lat="43.81915" lon="11.4564017"><ele>290.0</ele><time>2026-04-23T15:44:05.008Z</time></trkpt><trkpt lat="43.8191333" lon="11.4566"><ele>289.0</ele><time>2026-04-23T15:44:06.007Z</time></trkpt><trkpt lat="43.819115" lon="11.4567917"><ele>288.0</ele><time>2026-04-23T15:44:07.008Z</time></trkpt><trkpt lat="43.8191" lon="11.4569667"><ele>287.0</ele><time>2026-04-23T15:44:08.008Z</time></trkpt><trkpt lat="43.81909" lon="11.4571417"><ele>286.0</ele><time>2026-04-23T15:44:09.008Z</time></trkpt><trkpt lat="43.8191067" lon="11.4573283"><ele>285.0</ele><time>2026-04-23T15:44:10.008Z</time></trkpt><trkpt lat="43.8191483" lon="11.45753"><ele>284.0</ele><time>2026-04-23T15:44:11.007Z</time></trkpt><trkpt lat="43.819205" lon="11.4577167"><ele>283.0</ele><time>2026-04-23T15:44:12.007Z</time></trkpt><trkpt lat="43.8192617" lon="11.4579067"><ele>282.0</ele><time>2026-04-23T15:44:13.007Z</time></trkpt><trkpt lat="43.8193167" lon="11.4580917"><ele>281.0</ele><time>2026-04-23T15:44:14.007Z</time></trkpt><trkpt lat="43.8193683" lon="11.4582667"><ele>281.25</ele><time>2026-04-23T15:44:15.008Z</time></trkpt><trkpt lat="43.8194233" lon="11.4584167"><ele>281.5</ele><time>2026-04-23T15:44:16.009Z</time></trkpt><trkpt lat="43.8194717" lon="11.4585617"><ele>281.75</ele><time>2026-04-23T15:44:17.008Z</time></trkpt><trkpt lat="43.8195233" lon="11.4586983"><ele>282.0</ele><time>2026-04-23T15:44:18.008Z</time></trkpt><trkpt lat="43.8195733" lon="11.4588283"><ele>282.0</ele><time>2026-04-23T15:44:19.009Z</time></trkpt><trkpt lat="43.8196183" lon="11.4589533"><ele>282.0</ele><time>2026-04-23T15:44:20.009Z</time></trkpt><trkpt lat="43.8196667" lon="11.459085"><ele>282.0</ele><time>2026-04-23T15:44:21.008Z</time></trkpt><trkpt lat="43.81971" lon="11.459215"><ele>282.0</ele><time>2026-04-23T15:44:22.008Z</time></trkpt><trkpt lat="43.81975" lon="11.4593483"><ele>282.0</ele><time>2026-04-23T15:44:23.008Z</time></trkpt><trkpt lat="43.81978" lon="11.4594867"><ele>280.2</ele><time>2026-04-23T15:44:24.009Z</time></trkpt><trkpt lat="43.8198033" lon="11.4596217"><ele>278.4</ele><time>2026-04-23T15:44:25.008Z</time></trkpt><trkpt lat="43.8198317" lon="11.4597567"><ele>276.6</ele><time>2026-04-23T15:44:26.008Z</time></trkpt><trkpt lat="43.81985" lon="11.4599"><ele>274.8</ele><time>2026-04-23T15:44:27.008Z</time></trkpt><trkpt lat="43.81987" lon="11.460045"><ele>273.0</ele><time>2026-04-23T15:44:28.008Z</time></trkpt><trkpt lat="43.819895" lon="11.460185"><ele>273.0</ele><time>2026-04-23T15:44:29.008Z</time></trkpt><trkpt lat="43.8199217" lon="11.4603317"><ele>273.0</ele><time>2026-04-23T15:44:30.008Z</time></trkpt><trkpt lat="43.81997" lon="11.4604733"><ele>273.0</ele><time>2026-04-23T15:44:31.008Z</time></trkpt><trkpt lat="43.820035" lon="11.4606233"><ele>273.0</ele><time>2026-04-23T15:44:32.009Z</time></trkpt><trkpt lat="43.8201083" lon="11.4607667"><ele>273.5</ele><time>2026-04-23T15:44:33.008Z</time></trkpt><trkpt lat="43.82019" lon="11.46091"><ele>274.0</ele><time>2026-04-23T15:44:34.009Z</time></trkpt><trkpt lat="43.8202767" lon="11.4610417"><ele>274.5</ele><time>2026-04-23T15:44:35.008Z</time></trkpt><trkpt lat="43.8203583" lon="11.4611683"><ele>275.0</ele><time>2026-04-23T15:44:36.008Z</time></trkpt><trkpt lat="43.8204467" lon="11.4612867"><ele>272.6</ele><time>2026-04-23T15:44:37.008Z</time></trkpt><trkpt lat="43.82053" lon="11.4614"><ele>270.2</ele><time>2026-04-23T15:44:38.008Z</time></trkpt><trkpt lat="43.820605" lon="11.4615133"><ele>267.8</ele><time>2026-04-23T15:44:39.008Z</time></trkpt><trkpt lat="43.8206583" lon="11.4616283"><ele>265.4</ele><time>2026-04-23T15:44:40.009Z</time></trkpt><trkpt lat="43.8206967" lon="11.46174"><ele>263.0</ele><time>2026-04-23T15:44:41.008Z</time></trkpt><trkpt lat="43.8207083" lon="11.4618767"><ele>263.0</ele><time>2026-04-23T15:44:42.008Z</time></trkpt><trkpt lat="43.820705" lon="11.462005"><ele>263.0</ele><time>2026-04-23T15:44:43.008Z</time></trkpt><trkpt lat="43.8206967" lon="11.46214"><ele>263.0</ele><time>2026-04-23T15:44:44.009Z</time></trkpt><trkpt lat="43.8206767" lon="11.4622733"><ele>263.0</ele><time>2026-04-23T15:44:45.008Z</time></trkpt><trkpt lat="43.820645" lon="11.462405"><ele>263.0</ele><time>2026-04-23T15:44:46.009Z</time></trkpt><trkpt lat="43.82061" lon="11.462535"><ele>262.0</ele><time>2026-04-23T15:44:47.008Z</time></trkpt><trkpt lat="43.82056" lon="11.462675"><ele>261.0</ele><time>2026-04-23T15:44:48.008Z</time></trkpt><trkpt lat="43.8205117" lon="11.46281"><ele>260.0</ele><time>2026-04-23T15:44:49.009Z</time></trkpt><trkpt lat="43.8204583" lon="11.4629333"><ele>259.0</ele><time>2026-04-23T15:44:50.008Z</time></trkpt><trkpt lat="43.8204" lon="11.46305"><ele>258.0</ele><time>2026-04-23T15:44:51.009Z</time></trkpt><trkpt lat="43.8203333" lon="11.463165"><ele>257.5</ele><time>2026-04-23T15:44:52.008Z</time></trkpt><trkpt lat="43.8202733" lon="11.4632883"><ele>257.0</ele><time>2026-04-23T15:44:53.008Z</time></trkpt><trkpt lat="43.8201983" lon="11.4634117"><ele>256.5</ele><time>2026-04-23T15:44:54.008Z</time></trkpt><trkpt lat="43.8201317" lon="11.4635333"><ele>256.0</ele><time>2026-04-23T15:44:55.008Z</time></trkpt><trkpt lat="43.820055" lon="11.4636533"><ele>251.75</ele><time>2026-04-23T15:44:56.009Z</time></trkpt><trkpt lat="43.8199767" lon="11.4637817"><ele>247.5</ele><time>2026-04-23T15:44:57.008Z</time></trkpt><trkpt lat="43.81989" lon="11.4639017"><ele>243.25</ele><time>2026-04-23T15:44:58.009Z</time></trkpt><trkpt lat="43.8198083" lon="11.46402"><ele>239.0</ele><time>2026-04-23T15:44:59.008Z</time></trkpt><trkpt lat="43.8197283" lon="11.464145"><ele>239.0</ele><time>2026-04-23T15:45:00.008Z</time></trkpt><trkpt lat="43.8196467" lon="11.4642667"><ele>239.0</ele><time>2026-04-23T15:45:01.008Z</time></trkpt><trkpt lat="43.8195683" lon="11.4643867"><ele>239.0</ele><time>2026-04-23T15:45:02.008Z</time></trkpt><trkpt lat="43.8194917" lon="11.4645067"><ele>239.0</ele><time>2026-04-23T15:45:03.008Z</time></trkpt><trkpt lat="43.819415" lon="11.4646233"><ele>238.79999999999998</ele><time>2026-04-23T15:45:04.009Z</time></trkpt><trkpt lat="43.8193517" lon="11.4647367"><ele>238.59999999999997</ele><time>2026-04-23T15:45:05.009Z</time></trkpt><trkpt lat="43.8192867" lon="11.4648467"><ele>238.4</ele><time>2026-04-23T15:45:06.008Z</time></trkpt><trkpt lat="43.81924" lon="11.4649583"><ele>238.2</ele><time>2026-04-23T15:45:07.008Z</time></trkpt><trkpt lat="43.8192117" lon="11.465075"><ele>238.0</ele><time>2026-04-23T15:45:08.009Z</time></trkpt><trkpt lat="43.8192067" lon="11.46519"><ele>235.60000000000002</ele><time>2026-04-23T15:45:09.008Z</time></trkpt><trkpt lat="43.81922" lon="11.4653183"><ele>233.20000000000002</ele><time>2026-04-23T15:45:10.008Z</time></trkpt><trkpt lat="43.8192317" lon="11.46546"><ele>230.8</ele><time>2026-04-23T15:45:11.008Z</time></trkpt><trkpt lat="43.81923" lon="11.4656033"><ele>228.4</ele><time>2026-04-23T15:45:12.009Z</time></trkpt><trkpt lat="43.8192233" lon="11.4657467"><ele>226.0</ele><time>2026-04-23T15:45:13.008Z</time></trkpt><trkpt lat="43.81922" lon="11.4658917"><ele>225.60000000000002</ele><time>2026-04-23T15:45:14.008Z</time></trkpt><trkpt lat="43.81922" lon="11.46602"><ele>225.20000000000002</ele><time>2026-04-23T15:45:15.008Z</time></trkpt><trkpt lat="43.8192267" lon="11.4661483"><ele>224.79999999999998</ele><time>2026-04-23T15:45:16.008Z</time></trkpt><trkpt lat="43.8192267" lon="11.4662833"><ele>224.39999999999998</ele><time>2026-04-23T15:45:17.008Z</time></trkpt><trkpt lat="43.819225" lon="11.46642"><ele>224.0</ele><time>2026-04-23T15:45:18.009Z</time></trkpt><trkpt lat="43.8192333" lon="11.46654"><ele>223.66666666666669</ele><time>2026-04-23T15:45:19.009Z</time></trkpt><trkpt lat="43.81924" lon="11.4666333"><ele>223.33333333333334</ele><time>2026-04-23T15:45:20.008Z</time></trkpt><trkpt lat="43.8192567" lon="11.46672"><ele>223.0</ele><time>2026-04-23T15:45:21.008Z</time></trkpt><trkpt lat="43.819345" lon="11.4668067"><ele>222.66666666666669</ele><time>2026-04-23T15:45:23.008Z</time></trkpt><trkpt lat="43.81942" lon="11.466825"><ele>222.33333333333334</ele><time>2026-04-23T15:45:24.008Z</time></trkpt><trkpt lat="43.819515" lon="11.4668483"><ele>222.0</ele><time>2026-04-23T15:45:25.008Z</time></trkpt><trkpt lat="43.8196117" lon="11.46688"><ele>222.0</ele><time>2026-04-23T15:45:26.009Z</time></trkpt><trkpt lat="43.819705" lon="11.4669033"><ele>222.0</ele><time>2026-04-23T15:45:27.009Z</time></trkpt><trkpt lat="43.8197967" lon="11.46693"><ele>222.0</ele><time>2026-04-23T15:45:28.008Z</time></trkpt><trkpt lat="43.8198917" lon="11.46696"><ele>222.0</ele><time>2026-04-23T15:45:29.008Z</time></trkpt><trkpt lat="43.8199933" lon="11.4669883"><ele>222.0</ele><time>2026-04-23T15:45:30.008Z</time></trkpt><trkpt lat="43.820105" lon="11.467015"><ele>222.39999999999998</ele><time>2026-04-23T15:45:31.008Z</time></trkpt><trkpt lat="43.82021" lon="11.46704"><ele>222.79999999999998</ele><time>2026-04-23T15:45:32.008Z</time></trkpt><trkpt lat="43.820325" lon="11.4670717"><ele>223.2</ele><time>2026-04-23T15:45:33.009Z</time></trkpt><trkpt lat="43.820435" lon="11.4671"><ele>223.6</ele><time>2026-04-23T15:45:34.008Z</time></trkpt><trkpt lat="43.8205367" lon="11.4671333"><ele>224.0</ele><time>2026-04-23T15:45:35.008Z</time></trkpt><trkpt lat="43.8206267" lon="11.4671567"><ele>222.2</ele><time>2026-04-23T15:45:36.008Z</time></trkpt><trkpt lat="43.82071" lon="11.4671883"><ele>220.39999999999998</ele><time>2026-04-23T15:45:37.008Z</time></trkpt><trkpt lat="43.8207817" lon="11.4672233"><ele>218.6</ele><time>2026-04-23T15:45:38.009Z</time></trkpt><trkpt lat="43.8208483" lon="11.4672483"><ele>216.8</ele><time>2026-04-23T15:45:39.008Z</time></trkpt><trkpt lat="43.8209467" lon="11.4673217"><ele>215.0</ele><time>2026-04-23T15:45:41.008Z</time></trkpt><trkpt lat="43.8209867" lon="11.467485"><ele>214.2</ele><time>2026-04-23T15:45:43.008Z</time></trkpt><trkpt lat="43.82098" lon="11.4675933"><ele>213.4</ele><time>2026-04-23T15:45:44.008Z</time></trkpt><trkpt lat="43.8209683" lon="11.4677183"><ele>212.60000000000002</ele><time>2026-04-23T15:45:45.009Z</time></trkpt><trkpt lat="43.8209567" lon="11.467865"><ele>211.8</ele><time>2026-04-23T15:45:46.009Z</time></trkpt><trkpt lat="43.8209417" lon="11.4680183"><ele>211.0</ele><time>2026-04-23T15:45:47.008Z</time></trkpt><trkpt lat="43.8209233" lon="11.46818"><ele>208.75</ele><time>2026-04-23T15:45:48.008Z</time></trkpt><trkpt lat="43.8209067" lon="11.468345"><ele>206.5</ele><time>2026-04-23T15:45:49.009Z</time></trkpt><trkpt lat="43.8208833" lon="11.46853"><ele>204.25</ele><time>2026-04-23T15:45:50.009Z</time></trkpt><trkpt lat="43.820865" lon="11.4687017"><ele>202.0</ele><time>2026-04-23T15:45:51.009Z</time></trkpt><trkpt lat="43.8208467" lon="11.46887"><ele>200.25</ele><time>2026-04-23T15:45:52.008Z</time></trkpt><trkpt lat="43.8208233" lon="11.4690367"><ele>198.5</ele><time>2026-04-23T15:45:53.008Z</time></trkpt><trkpt lat="43.820805" lon="11.4691983"><ele>196.75</ele><time>2026-04-23T15:45:54.009Z</time></trkpt><trkpt lat="43.8207883" lon="11.4693517"><ele>195.0</ele><time>2026-04-23T15:45:55.008Z</time></trkpt><trkpt lat="43.82077" lon="11.4695"><ele>193.8</ele><time>2026-04-23T15:45:56.008Z</time></trkpt><trkpt lat="43.82075" lon="11.46964"><ele>192.6</ele><time>2026-04-23T15:45:57.008Z</time></trkpt><trkpt lat="43.8207283" lon="11.469775"><ele>191.39999999999998</ele><time>2026-04-23T15:45:58.008Z</time></trkpt><trkpt lat="43.8207" lon="11.4698983"><ele>190.2</ele><time>2026-04-23T15:45:59.008Z</time></trkpt><trkpt lat="43.820645" lon="11.470015"><ele>189.0</ele><time>2026-04-23T15:46:00.008Z</time></trkpt><trkpt lat="43.8205717" lon="11.4701083"><ele>189.0</ele><time>2026-04-23T15:46:01.009Z</time></trkpt><trkpt lat="43.8204867" lon="11.47019"><ele>189.0</ele><time>2026-04-23T15:46:02.008Z</time></trkpt><trkpt lat="43.8203883" lon="11.4702717"><ele>189.0</ele><time>2026-04-23T15:46:03.008Z</time></trkpt><trkpt lat="43.8202833" lon="11.4703533"><ele>189.0</ele><time>2026-04-23T15:46:04.008Z</time></trkpt><trkpt lat="43.8201833" lon="11.47043"><ele>187.6</ele><time>2026-04-23T15:46:05.008Z</time></trkpt><trkpt lat="43.8200867" lon="11.4705217"><ele>186.2</ele><time>2026-04-23T15:46:06.008Z</time></trkpt><trkpt lat="43.8199917" lon="11.4705967"><ele>184.79999999999998</ele><time>2026-04-23T15:46:07.009Z</time></trkpt><trkpt lat="43.8198967" lon="11.470675"><ele>183.39999999999998</ele><time>2026-04-23T15:46:08.008Z</time></trkpt><trkpt lat="43.8198017" lon="11.4707517"><ele>182.0</ele><time>2026-04-23T15:46:09.008Z</time></trkpt><trkpt lat="43.8197133" lon="11.470835"><ele>182.0</ele><time>2026-04-23T15:46:10.008Z</time></trkpt><trkpt lat="43.81962" lon="11.4709333"><ele>182.0</ele><time>2026-04-23T15:46:11.009Z</time></trkpt><trkpt lat="43.8195267" lon="11.47104"><ele>182.0</ele><time>2026-04-23T15:46:12.008Z</time></trkpt><trkpt lat="43.8194433" lon="11.4711483"><ele>182.0</ele><time>2026-04-23T15:46:13.008Z</time></trkpt><trkpt lat="43.81936" lon="11.471265"><ele>179.0</ele><time>2026-04-23T15:46:14.008Z</time></trkpt><trkpt lat="43.8192817" lon="11.4713867"><ele>176.0</ele><time>2026-04-23T15:46:15.008Z</time></trkpt><trkpt lat="43.8192083" lon="11.4715017"><ele>173.0</ele><time>2026-04-23T15:46:16.008Z</time></trkpt><trkpt lat="43.81913" lon="11.4716183"><ele>170.0</ele><time>2026-04-23T15:46:17.008Z</time></trkpt><trkpt lat="43.8190533" lon="11.471735"><ele>170.0</ele><time>2026-04-23T15:46:18.008Z</time></trkpt><trkpt lat="43.8189833" lon="11.4718517"><ele>170.0</ele><time>2026-04-23T15:46:19.008Z</time></trkpt><trkpt lat="43.818915" lon="11.4719683"><ele>170.0</ele><time>2026-04-23T15:46:20.008Z</time></trkpt><trkpt lat="43.81885" lon="11.47208"><ele>170.0</ele><time>2026-04-23T15:46:21.008Z</time></trkpt><trkpt lat="43.8187817" lon="11.4721783"><ele>170.0</ele><time>2026-04-23T15:46:22.008Z</time></trkpt><trkpt lat="43.8187083" lon="11.4722583"><ele>169.4</ele><time>2026-04-23T15:46:23.008Z</time></trkpt><trkpt lat="43.8186217" lon="11.47234"><ele>168.8</ele><time>2026-04-23T15:46:24.008Z</time></trkpt><trkpt lat="43.8185317" lon="11.472415"><ele>168.2</ele><time>2026-04-23T15:46:25.008Z</time></trkpt><trkpt lat="43.8184433" lon="11.47248"><ele>167.6</ele><time>2026-04-23T15:46:26.008Z</time></trkpt><trkpt lat="43.8183483" lon="11.47254"><ele>167.0</ele><time>2026-04-23T15:46:27.008Z</time></trkpt><trkpt lat="43.8182467" lon="11.47261"><ele>165.25</ele><time>2026-04-23T15:46:28.008Z</time></trkpt><trkpt lat="43.8181417" lon="11.4726783"><ele>163.5</ele><time>2026-04-23T15:46:29.009Z</time></trkpt><trkpt lat="43.818045" lon="11.4727533"><ele>161.75</ele><time>2026-04-23T15:46:30.008Z</time></trkpt><trkpt lat="43.8179583" lon="11.4728367"><ele>160.0</ele><time>2026-04-23T15:46:31.009Z</time></trkpt><trkpt lat="43.81787" lon="11.4729483"><ele>158.75</ele><time>2026-04-23T15:46:32.009Z</time></trkpt><trkpt lat="43.8177867" lon="11.4730583"><ele>157.5</ele><time>2026-04-23T15:46:33.008Z</time></trkpt><trkpt lat="43.8177083" lon="11.473175"><ele>156.25</ele><time>2026-04-23T15:46:34.009Z</time></trkpt><trkpt lat="43.8176283" lon="11.4732833"><ele>155.0</ele><time>2026-04-23T15:46:35.008Z</time></trkpt><trkpt lat="43.8175383" lon="11.473385"><ele>155.0</ele><time>2026-04-23T15:46:36.008Z</time></trkpt><trkpt lat="43.8174483" lon="11.473465"><ele>155.0</ele><time>2026-04-23T15:46:37.008Z</time></trkpt><trkpt lat="43.8173533" lon="11.4735417"><ele>155.0</ele><time>2026-04-23T15:46:38.008Z</time></trkpt><trkpt lat="43.817265" lon="11.4736067"><ele>155.0</ele><time>2026-04-23T15:46:39.008Z</time></trkpt><trkpt lat="43.8171783" lon="11.4736517"><ele>155.0</ele><time>2026-04-23T15:46:40.009Z</time></trkpt><trkpt lat="43.8170917" lon="11.4737017"><ele>155.0</ele><time>2026-04-23T15:46:41.009Z</time></trkpt><trkpt lat="43.8170033" lon="11.4737117"><ele>155.0</ele><time>2026-04-23T15:46:42.008Z</time></trkpt><trkpt lat="43.8169117" lon="11.4737283"><ele>155.0</ele><time>2026-04-23T15:46:43.008Z</time></trkpt><trkpt lat="43.8168183" lon="11.4737783"><ele>155.0</ele><time>2026-04-23T15:46:44.008Z</time></trkpt><trkpt lat="43.81674" lon="11.4738533"><ele>155.0</ele><time>2026-04-23T15:46:45.008Z</time></trkpt><trkpt lat="43.816655" lon="11.47394"><ele>153.4</ele><time>2026-04-23T15:46:46.008Z</time></trkpt><trkpt lat="43.816575" lon="11.474035"><ele>151.8</ele><time>2026-04-23T15:46:47.008Z</time></trkpt><trkpt lat="43.816495" lon="11.4741483"><ele>150.2</ele><time>2026-04-23T15:46:48.008Z</time></trkpt><trkpt lat="43.81642" lon="11.47425"><ele>148.6</ele><time>2026-04-23T15:46:49.008Z</time></trkpt><trkpt lat="43.8163433" lon="11.4743433"><ele>147.0</ele><time>2026-04-23T15:46:50.009Z</time></trkpt><trkpt lat="43.8162667" lon="11.474435"><ele>147.0</ele><time>2026-04-23T15:46:51.008Z</time></trkpt><trkpt lat="43.8161917" lon="11.47453"><ele>147.0</ele><time>2026-04-23T15:46:52.009Z</time></trkpt><trkpt lat="43.81612" lon="11.4746233"><ele>147.0</ele><time>2026-04-23T15:46:53.008Z</time></trkpt><trkpt lat="43.8160433" lon="11.4747233"><ele>147.0</ele><time>2026-04-23T15:46:54.008Z</time></trkpt><trkpt lat="43.8159667" lon="11.4748283"><ele>147.0</ele><time>2026-04-23T15:46:55.008Z</time></trkpt><trkpt lat="43.815885" lon="11.4749283"><ele>146.4</ele><time>2026-04-23T15:46:56.008Z</time></trkpt><trkpt lat="43.81581" lon="11.475015"><ele>145.79999999999998</ele><time>2026-04-23T15:46:57.008Z</time></trkpt><trkpt lat="43.81575" lon="11.4750867"><ele>145.2</ele><time>2026-04-23T15:46:58.009Z</time></trkpt><trkpt lat="43.8157033" lon="11.47515"><ele>144.6</ele><time>2026-04-23T15:46:59.008Z</time></trkpt><trkpt lat="43.815645" lon="11.4752317"><ele>144.0</ele><time>2026-04-23T15:47:01.008Z</time></trkpt><trkpt lat="43.81575" lon="11.4754383"><ele>143.16666666666666</ele><time>2026-04-23T15:47:36.008Z</time></trkpt><trkpt lat="43.8158133" lon="11.4755083"><ele>142.33333333333334</ele><time>2026-04-23T15:47:37.008Z</time></trkpt><trkpt lat="43.8158733" lon="11.475595"><ele>141.5</ele><time>2026-04-23T15:47:38.009Z</time></trkpt><trkpt lat="43.8159217" lon="11.4756617"><ele>140.66666666666669</ele><time>2026-04-23T15:47:39.008Z</time></trkpt><trkpt lat="43.8159817" lon="11.47572"><ele>139.83333333333334</ele><time>2026-04-23T15:47:40.008Z</time></trkpt><trkpt lat="43.81606" lon="11.4757733"><ele>139.0</ele><time>2026-04-23T15:47:41.008Z</time></trkpt><trkpt lat="43.8161583" lon="11.475815"><ele>138.5</ele><time>2026-04-23T15:47:42.008Z</time></trkpt><trkpt lat="43.8162783" lon="11.4758433"><ele>138.0</ele><time>2026-04-23T15:47:43.008Z</time></trkpt><trkpt lat="43.81642" lon="11.475855"><ele>137.5</ele><time>2026-04-23T15:47:44.008Z</time></trkpt><trkpt lat="43.8165817" lon="11.47587"><ele>137.0</ele><time>2026-04-23T15:47:45.009Z</time></trkpt><trkpt lat="43.8167417" lon="11.4758867"><ele>136.5</ele><time>2026-04-23T15:47:46.008Z</time></trkpt><trkpt lat="43.8168867" lon="11.4759033"><ele>136.0</ele><time>2026-04-23T15:47:47.009Z</time></trkpt><trkpt lat="43.8170233" lon="11.4759283"><ele>135.5</ele><time>2026-04-23T15:47:48.009Z</time></trkpt><trkpt lat="43.817145" lon="11.475955"><ele>135.0</ele><time>2026-04-23T15:47:49.008Z</time></trkpt><trkpt lat="43.81726" lon="11.4759983"><ele>135.0</ele><time>2026-04-23T15:47:50.008Z</time></trkpt><trkpt lat="43.8173767" lon="11.4760517"><ele>135.0</ele><time>2026-04-23T15:47:51.008Z</time></trkpt><trkpt lat="43.8174883" lon="11.4761017"><ele>135.0</ele><time>2026-04-23T15:47:52.008Z</time></trkpt><trkpt lat="43.81761" lon="11.4761417"><ele>135.0</ele><time>2026-04-23T15:47:53.008Z</time></trkpt><trkpt lat="43.8177233" lon="11.4761883"><ele>135.4</ele><time>2026-04-23T15:47:54.008Z</time></trkpt><trkpt lat="43.8178267" lon="11.4762417"><ele>135.8</ele><time>2026-04-23T15:47:55.008Z</time></trkpt><trkpt lat="43.8179167" lon="11.4763067"><ele>136.2</ele><time>2026-04-23T15:47:56.008Z</time></trkpt><trkpt lat="43.8180033" lon="11.4763717"><ele>136.6</ele><time>2026-04-23T15:47:57.008Z</time></trkpt><trkpt lat="43.8180917" lon="11.476425"><ele>137.0</ele><time>2026-04-23T15:47:58.008Z</time></trkpt><trkpt lat="43.8181883" lon="11.47645"><ele>136.2</ele><time>2026-04-23T15:47:59.009Z</time></trkpt><trkpt lat="43.8182983" lon="11.4764567"><ele>135.39999999999998</ele><time>2026-04-23T15:48:00.008Z</time></trkpt><trkpt lat="43.81841" lon="11.4764417"><ele>134.60000000000002</ele><time>2026-04-23T15:48:01.008Z</time></trkpt><trkpt lat="43.81852" lon="11.47642"><ele>133.8</ele><time>2026-04-23T15:48:02.008Z</time></trkpt><trkpt lat="43.8186333" lon="11.4764017"><ele>133.0</ele><time>2026-04-23T15:48:03.008Z</time></trkpt><trkpt lat="43.8187383" lon="11.4764083"><ele>133.0</ele><time>2026-04-23T15:48:04.008Z</time></trkpt><trkpt lat="43.81883" lon="11.47645"><ele>133.0</ele><time>2026-04-23T15:48:05.008Z</time></trkpt><trkpt lat="43.818915" lon="11.4765217"><ele>133.0</ele><time>2026-04-23T15:48:06.008Z</time></trkpt><trkpt lat="43.8189883" lon="11.4765817"><ele>133.0</ele><time>2026-04-23T15:48:07.008Z</time></trkpt><trkpt lat="43.81906" lon="11.4766333"><ele>133.0</ele><time>2026-04-23T15:48:08.009Z</time></trkpt><trkpt lat="43.819135" lon="11.47667"><ele>133.0</ele><time>2026-04-23T15:48:09.008Z</time></trkpt><trkpt lat="43.8192033" lon="11.4766833"><ele>133.0</ele><time>2026-04-23T15:48:10.008Z</time></trkpt><trkpt lat="43.819275" lon="11.47667"><ele>133.0</ele><time>2026-04-23T15:48:11.008Z</time></trkpt><trkpt lat="43.81935" lon="11.476635"><ele>133.0</ele><time>2026-04-23T15:48:12.008Z</time></trkpt><trkpt lat="43.819435" lon="11.4765833"><ele>133.0</ele><time>2026-04-23T15:48:13.008Z</time></trkpt><trkpt lat="43.8195283" lon="11.4765233"><ele>133.0</ele><time>2026-04-23T15:48:14.008Z</time></trkpt><trkpt lat="43.8196283" lon="11.4764533"><ele>133.75</ele><time>2026-04-23T15:48:15.009Z</time></trkpt><trkpt lat="43.8197433" lon="11.476365"><ele>134.5</ele><time>2026-04-23T15:48:16.009Z</time></trkpt><trkpt lat="43.8198667" lon="11.4762867"><ele>135.25</ele><time>2026-04-23T15:48:17.009Z</time></trkpt><trkpt lat="43.82" lon="11.476225"><ele>136.0</ele><time>2026-04-23T15:48:18.009Z</time></trkpt><trkpt lat="43.8201517" lon="11.476195"><ele>136.0</ele><time>2026-04-23T15:48:19.008Z</time></trkpt><trkpt lat="43.8203" lon="11.4761933"><ele>136.0</ele><time>2026-04-23T15:48:20.008Z</time></trkpt><trkpt lat="43.8204533" lon="11.4762133"><ele>136.0</ele><time>2026-04-23T15:48:21.009Z</time></trkpt><trkpt lat="43.820605" lon="11.4762567"><ele>135.5</ele><time>2026-04-23T15:48:22.008Z</time></trkpt><trkpt lat="43.8207667" lon="11.4762967"><ele>135.0</ele><time>2026-04-23T15:48:23.009Z</time></trkpt><trkpt lat="43.8209083" lon="11.476335"><ele>134.5</ele><time>2026-04-23T15:48:24.009Z</time></trkpt><trkpt lat="43.8210417" lon="11.4763767"><ele>134.0</ele><time>2026-04-23T15:48:25.008Z</time></trkpt><trkpt lat="43.821165" lon="11.4764267"><ele>134.0</ele><time>2026-04-23T15:48:26.008Z</time></trkpt><trkpt lat="43.8212733" lon="11.476455"><ele>134.0</ele><time>2026-04-23T15:48:27.008Z</time></trkpt><trkpt lat="43.8213817" lon="11.476475"><ele>134.0</ele><time>2026-04-23T15:48:28.009Z</time></trkpt><trkpt lat="43.8214967" lon="11.476505"><ele>134.0</ele><time>2026-04-23T15:48:29.008Z</time></trkpt><trkpt lat="43.8216117" lon="11.4765317"><ele>134.0</ele><time>2026-04-23T15:48:30.008Z</time></trkpt><trkpt lat="43.8217167" lon="11.4765683"><ele>134.0</ele><time>2026-04-23T15:48:31.008Z</time></trkpt><trkpt lat="43.8218217" lon="11.4766"><ele>134.0</ele><time>2026-04-23T15:48:32.008Z</time></trkpt><trkpt lat="43.8219233" lon="11.4766283"><ele>134.0</ele><time>2026-04-23T15:48:33.008Z</time></trkpt><trkpt lat="43.8220233" lon="11.476655"><ele>134.0</ele><time>2026-04-23T15:48:34.009Z</time></trkpt><trkpt lat="43.82212" lon="11.47669"><ele>134.0</ele><time>2026-04-23T15:48:35.008Z</time></trkpt><trkpt lat="43.8222167" lon="11.4767317"><ele>134.0</ele><time>2026-04-23T15:48:36.009Z</time></trkpt><trkpt lat="43.82233" lon="11.47676"><ele>134.0</ele><time>2026-04-23T15:48:37.008Z</time></trkpt><trkpt lat="43.822445" lon="11.47677"><ele>134.0</ele><time>2026-04-23T15:48:38.008Z</time></trkpt><trkpt lat="43.8225617" lon="11.4767817"><ele>134.0</ele><time>2026-04-23T15:48:39.008Z</time></trkpt><trkpt lat="43.822675" lon="11.4767933"><ele>134.4</ele><time>2026-04-23T15:48:40.009Z</time></trkpt><trkpt lat="43.8227917" lon="11.4768"><ele>134.8</ele><time>2026-04-23T15:48:41.008Z</time></trkpt><trkpt lat="43.8229033" lon="11.4768133"><ele>135.2</ele><time>2026-04-23T15:48:42.008Z</time></trkpt><trkpt lat="43.8230067" lon="11.4768283"><ele>135.6</ele><time>2026-04-23T15:48:43.008Z</time></trkpt><trkpt lat="43.823105" lon="11.4768433"><ele>136.0</ele><time>2026-04-23T15:48:44.008Z</time></trkpt><trkpt lat="43.8232" lon="11.4768583"><ele>136.0</ele><time>2026-04-23T15:48:45.009Z</time></trkpt><trkpt lat="43.82329" lon="11.4768767"><ele>136.0</ele><time>2026-04-23T15:48:46.008Z</time></trkpt><trkpt lat="43.8233867" lon="11.476905"><ele>136.0</ele><time>2026-04-23T15:48:47.008Z</time></trkpt><trkpt lat="43.823475" lon="11.476985"><ele>136.0</ele><time>2026-04-23T15:48:48.008Z</time></trkpt><trkpt lat="43.8235567" lon="11.4770767"><ele>136.0</ele><time>2026-04-23T15:48:49.008Z</time></trkpt><trkpt lat="43.8236667" lon="11.477155"><ele>134.5</ele><time>2026-04-23T15:48:50.008Z</time></trkpt><trkpt lat="43.8237767" lon="11.47722"><ele>133.0</ele><time>2026-04-23T15:48:51.008Z</time></trkpt><trkpt lat="43.8238883" lon="11.4772767"><ele>131.5</ele><time>2026-04-23T15:48:52.008Z</time></trkpt><trkpt lat="43.82401" lon="11.47733"><ele>130.0</ele><time>2026-04-23T15:48:53.008Z</time></trkpt><trkpt lat="43.8241283" lon="11.4773883"><ele>130.0</ele><time>2026-04-23T15:48:54.008Z</time></trkpt><trkpt lat="43.82425" lon="11.4774433"><ele>130.0</ele><time>2026-04-23T15:48:55.008Z</time></trkpt><trkpt lat="43.8243683" lon="11.4775033"><ele>130.0</ele><time>2026-04-23T15:48:56.009Z</time></trkpt><trkpt lat="43.8244917" lon="11.4775533"><ele>130.0</ele><time>2026-04-23T15:48:57.008Z</time></trkpt><trkpt lat="43.8246117" lon="11.47761"><ele>130.5</ele><time>2026-04-23T15:48:58.008Z</time></trkpt><trkpt lat="43.82473" lon="11.4776617"><ele>131.0</ele><time>2026-04-23T15:48:59.008Z</time></trkpt><trkpt lat="43.8248467" lon="11.477715"><ele>131.5</ele><time>2026-04-23T15:49:00.009Z</time></trkpt><trkpt lat="43.824965" lon="11.4777617"><ele>132.0</ele><time>2026-04-23T15:49:01.008Z</time></trkpt><trkpt lat="43.82508" lon="11.4778117"><ele>132.0</ele><time>2026-04-23T15:49:02.008Z</time></trkpt><trkpt lat="43.82519" lon="11.47786"><ele>132.0</ele><time>2026-04-23T15:49:03.008Z</time></trkpt><trkpt lat="43.8252933" lon="11.4779033"><ele>132.0</ele><time>2026-04-23T15:49:04.008Z</time></trkpt><trkpt lat="43.825395" lon="11.47795"><ele>132.0</ele><time>2026-04-23T15:49:05.008Z</time></trkpt><trkpt lat="43.8254967" lon="11.4780017"><ele>132.0</ele><time>2026-04-23T15:49:06.009Z</time></trkpt><trkpt lat="43.825595" lon="11.4780417"><ele>130.33333333333334</ele><time>2026-04-23T15:49:07.008Z</time></trkpt><trkpt lat="43.8256867" lon="11.47809"><ele>128.66666666666666</ele><time>2026-04-23T15:49:08.008Z</time></trkpt><trkpt lat="43.8257717" lon="11.478135"><ele>127.0</ele><time>2026-04-23T15:49:09.008Z</time></trkpt><trkpt lat="43.82585" lon="11.478185"><ele>125.33333333333333</ele><time>2026-04-23T15:49:10.008Z</time></trkpt><trkpt lat="43.8259233" lon="11.478245"><ele>123.66666666666666</ele><time>2026-04-23T15:49:11.008Z</time></trkpt><trkpt lat="43.8259933" lon="11.4782983"><ele>122.0</ele><time>2026-04-23T15:49:12.008Z</time></trkpt><trkpt lat="43.826065" lon="11.4783517"><ele>120.19999999999999</ele><time>2026-04-23T15:49:13.008Z</time></trkpt><trkpt lat="43.8261383" lon="11.4783983"><ele>118.39999999999999</ele><time>2026-04-23T15:49:14.008Z</time></trkpt><trkpt lat="43.82623" lon="11.4784267"><ele>116.60000000000001</ele><time>2026-04-23T15:49:15.008Z</time></trkpt><trkpt lat="43.8263333" lon="11.4784367"><ele>114.80000000000001</ele><time>2026-04-23T15:49:16.009Z</time></trkpt><trkpt lat="43.82645" lon="11.4784283"><ele>113.0</ele><time>2026-04-23T15:49:17.008Z</time></trkpt><trkpt lat="43.82657" lon="11.4784167"><ele>113.0</ele><time>2026-04-23T15:49:18.008Z</time></trkpt><trkpt lat="43.8266817" lon="11.4784117"><ele>113.00000000000001</ele><time>2026-04-23T15:49:19.008Z</time></trkpt><trkpt lat="43.826785" lon="11.4784083"><ele>113.00000000000001</ele><time>2026-04-23T15:49:20.008Z</time></trkpt><trkpt lat="43.826885" lon="11.4784133"><ele>113.0</ele><time>2026-04-23T15:49:21.008Z</time></trkpt><trkpt lat="43.8269683" lon="11.4784383"><ele>113.0</ele><time>2026-04-23T15:49:22.009Z</time></trkpt><trkpt lat="43.8270483" lon="11.4784817"><ele>112.5</ele><time>2026-04-23T15:49:23.008Z</time></trkpt><trkpt lat="43.82714" lon="11.478545"><ele>112.0</ele><time>2026-04-23T15:49:24.008Z</time></trkpt><trkpt lat="43.8272417" lon="11.4786317"><ele>111.5</ele><time>2026-04-23T15:49:25.008Z</time></trkpt><trkpt lat="43.8273483" lon="11.478725"><ele>111.0</ele><time>2026-04-23T15:49:26.008Z</time></trkpt><trkpt lat="43.82745" lon="11.4788083"><ele>111.0</ele><time>2026-04-23T15:49:27.009Z</time></trkpt><trkpt lat="43.82754" lon="11.4788883"><ele>111.0</ele><time>2026-04-23T15:49:28.008Z</time></trkpt><trkpt lat="43.8276433" lon="11.4789683"><ele>111.0</ele><time>2026-04-23T15:49:29.008Z</time></trkpt><trkpt lat="43.82775" lon="11.479045"><ele>111.0</ele><time>2026-04-23T15:49:30.008Z</time></trkpt><trkpt lat="43.8278533" lon="11.4791417"><ele>110.75</ele><time>2026-04-23T15:49:31.008Z</time></trkpt><trkpt lat="43.827945" lon="11.4792433"><ele>110.5</ele><time>2026-04-23T15:49:32.008Z</time></trkpt><trkpt lat="43.8280333" lon="11.47936"><ele>110.25</ele><time>2026-04-23T15:49:33.008Z</time></trkpt><trkpt lat="43.82812" lon="11.479485"><ele>110.0</ele><time>2026-04-23T15:49:34.008Z</time></trkpt><trkpt lat="43.8282067" lon="11.4796217"><ele>110.0</ele><time>2026-04-23T15:49:35.008Z</time></trkpt><trkpt lat="43.82829" lon="11.4797783"><ele>110.0</ele><time>2026-04-23T15:49:36.009Z</time></trkpt><trkpt lat="43.82837" lon="11.47993"><ele>110.0</ele><time>2026-04-23T15:49:37.008Z</time></trkpt><trkpt lat="43.82844" lon="11.4800817"><ele>110.0</ele><time>2026-04-23T15:49:38.009Z</time></trkpt><trkpt lat="43.8285067" lon="11.4802233"><ele>110.0</ele><time>2026-04-23T15:49:39.008Z</time></trkpt><trkpt lat="43.8285683" lon="11.4803617"><ele>110.0</ele><time>2026-04-23T15:49:40.009Z</time></trkpt><trkpt lat="43.8286283" lon="11.48048"><ele>110.0</ele><time>2026-04-23T15:49:41.008Z</time></trkpt><trkpt lat="43.8286933" lon="11.4806017"><ele>110.0</ele><time>2026-04-23T15:49:42.008Z</time></trkpt><trkpt lat="43.8287617" lon="11.4807133"><ele>110.0</ele><time>2026-04-23T15:49:43.009Z</time></trkpt><trkpt lat="43.8288217" lon="11.4808283"><ele>110.0</ele><time>2026-04-23T15:49:44.008Z</time></trkpt><trkpt lat="43.82888" lon="11.480945"><ele>110.0</ele><time>2026-04-23T15:49:45.009Z</time></trkpt><trkpt lat="43.8289317" lon="11.4810483"><ele>110.0</ele><time>2026-04-23T15:49:46.009Z</time></trkpt><trkpt lat="43.8289867" lon="11.4811583"><ele>110.0</ele><time>2026-04-23T15:49:47.008Z</time></trkpt><trkpt lat="43.8290467" lon="11.4812633"><ele>110.0</ele><time>2026-04-23T15:49:48.008Z</time></trkpt><trkpt lat="43.8291083" lon="11.4813683"><ele>109.99999999999999</ele><time>2026-04-23T15:49:49.009Z</time></trkpt><trkpt lat="43.82917" lon="11.4814717"><ele>110.0</ele><time>2026-04-23T15:49:50.008Z</time></trkpt><trkpt lat="43.8292317" lon="11.4815683"><ele>110.0</ele><time>2026-04-23T15:49:51.008Z</time></trkpt><trkpt lat="43.8292917" lon="11.48166"><ele>110.0</ele><time>2026-04-23T15:49:52.008Z</time></trkpt><trkpt lat="43.829355" lon="11.4817333"><ele>109.99999999999999</ele><time>2026-04-23T15:49:53.008Z</time></trkpt><trkpt lat="43.829425" lon="11.4817767"><ele>110.0</ele><time>2026-04-23T15:49:54.008Z</time></trkpt><trkpt lat="43.8295167" lon="11.48178"><ele>110.33333333333333</ele><time>2026-04-23T15:49:55.008Z</time></trkpt><trkpt lat="43.8295983" lon="11.48177"><ele>110.66666666666666</ele><time>2026-04-23T15:49:56.009Z</time></trkpt><trkpt lat="43.8296667" lon="11.481755"><ele>111.0</ele><time>2026-04-23T15:49:57.008Z</time></trkpt><trkpt lat="43.8297667" lon="11.4817833"><ele>111.33333333333334</ele><time>2026-04-23T15:49:59.009Z</time></trkpt><trkpt lat="43.8298267" lon="11.48192"><ele>111.66666666666667</ele><time>2026-04-23T15:50:01.008Z</time></trkpt><trkpt lat="43.8298517" lon="11.4820033"><ele>112.0</ele><time>2026-04-23T15:50:02.008Z</time></trkpt><trkpt lat="43.8298717" lon="11.4820983"><ele>112.00000000000001</ele><time>2026-04-23T15:50:03.008Z</time></trkpt><trkpt lat="43.8298983" lon="11.48221"><ele>112.0</ele><time>2026-04-23T15:50:04.008Z</time></trkpt><trkpt lat="43.8299233" lon="11.482315"><ele>112.0</ele><time>2026-04-23T15:50:05.008Z</time></trkpt><trkpt lat="43.8299533" lon="11.482415"><ele>112.0</ele><time>2026-04-23T15:50:06.008Z</time></trkpt><trkpt lat="43.82999" lon="11.4825167"><ele>112.00000000000001</ele><time>2026-04-23T15:50:07.009Z</time></trkpt><trkpt lat="43.83003" lon="11.4826283"><ele>112.0</ele><time>2026-04-23T15:50:08.008Z</time></trkpt><trkpt lat="43.8300817" lon="11.482775"><ele>113.5</ele><time>2026-04-23T15:50:09.008Z</time></trkpt><trkpt lat="43.8301317" lon="11.4829367"><ele>115.0</ele><time>2026-04-23T15:50:10.009Z</time></trkpt><trkpt lat="43.83018" lon="11.4830883"><ele>116.5</ele><time>2026-04-23T15:50:11.008Z</time></trkpt><trkpt lat="43.8302317" lon="11.4832683"><ele>118.0</ele><time>2026-04-23T15:50:12.008Z</time></trkpt><trkpt lat="43.83028" lon="11.483445"><ele>119.0</ele><time>2026-04-23T15:50:13.008Z</time></trkpt><trkpt lat="43.8303217" lon="11.4835967"><ele>120.00000000000001</ele><time>2026-04-23T15:50:14.008Z</time></trkpt><trkpt lat="43.8303617" lon="11.48373"><ele>121.00000000000001</ele><time>2026-04-23T15:50:15.008Z</time></trkpt><trkpt lat="43.8304067" lon="11.4838533"><ele>122.0</ele><time>2026-04-23T15:50:16.008Z</time></trkpt><trkpt lat="43.8304583" lon="11.4839583"><ele>123.0</ele><time>2026-04-23T15:50:17.008Z</time></trkpt><trkpt lat="43.830515" lon="11.48404"><ele>123.57142857142858</ele><time>2026-04-23T15:50:18.009Z</time></trkpt><trkpt lat="43.8305733" lon="11.4841117"><ele>124.14285714285714</ele><time>2026-04-23T15:50:19.008Z</time></trkpt><trkpt lat="43.8306283" lon="11.4841817"><ele>124.71428571428572</ele><time>2026-04-23T15:50:20.008Z</time></trkpt><trkpt lat="43.830675" lon="11.48426"><ele>125.28571428571429</ele><time>2026-04-23T15:50:21.008Z</time></trkpt><trkpt lat="43.8307233" lon="11.4843367"><ele>125.85714285714286</ele><time>2026-04-23T15:50:22.009Z</time></trkpt><trkpt lat="43.8307683" lon="11.4844183"><ele>126.42857142857143</ele><time>2026-04-23T15:50:23.008Z</time></trkpt><trkpt lat="43.8308" lon="11.4845133"><ele>127.0</ele><time>2026-04-23T15:50:24.008Z</time></trkpt><trkpt lat="43.8308183" lon="11.4846083"><ele>127.16666666666667</ele><time>2026-04-23T15:50:25.008Z</time></trkpt><trkpt lat="43.8308317" lon="11.48471"><ele>127.33333333333334</ele><time>2026-04-23T15:50:26.008Z</time></trkpt><trkpt lat="43.8308333" lon="11.48481"><ele>127.5</ele><time>2026-04-23T15:50:27.008Z</time></trkpt><trkpt lat="43.8308317" lon="11.48492"><ele>127.66666666666666</ele><time>2026-04-23T15:50:28.008Z</time></trkpt><trkpt lat="43.830815" lon="11.48504"><ele>127.83333333333333</ele><time>2026-04-23T15:50:29.009Z</time></trkpt><trkpt lat="43.830795" lon="11.4851567"><ele>128.0</ele><time>2026-04-23T15:50:30.008Z</time></trkpt><trkpt lat="43.83078" lon="11.485265"><ele>128.0</ele><time>2026-04-23T15:50:31.008Z</time></trkpt><trkpt lat="43.8307533" lon="11.48539"><ele>128.0</ele><time>2026-04-23T15:50:32.008Z</time></trkpt><trkpt lat="43.830715" lon="11.4855433"><ele>128.0</ele><time>2026-04-23T15:50:33.008Z</time></trkpt><trkpt lat="43.8306833" lon="11.4857083"><ele>128.0</ele><time>2026-04-23T15:50:34.008Z</time></trkpt><trkpt lat="43.830645" lon="11.48585"><ele>128.0</ele><time>2026-04-23T15:50:35.008Z</time></trkpt><trkpt lat="43.8306083" lon="11.485985"><ele>127.83333333333333</ele><time>2026-04-23T15:50:36.008Z</time></trkpt><trkpt lat="43.8305767" lon="11.486105"><ele>127.66666666666666</ele><time>2026-04-23T15:50:37.009Z</time></trkpt><trkpt lat="43.8305683" lon="11.486225"><ele>127.5</ele><time>2026-04-23T15:50:38.008Z</time></trkpt><trkpt lat="43.8305717" lon="11.48634"><ele>127.33333333333334</ele><time>2026-04-23T15:50:39.009Z</time></trkpt><trkpt lat="43.8305783" lon="11.4864317"><ele>127.16666666666667</ele><time>2026-04-23T15:50:40.008Z</time></trkpt><trkpt lat="43.8306217" lon="11.4865583"><ele>127.0</ele><time>2026-04-23T15:50:42.009Z</time></trkpt><trkpt lat="43.83065" lon="11.4866517"><ele>126.66666666666667</ele><time>2026-04-23T15:50:44.008Z</time></trkpt><trkpt lat="43.8305967" lon="11.4867217"><ele>126.33333333333334</ele><time>2026-04-23T15:50:48.009Z</time></trkpt><trkpt lat="43.8305183" lon="11.4867633"><ele>126.0</ele><time>2026-04-23T15:50:50.008Z</time></trkpt><trkpt lat="43.8304467" lon="11.486805"><ele>125.66666666666666</ele><time>2026-04-23T15:50:51.008Z</time></trkpt><trkpt lat="43.8303617" lon="11.4868417"><ele>125.33333333333333</ele><time>2026-04-23T15:50:52.008Z</time></trkpt><trkpt lat="43.8302817" lon="11.4868883"><ele>125.0</ele><time>2026-04-23T15:50:53.008Z</time></trkpt><trkpt lat="43.8302117" lon="11.4869367"><ele>124.99999999999999</ele><time>2026-04-23T15:50:54.008Z</time></trkpt><trkpt lat="43.83015" lon="11.4869817"><ele>125.0</ele><time>2026-04-23T15:50:55.008Z</time></trkpt><trkpt lat="43.8300467" lon="11.487055"><ele>125.0</ele><time>2026-04-23T15:50:57.009Z</time></trkpt><trkpt lat="43.8299817" lon="11.4870967"><ele>125.0</ele><time>2026-04-23T15:50:59.009Z</time></trkpt><trkpt lat="43.829935" lon="11.4871667"><ele>124.99999999999999</ele><time>2026-04-23T15:51:02.008Z</time></trkpt><trkpt lat="43.8298917" lon="11.4872583"><ele>125.0</ele><time>2026-04-23T15:51:04.008Z</time></trkpt><trkpt lat="43.8298633" lon="11.4873383"><ele>123.99999999999999</ele><time>2026-04-23T15:51:05.009Z</time></trkpt><trkpt lat="43.8298367" lon="11.4874267"><ele>123.0</ele><time>2026-04-23T15:51:06.008Z</time></trkpt><trkpt lat="43.8297883" lon="11.4875817"><ele>122.0</ele><time>2026-04-23T15:51:08.008Z</time></trkpt><trkpt lat="43.829765" lon="11.4877067"><ele>121.0</ele><time>2026-04-23T15:51:10.008Z</time></trkpt><trkpt lat="43.8297067" lon="11.4877833"><ele>119.99999999999999</ele><time>2026-04-23T15:51:28.008Z</time></trkpt><trkpt lat="43.8296317" lon="11.4878067"><ele>119.0</ele><time>2026-04-23T15:51:29.008Z</time></trkpt><trkpt lat="43.8295367" lon="11.4878367"><ele>119.0</ele><time>2026-04-23T15:51:30.008Z</time></trkpt><trkpt lat="43.8294383" lon="11.4878717"><ele>119.0</ele><time>2026-04-23T15:51:31.008Z</time></trkpt><trkpt lat="43.82934" lon="11.4879133"><ele>119.0</ele><time>2026-04-23T15:51:32.009Z</time></trkpt><trkpt lat="43.829245" lon="11.4879233"><ele>119.0</ele><time>2026-04-23T15:51:33.009Z</time></trkpt><trkpt lat="43.8291517" lon="11.4879333"><ele>119.0</ele><time>2026-04-23T15:51:34.008Z</time></trkpt><trkpt lat="43.8290733" lon="11.4879183"><ele>118.0</ele><time>2026-04-23T15:51:35.008Z</time></trkpt><trkpt lat="43.8290033" lon="11.4879133"><ele>117.0</ele><time>2026-04-23T15:51:36.009Z</time></trkpt><trkpt lat="43.828875" lon="11.4879033"><ele>116.0</ele><time>2026-04-23T15:51:38.009Z</time></trkpt><trkpt lat="43.828805" lon="11.4879033"><ele>115.0</ele><time>2026-04-23T15:51:39.008Z</time></trkpt><trkpt lat="43.8287383" lon="11.4879017"><ele>114.0</ele><time>2026-04-23T15:51:40.008Z</time></trkpt><trkpt lat="43.8286233" lon="11.4878967"><ele>114.0</ele><time>2026-04-23T15:51:42.008Z</time></trkpt><trkpt lat="43.8285317" lon="11.4878983"><ele>114.0</ele><time>2026-04-23T15:51:44.008Z</time></trkpt><trkpt lat="43.8284233" lon="11.4879"><ele>114.0</ele><time>2026-04-23T15:51:47.008Z</time></trkpt><trkpt lat="43.8283033" lon="11.4879133"><ele>114.0</ele><time>2026-04-23T15:51:49.008Z</time></trkpt><trkpt lat="43.828235" lon="11.48794"><ele>114.0</ele><time>2026-04-23T15:51:50.008Z</time></trkpt><trkpt lat="43.8281183" lon="11.4880383"><ele>114.0</ele><time>2026-04-23T15:51:52.009Z</time></trkpt><trkpt lat="43.828055" lon="11.4881117"><ele>114.0</ele><time>2026-04-23T15:51:53.008Z</time></trkpt><trkpt lat="43.828" lon="11.4881983"><ele>114.0</ele><time>2026-04-23T15:51:54.009Z</time></trkpt><trkpt lat="43.827945" lon="11.4882867"><ele>114.0</ele><time>2026-04-23T15:51:55.008Z</time></trkpt><trkpt lat="43.8278767" lon="11.4883617"><ele>114.0</ele><time>2026-04-23T15:51:56.008Z</time></trkpt><trkpt lat="43.8278233" lon="11.48844"><ele>114.0</ele><time>2026-04-23T15:51:57.009Z</time></trkpt><trkpt lat="43.8277517" lon="11.4885233"><ele>114.0</ele><time>2026-04-23T15:51:58.008Z</time></trkpt><trkpt lat="43.8276633" lon="11.4886117"><ele>114.0</ele><time>2026-04-23T15:51:59.009Z</time></trkpt><trkpt lat="43.8275883" lon="11.4886967"><ele>114.0</ele><time>2026-04-23T15:52:00.008Z</time></trkpt><trkpt lat="43.8275217" lon="11.4887817"><ele>114.0</ele><time>2026-04-23T15:52:01.008Z</time></trkpt><trkpt lat="43.8274483" lon="11.48887"><ele>114.0</ele><time>2026-04-23T15:52:02.008Z</time></trkpt><trkpt lat="43.82738" lon="11.4889533"><ele>114.4</ele><time>2026-04-23T15:52:03.008Z</time></trkpt><trkpt lat="43.827315" lon="11.48902"><ele>114.80000000000001</ele><time>2026-04-23T15:52:04.009Z</time></trkpt><trkpt lat="43.8272617" lon="11.4890767"><ele>115.19999999999999</ele><time>2026-04-23T15:52:05.009Z</time></trkpt><trkpt lat="43.8271567" lon="11.4891517"><ele>115.6</ele><time>2026-04-23T15:52:07.008Z</time></trkpt><trkpt lat="43.82705" lon="11.489155"><ele>116.0</ele><time>2026-04-23T15:52:09.008Z</time></trkpt><trkpt lat="43.827095" lon="11.4892983"><ele>116.0</ele><time>2026-04-23T15:52:42.008Z</time></trkpt><trkpt lat="43.8271317" lon="11.4894233"><ele>116.0</ele><time>2026-04-23T15:52:44.009Z</time></trkpt><trkpt lat="43.8271617" lon="11.489535"><ele>116.0</ele><time>2026-04-23T15:52:45.008Z</time></trkpt><trkpt lat="43.827195" lon="11.48968"><ele>116.0</ele><time>2026-04-23T15:52:46.008Z</time></trkpt><trkpt lat="43.8272317" lon="11.4898333"><ele>116.0</ele><time>2026-04-23T15:52:47.008Z</time></trkpt><trkpt lat="43.8272617" lon="11.4899817"><ele>116.33333333333333</ele><time>2026-04-23T15:52:48.009Z</time></trkpt><trkpt lat="43.82729" lon="11.490095"><ele>116.66666666666666</ele><time>2026-04-23T15:52:49.008Z</time></trkpt><trkpt lat="43.8273067" lon="11.49019"><ele>117.0</ele><time>2026-04-23T15:52:50.008Z</time></trkpt><trkpt lat="43.8273083" lon="11.4902817"><ele>117.33333333333334</ele><time>2026-04-23T15:52:51.008Z</time></trkpt><trkpt lat="43.8272883" lon="11.49037"><ele>117.66666666666667</ele><time>2026-04-23T15:52:52.009Z</time></trkpt><trkpt lat="43.8272533" lon="11.4904867"><ele>118.0</ele><time>2026-04-23T15:52:54.009Z</time></trkpt><trkpt lat="43.8271667" lon="11.490485"><ele>118.2</ele><time>2026-04-23T15:53:02.009Z</time></trkpt><trkpt lat="43.82703" lon="11.490505"><ele>118.4</ele><time>2026-04-23T15:53:04.009Z</time></trkpt><trkpt lat="43.8269417" lon="11.4905317"><ele>118.60000000000001</ele><time>2026-04-23T15:53:05.009Z</time></trkpt><trkpt lat="43.8268483" lon="11.4905517"><ele>118.80000000000001</ele><time>2026-04-23T15:53:06.008Z</time></trkpt><trkpt lat="43.8267683" lon="11.4905767"><ele>119.0</ele><time>2026-04-23T15:53:07.008Z</time></trkpt><trkpt lat="43.82666" lon="11.4906"><ele>119.0</ele><time>2026-04-23T15:53:09.009Z</time></trkpt><trkpt lat="43.8265617" lon="11.490645"><ele>119.0</ele><time>2026-04-23T15:53:17.009Z</time></trkpt><trkpt lat="43.8265033" lon="11.4906783"><ele>119.0</ele><time>2026-04-23T15:53:19.008Z</time></trkpt><trkpt lat="43.8264" lon="11.49071"><ele>119.0</ele><time>2026-04-23T15:53:21.008Z</time></trkpt><trkpt lat="43.8262617" lon="11.4907483"><ele>119.0</ele><time>2026-04-23T15:53:23.009Z</time></trkpt><trkpt lat="43.8261833" lon="11.49077"><ele>118.99999999999999</ele><time>2026-04-23T15:53:24.009Z</time></trkpt><trkpt lat="43.8260983" lon="11.49079"><ele>119.0</ele><time>2026-04-23T15:53:25.008Z</time></trkpt><trkpt lat="43.8260117" lon="11.4908167"><ele>119.0</ele><time>2026-04-23T15:53:26.008Z</time></trkpt><trkpt lat="43.8259217" lon="11.4908283"><ele>119.0</ele><time>2026-04-23T15:53:27.008Z</time></trkpt><trkpt lat="43.825845" lon="11.4908617"><ele>118.99999999999999</ele><time>2026-04-23T15:53:28.009Z</time></trkpt><trkpt lat="43.8257667" lon="11.4908967"><ele>119.0</ele><time>2026-04-23T15:53:29.008Z</time></trkpt><trkpt lat="43.825675" lon="11.4909333"><ele>119.4</ele><time>2026-04-23T15:53:31.008Z</time></trkpt><trkpt lat="43.8256267" lon="11.491055"><ele>119.80000000000001</ele><time>2026-04-23T15:54:45.009Z</time></trkpt><trkpt lat="43.825625" lon="11.4911583"><ele>120.19999999999999</ele><time>2026-04-23T15:54:47.008Z</time></trkpt><trkpt lat="43.825575" lon="11.4913033"><ele>120.6</ele><time>2026-04-23T15:54:49.009Z</time></trkpt><trkpt lat="43.8254867" lon="11.491435"><ele>121.0</ele><time>2026-04-23T15:54:51.008Z</time></trkpt><trkpt lat="43.8254133" lon="11.491485"><ele>121.19999999999999</ele><time>2026-04-23T15:54:52.008Z</time></trkpt><trkpt lat="43.8253117" lon="11.4915"><ele>121.39999999999999</ele><time>2026-04-23T15:54:53.008Z</time></trkpt><trkpt lat="43.8252033" lon="11.4915033"><ele>121.6</ele><time>2026-04-23T15:54:54.009Z</time></trkpt><trkpt lat="43.8251033" lon="11.4915117"><ele>121.8</ele><time>2026-04-23T15:54:55.008Z</time></trkpt><trkpt lat="43.8250033" lon="11.49152"><ele>122.0</ele><time>2026-04-23T15:54:56.008Z</time></trkpt><trkpt lat="43.8249033" lon="11.4915317"><ele>122.19999999999999</ele><time>2026-04-23T15:54:57.009Z</time></trkpt><trkpt lat="43.8248017" lon="11.4915433"><ele>122.39999999999999</ele><time>2026-04-23T15:54:58.008Z</time></trkpt><trkpt lat="43.8246967" lon="11.4915517"><ele>122.60000000000001</ele><time>2026-04-23T15:54:59.008Z</time></trkpt><trkpt lat="43.8245933" lon="11.49155"><ele>122.80000000000001</ele><time>2026-04-23T15:55:00.009Z</time></trkpt><trkpt lat="43.82449" lon="11.491555"><ele>123.0</ele><time>2026-04-23T15:55:01.008Z</time></trkpt><trkpt lat="43.8243933" lon="11.4915733"><ele>123.4</ele><time>2026-04-23T15:55:02.008Z</time></trkpt><trkpt lat="43.8243033" lon="11.4915983"><ele>123.80000000000001</ele><time>2026-04-23T15:55:03.009Z</time></trkpt><trkpt lat="43.8242133" lon="11.49165"><ele>124.2</ele><time>2026-04-23T15:55:04.008Z</time></trkpt><trkpt lat="43.824125" lon="11.49171"><ele>124.6</ele><time>2026-04-23T15:55:05.008Z</time></trkpt><trkpt lat="43.8240233" lon="11.4917783"><ele>125.0</ele><time>2026-04-23T15:55:06.008Z</time></trkpt><trkpt lat="43.8239117" lon="11.4918417"><ele>125.0</ele><time>2026-04-23T15:55:07.008Z</time></trkpt><trkpt lat="43.8238" lon="11.491895"><ele>125.0</ele><time>2026-04-23T15:55:08.009Z</time></trkpt><trkpt lat="43.823685" lon="11.49195"><ele>125.0</ele><time>2026-04-23T15:55:09.009Z</time></trkpt><trkpt lat="43.823575" lon="11.4920067"><ele>125.0</ele><time>2026-04-23T15:55:10.009Z</time></trkpt><trkpt lat="43.823465" lon="11.492055"><ele>125.25</ele><time>2026-04-23T15:55:11.008Z</time></trkpt><trkpt lat="43.82335" lon="11.4921067"><ele>125.5</ele><time>2026-04-23T15:55:12.008Z</time></trkpt><trkpt lat="43.8232383" lon="11.4921783"><ele>125.75</ele><time>2026-04-23T15:55:13.009Z</time></trkpt><trkpt lat="43.82312" lon="11.4922483"><ele>126.0</ele><time>2026-04-23T15:55:14.008Z</time></trkpt><trkpt lat="43.82301" lon="11.4923233"><ele>126.0</ele><time>2026-04-23T15:55:15.009Z</time></trkpt><trkpt lat="43.8229083" lon="11.4924117"><ele>126.0</ele><time>2026-04-23T15:55:16.009Z</time></trkpt><trkpt lat="43.82281" lon="11.4925117"><ele>126.0</ele><time>2026-04-23T15:55:17.009Z</time></trkpt><trkpt lat="43.8227183" lon="11.492625"><ele>126.0</ele><time>2026-04-23T15:55:18.008Z</time></trkpt><trkpt lat="43.82263" lon="11.4927467"><ele>128.25</ele><time>2026-04-23T15:55:19.008Z</time></trkpt><trkpt lat="43.8225533" lon="11.4928667"><ele>130.5</ele><time>2026-04-23T15:55:20.009Z</time></trkpt><trkpt lat="43.822475" lon="11.49298"><ele>132.75</ele><time>2026-04-23T15:55:21.008Z</time></trkpt><trkpt lat="43.8224083" lon="11.4931117"><ele>135.0</ele><time>2026-04-23T15:55:22.008Z</time></trkpt><trkpt lat="43.8223467" lon="11.4932333"><ele>135.0</ele><time>2026-04-23T15:55:23.008Z</time></trkpt><trkpt lat="43.8222917" lon="11.4933683"><ele>135.0</ele><time>2026-04-23T15:55:24.008Z</time></trkpt><trkpt lat="43.8222367" lon="11.4935233"><ele>135.0</ele><time>2026-04-23T15:55:25.009Z</time></trkpt><trkpt lat="43.82218" lon="11.4936733"><ele>135.0</ele><time>2026-04-23T15:55:26.008Z</time></trkpt><trkpt lat="43.8221183" lon="11.4938217"><ele>137.75</ele><time>2026-04-23T15:55:27.009Z</time></trkpt><trkpt lat="43.8220517" lon="11.4939667"><ele>140.5</ele><time>2026-04-23T15:55:28.008Z</time></trkpt><trkpt lat="43.8219867" lon="11.494115"><ele>143.25</ele><time>2026-04-23T15:55:29.008Z</time></trkpt><trkpt lat="43.82193" lon="11.4942617"><ele>146.0</ele><time>2026-04-23T15:55:30.009Z</time></trkpt><trkpt lat="43.8218733" lon="11.4944083"><ele>146.0</ele><time>2026-04-23T15:55:31.008Z</time></trkpt><trkpt lat="43.8218183" lon="11.49455"><ele>146.0</ele><time>2026-04-23T15:55:32.009Z</time></trkpt><trkpt lat="43.8217717" lon="11.494685"><ele>146.0</ele><time>2026-04-23T15:55:33.009Z</time></trkpt><trkpt lat="43.82175" lon="11.4948133"><ele>146.0</ele><time>2026-04-23T15:55:34.009Z</time></trkpt><trkpt lat="43.8217433" lon="11.49494"><ele>146.0</ele><time>2026-04-23T15:55:35.009Z</time></trkpt><trkpt lat="43.8217533" lon="11.49507"><ele>146.33333333333331</ele><time>2026-04-23T15:55:36.008Z</time></trkpt><trkpt lat="43.8217717" lon="11.4951867"><ele>146.66666666666666</ele><time>2026-04-23T15:55:37.008Z</time></trkpt><trkpt lat="43.8217983" lon="11.4953033"><ele>147.0</ele><time>2026-04-23T15:55:38.008Z</time></trkpt><trkpt lat="43.8218217" lon="11.4954083"><ele>147.33333333333334</ele><time>2026-04-23T15:55:39.009Z</time></trkpt><trkpt lat="43.82184" lon="11.49551"><ele>147.66666666666669</ele><time>2026-04-23T15:55:40.008Z</time></trkpt><trkpt lat="43.82186" lon="11.495615"><ele>148.0</ele><time>2026-04-23T15:55:41.008Z</time></trkpt><trkpt lat="43.8218767" lon="11.49571"><ele>149.16666666666669</ele><time>2026-04-23T15:55:42.008Z</time></trkpt><trkpt lat="43.8218967" lon="11.4958017"><ele>150.33333333333334</ele><time>2026-04-23T15:55:43.008Z</time></trkpt><trkpt lat="43.82192" lon="11.4959033"><ele>151.5</ele><time>2026-04-23T15:55:44.009Z</time></trkpt><trkpt lat="43.8219483" lon="11.49602"><ele>152.66666666666666</ele><time>2026-04-23T15:55:45.008Z</time></trkpt><trkpt lat="43.8219833" lon="11.4961433"><ele>153.83333333333331</ele><time>2026-04-23T15:55:46.008Z</time></trkpt><trkpt lat="43.8220117" lon="11.496275"><ele>155.0</ele><time>2026-04-23T15:55:47.008Z</time></trkpt><trkpt lat="43.82202" lon="11.4964133"><ele>159.0</ele><time>2026-04-23T15:55:48.009Z</time></trkpt><trkpt lat="43.82202" lon="11.49655"><ele>163.0</ele><time>2026-04-23T15:55:49.008Z</time></trkpt><trkpt lat="43.822" lon="11.496675"><ele>167.0</ele><time>2026-04-23T15:55:50.008Z</time></trkpt><trkpt lat="43.8219667" lon="11.4967933"><ele>171.0</ele><time>2026-04-23T15:55:51.008Z</time></trkpt><trkpt lat="43.8219133" lon="11.4969017"><ele>175.0</ele><time>2026-04-23T15:55:52.008Z</time></trkpt><trkpt lat="43.82185" lon="11.4969917"><ele>169.8</ele><time>2026-04-23T15:55:53.008Z</time></trkpt><trkpt lat="43.82178" lon="11.497085"><ele>164.6</ele><time>2026-04-23T15:55:54.008Z</time></trkpt><trkpt lat="43.8217183" lon="11.4971817"><ele>159.4</ele><time>2026-04-23T15:55:55.009Z</time></trkpt><trkpt lat="43.8216617" lon="11.4972717"><ele>154.2</ele><time>2026-04-23T15:55:56.008Z</time></trkpt><trkpt lat="43.8216233" lon="11.49738"><ele>149.0</ele><time>2026-04-23T15:55:57.008Z</time></trkpt><trkpt lat="43.8215883" lon="11.497495"><ele>149.0</ele><time>2026-04-23T15:55:58.008Z</time></trkpt><trkpt lat="43.82157" lon="11.4976283"><ele>149.0</ele><time>2026-04-23T15:55:59.009Z</time></trkpt><trkpt lat="43.8215733" lon="11.49776"><ele>149.0</ele><time>2026-04-23T15:56:00.008Z</time></trkpt><trkpt lat="43.8215983" lon="11.49787"><ele>149.0</ele><time>2026-04-23T15:56:01.008Z</time></trkpt><trkpt lat="43.8216317" lon="11.4979833"><ele>149.0</ele><time>2026-04-23T15:56:02.008Z</time></trkpt><trkpt lat="43.821665" lon="11.49809"><ele>149.0</ele><time>2026-04-23T15:56:03.009Z</time></trkpt><trkpt lat="43.8216983" lon="11.4982"><ele>149.6</ele><time>2026-04-23T15:56:04.008Z</time></trkpt><trkpt lat="43.8217267" lon="11.49831"><ele>150.2</ele><time>2026-04-23T15:56:05.008Z</time></trkpt><trkpt lat="43.8217583" lon="11.4984233"><ele>150.79999999999998</ele><time>2026-04-23T15:56:06.008Z</time></trkpt><trkpt lat="43.8217883" lon="11.4985417"><ele>151.4</ele><time>2026-04-23T15:56:07.009Z</time></trkpt><trkpt lat="43.8218233" lon="11.4986817"><ele>152.0</ele><time>2026-04-23T15:56:08.008Z</time></trkpt><trkpt lat="43.8218617" lon="11.4988233"><ele>157.0</ele><time>2026-04-23T15:56:09.009Z</time></trkpt><trkpt lat="43.8218917" lon="11.4989667"><ele>162.0</ele><time>2026-04-23T15:56:10.008Z</time></trkpt><trkpt lat="43.8219233" lon="11.4991033"><ele>167.0</ele><time>2026-04-23T15:56:11.008Z</time></trkpt><trkpt lat="43.8219617" lon="11.4992217"><ele>172.0</ele><time>2026-04-23T15:56:12.008Z</time></trkpt><trkpt lat="43.8220083" lon="11.49933"><ele>177.0</ele><time>2026-04-23T15:56:13.008Z</time></trkpt><trkpt lat="43.8220767" lon="11.4994217"><ele>177.0</ele><time>2026-04-23T15:56:14.008Z</time></trkpt><trkpt lat="43.8221567" lon="11.4994983"><ele>177.0</ele><time>2026-04-23T15:56:15.009Z</time></trkpt><trkpt lat="43.8222433" lon="11.49956"><ele>177.0</ele><time>2026-04-23T15:56:16.008Z</time></trkpt><trkpt lat="43.8223317" lon="11.4996217"><ele>177.0</ele><time>2026-04-23T15:56:17.008Z</time></trkpt><trkpt lat="43.8224167" lon="11.49967"><ele>177.0</ele><time>2026-04-23T15:56:18.008Z</time></trkpt><trkpt lat="43.8224933" lon="11.4997267"><ele>179.2</ele><time>2026-04-23T15:56:19.009Z</time></trkpt><trkpt lat="43.822575" lon="11.4997867"><ele>181.39999999999998</ele><time>2026-04-23T15:56:20.008Z</time></trkpt><trkpt lat="43.8226417" lon="11.499865"><ele>183.60000000000002</ele><time>2026-04-23T15:56:21.008Z</time></trkpt><trkpt lat="43.8227033" lon="11.49995"><ele>185.8</ele><time>2026-04-23T15:56:22.009Z</time></trkpt><trkpt lat="43.8227467" lon="11.500035"><ele>188.0</ele><time>2026-04-23T15:56:23.009Z</time></trkpt><trkpt lat="43.8227817" lon="11.5001767"><ele>188.0</ele><time>2026-04-23T15:56:25.009Z</time></trkpt><trkpt lat="43.8228183" lon="11.500355"><ele>188.0</ele><time>2026-04-23T15:56:27.008Z</time></trkpt><trkpt lat="43.8228383" lon="11.5004767"><ele>188.0</ele><time>2026-04-23T15:56:28.009Z</time></trkpt><trkpt lat="43.822855" lon="11.500615"><ele>188.0</ele><time>2026-04-23T15:56:29.008Z</time></trkpt><trkpt lat="43.822855" lon="11.5007867"><ele>188.0</ele><time>2026-04-23T15:56:30.009Z</time></trkpt><trkpt lat="43.822865" lon="11.5009717"><ele>183.5</ele><time>2026-04-23T15:56:31.009Z</time></trkpt><trkpt lat="43.8228733" lon="11.50115"><ele>179.0</ele><time>2026-04-23T15:56:32.008Z</time></trkpt><trkpt lat="43.8228917" lon="11.5013217"><ele>174.5</ele><time>2026-04-23T15:56:33.008Z</time></trkpt><trkpt lat="43.82291" lon="11.5014783"><ele>170.0</ele><time>2026-04-23T15:56:34.008Z</time></trkpt><trkpt lat="43.8229467" lon="11.5016233"><ele>167.75</ele><time>2026-04-23T15:56:35.009Z</time></trkpt><trkpt lat="43.823" lon="11.5017633"><ele>165.5</ele><time>2026-04-23T15:56:36.009Z</time></trkpt><trkpt lat="43.82306" lon="11.5019083"><ele>163.25</ele><time>2026-04-23T15:56:37.008Z</time></trkpt><trkpt lat="43.8231283" lon="11.50205"><ele>161.0</ele><time>2026-04-23T15:56:38.009Z</time></trkpt><trkpt lat="43.82321" lon="11.5021733"><ele>159.75</ele><time>2026-04-23T15:56:39.008Z</time></trkpt><trkpt lat="43.8233033" lon="11.5022817"><ele>158.5</ele><time>2026-04-23T15:56:40.008Z</time></trkpt><trkpt lat="43.8234117" lon="11.502375"><ele>157.25</ele><time>2026-04-23T15:56:41.009Z</time></trkpt><trkpt lat="43.8235217" lon="11.5024533"><ele>156.0</ele><time>2026-04-23T15:56:42.009Z</time></trkpt><trkpt lat="43.82364" lon="11.5025433"><ele>159.0</ele><time>2026-04-23T15:56:43.008Z</time></trkpt><trkpt lat="43.82376" lon="11.502625"><ele>162.0</ele><time>2026-04-23T15:56:44.008Z</time></trkpt><trkpt lat="43.8238833" lon="11.50271"><ele>165.0</ele><time>2026-04-23T15:56:45.009Z</time></trkpt><trkpt lat="43.8240022" lon="11.5027976"><ele>168.0</ele><time>2026-04-23T15:56:46.009Z</time></trkpt><trkpt lat="43.8241202" lon="11.5028945"><ele>166.5</ele><time>2026-04-23T15:56:47.009Z</time></trkpt><trkpt lat="43.8242429" lon="11.5029969"><ele>165.0</ele><time>2026-04-23T15:56:48.009Z</time></trkpt><trkpt lat="43.8243636" lon="11.5031002"><ele>163.5</ele><time>2026-04-23T15:56:49.009Z</time></trkpt><trkpt lat="43.8244796" lon="11.5032047"><ele>162.0</ele><time>2026-04-23T15:56:50.01Z</time></trkpt><trkpt lat="43.8245903" lon="11.5033188"><ele>164.5</ele><time>2026-04-23T15:56:51.009Z</time></trkpt><trkpt lat="43.8246895" lon="11.5034488"><ele>167.0</ele><time>2026-04-23T15:56:52.009Z</time></trkpt><trkpt lat="43.8247764" lon="11.5035995"><ele>169.5</ele><time>2026-04-23T15:56:53.009Z</time></trkpt><trkpt lat="43.8248494" lon="11.5037699"><ele>172.0</ele><time>2026-04-23T15:56:54.01Z</time></trkpt><trkpt lat="43.8249089" lon="11.5039512"><ele>172.0</ele><time>2026-04-23T15:56:55.009Z</time></trkpt><trkpt lat="43.8249582" lon="11.5041421"><ele>172.0</ele><time>2026-04-23T15:56:56.01Z</time></trkpt><trkpt lat="43.8250048" lon="11.5043367"><ele>172.0</ele><time>2026-04-23T15:56:57.009Z</time></trkpt><trkpt lat="43.8250509" lon="11.5045326"><ele>172.0</ele><time>2026-04-23T15:56:58.009Z</time></trkpt><trkpt lat="43.8250947" lon="11.504723"><ele>170.25</ele><time>2026-04-23T15:56:59.009Z</time></trkpt><trkpt lat="43.8251306" lon="11.5049019"><ele>168.5</ele><time>2026-04-23T15:57:00.01Z</time></trkpt><trkpt lat="43.8251631" lon="11.5050641"><ele>166.75</ele><time>2026-04-23T15:57:01.009Z</time></trkpt><trkpt lat="43.825189" lon="11.5052197"><ele>165.0</ele><time>2026-04-23T15:57:02.009Z</time></trkpt><trkpt lat="43.8252029" lon="11.5053725"><ele>165.6</ele><time>2026-04-23T15:57:03.009Z</time></trkpt><trkpt lat="43.8252025" lon="11.5055232"><ele>166.2</ele><time>2026-04-23T15:57:04.01Z</time></trkpt><trkpt lat="43.8251828" lon="11.5056615"><ele>166.8</ele><time>2026-04-23T15:57:05.01Z</time></trkpt><trkpt lat="43.8251583" lon="11.5057769"><ele>167.4</ele><time>2026-04-23T15:57:06.009Z</time></trkpt><trkpt lat="43.8251339" lon="11.5058589"><ele>168.0</ele><time>2026-04-23T15:57:07.009Z</time></trkpt><trkpt lat="43.8251589" lon="11.5059923"><ele>170.2</ele><time>2026-04-23T15:57:10.009Z</time></trkpt><trkpt lat="43.8252661" lon="11.506079"><ele>172.4</ele><time>2026-04-23T15:57:12.009Z</time></trkpt><trkpt lat="43.8253361" lon="11.5061049"><ele>174.6</ele><time>2026-04-23T15:57:13.009Z</time></trkpt><trkpt lat="43.8254208" lon="11.5061273"><ele>176.79999999999998</ele><time>2026-04-23T15:57:14.009Z</time></trkpt><trkpt lat="43.8255133" lon="11.5061463"><ele>179.0</ele><time>2026-04-23T15:57:15.009Z</time></trkpt><trkpt lat="43.8255948" lon="11.5061594"><ele>179.0</ele><time>2026-04-23T15:57:16.009Z</time></trkpt><trkpt lat="43.8256586" lon="11.5061706"><ele>179.0</ele><time>2026-04-23T15:57:17.009Z</time></trkpt><trkpt lat="43.825715" lon="11.506215"><ele>179.0</ele><time>2026-04-23T15:57:20.009Z</time></trkpt><trkpt lat="43.8257383" lon="11.5063017"><ele>179.0</ele><time>2026-04-23T15:57:51.01Z</time></trkpt><trkpt lat="43.8257433" lon="11.50644"><ele>179.0</ele><time>2026-04-23T15:57:53.01Z</time></trkpt><trkpt lat="43.8257083" lon="11.5066267"><ele>179.0</ele><time>2026-04-23T15:57:55.01Z</time></trkpt><trkpt lat="43.8256817" lon="11.5067367"><ele>180.5</ele><time>2026-04-23T15:57:56.009Z</time></trkpt><trkpt lat="43.82565" lon="11.5068333"><ele>182.0</ele><time>2026-04-23T15:57:57.01Z</time></trkpt><trkpt lat="43.8256267" lon="11.5069317"><ele>183.5</ele><time>2026-04-23T15:57:58.009Z</time></trkpt><trkpt lat="43.8256017" lon="11.5070317"><ele>185.0</ele><time>2026-04-23T15:57:59.01Z</time></trkpt><trkpt lat="43.8255733" lon="11.50714"><ele>186.5</ele><time>2026-04-23T15:58:00.01Z</time></trkpt><trkpt lat="43.8255367" lon="11.50724"><ele>188.0</ele><time>2026-04-23T15:58:01.009Z</time></trkpt><trkpt lat="43.825495" lon="11.5073383"><ele>189.66666666666666</ele><time>2026-04-23T15:58:02.009Z</time></trkpt><trkpt lat="43.82545" lon="11.5074283"><ele>191.33333333333331</ele><time>2026-04-23T15:58:03.009Z</time></trkpt><trkpt lat="43.825405" lon="11.5075217"><ele>193.0</ele><time>2026-04-23T15:58:04.009Z</time></trkpt><trkpt lat="43.8253717" lon="11.507615"><ele>194.66666666666666</ele><time>2026-04-23T15:58:05.009Z</time></trkpt><trkpt lat="43.82534" lon="11.5077183"><ele>196.33333333333334</ele><time>2026-04-23T15:58:06.009Z</time></trkpt><trkpt lat="43.8253117" lon="11.5078267"><ele>198.0</ele><time>2026-04-23T15:58:07.01Z</time></trkpt><trkpt lat="43.82528" lon="11.5079367"><ele>198.0</ele><time>2026-04-23T15:58:08.01Z</time></trkpt><trkpt lat="43.8252517" lon="11.508025"><ele>198.0</ele><time>2026-04-23T15:58:09.009Z</time></trkpt><trkpt lat="43.82519" lon="11.5081433"><ele>198.0</ele><time>2026-04-23T15:58:11.009Z</time></trkpt><trkpt lat="43.8250867" lon="11.50822"><ele>198.0</ele><time>2026-04-23T15:58:13.009Z</time></trkpt><trkpt lat="43.82502" lon="11.5082683"><ele>198.0</ele><time>2026-04-23T15:58:14.009Z</time></trkpt><trkpt lat="43.8249567" lon="11.50831"><ele>198.0</ele><time>2026-04-23T15:58:15.009Z</time></trkpt><trkpt lat="43.8248967" lon="11.5083617"><ele>198.0</ele><time>2026-04-23T15:58:16.009Z</time></trkpt><trkpt lat="43.824845" lon="11.50848"><ele>198.0</ele><time>2026-04-23T15:58:18.009Z</time></trkpt><trkpt lat="43.8248167" lon="11.5086283"><ele>198.0</ele><time>2026-04-23T15:58:20.01Z</time></trkpt><trkpt lat="43.8247983" lon="11.508715"><ele>198.0</ele><time>2026-04-23T15:58:21.009Z</time></trkpt><trkpt lat="43.82477" lon="11.5088017"><ele>198.0</ele><time>2026-04-23T15:58:22.009Z</time></trkpt><trkpt lat="43.8247267" lon="11.5088867"><ele>198.0</ele><time>2026-04-23T15:58:23.009Z</time></trkpt><trkpt lat="43.8246883" lon="11.508975"><ele>202.5</ele><time>2026-04-23T15:58:24.009Z</time></trkpt><trkpt lat="43.8246467" lon="11.5090617"><ele>207.0</ele><time>2026-04-23T15:58:25.009Z</time></trkpt><trkpt lat="43.8246117" lon="11.50915"><ele>211.5</ele><time>2026-04-23T15:58:26.01Z</time></trkpt><trkpt lat="43.8245817" lon="11.5092567"><ele>216.0</ele><time>2026-04-23T15:58:27.009Z</time></trkpt><trkpt lat="43.8245617" lon="11.5093717"><ele>220.5</ele><time>2026-04-23T15:58:28.009Z</time></trkpt><trkpt lat="43.8245433" lon="11.50948"><ele>225.0</ele><time>2026-04-23T15:58:29.009Z</time></trkpt><trkpt lat="43.8245233" lon="11.5095883"><ele>230.0</ele><time>2026-04-23T15:58:30.009Z</time></trkpt><trkpt lat="43.8244917" lon="11.5096983"><ele>235.0</ele><time>2026-04-23T15:58:31.009Z</time></trkpt><trkpt lat="43.82448" lon="11.5098033"><ele>240.0</ele><time>2026-04-23T15:58:32.009Z</time></trkpt><trkpt lat="43.8244683" lon="11.5099083"><ele>245.0</ele><time>2026-04-23T15:58:33.009Z</time></trkpt><trkpt lat="43.8244583" lon="11.51003"><ele>250.0</ele><time>2026-04-23T15:58:34.01Z</time></trkpt><trkpt lat="43.8244417" lon="11.5101633"><ele>255.0</ele><time>2026-04-23T15:58:35.009Z</time></trkpt><trkpt lat="43.824415" lon="11.5102833"><ele>255.0</ele><time>2026-04-23T15:58:36.009Z</time></trkpt><trkpt lat="43.82439" lon="11.5104"><ele>255.0</ele><time>2026-04-23T15:58:37.01Z</time></trkpt><trkpt lat="43.824375" lon="11.51051"><ele>255.0</ele><time>2026-04-23T15:58:38.009Z</time></trkpt><trkpt lat="43.8243667" lon="11.51062"><ele>255.0</ele><time>2026-04-23T15:58:39.009Z</time></trkpt><trkpt lat="43.8243617" lon="11.510735"><ele>255.0</ele><time>2026-04-23T15:58:40.009Z</time></trkpt><trkpt lat="43.8243617" lon="11.5108433"><ele>255.0</ele><time>2026-04-23T15:58:41.009Z</time></trkpt><trkpt lat="43.824375" lon="11.51096"><ele>258.1666666666667</ele><time>2026-04-23T15:58:42.01Z</time></trkpt><trkpt lat="43.8243933" lon="11.5110733"><ele>261.3333333333333</ele><time>2026-04-23T15:58:43.009Z</time></trkpt><trkpt lat="43.8244017" lon="11.5111883"><ele>264.5</ele><time>2026-04-23T15:58:44.009Z</time></trkpt><trkpt lat="43.8244" lon="11.511295"><ele>267.66666666666663</ele><time>2026-04-23T15:58:45.009Z</time></trkpt><trkpt lat="43.824385" lon="11.511405"><ele>270.8333333333333</ele><time>2026-04-23T15:58:46.009Z</time></trkpt><trkpt lat="43.8243717" lon="11.5115183"><ele>274.0</ele><time>2026-04-23T15:58:47.01Z</time></trkpt><trkpt lat="43.824365" lon="11.5116317"><ele>274.8333333333333</ele><time>2026-04-23T15:58:48.01Z</time></trkpt><trkpt lat="43.82437" lon="11.51174"><ele>275.66666666666663</ele><time>2026-04-23T15:58:49.009Z</time></trkpt><trkpt lat="43.8243717" lon="11.511865"><ele>276.5</ele><time>2026-04-23T15:58:50.009Z</time></trkpt><trkpt lat="43.8243767" lon="11.5119933"><ele>277.3333333333333</ele><time>2026-04-23T15:58:51.009Z</time></trkpt><trkpt lat="43.82438" lon="11.5121167"><ele>278.1666666666667</ele><time>2026-04-23T15:58:52.009Z</time></trkpt><trkpt lat="43.824375" lon="11.5122367"><ele>279.0</ele><time>2026-04-23T15:58:53.01Z</time></trkpt><trkpt lat="43.824365" lon="11.5123517"><ele>278.6666666666667</ele><time>2026-04-23T15:58:54.009Z</time></trkpt><trkpt lat="43.8243383" lon="11.51247"><ele>278.3333333333333</ele><time>2026-04-23T15:58:55.01Z</time></trkpt><trkpt lat="43.8243167" lon="11.51258"><ele>278.0</ele><time>2026-04-23T15:58:56.01Z</time></trkpt><trkpt lat="43.8243033" lon="11.5126883"><ele>277.66666666666663</ele><time>2026-04-23T15:58:57.009Z</time></trkpt><trkpt lat="43.8243133" lon="11.51284"><ele>277.3333333333333</ele><time>2026-04-23T15:58:59.009Z</time></trkpt><trkpt lat="43.824345" lon="11.5129183"><ele>277.0</ele><time>2026-04-23T15:59:00.009Z</time></trkpt><trkpt lat="43.8243967" lon="11.5129967"><ele>277.0</ele><time>2026-04-23T15:59:01.009Z</time></trkpt><trkpt lat="43.824455" lon="11.5130833"><ele>277.0</ele><time>2026-04-23T15:59:02.01Z</time></trkpt><trkpt lat="43.8245017" lon="11.5131683"><ele>277.0</ele><time>2026-04-23T15:59:03.009Z</time></trkpt><trkpt lat="43.82454" lon="11.5132633"><ele>277.0</ele><time>2026-04-23T15:59:04.009Z</time></trkpt><trkpt lat="43.8245683" lon="11.5133667"><ele>277.0</ele><time>2026-04-23T15:59:05.009Z</time></trkpt><trkpt lat="43.82459" lon="11.5134833"><ele>277.0</ele><time>2026-04-23T15:59:06.009Z</time></trkpt><trkpt lat="43.8246017" lon="11.5135917"><ele>277.0</ele><time>2026-04-23T15:59:07.009Z</time></trkpt><trkpt lat="43.8246167" lon="11.513695"><ele>277.0</ele><time>2026-04-23T15:59:08.009Z</time></trkpt><trkpt lat="43.8246367" lon="11.5137867"><ele>277.0</ele><time>2026-04-23T15:59:09.01Z</time></trkpt><trkpt lat="43.8246833" lon="11.51393"><ele>277.0</ele><time>2026-04-23T15:59:11.009Z</time></trkpt><trkpt lat="43.8247483" lon="11.5139183"><ele>277.0</ele><time>2026-04-23T15:59:12.009Z</time></trkpt><trkpt lat="43.8248633" lon="11.5139367"><ele>277.0</ele><time>2026-04-23T15:59:14.009Z</time></trkpt><trkpt lat="43.82493" lon="11.5139483"><ele>276.0</ele><time>2026-04-23T15:59:15.01Z</time></trkpt><trkpt lat="43.8250067" lon="11.513955"><ele>275.0</ele><time>2026-04-23T15:59:16.01Z</time></trkpt><trkpt lat="43.8250833" lon="11.51396"><ele>274.0</ele><time>2026-04-23T15:59:17.009Z</time></trkpt><trkpt lat="43.8251575" lon="11.5139594"><ele>273.0</ele><time>2026-04-23T15:59:18.01Z</time></trkpt><trkpt lat="43.8252344" lon="11.5139568"><ele>272.0</ele><time>2026-04-23T15:59:19.009Z</time></trkpt><trkpt lat="43.8253169" lon="11.5139589"><ele>271.0</ele><time>2026-04-23T15:59:20.009Z</time></trkpt><trkpt lat="43.8254051" lon="11.513963"><ele>274.0</ele><time>2026-04-23T15:59:21.01Z</time></trkpt><trkpt lat="43.8255001" lon="11.5139685"><ele>277.0</ele><time>2026-04-23T15:59:22.01Z</time></trkpt><trkpt lat="43.8255984" lon="11.513975"><ele>280.0</ele><time>2026-04-23T15:59:23.009Z</time></trkpt><trkpt lat="43.8257018" lon="11.5139835"><ele>283.0</ele><time>2026-04-23T15:59:24.009Z</time></trkpt><trkpt lat="43.8258074" lon="11.5139932"><ele>286.0</ele><time>2026-04-23T15:59:25.01Z</time></trkpt><trkpt lat="43.8259049" lon="11.5140012"><ele>289.6</ele><time>2026-04-23T15:59:26.01Z</time></trkpt><trkpt lat="43.8259904" lon="11.5140083"><ele>293.20000000000005</ele><time>2026-04-23T15:59:27.009Z</time></trkpt><trkpt lat="43.8260596" lon="11.514014"><ele>296.79999999999995</ele><time>2026-04-23T15:59:28.009Z</time></trkpt><trkpt lat="43.8261435" lon="11.514013"><ele>300.4</ele><time>2026-04-23T15:59:30.01Z</time></trkpt><trkpt lat="43.8261786" lon="11.513902"><ele>304.0</ele><time>2026-04-23T15:59:33.01Z</time></trkpt><trkpt lat="43.8261593" lon="11.5137284"><ele>304.0</ele><time>2026-04-23T15:59:35.009Z</time></trkpt><trkpt lat="43.8261361" lon="11.5136074"><ele>304.0</ele><time>2026-04-23T15:59:36.009Z</time></trkpt><trkpt lat="43.8261172" lon="11.5135014"><ele>304.0</ele><time>2026-04-23T15:59:37.009Z</time></trkpt><trkpt lat="43.8260917" lon="11.5133583"><ele>304.0</ele><time>2026-04-23T15:59:38.009Z</time></trkpt><trkpt lat="43.8260717" lon="11.5132617"><ele>304.0</ele><time>2026-04-23T15:59:39.01Z</time></trkpt><trkpt lat="43.825995" lon="11.5131033"><ele>304.0</ele><time>2026-04-23T16:01:02.009Z</time></trkpt><trkpt lat="43.8259967" lon="11.512935"><ele>304.0</ele><time>2026-04-23T16:01:04.009Z</time></trkpt><trkpt lat="43.8259933" lon="11.5127717"><ele>304.0</ele><time>2026-04-23T16:01:06.009Z</time></trkpt><trkpt lat="43.8259517" lon="11.512615"><ele>304.0</ele><time>2026-04-23T16:01:08.009Z</time></trkpt><trkpt lat="43.8259183" lon="11.5124933"><ele>303.16666666666663</ele><time>2026-04-23T16:01:10.01Z</time></trkpt><trkpt lat="43.8259217" lon="11.5123867"><ele>302.3333333333333</ele><time>2026-04-23T16:01:22.01Z</time></trkpt><trkpt lat="43.8260017" lon="11.512365"><ele>301.5</ele><time>2026-04-23T16:01:25.009Z</time></trkpt><trkpt lat="43.8260783" lon="11.512315"><ele>300.6666666666667</ele><time>2026-04-23T16:01:28.009Z</time></trkpt><trkpt lat="43.8261467" lon="11.5122833"><ele>299.83333333333337</ele><time>2026-04-23T16:01:30.009Z</time></trkpt><trkpt lat="43.82622" lon="11.51224"><ele>299.0</ele><time>2026-04-23T16:01:32.009Z</time></trkpt><trkpt lat="43.8263067" lon="11.512225"><ele>299.0</ele><time>2026-04-23T16:01:34.01Z</time></trkpt><trkpt lat="43.8263883" lon="11.5122067"><ele>299.0</ele><time>2026-04-23T16:01:36.009Z</time></trkpt><trkpt lat="43.8264833" lon="11.5122"><ele>299.0</ele><time>2026-04-23T16:01:38.009Z</time></trkpt><trkpt lat="43.8265733" lon="11.5121933"><ele>299.0</ele><time>2026-04-23T16:01:40.01Z</time></trkpt><trkpt lat="43.8266467" lon="11.5121267"><ele>299.0</ele><time>2026-04-23T16:01:43.009Z</time></trkpt><trkpt lat="43.8266983" lon="11.5120383"><ele>299.0</ele><time>2026-04-23T16:01:46.01Z</time></trkpt><trkpt lat="43.8267333" lon="11.5119633"><ele>299.83333333333337</ele><time>2026-04-23T16:01:48.009Z</time></trkpt><trkpt lat="43.8267633" lon="11.511865"><ele>300.6666666666667</ele><time>2026-04-23T16:01:50.009Z</time></trkpt><trkpt lat="43.8268067" lon="11.511775"><ele>301.5</ele><time>2026-04-23T16:01:52.009Z</time></trkpt><trkpt lat="43.8268289" lon="11.5116754"><ele>302.3333333333333</ele><time>2026-04-23T16:01:56.043Z</time></trkpt><trkpt lat="43.82686" lon="11.5115944"><ele>303.16666666666663</ele><time>2026-04-23T16:01:58.048Z</time></trkpt><trkpt lat="43.826875" lon="11.5116867"><ele>304.0</ele><time>2026-04-23T16:07:32.009Z</time></trkpt><trkpt lat="43.8268283" lon="11.5117883"><ele>303.0</ele><time>2026-04-23T16:07:34.009Z</time></trkpt><trkpt lat="43.826765" lon="11.5119217"><ele>302.0</ele><time>2026-04-23T16:07:36.01Z</time></trkpt><trkpt lat="43.8266983" lon="11.5120433"><ele>301.0</ele><time>2026-04-23T16:07:38.01Z</time></trkpt><trkpt lat="43.8266467" lon="11.5121167"><ele>300.0</ele><time>2026-04-23T16:07:40.01Z</time></trkpt><trkpt lat="43.82659" lon="11.5121617"><ele>299.0</ele><time>2026-04-23T16:07:42.01Z</time></trkpt><trkpt lat="43.82649" lon="11.5121733"><ele>299.0</ele><time>2026-04-23T16:07:44.009Z</time></trkpt><trkpt lat="43.82642" lon="11.512185"><ele>299.0</ele><time>2026-04-23T16:07:45.009Z</time></trkpt><trkpt lat="43.8263467" lon="11.5122083"><ele>299.0</ele><time>2026-04-23T16:07:46.009Z</time></trkpt><trkpt lat="43.8262717" lon="11.5122267"><ele>299.0</ele><time>2026-04-23T16:07:47.01Z</time></trkpt><trkpt lat="43.8261583" lon="11.5122717"><ele>299.0</ele><time>2026-04-23T16:07:49.009Z</time></trkpt><trkpt lat="43.8260933" lon="11.512305"><ele>299.0</ele><time>2026-04-23T16:07:50.009Z</time></trkpt><trkpt lat="43.82604" lon="11.5123567"><ele>299.0</ele><time>2026-04-23T16:07:51.009Z</time></trkpt><trkpt lat="43.8259633" lon="11.5123867"><ele>299.0</ele><time>2026-04-23T16:07:53.009Z</time></trkpt><trkpt lat="43.8259017" lon="11.512405"><ele>299.0</ele><time>2026-04-23T16:07:55.01Z</time></trkpt><trkpt lat="43.8258767" lon="11.5124917"><ele>299.0</ele><time>2026-04-23T16:07:58.009Z</time></trkpt><trkpt lat="43.8259233" lon="11.5126183"><ele>299.0</ele><time>2026-04-23T16:08:00.009Z</time></trkpt><trkpt lat="43.8259783" lon="11.5127617"><ele>299.0</ele><time>2026-04-23T16:08:02.01Z</time></trkpt><trkpt lat="43.8260167" lon="11.512905"><ele>300.0</ele><time>2026-04-23T16:08:04.009Z</time></trkpt><trkpt lat="43.8260283" lon="11.5130533"><ele>301.0</ele><time>2026-04-23T16:08:06.01Z</time></trkpt><trkpt lat="43.826055" lon="11.5132217"><ele>302.0</ele><time>2026-04-23T16:08:08.009Z</time></trkpt><trkpt lat="43.8260683" lon="11.5133233"><ele>303.0</ele><time>2026-04-23T16:08:09.009Z</time></trkpt><trkpt lat="43.826085" lon="11.51342"><ele>304.0</ele><time>2026-04-23T16:08:10.01Z</time></trkpt><trkpt lat="43.826115" lon="11.51358"><ele>304.0</ele><time>2026-04-23T16:08:12.009Z</time></trkpt><trkpt lat="43.8261483" lon="11.5137383"><ele>304.0</ele><time>2026-04-23T16:08:14.01Z</time></trkpt><trkpt lat="43.82618" lon="11.5138833"><ele>304.0</ele><time>2026-04-23T16:08:16.01Z</time></trkpt><trkpt lat="43.826185" lon="11.5139867"><ele>304.0</ele><time>2026-04-23T16:08:18.01Z</time></trkpt><trkpt lat="43.8261267" lon="11.5140417"><ele>304.0</ele><time>2026-04-23T16:08:21.009Z</time></trkpt><trkpt lat="43.8260217" lon="11.5140283"><ele>300.4</ele><time>2026-04-23T16:08:24.009Z</time></trkpt><trkpt lat="43.8258967" lon="11.5140333"><ele>296.79999999999995</ele><time>2026-04-23T16:08:26.009Z</time></trkpt><trkpt lat="43.8258283" lon="11.5140367"><ele>293.20000000000005</ele><time>2026-04-23T16:08:27.009Z</time></trkpt><trkpt lat="43.8257617" lon="11.5140333"><ele>289.6</ele><time>2026-04-23T16:08:28.009Z</time></trkpt><trkpt lat="43.82569" lon="11.514035"><ele>286.0</ele><time>2026-04-23T16:08:29.01Z</time></trkpt><trkpt lat="43.8255617" lon="11.514025"><ele>286.0</ele><time>2026-04-23T16:08:31.009Z</time></trkpt><trkpt lat="43.82549" lon="11.5140233"><ele>286.0</ele><time>2026-04-23T16:08:32.009Z</time></trkpt><trkpt lat="43.825415" lon="11.51402"><ele>286.0</ele><time>2026-04-23T16:08:33.009Z</time></trkpt><trkpt lat="43.8253417" lon="11.514025"><ele>286.0</ele><time>2026-04-23T16:08:34.009Z</time></trkpt><trkpt lat="43.82526" lon="11.5140317"><ele>286.0</ele><time>2026-04-23T16:08:35.009Z</time></trkpt><trkpt lat="43.82517" lon="11.5140317"><ele>286.0</ele><time>2026-04-23T16:08:36.009Z</time></trkpt><trkpt lat="43.82509" lon="11.5140333"><ele>283.5</ele><time>2026-04-23T16:08:37.01Z</time></trkpt><trkpt lat="43.8250167" lon="11.5140317"><ele>281.0</ele><time>2026-04-23T16:08:38.009Z</time></trkpt><trkpt lat="43.8249517" lon="11.5140317"><ele>278.5</ele><time>2026-04-23T16:08:39.009Z</time></trkpt><trkpt lat="43.8248517" lon="11.5140433"><ele>276.0</ele><time>2026-04-23T16:08:41.009Z</time></trkpt><trkpt lat="43.8247533" lon="11.5140217"><ele>273.5</ele><time>2026-04-23T16:08:43.009Z</time></trkpt><trkpt lat="43.8246717" lon="11.513945"><ele>271.0</ele><time>2026-04-23T16:08:45.009Z</time></trkpt><trkpt lat="43.82461" lon="11.5138533"><ele>272.0</ele><time>2026-04-23T16:08:47.01Z</time></trkpt><trkpt lat="43.824565" lon="11.5137133"><ele>273.0</ele><time>2026-04-23T16:08:49.009Z</time></trkpt><trkpt lat="43.824545" lon="11.5136233"><ele>274.0</ele><time>2026-04-23T16:08:50.009Z</time></trkpt><trkpt lat="43.824525" lon="11.5135267"><ele>275.0</ele><time>2026-04-23T16:08:51.009Z</time></trkpt><trkpt lat="43.824505" lon="11.5134167"><ele>276.0</ele><time>2026-04-23T16:08:52.009Z</time></trkpt><trkpt lat="43.8244833" lon="11.5133083"><ele>277.0</ele><time>2026-04-23T16:08:53.009Z</time></trkpt><trkpt lat="43.8244517" lon="11.5132133"><ele>277.0</ele><time>2026-04-23T16:08:54.01Z</time></trkpt><trkpt lat="43.8244167" lon="11.51312"><ele>277.0</ele><time>2026-04-23T16:08:55.01Z</time></trkpt><trkpt lat="43.82437" lon="11.5130267"><ele>277.0</ele><time>2026-04-23T16:08:56.009Z</time></trkpt><trkpt lat="43.8243267" lon="11.5129467"><ele>277.0</ele><time>2026-04-23T16:08:57.01Z</time></trkpt><trkpt lat="43.8242667" lon="11.5128317"><ele>277.0</ele><time>2026-04-23T16:08:59.009Z</time></trkpt><trkpt lat="43.82426" lon="11.512685"><ele>277.0</ele><time>2026-04-23T16:09:01.009Z</time></trkpt><trkpt lat="43.82427" lon="11.512535"><ele>277.3333333333333</ele><time>2026-04-23T16:09:03.009Z</time></trkpt><trkpt lat="43.8242967" lon="11.5123917"><ele>277.66666666666663</ele><time>2026-04-23T16:09:05.009Z</time></trkpt><trkpt lat="43.8243217" lon="11.5122417"><ele>278.0</ele><time>2026-04-23T16:09:07.009Z</time></trkpt><trkpt lat="43.82432" lon="11.5121533"><ele>278.3333333333333</ele><time>2026-04-23T16:09:08.009Z</time></trkpt><trkpt lat="43.8243183" lon="11.5120617"><ele>278.6666666666667</ele><time>2026-04-23T16:09:09.01Z</time></trkpt><trkpt lat="43.82431" lon="11.51196"><ele>279.0</ele><time>2026-04-23T16:09:10.009Z</time></trkpt><trkpt lat="43.8243033" lon="11.511855"><ele>279.0</ele><time>2026-04-23T16:09:11.009Z</time></trkpt><trkpt lat="43.824305" lon="11.511745"><ele>279.0</ele><time>2026-04-23T16:09:12.009Z</time></trkpt><trkpt lat="43.8243117" lon="11.5116367"><ele>279.0</ele><time>2026-04-23T16:09:13.009Z</time></trkpt><trkpt lat="43.82432" lon="11.51153"><ele>279.0</ele><time>2026-04-23T16:09:14.009Z</time></trkpt><trkpt lat="43.82434" lon="11.511425"><ele>279.0</ele><time>2026-04-23T16:09:15.009Z</time></trkpt><trkpt lat="43.8243483" lon="11.51132"><ele>279.0</ele><time>2026-04-23T16:09:16.009Z</time></trkpt><trkpt lat="43.824355" lon="11.5112167"><ele>278.2857142857143</ele><time>2026-04-23T16:09:17.01Z</time></trkpt><trkpt lat="43.8243583" lon="11.5111217"><ele>277.57142857142856</ele><time>2026-04-23T16:09:18.009Z</time></trkpt><trkpt lat="43.824355" lon="11.5110283"><ele>276.8571428571429</ele><time>2026-04-23T16:09:19.009Z</time></trkpt><trkpt lat="43.8243483" lon="11.510925"><ele>276.1428571428571</ele><time>2026-04-23T16:09:20.01Z</time></trkpt><trkpt lat="43.8243467" lon="11.5108217"><ele>275.42857142857144</ele><time>2026-04-23T16:09:21.009Z</time></trkpt><trkpt lat="43.8243383" lon="11.510725"><ele>274.7142857142857</ele><time>2026-04-23T16:09:22.009Z</time></trkpt><trkpt lat="43.8243417" lon="11.51062"><ele>274.0</ele><time>2026-04-23T16:09:23.01Z</time></trkpt><trkpt lat="43.8243483" lon="11.5105"><ele>271.28571428571433</ele><time>2026-04-23T16:09:24.01Z</time></trkpt><trkpt lat="43.8243583" lon="11.5103883"><ele>268.57142857142856</ele><time>2026-04-23T16:09:25.009Z</time></trkpt><trkpt lat="43.8243683" lon="11.51029"><ele>265.8571428571429</ele><time>2026-04-23T16:09:26.009Z</time></trkpt><trkpt lat="43.8243783" lon="11.5101917"><ele>263.14285714285717</ele><time>2026-04-23T16:09:27.009Z</time></trkpt><trkpt lat="43.82438" lon="11.5100883"><ele>260.42857142857144</ele><time>2026-04-23T16:09:28.01Z</time></trkpt><trkpt lat="43.82439" lon="11.5099917"><ele>257.7142857142857</ele><time>2026-04-23T16:09:29.009Z</time></trkpt><trkpt lat="43.8243983" lon="11.5099"><ele>255.0</ele><time>2026-04-23T16:09:30.009Z</time></trkpt><trkpt lat="43.82441" lon="11.5098033"><ele>255.0</ele><time>2026-04-23T16:09:31.009Z</time></trkpt><trkpt lat="43.82443" lon="11.5097083"><ele>255.00000000000003</ele><time>2026-04-23T16:09:32.009Z</time></trkpt><trkpt lat="43.8244467" lon="11.509615"><ele>255.0</ele><time>2026-04-23T16:09:33.009Z</time></trkpt><trkpt lat="43.8244633" lon="11.5095283"><ele>255.0</ele><time>2026-04-23T16:09:34.01Z</time></trkpt><trkpt lat="43.824485" lon="11.5094383"><ele>255.00000000000003</ele><time>2026-04-23T16:09:35.009Z</time></trkpt><trkpt lat="43.82451" lon="11.50935"><ele>255.0</ele><time>2026-04-23T16:09:36.009Z</time></trkpt><trkpt lat="43.8245333" lon="11.5092633"><ele>255.0</ele><time>2026-04-23T16:09:37.009Z</time></trkpt><trkpt lat="43.8245633" lon="11.5091733"><ele>250.0</ele><time>2026-04-23T16:09:38.01Z</time></trkpt><trkpt lat="43.824595" lon="11.509085"><ele>245.0</ele><time>2026-04-23T16:09:39.009Z</time></trkpt><trkpt lat="43.82464" lon="11.508985"><ele>240.0</ele><time>2026-04-23T16:09:40.009Z</time></trkpt><trkpt lat="43.82468" lon="11.5088883"><ele>235.0</ele><time>2026-04-23T16:09:41.009Z</time></trkpt><trkpt lat="43.8247233" lon="11.508795"><ele>230.0</ele><time>2026-04-23T16:09:42.009Z</time></trkpt><trkpt lat="43.82476" lon="11.5087083"><ele>225.0</ele><time>2026-04-23T16:09:43.01Z</time></trkpt><trkpt lat="43.8247867" lon="11.5086283"><ele>220.5</ele><time>2026-04-23T16:09:44.01Z</time></trkpt><trkpt lat="43.8248183" lon="11.508485"><ele>216.0</ele><time>2026-04-23T16:09:46.009Z</time></trkpt><trkpt lat="43.8248817" lon="11.50836"><ele>211.5</ele><time>2026-04-23T16:09:48.009Z</time></trkpt><trkpt lat="43.8249317" lon="11.5083"><ele>207.0</ele><time>2026-04-23T16:09:49.009Z</time></trkpt><trkpt lat="43.8249917" lon="11.5082567"><ele>202.5</ele><time>2026-04-23T16:09:50.01Z</time></trkpt><trkpt lat="43.825055" lon="11.5082167"><ele>198.0</ele><time>2026-04-23T16:09:51.009Z</time></trkpt><trkpt lat="43.825115" lon="11.5081783"><ele>198.0</ele><time>2026-04-23T16:09:52.009Z</time></trkpt><trkpt lat="43.82521" lon="11.5080983"><ele>198.0</ele><time>2026-04-23T16:09:54.009Z</time></trkpt><trkpt lat="43.82528" lon="11.5079667"><ele>198.0</ele><time>2026-04-23T16:09:56.009Z</time></trkpt><trkpt lat="43.8253" lon="11.5078833"><ele>198.0</ele><time>2026-04-23T16:09:57.01Z</time></trkpt><trkpt lat="43.8253183" lon="11.5077917"><ele>198.0</ele><time>2026-04-23T16:09:58.009Z</time></trkpt><trkpt lat="43.82534" lon="11.5077017"><ele>198.0</ele><time>2026-04-23T16:09:59.01Z</time></trkpt><trkpt lat="43.8253633" lon="11.5076133"><ele>198.0</ele><time>2026-04-23T16:10:00.01Z</time></trkpt><trkpt lat="43.8254" lon="11.5075233"><ele>198.0</ele><time>2026-04-23T16:10:01.01Z</time></trkpt><trkpt lat="43.8254483" lon="11.5074333"><ele>198.0</ele><time>2026-04-23T16:10:02.009Z</time></trkpt><trkpt lat="43.825495" lon="11.50734"><ele>198.0</ele><time>2026-04-23T16:10:03.009Z</time></trkpt><trkpt lat="43.8255367" lon="11.507255"><ele>198.0</ele><time>2026-04-23T16:10:04.01Z</time></trkpt><trkpt lat="43.8255783" lon="11.5071683"><ele>198.0</ele><time>2026-04-23T16:10:05.01Z</time></trkpt><trkpt lat="43.8256217" lon="11.5070083"><ele>195.5</ele><time>2026-04-23T16:10:07.009Z</time></trkpt><trkpt lat="43.8256583" lon="11.5068567"><ele>193.0</ele><time>2026-04-23T16:10:09.01Z</time></trkpt><trkpt lat="43.825695" lon="11.5066983"><ele>190.5</ele><time>2026-04-23T16:10:11.009Z</time></trkpt><trkpt lat="43.8257317" lon="11.50654"><ele>188.0</ele><time>2026-04-23T16:10:13.01Z</time></trkpt><trkpt lat="43.82576" lon="11.5064067"><ele>188.0</ele><time>2026-04-23T16:10:15.009Z</time></trkpt><trkpt lat="43.8257583" lon="11.5063067"><ele>188.0</ele><time>2026-04-23T16:10:17.009Z</time></trkpt><trkpt lat="43.8257" lon="11.5062217"><ele>188.0</ele><time>2026-04-23T16:10:19.01Z</time></trkpt><trkpt lat="43.82561" lon="11.5061617"><ele>188.0</ele><time>2026-04-23T16:10:21.009Z</time></trkpt><trkpt lat="43.8254817" lon="11.5061333"><ele>188.0</ele><time>2026-04-23T16:10:23.009Z</time></trkpt><trkpt lat="43.825395" lon="11.50612"><ele>186.5</ele><time>2026-04-23T16:10:24.009Z</time></trkpt><trkpt lat="43.8253117" lon="11.5060967"><ele>185.0</ele><time>2026-04-23T16:10:25.009Z</time></trkpt><trkpt lat="43.8252383" lon="11.5060633"><ele>183.5</ele><time>2026-04-23T16:10:26.01Z</time></trkpt><trkpt lat="43.8251383" lon="11.5059967"><ele>182.0</ele><time>2026-04-23T16:10:28.009Z</time></trkpt><trkpt lat="43.8250967" lon="11.50592"><ele>180.5</ele><time>2026-04-23T16:10:31.009Z</time></trkpt><trkpt lat="43.8251233" lon="11.505835"><ele>179.0</ele><time>2026-04-23T16:10:33.009Z</time></trkpt><trkpt lat="43.8251583" lon="11.5057517"><ele>179.0</ele><time>2026-04-23T16:10:34.009Z</time></trkpt><trkpt lat="43.825185" lon="11.505635"><ele>179.0</ele><time>2026-04-23T16:10:35.009Z</time></trkpt><trkpt lat="43.8252033" lon="11.50549"><ele>179.0</ele><time>2026-04-23T16:10:36.009Z</time></trkpt><trkpt lat="43.825205" lon="11.50533"><ele>179.0</ele><time>2026-04-23T16:10:37.009Z</time></trkpt><trkpt lat="43.8251783" lon="11.5051533"><ele>179.0</ele><time>2026-04-23T16:10:38.01Z</time></trkpt><trkpt lat="43.8251483" lon="11.5049583"><ele>177.25</ele><time>2026-04-23T16:10:39.01Z</time></trkpt><trkpt lat="43.82511" lon="11.504775"><ele>175.5</ele><time>2026-04-23T16:10:40.01Z</time></trkpt><trkpt lat="43.8250617" lon="11.5045783"><ele>173.75</ele><time>2026-04-23T16:10:41.009Z</time></trkpt><trkpt lat="43.825015" lon="11.5043817"><ele>172.0</ele><time>2026-04-23T16:10:42.009Z</time></trkpt><trkpt lat="43.8249667" lon="11.50419"><ele>172.0</ele><time>2026-04-23T16:10:43.009Z</time></trkpt><trkpt lat="43.8249183" lon="11.504005"><ele>172.0</ele><time>2026-04-23T16:10:44.009Z</time></trkpt><trkpt lat="43.8248667" lon="11.5038383"><ele>172.0</ele><time>2026-04-23T16:10:45.009Z</time></trkpt><trkpt lat="43.8248067" lon="11.5036683"><ele>172.0</ele><time>2026-04-23T16:10:46.009Z</time></trkpt><trkpt lat="43.8247317" lon="11.5035083"><ele>174.25</ele><time>2026-04-23T16:10:47.009Z</time></trkpt><trkpt lat="43.8246367" lon="11.5033683"><ele>176.5</ele><time>2026-04-23T16:10:48.01Z</time></trkpt><trkpt lat="43.8245217" lon="11.5032467"><ele>178.75</ele><time>2026-04-23T16:10:49.01Z</time></trkpt><trkpt lat="43.8243967" lon="11.50313"><ele>181.0</ele><time>2026-04-23T16:10:50.009Z</time></trkpt><trkpt lat="43.8242667" lon="11.503025"><ele>177.75</ele><time>2026-04-23T16:10:51.009Z</time></trkpt><trkpt lat="43.8241383" lon="11.5029183"><ele>174.5</ele><time>2026-04-23T16:10:52.01Z</time></trkpt><trkpt lat="43.824005" lon="11.5028183"><ele>171.25</ele><time>2026-04-23T16:10:53.009Z</time></trkpt><trkpt lat="43.8238733" lon="11.5027267"><ele>168.0</ele><time>2026-04-23T16:10:54.009Z</time></trkpt><trkpt lat="43.8237483" lon="11.5026333"><ele>168.0</ele><time>2026-04-23T16:10:55.01Z</time></trkpt><trkpt lat="43.8236383" lon="11.5025583"><ele>168.0</ele><time>2026-04-23T16:10:56.01Z</time></trkpt><trkpt lat="43.823515" lon="11.5024733"><ele>168.0</ele><time>2026-04-23T16:10:57.009Z</time></trkpt><trkpt lat="43.8233967" lon="11.5023867"><ele>168.0</ele><time>2026-04-23T16:10:58.009Z</time></trkpt><trkpt lat="43.8232933" lon="11.502305"><ele>166.25</ele><time>2026-04-23T16:10:59.009Z</time></trkpt><trkpt lat="43.823205" lon="11.5022017"><ele>164.5</ele><time>2026-04-23T16:11:00.009Z</time></trkpt><trkpt lat="43.82313" lon="11.5020733"><ele>162.75</ele><time>2026-04-23T16:11:01.009Z</time></trkpt><trkpt lat="43.82306" lon="11.501925"><ele>161.0</ele><time>2026-04-23T16:11:02.009Z</time></trkpt><trkpt lat="43.823" lon="11.501775"><ele>161.0</ele><time>2026-04-23T16:11:03.009Z</time></trkpt><trkpt lat="43.8229567" lon="11.5016233"><ele>161.0</ele><time>2026-04-23T16:11:04.009Z</time></trkpt><trkpt lat="43.8229233" lon="11.5014583"><ele>161.0</ele><time>2026-04-23T16:11:05.009Z</time></trkpt><trkpt lat="43.8229" lon="11.5012883"><ele>161.0</ele><time>2026-04-23T16:11:06.009Z</time></trkpt><trkpt lat="43.8228817" lon="11.5011"><ele>163.25</ele><time>2026-04-23T16:11:07.009Z</time></trkpt><trkpt lat="43.82287" lon="11.5009133"><ele>165.5</ele><time>2026-04-23T16:11:08.01Z</time></trkpt><trkpt lat="43.82286" lon="11.500735"><ele>167.75</ele><time>2026-04-23T16:11:09.009Z</time></trkpt><trkpt lat="43.8228567" lon="11.5005533"><ele>170.0</ele><time>2026-04-23T16:11:10.009Z</time></trkpt><trkpt lat="43.8228467" lon="11.5003767"><ele>167.5</ele><time>2026-04-23T16:11:11.01Z</time></trkpt><trkpt lat="43.82284" lon="11.5002133"><ele>165.0</ele><time>2026-04-23T16:11:12.009Z</time></trkpt><trkpt lat="43.8228" lon="11.5000617"><ele>162.5</ele><time>2026-04-23T16:11:13.009Z</time></trkpt><trkpt lat="43.8227333" lon="11.49991"><ele>160.0</ele><time>2026-04-23T16:11:14.009Z</time></trkpt><trkpt lat="43.8226387" lon="11.4997777"><ele>160.0</ele><time>2026-04-23T16:11:15.01Z</time></trkpt><trkpt lat="43.8225337" lon="11.4996707"><ele>160.0</ele><time>2026-04-23T16:11:16.01Z</time></trkpt><trkpt lat="43.8224161" lon="11.4995876"><ele>160.0</ele><time>2026-04-23T16:11:17.01Z</time></trkpt><trkpt lat="43.8222971" lon="11.4995188"><ele>160.0</ele><time>2026-04-23T16:11:18.009Z</time></trkpt><trkpt lat="43.8221853" lon="11.4994527"><ele>163.4</ele><time>2026-04-23T16:11:19.009Z</time></trkpt><trkpt lat="43.8220868" lon="11.4993754"><ele>166.8</ele><time>2026-04-23T16:11:20.009Z</time></trkpt><trkpt lat="43.8220105" lon="11.4992772"><ele>170.2</ele><time>2026-04-23T16:11:21.01Z</time></trkpt><trkpt lat="43.8219497" lon="11.4991695"><ele>173.6</ele><time>2026-04-23T16:11:22.009Z</time></trkpt><trkpt lat="43.8219043" lon="11.4990334"><ele>177.0</ele><time>2026-04-23T16:11:23.009Z</time></trkpt><trkpt lat="43.821865" lon="11.4988849"><ele>179.39999999999998</ele><time>2026-04-23T16:11:24.009Z</time></trkpt><trkpt lat="43.8218321" lon="11.4987408"><ele>181.79999999999998</ele><time>2026-04-23T16:11:25.009Z</time></trkpt><trkpt lat="43.8218036" lon="11.4986078"><ele>184.2</ele><time>2026-04-23T16:11:26.01Z</time></trkpt><trkpt lat="43.8217767" lon="11.4984882"><ele>186.6</ele><time>2026-04-23T16:11:27.009Z</time></trkpt><trkpt lat="43.8217464" lon="11.4983688"><ele>189.0</ele><time>2026-04-23T16:11:28.009Z</time></trkpt><trkpt lat="43.8217123" lon="11.4982395"><ele>181.6</ele><time>2026-04-23T16:11:29.009Z</time></trkpt><trkpt lat="43.8216739" lon="11.4981005"><ele>174.2</ele><time>2026-04-23T16:11:30.01Z</time></trkpt><trkpt lat="43.8216364" lon="11.4979625"><ele>166.79999999999998</ele><time>2026-04-23T16:11:31.009Z</time></trkpt><trkpt lat="43.8216043" lon="11.4978305"><ele>159.39999999999998</ele><time>2026-04-23T16:11:32.009Z</time></trkpt><trkpt lat="43.8215819" lon="11.4977055"><ele>152.0</ele><time>2026-04-23T16:11:33.009Z</time></trkpt><trkpt lat="43.8215825" lon="11.4975611"><ele>151.25</ele><time>2026-04-23T16:11:34.009Z</time></trkpt><trkpt lat="43.8216062" lon="11.4974153"><ele>150.5</ele><time>2026-04-23T16:11:35.009Z</time></trkpt><trkpt lat="43.8216611" lon="11.4972763"><ele>149.75</ele><time>2026-04-23T16:11:36.009Z</time></trkpt><trkpt lat="43.8217283" lon="11.497143"><ele>149.0</ele><time>2026-04-23T16:11:37.009Z</time></trkpt><trkpt lat="43.8218139" lon="11.4970197"><ele>154.2</ele><time>2026-04-23T16:11:38.009Z</time></trkpt><trkpt lat="43.821896" lon="11.4968959"><ele>159.4</ele><time>2026-04-23T16:11:39.009Z</time></trkpt><trkpt lat="43.821962" lon="11.4967677"><ele>164.6</ele><time>2026-04-23T16:11:40.01Z</time></trkpt><trkpt lat="43.8220101" lon="11.496637"><ele>169.8</ele><time>2026-04-23T16:11:41.01Z</time></trkpt><trkpt lat="43.8220387" lon="11.4964968"><ele>175.0</ele><time>2026-04-23T16:11:42.009Z</time></trkpt><trkpt lat="43.8220391" lon="11.4963399"><ele>170.0</ele><time>2026-04-23T16:11:43.009Z</time></trkpt><trkpt lat="43.8220249" lon="11.4961752"><ele>165.0</ele><time>2026-04-23T16:11:44.009Z</time></trkpt><trkpt lat="43.821988" lon="11.4960079"><ele>160.0</ele><time>2026-04-23T16:11:45.009Z</time></trkpt><trkpt lat="43.8219454" lon="11.4958342"><ele>155.0</ele><time>2026-04-23T16:11:46.009Z</time></trkpt><trkpt lat="43.8219079" lon="11.4956585"><ele>155.0</ele><time>2026-04-23T16:11:47.009Z</time></trkpt><trkpt lat="43.8218714" lon="11.4954946"><ele>155.0</ele><time>2026-04-23T16:11:48.009Z</time></trkpt><trkpt lat="43.8218363" lon="11.4953348"><ele>155.0</ele><time>2026-04-23T16:11:49.009Z</time></trkpt><trkpt lat="43.8218004" lon="11.4951834"><ele>155.0</ele><time>2026-04-23T16:11:50.01Z</time></trkpt><trkpt lat="43.8217723" lon="11.4950405"><ele>153.2</ele><time>2026-04-23T16:11:51.009Z</time></trkpt><trkpt lat="43.8217564" lon="11.4948992"><ele>151.4</ele><time>2026-04-23T16:11:52.01Z</time></trkpt><trkpt lat="43.8217562" lon="11.4947585"><ele>149.6</ele><time>2026-04-23T16:11:53.009Z</time></trkpt><trkpt lat="43.8217896" lon="11.4946143"><ele>147.8</ele><time>2026-04-23T16:11:54.009Z</time></trkpt><trkpt lat="43.8218351" lon="11.494466"><ele>146.0</ele><time>2026-04-23T16:11:55.009Z</time></trkpt><trkpt lat="43.8219004" lon="11.4943145"><ele>146.0</ele><time>2026-04-23T16:11:56.009Z</time></trkpt><trkpt lat="43.8219714" lon="11.4941605"><ele>146.0</ele><time>2026-04-23T16:11:57.009Z</time></trkpt><trkpt lat="43.8220428" lon="11.4940056"><ele>146.0</ele><time>2026-04-23T16:11:58.009Z</time></trkpt><trkpt lat="43.8221128" lon="11.4938491"><ele>146.0</ele><time>2026-04-23T16:11:59.009Z</time></trkpt><trkpt lat="43.8221796" lon="11.4936926"><ele>143.25</ele><time>2026-04-23T16:12:00.009Z</time></trkpt><trkpt lat="43.8222422" lon="11.4935416"><ele>140.5</ele><time>2026-04-23T16:12:01.009Z</time></trkpt><trkpt lat="43.8223013" lon="11.4933991"><ele>137.75</ele><time>2026-04-23T16:12:02.009Z</time></trkpt><trkpt lat="43.8223567" lon="11.493267"><ele>135.0</ele><time>2026-04-23T16:12:03.009Z</time></trkpt><trkpt lat="43.822412" lon="11.4931412"><ele>135.0</ele><time>2026-04-23T16:12:04.009Z</time></trkpt><trkpt lat="43.8224687" lon="11.4930182"><ele>135.0</ele><time>2026-04-23T16:12:05.009Z</time></trkpt><trkpt lat="43.822536" lon="11.4929006"><ele>135.0</ele><time>2026-04-23T16:12:06.009Z</time></trkpt><trkpt lat="43.8226139" lon="11.4927874"><ele>135.0</ele><time>2026-04-23T16:12:07.01Z</time></trkpt><trkpt lat="43.8226992" lon="11.4926717"><ele>135.0</ele><time>2026-04-23T16:12:08.009Z</time></trkpt><trkpt lat="43.8227883" lon="11.4925554"><ele>132.75</ele><time>2026-04-23T16:12:09.009Z</time></trkpt><trkpt lat="43.8228811" lon="11.4924437"><ele>130.5</ele><time>2026-04-23T16:12:10.009Z</time></trkpt><trkpt lat="43.8229863" lon="11.492346"><ele>128.25</ele><time>2026-04-23T16:12:11.009Z</time></trkpt><trkpt lat="43.8230992" lon="11.4922588"><ele>126.0</ele><time>2026-04-23T16:12:12.009Z</time></trkpt><trkpt lat="43.8232234" lon="11.4921836"><ele>126.0</ele><time>2026-04-23T16:12:13.009Z</time></trkpt><trkpt lat="43.8233541" lon="11.4921164"><ele>126.0</ele><time>2026-04-23T16:12:14.009Z</time></trkpt><trkpt lat="43.8234863" lon="11.4920523"><ele>126.0</ele><time>2026-04-23T16:12:15.009Z</time></trkpt><trkpt lat="43.8236182" lon="11.4919899"><ele>126.0</ele><time>2026-04-23T16:12:16.009Z</time></trkpt><trkpt lat="43.8237509" lon="11.4919235"><ele>125.75</ele><time>2026-04-23T16:12:17.009Z</time></trkpt><trkpt lat="43.8238808" lon="11.4918574"><ele>125.5</ele><time>2026-04-23T16:12:18.01Z</time></trkpt><trkpt lat="43.8240044" lon="11.4917883"><ele>125.25</ele><time>2026-04-23T16:12:19.009Z</time></trkpt><trkpt lat="43.8241241" lon="11.4917209"><ele>125.0</ele><time>2026-04-23T16:12:20.009Z</time></trkpt><trkpt lat="43.8242367" lon="11.4916558"><ele>124.6</ele><time>2026-04-23T16:12:21.009Z</time></trkpt><trkpt lat="43.8243414" lon="11.4916048"><ele>124.2</ele><time>2026-04-23T16:12:22.01Z</time></trkpt><trkpt lat="43.8244412" lon="11.4915675"><ele>123.80000000000001</ele><time>2026-04-23T16:12:23.01Z</time></trkpt><trkpt lat="43.8245443" lon="11.4915433"><ele>123.4</ele><time>2026-04-23T16:12:24.01Z</time></trkpt><trkpt lat="43.8246526" lon="11.4915281"><ele>123.0</ele><time>2026-04-23T16:12:25.01Z</time></trkpt><trkpt lat="43.8247643" lon="11.4915198"><ele>123.0</ele><time>2026-04-23T16:12:26.011Z</time></trkpt><trkpt lat="43.8248673" lon="11.4915132"><ele>123.0</ele><time>2026-04-23T16:12:27.011Z</time></trkpt><trkpt lat="43.8249547" lon="11.4915062"><ele>123.0</ele><time>2026-04-23T16:12:28.01Z</time></trkpt><trkpt lat="43.8250255" lon="11.4915035"><ele>123.0</ele><time>2026-04-23T16:12:29.01Z</time></trkpt><trkpt lat="43.8251215" lon="11.4915061"><ele>123.0</ele><time>2026-04-23T16:12:31.01Z</time></trkpt><trkpt lat="43.8251984" lon="11.4914934"><ele>123.0</ele><time>2026-04-23T16:12:35.01Z</time></trkpt><trkpt lat="43.8252737" lon="11.4914833"><ele>122.80000000000001</ele><time>2026-04-23T16:12:37.01Z</time></trkpt><trkpt lat="43.8253787" lon="11.4914706"><ele>122.60000000000001</ele><time>2026-04-23T16:12:39.011Z</time></trkpt><trkpt lat="43.8254828" lon="11.4914382"><ele>122.39999999999999</ele><time>2026-04-23T16:12:41.01Z</time></trkpt><trkpt lat="43.8255665" lon="11.4913459"><ele>122.19999999999999</ele><time>2026-04-23T16:12:43.01Z</time></trkpt><trkpt lat="43.825608" lon="11.4912135"><ele>122.0</ele><time>2026-04-23T16:12:45.01Z</time></trkpt><trkpt lat="43.8256283" lon="11.4911117"><ele>121.83333333333333</ele><time>2026-04-23T16:12:48.011Z</time></trkpt><trkpt lat="43.82565" lon="11.4910233"><ele>121.66666666666666</ele><time>2026-04-23T16:12:52.01Z</time></trkpt><trkpt lat="43.8257133" lon="11.4909317"><ele>121.5</ele><time>2026-04-23T16:13:10.01Z</time></trkpt><trkpt lat="43.8257767" lon="11.4909067"><ele>121.33333333333334</ele><time>2026-04-23T16:13:11.01Z</time></trkpt><trkpt lat="43.82586" lon="11.4908733"><ele>121.16666666666667</ele><time>2026-04-23T16:13:12.01Z</time></trkpt><trkpt lat="43.8259583" lon="11.49084"><ele>121.0</ele><time>2026-04-23T16:13:13.011Z</time></trkpt><trkpt lat="43.8260467" lon="11.4908133"><ele>120.6</ele><time>2026-04-23T16:13:14.01Z</time></trkpt><trkpt lat="43.8261417" lon="11.490785"><ele>120.19999999999999</ele><time>2026-04-23T16:13:15.011Z</time></trkpt><trkpt lat="43.8262317" lon="11.49076"><ele>119.80000000000001</ele><time>2026-04-23T16:13:16.011Z</time></trkpt><trkpt lat="43.826315" lon="11.4907367"><ele>119.4</ele><time>2026-04-23T16:13:17.01Z</time></trkpt><trkpt lat="43.8263783" lon="11.49071"><ele>119.0</ele><time>2026-04-23T16:13:18.01Z</time></trkpt><trkpt lat="43.8264883" lon="11.4906783"><ele>118.99999999999999</ele><time>2026-04-23T16:13:20.01Z</time></trkpt><trkpt lat="43.8265517" lon="11.49067"><ele>119.0</ele><time>2026-04-23T16:13:22.01Z</time></trkpt><trkpt lat="43.8264733" lon="11.4906383"><ele>119.0</ele><time>2026-04-23T16:14:08.011Z</time></trkpt><trkpt lat="43.82656" lon="11.4906017"><ele>119.0</ele><time>2026-04-23T16:14:20.01Z</time></trkpt><trkpt lat="43.8265967" lon="11.4907383"><ele>118.99999999999999</ele><time>2026-04-23T16:14:37.01Z</time></trkpt><trkpt lat="43.8265567" lon="11.4906483"><ele>119.0</ele><time>2026-04-23T16:14:45.01Z</time></trkpt><trkpt lat="43.826595" lon="11.4905767"><ele>119.0</ele><time>2026-04-23T16:15:49.01Z</time></trkpt><trkpt lat="43.8265683" lon="11.4904417"><ele>119.0</ele><time>2026-04-23T16:32:06.013Z</time></trkpt><trkpt lat="43.8265517" lon="11.490535"><ele>119.0</ele><time>2026-04-23T16:32:53.013Z</time></trkpt><trkpt lat="43.82656" lon="11.4906583"><ele>119.0</ele><time>2026-04-23T16:39:49.013Z</time></trkpt><trkpt lat="43.8264367" lon="11.4907167"><ele>119.0</ele><time>2026-04-23T16:39:51.013Z</time></trkpt><trkpt lat="43.8263133" lon="11.4907517"><ele>119.0</ele><time>2026-04-23T16:39:52.013Z</time></trkpt><trkpt lat="43.82616" lon="11.49079"><ele>119.0</ele><time>2026-04-23T16:39:53.013Z</time></trkpt><trkpt lat="43.8260233" lon="11.4908167"><ele>119.0</ele><time>2026-04-23T16:39:54.013Z</time></trkpt><trkpt lat="43.8259167" lon="11.4908467"><ele>119.0</ele><time>2026-04-23T16:39:55.013Z</time></trkpt><trkpt lat="43.8258283" lon="11.4908817"><ele>119.4</ele><time>2026-04-23T16:39:56.013Z</time></trkpt><trkpt lat="43.8257267" lon="11.4908983"><ele>119.80000000000001</ele><time>2026-04-23T16:39:57.013Z</time></trkpt><trkpt lat="43.8256367" lon="11.4909133"><ele>120.19999999999999</ele><time>2026-04-23T16:39:58.013Z</time></trkpt><trkpt lat="43.8255583" lon="11.4908917"><ele>120.6</ele><time>2026-04-23T16:39:59.013Z</time></trkpt><trkpt lat="43.8254783" lon="11.4908533"><ele>121.0</ele><time>2026-04-23T16:40:00.013Z</time></trkpt><trkpt lat="43.825385" lon="11.4908133"><ele>121.0</ele><time>2026-04-23T16:40:02.013Z</time></trkpt><trkpt lat="43.82529" lon="11.4907783"><ele>121.0</ele><time>2026-04-23T16:40:04.013Z</time></trkpt><trkpt lat="43.8252117" lon="11.4907667"><ele>121.0</ele><time>2026-04-23T16:40:05.013Z</time></trkpt><trkpt lat="43.8251083" lon="11.4907567"><ele>121.0</ele><time>2026-04-23T16:40:06.013Z</time></trkpt><trkpt lat="43.8249967" lon="11.49075"><ele>121.0</ele><time>2026-04-23T16:40:07.013Z</time></trkpt><trkpt lat="43.8248733" lon="11.4907517"><ele>122.0</ele><time>2026-04-23T16:40:08.014Z</time></trkpt><trkpt lat="43.82474" lon="11.4907633"><ele>123.0</ele><time>2026-04-23T16:40:09.013Z</time></trkpt><trkpt lat="43.8246133" lon="11.49078"><ele>124.0</ele><time>2026-04-23T16:40:10.013Z</time></trkpt><trkpt lat="43.8244867" lon="11.4908067"><ele>125.0</ele><time>2026-04-23T16:40:11.013Z</time></trkpt><trkpt lat="43.824355" lon="11.4908533"><ele>128.66666666666666</ele><time>2026-04-23T16:40:12.014Z</time></trkpt><trkpt lat="43.8242233" lon="11.4909117"><ele>132.33333333333334</ele><time>2026-04-23T16:40:13.013Z</time></trkpt><trkpt lat="43.8240733" lon="11.49099"><ele>136.0</ele><time>2026-04-23T16:40:14.013Z</time></trkpt><trkpt lat="43.8239217" lon="11.491055"><ele>136.0</ele><time>2026-04-23T16:40:15.014Z</time></trkpt><trkpt lat="43.8237717" lon="11.49112"><ele>136.0</ele><time>2026-04-23T16:40:16.013Z</time></trkpt><trkpt lat="43.8236267" lon="11.491195"><ele>136.0</ele><time>2026-04-23T16:40:17.013Z</time></trkpt><trkpt lat="43.82348" lon="11.491275"><ele>135.66666666666669</ele><time>2026-04-23T16:40:18.013Z</time></trkpt><trkpt lat="43.8233467" lon="11.4913783"><ele>135.33333333333334</ele><time>2026-04-23T16:40:19.013Z</time></trkpt><trkpt lat="43.8232183" lon="11.491495"><ele>135.0</ele><time>2026-04-23T16:40:20.013Z</time></trkpt><trkpt lat="43.823095" lon="11.4916217"><ele>135.0</ele><time>2026-04-23T16:40:21.014Z</time></trkpt><trkpt lat="43.822975" lon="11.491725"><ele>135.0</ele><time>2026-04-23T16:40:22.013Z</time></trkpt><trkpt lat="43.8228683" lon="11.4918067"><ele>135.0</ele><time>2026-04-23T16:40:23.013Z</time></trkpt><trkpt lat="43.8227783" lon="11.4918617"><ele>135.0</ele><time>2026-04-23T16:40:24.013Z</time></trkpt><trkpt lat="43.8227033" lon="11.491895"><ele>135.0</ele><time>2026-04-23T16:40:25.014Z</time></trkpt><trkpt lat="43.82263" lon="11.491895"><ele>135.0</ele><time>2026-04-23T16:40:26.013Z</time></trkpt><trkpt lat="43.8225667" lon="11.4918533"><ele>135.0</ele><time>2026-04-23T16:40:27.013Z</time></trkpt><trkpt lat="43.8225333" lon="11.4917717"><ele>135.0</ele><time>2026-04-23T16:40:28.013Z</time></trkpt><trkpt lat="43.8225817" lon="11.4916017"><ele>135.0</ele><time>2026-04-23T16:40:30.013Z</time></trkpt><trkpt lat="43.822655" lon="11.4915233"><ele>135.0</ele><time>2026-04-23T16:40:31.013Z</time></trkpt><trkpt lat="43.8227533" lon="11.4914683"><ele>135.0</ele><time>2026-04-23T16:40:32.013Z</time></trkpt><trkpt lat="43.822845" lon="11.4914383"><ele>135.0</ele><time>2026-04-23T16:40:33.013Z</time></trkpt><trkpt lat="43.8229233" lon="11.491405"><ele>135.0</ele><time>2026-04-23T16:40:34.013Z</time></trkpt><trkpt lat="43.82299" lon="11.4913583"><ele>135.0</ele><time>2026-04-23T16:40:35.013Z</time></trkpt><trkpt lat="43.823035" lon="11.4912833"><ele>135.0</ele><time>2026-04-23T16:40:36.013Z</time></trkpt><trkpt lat="43.8230517" lon="11.4911917"><ele>135.0</ele><time>2026-04-23T16:40:37.013Z</time></trkpt><trkpt lat="43.8230283" lon="11.491095"><ele>138.4</ele><time>2026-04-23T16:40:38.014Z</time></trkpt><trkpt lat="43.8229783" lon="11.4910267"><ele>141.8</ele><time>2026-04-23T16:40:39.013Z</time></trkpt><trkpt lat="43.8229033" lon="11.4910183"><ele>145.2</ele><time>2026-04-23T16:40:40.013Z</time></trkpt><trkpt lat="43.8228183" lon="11.491065"><ele>148.6</ele><time>2026-04-23T16:40:41.013Z</time></trkpt><trkpt lat="43.8227017" lon="11.491215"><ele>152.0</ele><time>2026-04-23T16:40:42.014Z</time></trkpt><trkpt lat="43.8225933" lon="11.49136"><ele>152.0</ele><time>2026-04-23T16:40:43.014Z</time></trkpt><trkpt lat="43.822495" lon="11.4914867"><ele>152.0</ele><time>2026-04-23T16:40:44.013Z</time></trkpt><trkpt lat="43.822415" lon="11.4916067"><ele>152.0</ele><time>2026-04-23T16:40:45.014Z</time></trkpt><trkpt lat="43.822335" lon="11.49172"><ele>152.0</ele><time>2026-04-23T16:40:46.013Z</time></trkpt><trkpt lat="43.8222483" lon="11.49182"><ele>152.0</ele><time>2026-04-23T16:40:47.014Z</time></trkpt><trkpt lat="43.8221567" lon="11.491915"><ele>152.0</ele><time>2026-04-23T16:40:48.013Z</time></trkpt><trkpt lat="43.8220667" lon="11.49202"><ele>152.0</ele><time>2026-04-23T16:40:49.014Z</time></trkpt><trkpt lat="43.8219867" lon="11.4921083"><ele>152.0</ele><time>2026-04-23T16:40:50.013Z</time></trkpt><trkpt lat="43.8219117" lon="11.4921667"><ele>152.0</ele><time>2026-04-23T16:40:51.013Z</time></trkpt><trkpt lat="43.821835" lon="11.4921867"><ele>152.79999999999998</ele><time>2026-04-23T16:40:52.014Z</time></trkpt><trkpt lat="43.821745" lon="11.492155"><ele>153.6</ele><time>2026-04-23T16:40:53.014Z</time></trkpt><trkpt lat="43.8216383" lon="11.492105"><ele>154.39999999999998</ele><time>2026-04-23T16:40:54.013Z</time></trkpt><trkpt lat="43.8215283" lon="11.492055"><ele>155.2</ele><time>2026-04-23T16:40:55.013Z</time></trkpt><trkpt lat="43.82141" lon="11.492"><ele>156.0</ele><time>2026-04-23T16:40:56.014Z</time></trkpt><trkpt lat="43.8212867" lon="11.4919483"><ele>156.0</ele><time>2026-04-23T16:40:57.013Z</time></trkpt><trkpt lat="43.8211517" lon="11.4918867"><ele>156.0</ele><time>2026-04-23T16:40:58.013Z</time></trkpt><trkpt lat="43.8210067" lon="11.4918367"><ele>156.0</ele><time>2026-04-23T16:40:59.013Z</time></trkpt><trkpt lat="43.8208717" lon="11.491795"><ele>156.0</ele><time>2026-04-23T16:41:00.013Z</time></trkpt><trkpt lat="43.82076" lon="11.4917417"><ele>157.8</ele><time>2026-04-23T16:41:01.013Z</time></trkpt><trkpt lat="43.820665" lon="11.4917"><ele>159.6</ele><time>2026-04-23T16:41:02.013Z</time></trkpt><trkpt lat="43.8205567" lon="11.4917033"><ele>161.4</ele><time>2026-04-23T16:41:03.013Z</time></trkpt><trkpt lat="43.8204883" lon="11.4917333"><ele>163.2</ele><time>2026-04-23T16:41:04.013Z</time></trkpt><trkpt lat="43.820415" lon="11.4917967"><ele>165.0</ele><time>2026-04-23T16:41:05.013Z</time></trkpt><trkpt lat="43.82034" lon="11.4919017"><ele>165.0</ele><time>2026-04-23T16:41:06.013Z</time></trkpt><trkpt lat="43.820275" lon="11.492045"><ele>165.0</ele><time>2026-04-23T16:41:07.013Z</time></trkpt><trkpt lat="43.8202083" lon="11.4922033"><ele>165.0</ele><time>2026-04-23T16:41:08.014Z</time></trkpt><trkpt lat="43.8201367" lon="11.4923733"><ele>165.0</ele><time>2026-04-23T16:41:09.013Z</time></trkpt><trkpt lat="43.8200583" lon="11.4925367"><ele>168.5</ele><time>2026-04-23T16:41:10.013Z</time></trkpt><trkpt lat="43.8199717" lon="11.4927"><ele>172.0</ele><time>2026-04-23T16:41:11.013Z</time></trkpt><trkpt lat="43.81989" lon="11.4928533"><ele>175.5</ele><time>2026-04-23T16:41:12.013Z</time></trkpt><trkpt lat="43.8198" lon="11.492985"><ele>179.0</ele><time>2026-04-23T16:41:13.013Z</time></trkpt><trkpt lat="43.8197" lon="11.4930817"><ele>180.79999999999998</ele><time>2026-04-23T16:41:14.013Z</time></trkpt><trkpt lat="43.819595" lon="11.493155"><ele>182.6</ele><time>2026-04-23T16:41:15.013Z</time></trkpt><trkpt lat="43.8194833" lon="11.4932033"><ele>184.4</ele><time>2026-04-23T16:41:16.014Z</time></trkpt><trkpt lat="43.8193733" lon="11.4932317"><ele>186.2</ele><time>2026-04-23T16:41:17.013Z</time></trkpt><trkpt lat="43.8192783" lon="11.4932583"><ele>188.0</ele><time>2026-04-23T16:41:18.013Z</time></trkpt><trkpt lat="43.8192017" lon="11.4933017"><ele>188.0</ele><time>2026-04-23T16:41:19.013Z</time></trkpt><trkpt lat="43.8191417" lon="11.4933717"><ele>188.0</ele><time>2026-04-23T16:41:20.013Z</time></trkpt><trkpt lat="43.8191033" lon="11.4934683"><ele>188.0</ele><time>2026-04-23T16:41:21.013Z</time></trkpt><trkpt lat="43.8191033" lon="11.4935767"><ele>188.0</ele><time>2026-04-23T16:41:22.013Z</time></trkpt><trkpt lat="43.8191383" lon="11.4936983"><ele>188.0</ele><time>2026-04-23T16:41:23.014Z</time></trkpt><trkpt lat="43.81921" lon="11.4937817"><ele>188.0</ele><time>2026-04-23T16:41:24.013Z</time></trkpt><trkpt lat="43.819305" lon="11.4938133"><ele>189.0</ele><time>2026-04-23T16:41:25.013Z</time></trkpt><trkpt lat="43.8194033" lon="11.4937883"><ele>190.0</ele><time>2026-04-23T16:41:26.013Z</time></trkpt><trkpt lat="43.8195233" lon="11.4937133"><ele>191.0</ele><time>2026-04-23T16:41:27.013Z</time></trkpt><trkpt lat="43.81966" lon="11.493615"><ele>192.0</ele><time>2026-04-23T16:41:28.013Z</time></trkpt><trkpt lat="43.819795" lon="11.4935083"><ele>192.0</ele><time>2026-04-23T16:41:29.013Z</time></trkpt><trkpt lat="43.819915" lon="11.4934267"><ele>192.0</ele><time>2026-04-23T16:41:30.013Z</time></trkpt><trkpt lat="43.8200217" lon="11.49336"><ele>192.0</ele><time>2026-04-23T16:41:31.013Z</time></trkpt><trkpt lat="43.82011" lon="11.493295"><ele>192.0</ele><time>2026-04-23T16:41:32.014Z</time></trkpt><trkpt lat="43.8201917" lon="11.4932317"><ele>192.0</ele><time>2026-04-23T16:41:33.013Z</time></trkpt><trkpt lat="43.8202767" lon="11.4931783"><ele>190.8</ele><time>2026-04-23T16:41:34.013Z</time></trkpt><trkpt lat="43.820365" lon="11.49313"><ele>189.6</ele><time>2026-04-23T16:41:35.013Z</time></trkpt><trkpt lat="43.8204533" lon="11.4931067"><ele>188.4</ele><time>2026-04-23T16:41:36.014Z</time></trkpt><trkpt lat="43.8205433" lon="11.4931317"><ele>187.20000000000002</ele><time>2026-04-23T16:41:37.014Z</time></trkpt><trkpt lat="43.8206133" lon="11.4932017"><ele>186.0</ele><time>2026-04-23T16:41:38.013Z</time></trkpt><trkpt lat="43.8206467" lon="11.49332"><ele>186.0</ele><time>2026-04-23T16:41:39.013Z</time></trkpt><trkpt lat="43.820645" lon="11.4934417"><ele>186.0</ele><time>2026-04-23T16:41:40.013Z</time></trkpt><trkpt lat="43.82061" lon="11.4935683"><ele>186.0</ele><time>2026-04-23T16:41:41.014Z</time></trkpt><trkpt lat="43.820535" lon="11.4936883"><ele>186.0</ele><time>2026-04-23T16:41:42.013Z</time></trkpt><trkpt lat="43.8204383" lon="11.4938033"><ele>186.0</ele><time>2026-04-23T16:41:43.013Z</time></trkpt><trkpt lat="43.8203433" lon="11.4939267"><ele>183.0</ele><time>2026-04-23T16:41:44.014Z</time></trkpt><trkpt lat="43.8202483" lon="11.494075"><ele>180.0</ele><time>2026-04-23T16:41:45.013Z</time></trkpt><trkpt lat="43.8201383" lon="11.4942283"><ele>177.0</ele><time>2026-04-23T16:41:46.014Z</time></trkpt><trkpt lat="43.8200283" lon="11.4943833"><ele>185.0</ele><time>2026-04-23T16:41:47.013Z</time></trkpt><trkpt lat="43.8199067" lon="11.4945583"><ele>193.0</ele><time>2026-04-23T16:41:48.013Z</time></trkpt><trkpt lat="43.8197767" lon="11.4947483"><ele>201.0</ele><time>2026-04-23T16:41:49.013Z</time></trkpt><trkpt lat="43.81965" lon="11.4949383"><ele>201.25</ele><time>2026-04-23T16:41:50.014Z</time></trkpt><trkpt lat="43.8195367" lon="11.495095"><ele>201.5</ele><time>2026-04-23T16:41:51.013Z</time></trkpt><trkpt lat="43.8194383" lon="11.495235"><ele>201.75</ele><time>2026-04-23T16:41:52.013Z</time></trkpt><trkpt lat="43.8193467" lon="11.49536"><ele>202.0</ele><time>2026-04-23T16:41:53.013Z</time></trkpt><trkpt lat="43.8192533" lon="11.4954883"><ele>206.25</ele><time>2026-04-23T16:41:54.013Z</time></trkpt><trkpt lat="43.8191617" lon="11.49562"><ele>210.5</ele><time>2026-04-23T16:41:55.014Z</time></trkpt><trkpt lat="43.8190667" lon="11.4957533"><ele>214.75</ele><time>2026-04-23T16:41:56.014Z</time></trkpt><trkpt lat="43.818975" lon="11.4958817"><ele>219.0</ele><time>2026-04-23T16:41:57.013Z</time></trkpt><trkpt lat="43.8188983" lon="11.496"><ele>219.0</ele><time>2026-04-23T16:41:58.013Z</time></trkpt><trkpt lat="43.8188233" lon="11.4960983"><ele>219.0</ele><time>2026-04-23T16:41:59.013Z</time></trkpt><trkpt lat="43.8187583" lon="11.4961767"><ele>219.0</ele><time>2026-04-23T16:42:00.013Z</time></trkpt><trkpt lat="43.8187033" lon="11.496235"><ele>219.0</ele><time>2026-04-23T16:42:01.013Z</time></trkpt><trkpt lat="43.8186033" lon="11.4962817"><ele>219.0</ele><time>2026-04-23T16:42:03.013Z</time></trkpt><trkpt lat="43.818535" lon="11.496295"><ele>219.0</ele><time>2026-04-23T16:42:05.013Z</time></trkpt><trkpt lat="43.818445" lon="11.4963117"><ele>220.83333333333334</ele><time>2026-04-23T16:42:09.014Z</time></trkpt><trkpt lat="43.818375" lon="11.49633"><ele>222.66666666666669</ele><time>2026-04-23T16:42:12.014Z</time></trkpt><trkpt lat="43.818305" lon="11.49641"><ele>224.5</ele><time>2026-04-23T16:42:16.013Z</time></trkpt><trkpt lat="43.81823" lon="11.4965483"><ele>226.33333333333334</ele><time>2026-04-23T16:42:18.014Z</time></trkpt><trkpt lat="43.818205" lon="11.4966317"><ele>228.16666666666669</ele><time>2026-04-23T16:42:19.013Z</time></trkpt><trkpt lat="43.8181867" lon="11.4967367"><ele>230.0</ele><time>2026-04-23T16:42:21.013Z</time></trkpt><trkpt lat="43.818135" lon="11.4968033"><ele>230.00000000000003</ele><time>2026-04-23T16:42:27.013Z</time></trkpt><trkpt lat="43.81808" lon="11.4967283"><ele>230.0</ele><time>2026-04-23T16:42:31.013Z</time></trkpt><trkpt lat="43.8180767" lon="11.4965967"><ele>230.0</ele><time>2026-04-23T16:42:34.013Z</time></trkpt><trkpt lat="43.81811" lon="11.49651"><ele>230.0</ele><time>2026-04-23T16:42:36.013Z</time></trkpt><trkpt lat="43.8181517" lon="11.496435"><ele>230.00000000000003</ele><time>2026-04-23T16:42:38.013Z</time></trkpt><trkpt lat="43.8182217" lon="11.4963417"><ele>230.0</ele><time>2026-04-23T16:42:41.013Z</time></trkpt><trkpt lat="43.8182433" lon="11.4962483"><ele>230.66666666666669</ele><time>2026-04-23T16:42:43.013Z</time></trkpt><trkpt lat="43.8182633" lon="11.49612"><ele>231.33333333333334</ele><time>2026-04-23T16:42:45.013Z</time></trkpt><trkpt lat="43.8182867" lon="11.4960233"><ele>232.0</ele><time>2026-04-23T16:42:47.013Z</time></trkpt><trkpt lat="43.8182283" lon="11.4959717"><ele>232.66666666666669</ele><time>2026-04-23T16:42:58.014Z</time></trkpt><trkpt lat="43.8181283" lon="11.4960567"><ele>233.33333333333334</ele><time>2026-04-23T16:43:00.013Z</time></trkpt><trkpt lat="43.8180667" lon="11.4961167"><ele>234.0</ele><time>2026-04-23T16:43:01.014Z</time></trkpt><trkpt lat="43.8180133" lon="11.4961767"><ele>234.0</ele><time>2026-04-23T16:43:02.013Z</time></trkpt><trkpt lat="43.8179617" lon="11.4962417"><ele>233.99999999999997</ele><time>2026-04-23T16:43:03.013Z</time></trkpt><trkpt lat="43.8179183" lon="11.4963067"><ele>233.99999999999997</ele><time>2026-04-23T16:43:04.013Z</time></trkpt><trkpt lat="43.817845" lon="11.496455"><ele>234.0</ele><time>2026-04-23T16:43:06.014Z</time></trkpt><trkpt lat="43.8178067" lon="11.4965417"><ele>234.0</ele><time>2026-04-23T16:43:07.013Z</time></trkpt><trkpt lat="43.8177533" lon="11.49668"><ele>233.79999999999998</ele><time>2026-04-23T16:43:09.014Z</time></trkpt><trkpt lat="43.8177033" lon="11.4967867"><ele>233.59999999999997</ele><time>2026-04-23T16:43:11.013Z</time></trkpt><trkpt lat="43.8176517" lon="11.4968417"><ele>233.4</ele><time>2026-04-23T16:43:13.014Z</time></trkpt><trkpt lat="43.8176133" lon="11.4969744"><ele>233.2</ele><time>2026-04-23T16:44:01.032Z</time></trkpt><trkpt lat="43.817649" lon="11.4971392"><ele>233.0</ele><time>2026-04-23T16:51:28.02Z</time></trkpt><trkpt lat="43.8176676" lon="11.4972271"><ele>233.00000000000003</ele><time>2026-04-23T16:51:30.023Z</time></trkpt><trkpt lat="43.8177018" lon="11.497339"><ele>233.0</ele><time>2026-04-23T16:51:34.03Z</time></trkpt><trkpt lat="43.8177433" lon="11.4974567"><ele>233.0</ele><time>2026-04-23T16:51:36.015Z</time></trkpt><trkpt lat="43.8177533" lon="11.4975833"><ele>233.0</ele><time>2026-04-23T16:51:39.015Z</time></trkpt><trkpt lat="43.8177517" lon="11.4976717"><ele>233.00000000000003</ele><time>2026-04-23T16:51:41.014Z</time></trkpt><trkpt lat="43.817745" lon="11.4978033"><ele>233.0</ele><time>2026-04-23T16:51:44.015Z</time></trkpt><trkpt lat="43.8177383" lon="11.4979083"><ele>234.0</ele><time>2026-04-23T16:51:47.014Z</time></trkpt><trkpt lat="43.81771" lon="11.4979867"><ele>235.0</ele><time>2026-04-23T16:51:54.015Z</time></trkpt><trkpt lat="43.8176467" lon="11.4979917"><ele>236.0</ele><time>2026-04-23T16:52:04.015Z</time></trkpt><trkpt lat="43.8175817" lon="11.4980133"><ele>237.0</ele><time>2026-04-23T16:52:07.014Z</time></trkpt><trkpt lat="43.817535" lon="11.4980767"><ele>238.0</ele><time>2026-04-23T16:52:10.014Z</time></trkpt><trkpt lat="43.817475" lon="11.4981133"><ele>239.0</ele><time>2026-04-23T16:52:26.014Z</time></trkpt><trkpt lat="43.8174217" lon="11.4981633"><ele>240.0</ele><time>2026-04-23T16:52:31.014Z</time></trkpt><trkpt lat="43.81735" lon="11.4981233"><ele>244.83333333333334</ele><time>2026-04-23T16:52:35.014Z</time></trkpt><trkpt lat="43.8172733" lon="11.4981033"><ele>249.66666666666669</ele><time>2026-04-23T16:52:38.014Z</time></trkpt><trkpt lat="43.8171933" lon="11.4980917"><ele>254.5</ele><time>2026-04-23T16:52:41.014Z</time></trkpt><trkpt lat="43.8170983" lon="11.498075"><ele>259.33333333333337</ele><time>2026-04-23T16:52:44.014Z</time></trkpt><trkpt lat="43.817025" lon="11.4980717"><ele>264.1666666666667</ele><time>2026-04-23T16:52:46.014Z</time></trkpt><trkpt lat="43.8169533" lon="11.498095"><ele>269.0</ele><time>2026-04-23T16:52:49.014Z</time></trkpt><trkpt lat="43.8168633" lon="11.4981267"><ele>272.8</ele><time>2026-04-23T16:52:52.014Z</time></trkpt><trkpt lat="43.81678" lon="11.4981533"><ele>276.59999999999997</ele><time>2026-04-23T16:52:54.014Z</time></trkpt><trkpt lat="43.8166833" lon="11.4981867"><ele>280.4</ele><time>2026-04-23T16:52:57.014Z</time></trkpt><trkpt lat="43.81661" lon="11.49821"><ele>284.2</ele><time>2026-04-23T16:52:59.014Z</time></trkpt><trkpt lat="43.8165167" lon="11.4982383"><ele>288.0</ele><time>2026-04-23T16:53:01.014Z</time></trkpt><trkpt lat="43.81642" lon="11.4982833"><ele>288.0</ele><time>2026-04-23T16:53:04.014Z</time></trkpt><trkpt lat="43.8163183" lon="11.49833"><ele>288.0</ele><time>2026-04-23T16:53:06.015Z</time></trkpt><trkpt lat="43.8162517" lon="11.4983567"><ele>288.0</ele><time>2026-04-23T16:53:07.014Z</time></trkpt><trkpt lat="43.8161683" lon="11.4983967"><ele>288.0</ele><time>2026-04-23T16:53:09.015Z</time></trkpt><trkpt lat="43.8160833" lon="11.4984283"><ele>288.0</ele><time>2026-04-23T16:53:10.014Z</time></trkpt><trkpt lat="43.8160217" lon="11.4984533"><ele>288.0</ele><time>2026-04-23T16:53:11.014Z</time></trkpt><trkpt lat="43.8159633" lon="11.4984883"><ele>289.1666666666667</ele><time>2026-04-23T16:53:13.014Z</time></trkpt><trkpt lat="43.8159433" lon="11.4985883"><ele>290.3333333333333</ele><time>2026-04-23T16:53:15.015Z</time></trkpt><trkpt lat="43.815895" lon="11.4986933"><ele>291.5</ele><time>2026-04-23T16:53:18.014Z</time></trkpt><trkpt lat="43.8158433" lon="11.49878"><ele>292.66666666666663</ele><time>2026-04-23T16:53:21.015Z</time></trkpt><trkpt lat="43.8158217" lon="11.498875"><ele>293.8333333333333</ele><time>2026-04-23T16:53:25.014Z</time></trkpt><trkpt lat="43.8158417" lon="11.4989617"><ele>295.0</ele><time>2026-04-23T16:53:29.014Z</time></trkpt><trkpt lat="43.8158133" lon="11.4990567"><ele>296.8333333333333</ele><time>2026-04-23T16:53:39.016Z</time></trkpt><trkpt lat="43.8157467" lon="11.499145"><ele>298.66666666666663</ele><time>2026-04-23T16:54:10.015Z</time></trkpt><trkpt lat="43.815695" lon="11.4992383"><ele>300.5</ele><time>2026-04-23T16:54:12.015Z</time></trkpt><trkpt lat="43.815645" lon="11.4993333"><ele>302.3333333333333</ele><time>2026-04-23T16:54:14.015Z</time></trkpt><trkpt lat="43.815605" lon="11.4994183"><ele>304.1666666666667</ele><time>2026-04-23T16:54:16.015Z</time></trkpt><trkpt lat="43.81558" lon="11.499535"><ele>306.0</ele><time>2026-04-23T16:54:19.016Z</time></trkpt><trkpt lat="43.8155533" lon="11.4996483"><ele>306.6666666666667</ele><time>2026-04-23T16:54:22.015Z</time></trkpt><trkpt lat="43.8155367" lon="11.4997683"><ele>307.3333333333333</ele><time>2026-04-23T16:54:25.015Z</time></trkpt><trkpt lat="43.815515" lon="11.4998867"><ele>308.0</ele><time>2026-04-23T16:54:28.015Z</time></trkpt><trkpt lat="43.8155017" lon="11.499975"><ele>308.66666666666663</ele><time>2026-04-23T16:54:30.016Z</time></trkpt><trkpt lat="43.8155" lon="11.50007"><ele>309.3333333333333</ele><time>2026-04-23T16:54:32.015Z</time></trkpt><trkpt lat="43.8154717" lon="11.5001883"><ele>310.0</ele><time>2026-04-23T16:54:35.015Z</time></trkpt><trkpt lat="43.815415" lon="11.5002617"><ele>310.0</ele><time>2026-04-23T16:54:37.015Z</time></trkpt><trkpt lat="43.81532" lon="11.50031"><ele>310.0</ele><time>2026-04-23T16:54:39.016Z</time></trkpt><trkpt lat="43.8152583" lon="11.5003467"><ele>310.0</ele><time>2026-04-23T16:54:40.015Z</time></trkpt><trkpt lat="43.8151883" lon="11.5004183"><ele>310.0</ele><time>2026-04-23T16:54:41.015Z</time></trkpt><trkpt lat="43.81512" lon="11.5004933"><ele>310.0</ele><time>2026-04-23T16:54:42.015Z</time></trkpt><trkpt lat="43.815045" lon="11.5005817"><ele>310.0</ele><time>2026-04-23T16:54:43.015Z</time></trkpt><trkpt lat="43.814975" lon="11.5006633"><ele>311.8</ele><time>2026-04-23T16:54:44.015Z</time></trkpt><trkpt lat="43.814905" lon="11.500735"><ele>313.6</ele><time>2026-04-23T16:54:45.015Z</time></trkpt><trkpt lat="43.8148333" lon="11.50081"><ele>315.4</ele><time>2026-04-23T16:54:46.015Z</time></trkpt><trkpt lat="43.8147417" lon="11.5008783"><ele>317.2</ele><time>2026-04-23T16:54:47.015Z</time></trkpt><trkpt lat="43.8146433" lon="11.50092"><ele>319.0</ele><time>2026-04-23T16:54:48.016Z</time></trkpt><trkpt lat="43.8145417" lon="11.5009417"><ele>319.0</ele><time>2026-04-23T16:54:49.015Z</time></trkpt><trkpt lat="43.814435" lon="11.50095"><ele>319.0</ele><time>2026-04-23T16:54:50.016Z</time></trkpt><trkpt lat="43.81433" lon="11.5009267"><ele>319.0</ele><time>2026-04-23T16:54:51.015Z</time></trkpt><trkpt lat="43.8142333" lon="11.500885"><ele>319.0</ele><time>2026-04-23T16:54:52.015Z</time></trkpt><trkpt lat="43.8141517" lon="11.50085"><ele>319.0</ele><time>2026-04-23T16:54:53.016Z</time></trkpt><trkpt lat="43.81408" lon="11.500815"><ele>319.0</ele><time>2026-04-23T16:54:54.015Z</time></trkpt><trkpt lat="43.8140117" lon="11.5008083"><ele>319.0</ele><time>2026-04-23T16:54:55.016Z</time></trkpt><trkpt lat="43.8139417" lon="11.5008283"><ele>319.0</ele><time>2026-04-23T16:54:56.015Z</time></trkpt><trkpt lat="43.8138733" lon="11.5008783"><ele>319.0</ele><time>2026-04-23T16:54:57.016Z</time></trkpt><trkpt lat="43.81383" lon="11.50096"><ele>319.0</ele><time>2026-04-23T16:54:58.015Z</time></trkpt><trkpt lat="43.81386" lon="11.50113"><ele>319.0</ele><time>2026-04-23T16:55:00.016Z</time></trkpt><trkpt lat="43.8139617" lon="11.5012217"><ele>319.0</ele><time>2026-04-23T16:55:02.015Z</time></trkpt><trkpt lat="43.8140333" lon="11.5012283"><ele>319.0</ele><time>2026-04-23T16:55:03.015Z</time></trkpt><trkpt lat="43.8141217" lon="11.501215"><ele>319.0</ele><time>2026-04-23T16:55:04.016Z</time></trkpt><trkpt lat="43.81421" lon="11.5011967"><ele>319.0</ele><time>2026-04-23T16:55:05.015Z</time></trkpt><trkpt lat="43.8143067" lon="11.5011883"><ele>319.0</ele><time>2026-04-23T16:55:06.015Z</time></trkpt><trkpt lat="43.8144133" lon="11.5011933"><ele>319.0</ele><time>2026-04-23T16:55:07.015Z</time></trkpt><trkpt lat="43.8145367" lon="11.5011983"><ele>319.0</ele><time>2026-04-23T16:55:08.015Z</time></trkpt><trkpt lat="43.81468" lon="11.50121"><ele>319.0</ele><time>2026-04-23T16:55:09.015Z</time></trkpt><trkpt lat="43.8148217" lon="11.5012217"><ele>319.0</ele><time>2026-04-23T16:55:10.015Z</time></trkpt><trkpt lat="43.8149567" lon="11.5012367"><ele>322.0</ele><time>2026-04-23T16:55:11.015Z</time></trkpt><trkpt lat="43.81509" lon="11.50126"><ele>325.0</ele><time>2026-04-23T16:55:12.015Z</time></trkpt><trkpt lat="43.8152317" lon="11.5012983"><ele>328.0</ele><time>2026-04-23T16:55:13.015Z</time></trkpt><trkpt lat="43.8153617" lon="11.501355"><ele>331.0</ele><time>2026-04-23T16:55:14.015Z</time></trkpt><trkpt lat="43.81548" lon="11.5014117"><ele>331.0</ele><time>2026-04-23T16:55:15.016Z</time></trkpt><trkpt lat="43.8155883" lon="11.5014667"><ele>331.0</ele><time>2026-04-23T16:55:16.015Z</time></trkpt><trkpt lat="43.8156867" lon="11.5015167"><ele>331.0</ele><time>2026-04-23T16:55:17.015Z</time></trkpt><trkpt lat="43.8157717" lon="11.501585"><ele>331.0</ele><time>2026-04-23T16:55:18.015Z</time></trkpt><trkpt lat="43.8158367" lon="11.50168"><ele>331.0</ele><time>2026-04-23T16:55:19.015Z</time></trkpt><trkpt lat="43.8158783" lon="11.5017783"><ele>331.0</ele><time>2026-04-23T16:55:20.015Z</time></trkpt><trkpt lat="43.8159" lon="11.5018917"><ele>331.0</ele><time>2026-04-23T16:55:21.016Z</time></trkpt><trkpt lat="43.8158933" lon="11.5020233"><ele>331.0</ele><time>2026-04-23T16:55:22.015Z</time></trkpt><trkpt lat="43.8158683" lon="11.5021717"><ele>331.0</ele><time>2026-04-23T16:55:23.015Z</time></trkpt><trkpt lat="43.8158417" lon="11.50233"><ele>331.0</ele><time>2026-04-23T16:55:24.015Z</time></trkpt><trkpt lat="43.8158" lon="11.5024967"><ele>333.6</ele><time>2026-04-23T16:55:25.015Z</time></trkpt><trkpt lat="43.8157667" lon="11.502645"><ele>336.20000000000005</ele><time>2026-04-23T16:55:26.015Z</time></trkpt><trkpt lat="43.8157533" lon="11.5027783"><ele>338.79999999999995</ele><time>2026-04-23T16:55:27.015Z</time></trkpt><trkpt lat="43.8157533" lon="11.5029117"><ele>341.4</ele><time>2026-04-23T16:55:28.015Z</time></trkpt><trkpt lat="43.81578" lon="11.5030433"><ele>344.0</ele><time>2026-04-23T16:55:29.016Z</time></trkpt><trkpt lat="43.81583" lon="11.503175"><ele>345.6</ele><time>2026-04-23T16:55:30.015Z</time></trkpt><trkpt lat="43.81592" lon="11.5032783"><ele>347.2</ele><time>2026-04-23T16:55:31.015Z</time></trkpt><trkpt lat="43.8160233" lon="11.5033683"><ele>348.8</ele><time>2026-04-23T16:55:32.016Z</time></trkpt><trkpt lat="43.81612" lon="11.5034467"><ele>350.40000000000003</ele><time>2026-04-23T16:55:33.015Z</time></trkpt><trkpt lat="43.8161917" lon="11.5035317"><ele>352.0</ele><time>2026-04-23T16:55:34.016Z</time></trkpt><trkpt lat="43.8162333" lon="11.5036217"><ele>352.0</ele><time>2026-04-23T16:55:35.015Z</time></trkpt><trkpt lat="43.816245" lon="11.5037333"><ele>352.0</ele><time>2026-04-23T16:55:36.016Z</time></trkpt><trkpt lat="43.81622" lon="11.5038383"><ele>352.0</ele><time>2026-04-23T16:55:37.016Z</time></trkpt><trkpt lat="43.8161583" lon="11.5039367"><ele>352.0</ele><time>2026-04-23T16:55:38.016Z</time></trkpt><trkpt lat="43.8160817" lon="11.5040467"><ele>352.0</ele><time>2026-04-23T16:55:39.015Z</time></trkpt><trkpt lat="43.8160183" lon="11.5041367"><ele>352.8</ele><time>2026-04-23T16:55:40.015Z</time></trkpt><trkpt lat="43.8159833" lon="11.5042483"><ele>353.6</ele><time>2026-04-23T16:55:41.016Z</time></trkpt><trkpt lat="43.8159883" lon="11.5043367"><ele>354.40000000000003</ele><time>2026-04-23T16:55:42.015Z</time></trkpt><trkpt lat="43.8161283" lon="11.50436"><ele>355.20000000000005</ele><time>2026-04-23T16:55:44.015Z</time></trkpt><trkpt lat="43.8162167" lon="11.50431"><ele>356.0</ele><time>2026-04-23T16:55:45.015Z</time></trkpt><trkpt lat="43.8163" lon="11.5042267"><ele>357.25</ele><time>2026-04-23T16:55:46.015Z</time></trkpt><trkpt lat="43.8163967" lon="11.504125"><ele>358.5</ele><time>2026-04-23T16:55:47.015Z</time></trkpt><trkpt lat="43.8164967" lon="11.504005"><ele>359.75</ele><time>2026-04-23T16:55:48.015Z</time></trkpt><trkpt lat="43.8165983" lon="11.503905"><ele>361.0</ele><time>2026-04-23T16:55:49.016Z</time></trkpt><trkpt lat="43.81671" lon="11.5038317"><ele>361.0</ele><time>2026-04-23T16:55:50.015Z</time></trkpt><trkpt lat="43.8168167" lon="11.5037683"><ele>361.0</ele><time>2026-04-23T16:55:51.015Z</time></trkpt><trkpt lat="43.8169117" lon="11.5036767"><ele>361.0</ele><time>2026-04-23T16:55:52.016Z</time></trkpt><trkpt lat="43.81699" lon="11.50357"><ele>361.0</ele><time>2026-04-23T16:55:53.015Z</time></trkpt><trkpt lat="43.817075" lon="11.5034617"><ele>360.8333333333333</ele><time>2026-04-23T16:55:54.015Z</time></trkpt><trkpt lat="43.8171217" lon="11.50333"><ele>360.66666666666663</ele><time>2026-04-23T16:55:55.015Z</time></trkpt><trkpt lat="43.817175" lon="11.5032383"><ele>360.5</ele><time>2026-04-23T16:55:56.015Z</time></trkpt><trkpt lat="43.8172367" lon="11.5031633"><ele>360.3333333333333</ele><time>2026-04-23T16:55:57.016Z</time></trkpt><trkpt lat="43.8173017" lon="11.5031533"><ele>360.1666666666667</ele><time>2026-04-23T16:55:58.015Z</time></trkpt><trkpt lat="43.8173667" lon="11.5031933"><ele>360.0</ele><time>2026-04-23T16:55:59.015Z</time></trkpt><trkpt lat="43.8173683" lon="11.5033133"><ele>360.0</ele><time>2026-04-23T16:56:00.015Z</time></trkpt><trkpt lat="43.817365" lon="11.5034283"><ele>360.0</ele><time>2026-04-23T16:56:01.015Z</time></trkpt><trkpt lat="43.8173367" lon="11.5035367"><ele>360.0</ele><time>2026-04-23T16:56:02.015Z</time></trkpt><trkpt lat="43.8172817" lon="11.50365"><ele>360.0</ele><time>2026-04-23T16:56:03.015Z</time></trkpt><trkpt lat="43.8172433" lon="11.5037217"><ele>360.0</ele><time>2026-04-23T16:56:04.015Z</time></trkpt><trkpt lat="43.8171767" lon="11.5038233"><ele>360.0</ele><time>2026-04-23T16:56:07.015Z</time></trkpt><trkpt lat="43.8171183" lon="11.5039283"><ele>360.1666666666667</ele><time>2026-04-23T16:56:09.016Z</time></trkpt><trkpt lat="43.817045" lon="11.5040733"><ele>360.3333333333333</ele><time>2026-04-23T16:56:11.015Z</time></trkpt><trkpt lat="43.817005" lon="11.5041567"><ele>360.5</ele><time>2026-04-23T16:56:12.015Z</time></trkpt><trkpt lat="43.8169667" lon="11.50425"><ele>360.66666666666663</ele><time>2026-04-23T16:56:13.016Z</time></trkpt><trkpt lat="43.8169317" lon="11.50434"><ele>360.8333333333333</ele><time>2026-04-23T16:56:14.015Z</time></trkpt><trkpt lat="43.816905" lon="11.5044233"><ele>361.0</ele><time>2026-04-23T16:56:15.016Z</time></trkpt><trkpt lat="43.81688" lon="11.5045083"><ele>362.3333333333333</ele><time>2026-04-23T16:56:16.016Z</time></trkpt><trkpt lat="43.8168617" lon="11.5046017"><ele>363.66666666666663</ele><time>2026-04-23T16:56:17.016Z</time></trkpt><trkpt lat="43.8168433" lon="11.5047117"><ele>365.0</ele><time>2026-04-23T16:56:18.015Z</time></trkpt><trkpt lat="43.8168183" lon="11.5048267"><ele>366.3333333333333</ele><time>2026-04-23T16:56:19.015Z</time></trkpt><trkpt lat="43.8167883" lon="11.5049467"><ele>367.6666666666667</ele><time>2026-04-23T16:56:20.016Z</time></trkpt><trkpt lat="43.8167567" lon="11.505075"><ele>369.0</ele><time>2026-04-23T16:56:21.015Z</time></trkpt><trkpt lat="43.816715" lon="11.5052067"><ele>369.0</ele><time>2026-04-23T16:56:22.016Z</time></trkpt><trkpt lat="43.81666" lon="11.505345"><ele>369.0</ele><time>2026-04-23T16:56:23.015Z</time></trkpt><trkpt lat="43.8165917" lon="11.505475"><ele>369.0</ele><time>2026-04-23T16:56:24.016Z</time></trkpt><trkpt lat="43.8165233" lon="11.50561"><ele>369.0</ele><time>2026-04-23T16:56:25.016Z</time></trkpt><trkpt lat="43.8164567" lon="11.5057267"><ele>367.6</ele><time>2026-04-23T16:56:26.015Z</time></trkpt><trkpt lat="43.8163917" lon="11.50583"><ele>366.2</ele><time>2026-04-23T16:56:27.015Z</time></trkpt><trkpt lat="43.8163183" lon="11.5059433"><ele>364.8</ele><time>2026-04-23T16:56:28.015Z</time></trkpt><trkpt lat="43.816255" lon="11.50605"><ele>363.40000000000003</ele><time>2026-04-23T16:56:29.015Z</time></trkpt><trkpt lat="43.8161967" lon="11.5061333"><ele>362.0</ele><time>2026-04-23T16:56:30.015Z</time></trkpt><trkpt lat="43.816145" lon="11.50621"><ele>363.1666666666667</ele><time>2026-04-23T16:56:31.015Z</time></trkpt><trkpt lat="43.816095" lon="11.506275"><ele>364.33333333333337</ele><time>2026-04-23T16:56:32.015Z</time></trkpt><trkpt lat="43.8160467" lon="11.50634"><ele>365.5</ele><time>2026-04-23T16:56:33.016Z</time></trkpt><trkpt lat="43.8159917" lon="11.50642"><ele>366.6666666666667</ele><time>2026-04-23T16:56:34.015Z</time></trkpt><trkpt lat="43.815945" lon="11.5065133"><ele>367.8333333333333</ele><time>2026-04-23T16:56:35.015Z</time></trkpt><trkpt lat="43.8159" lon="11.5066167"><ele>369.0</ele><time>2026-04-23T16:56:36.015Z</time></trkpt><trkpt lat="43.8158433" lon="11.50672"><ele>369.0</ele><time>2026-04-23T16:56:37.015Z</time></trkpt><trkpt lat="43.815785" lon="11.506825"><ele>369.0</ele><time>2026-04-23T16:56:38.015Z</time></trkpt><trkpt lat="43.8157317" lon="11.5069267"><ele>369.0</ele><time>2026-04-23T16:56:39.016Z</time></trkpt><trkpt lat="43.815685" lon="11.507025"><ele>369.0</ele><time>2026-04-23T16:56:40.015Z</time></trkpt><trkpt lat="43.81564" lon="11.507135"><ele>369.0</ele><time>2026-04-23T16:56:41.016Z</time></trkpt><trkpt lat="43.8155867" lon="11.5072433"><ele>368.3333333333333</ele><time>2026-04-23T16:56:42.015Z</time></trkpt><trkpt lat="43.8155317" lon="11.5073467"><ele>367.6666666666667</ele><time>2026-04-23T16:56:43.015Z</time></trkpt><trkpt lat="43.815475" lon="11.50744"><ele>367.0</ele><time>2026-04-23T16:56:44.016Z</time></trkpt><trkpt lat="43.8154183" lon="11.5075333"><ele>366.33333333333337</ele><time>2026-04-23T16:56:45.016Z</time></trkpt><trkpt lat="43.8153633" lon="11.5076217"><ele>365.6666666666667</ele><time>2026-04-23T16:56:46.015Z</time></trkpt><trkpt lat="43.8153183" lon="11.5076867"><ele>365.0</ele><time>2026-04-23T16:56:47.015Z</time></trkpt><trkpt lat="43.81526" lon="11.5077667"><ele>365.0</ele><time>2026-04-23T16:56:49.015Z</time></trkpt><trkpt lat="43.8151983" lon="11.5078167"><ele>365.0</ele><time>2026-04-23T16:56:51.015Z</time></trkpt><trkpt lat="43.81513" lon="11.5078817"><ele>365.0</ele><time>2026-04-23T16:56:54.015Z</time></trkpt><trkpt lat="43.815105" lon="11.5080067"><ele>365.0</ele><time>2026-04-23T16:57:18.015Z</time></trkpt><trkpt lat="43.8150283" lon="11.508095"><ele>365.0</ele><time>2026-04-23T16:57:21.015Z</time></trkpt><trkpt lat="43.8149367" lon="11.5081917"><ele>367.0</ele><time>2026-04-23T16:57:23.015Z</time></trkpt><trkpt lat="43.8148867" lon="11.5082467"><ele>369.0</ele><time>2026-04-23T16:57:24.015Z</time></trkpt><trkpt lat="43.814835" lon="11.5082983"><ele>371.0</ele><time>2026-04-23T16:57:25.015Z</time></trkpt><trkpt lat="43.8147817" lon="11.5083533"><ele>373.0</ele><time>2026-04-23T16:57:26.015Z</time></trkpt><trkpt lat="43.81473" lon="11.508415"><ele>375.0</ele><time>2026-04-23T16:57:27.015Z</time></trkpt><trkpt lat="43.8146383" lon="11.5085017"><ele>377.0</ele><time>2026-04-23T16:57:29.015Z</time></trkpt><trkpt lat="43.8145533" lon="11.5085367"><ele>377.0</ele><time>2026-04-23T16:57:31.015Z</time></trkpt><trkpt lat="43.8144833" lon="11.5085383"><ele>377.0</ele><time>2026-04-23T16:57:33.015Z</time></trkpt><trkpt lat="43.8144283" lon="11.5086"><ele>377.0</ele><time>2026-04-23T16:57:37.015Z</time></trkpt><trkpt lat="43.8144017" lon="11.50871"><ele>377.0</ele><time>2026-04-23T16:57:41.015Z</time></trkpt><trkpt lat="43.8144117" lon="11.5088117"><ele>377.0</ele><time>2026-04-23T16:57:43.015Z</time></trkpt><trkpt lat="43.81443" lon="11.508925"><ele>377.0</ele><time>2026-04-23T16:57:45.016Z</time></trkpt><trkpt lat="43.81442" lon="11.5090517"><ele>377.33333333333337</ele><time>2026-04-23T16:57:48.015Z</time></trkpt><trkpt lat="43.8144167" lon="11.50916"><ele>377.6666666666667</ele><time>2026-04-23T16:57:50.015Z</time></trkpt><trkpt lat="43.81441" lon="11.50929"><ele>378.0</ele><time>2026-04-23T16:57:52.015Z</time></trkpt><trkpt lat="43.8143833" lon="11.50941"><ele>378.3333333333333</ele><time>2026-04-23T16:57:54.015Z</time></trkpt><trkpt lat="43.8143317" lon="11.50949"><ele>378.66666666666663</ele><time>2026-04-23T16:57:57.015Z</time></trkpt><trkpt lat="43.8142633" lon="11.509515"><ele>379.0</ele><time>2026-04-23T16:58:05.015Z</time></trkpt><trkpt lat="43.814195" lon="11.5095617"><ele>383.66666666666663</ele><time>2026-04-23T16:58:08.015Z</time></trkpt><trkpt lat="43.814115" lon="11.5095433"><ele>388.3333333333333</ele><time>2026-04-23T16:58:11.016Z</time></trkpt><trkpt lat="43.81404" lon="11.5095183"><ele>393.0</ele><time>2026-04-23T16:58:14.015Z</time></trkpt><trkpt lat="43.8139533" lon="11.5094767"><ele>397.66666666666663</ele><time>2026-04-23T16:58:17.016Z</time></trkpt><trkpt lat="43.8138833" lon="11.509445"><ele>402.3333333333333</ele><time>2026-04-23T16:58:19.016Z</time></trkpt><trkpt lat="43.8138" lon="11.5093967"><ele>407.0</ele><time>2026-04-23T16:58:22.015Z</time></trkpt><trkpt lat="43.8137367" lon="11.50937"><ele>406.99999999999994</ele><time>2026-04-23T16:58:24.015Z</time></trkpt><trkpt lat="43.8136667" lon="11.509335"><ele>407.0</ele><time>2026-04-23T16:58:28.016Z</time></trkpt><trkpt lat="43.8137533" lon="11.5093583"><ele>407.0</ele><time>2026-04-23T17:00:53.015Z</time></trkpt><trkpt lat="43.8138133" lon="11.5093933"><ele>407.0</ele><time>2026-04-23T17:00:55.015Z</time></trkpt><trkpt lat="43.8138933" lon="11.509445"><ele>406.99999999999994</ele><time>2026-04-23T17:00:58.015Z</time></trkpt><trkpt lat="43.8139667" lon="11.5094917"><ele>407.0</ele><time>2026-04-23T17:01:01.015Z</time></trkpt><trkpt lat="43.81403" lon="11.5095267"><ele>407.0</ele><time>2026-04-23T17:01:04.016Z</time></trkpt><trkpt lat="43.814095" lon="11.509545"><ele>407.0</ele><time>2026-04-23T17:01:13.015Z</time></trkpt><trkpt lat="43.814205" lon="11.5095367"><ele>407.0</ele><time>2026-04-23T17:01:28.015Z</time></trkpt><trkpt lat="43.8141586" lon="11.5096743"><ele>407.0</ele><time>2026-04-23T17:03:20.066Z</time></trkpt><trkpt lat="43.8140967" lon="11.509706"><ele>407.0</ele><time>2026-04-23T17:03:23.066Z</time></trkpt><trkpt lat="43.8140017" lon="11.509675"><ele>410.0</ele><time>2026-04-23T17:03:39.016Z</time></trkpt><trkpt lat="43.8139117" lon="11.5096617"><ele>413.0</ele><time>2026-04-23T17:03:49.017Z</time></trkpt><trkpt lat="43.8138067" lon="11.509705"><ele>416.0</ele><time>2026-04-23T17:04:05.016Z</time></trkpt><trkpt lat="43.8137367" lon="11.5097383"><ele>419.0</ele><time>2026-04-23T17:04:07.016Z</time></trkpt><trkpt lat="43.8136467" lon="11.5097667"><ele>422.0</ele><time>2026-04-23T17:04:09.017Z</time></trkpt><trkpt lat="43.8135633" lon="11.50979"><ele>421.99999999999994</ele><time>2026-04-23T17:04:12.017Z</time></trkpt><trkpt lat="43.8134783" lon="11.50979"><ele>422.0</ele><time>2026-04-23T17:04:16.016Z</time></trkpt><trkpt lat="43.8134017" lon="11.509815"><ele>422.0</ele><time>2026-04-23T17:04:19.017Z</time></trkpt><trkpt lat="43.8133683" lon="11.5098917"><ele>422.0</ele><time>2026-04-23T17:04:24.016Z</time></trkpt><trkpt lat="43.81338" lon="11.50999"><ele>421.99999999999994</ele><time>2026-04-23T17:04:27.016Z</time></trkpt><trkpt lat="43.8134383" lon="11.5100983"><ele>422.0</ele><time>2026-04-23T17:04:30.016Z</time></trkpt><trkpt lat="43.8135033" lon="11.510185"><ele>421.99999999999994</ele><time>2026-04-23T17:04:32.016Z</time></trkpt><trkpt lat="43.8135783" lon="11.5102683"><ele>422.0</ele><time>2026-04-23T17:04:34.016Z</time></trkpt><trkpt lat="43.81363" lon="11.5103633"><ele>422.0</ele><time>2026-04-23T17:06:15.016Z</time></trkpt><trkpt lat="43.8136467" lon="11.5104533"><ele>422.0</ele><time>2026-04-23T17:06:17.017Z</time></trkpt><trkpt lat="43.8136267" lon="11.5106033"><ele>421.99999999999994</ele><time>2026-04-23T17:07:23.016Z</time></trkpt><trkpt lat="43.8135667" lon="11.5106733"><ele>422.0</ele><time>2026-04-23T17:07:26.016Z</time></trkpt><trkpt lat="43.81352" lon="11.5107467"><ele>426.8333333333333</ele><time>2026-04-23T17:07:28.016Z</time></trkpt><trkpt lat="43.81348" lon="11.51083"><ele>431.66666666666663</ele><time>2026-04-23T17:07:30.017Z</time></trkpt><trkpt lat="43.8134517" lon="11.510925"><ele>436.5</ele><time>2026-04-23T17:07:32.016Z</time></trkpt><trkpt lat="43.8134183" lon="11.5110183"><ele>441.33333333333337</ele><time>2026-04-23T17:07:34.016Z</time></trkpt><trkpt lat="43.8133617" lon="11.5111067"><ele>446.1666666666667</ele><time>2026-04-23T17:07:36.017Z</time></trkpt><trkpt lat="43.8133083" lon="11.5111933"><ele>451.0</ele><time>2026-04-23T17:07:38.016Z</time></trkpt><trkpt lat="43.8132567" lon="11.51127"><ele>453.42857142857144</ele><time>2026-04-23T17:07:40.017Z</time></trkpt><trkpt lat="43.8132117" lon="11.51134"><ele>455.8571428571429</ele><time>2026-04-23T17:07:47.016Z</time></trkpt><trkpt lat="43.813145" lon="11.5113917"><ele>458.28571428571433</ele><time>2026-04-23T17:07:50.016Z</time></trkpt><trkpt lat="43.8130717" lon="11.5114317"><ele>460.7142857142857</ele><time>2026-04-23T17:07:52.016Z</time></trkpt><trkpt lat="43.8130733" lon="11.5115433"><ele>463.1428571428572</ele><time>2026-04-23T17:07:56.016Z</time></trkpt><trkpt lat="43.8131133" lon="11.5116317"><ele>465.5714285714286</ele><time>2026-04-23T17:07:58.017Z</time></trkpt><trkpt lat="43.81314" lon="11.5117167"><ele>468.0</ele><time>2026-04-23T17:08:01.017Z</time></trkpt><trkpt lat="43.8131667" lon="11.5118283"><ele>468.0</ele><time>2026-04-23T17:08:04.017Z</time></trkpt><trkpt lat="43.813185" lon="11.511945"><ele>468.0</ele><time>2026-04-23T17:08:07.016Z</time></trkpt><trkpt lat="43.81318" lon="11.5120467"><ele>468.0</ele><time>2026-04-23T17:08:11.016Z</time></trkpt><trkpt lat="43.813235" lon="11.5122067"><ele>468.0</ele><time>2026-04-23T17:08:36.016Z</time></trkpt><trkpt lat="43.8132533" lon="11.5123"><ele>468.0</ele><time>2026-04-23T17:08:38.016Z</time></trkpt><trkpt lat="43.81326" lon="11.5124033"><ele>468.0</ele><time>2026-04-23T17:08:40.017Z</time></trkpt><trkpt lat="43.8132417" lon="11.5125467"><ele>469.6666666666667</ele><time>2026-04-23T17:08:43.016Z</time></trkpt><trkpt lat="43.8132033" lon="11.5126583"><ele>471.33333333333337</ele><time>2026-04-23T17:08:45.017Z</time></trkpt><trkpt lat="43.8131767" lon="11.512745"><ele>473.0</ele><time>2026-04-23T17:08:47.016Z</time></trkpt><trkpt lat="43.8130783" lon="11.512845"><ele>474.6666666666667</ele><time>2026-04-23T17:10:50.016Z</time></trkpt><trkpt lat="43.81301" lon="11.5127967"><ele>476.33333333333337</ele><time>2026-04-23T17:10:53.016Z</time></trkpt><trkpt lat="43.81293" lon="11.51275"><ele>478.0</ele><time>2026-04-23T17:10:56.016Z</time></trkpt><trkpt lat="43.8128617" lon="11.51272"><ele>478.00000000000006</ele><time>2026-04-23T17:10:58.016Z</time></trkpt><trkpt lat="43.81279" lon="11.5126767"><ele>478.0</ele><time>2026-04-23T17:11:00.016Z</time></trkpt><trkpt lat="43.8127067" lon="11.512635"><ele>478.0</ele><time>2026-04-23T17:11:02.017Z</time></trkpt><trkpt lat="43.8126433" lon="11.5126167"><ele>478.0</ele><time>2026-04-23T17:11:04.016Z</time></trkpt><trkpt lat="43.8125717" lon="11.5125933"><ele>478.00000000000006</ele><time>2026-04-23T17:11:06.017Z</time></trkpt><trkpt lat="43.8124983" lon="11.5125767"><ele>478.0</ele><time>2026-04-23T17:11:08.016Z</time></trkpt><trkpt lat="43.8124083" lon="11.5125633"><ele>479.50000000000006</ele><time>2026-04-23T17:11:10.016Z</time></trkpt><trkpt lat="43.8123067" lon="11.5125367"><ele>481.0</ele><time>2026-04-23T17:11:12.016Z</time></trkpt><trkpt lat="43.8122167" lon="11.5125217"><ele>482.5</ele><time>2026-04-23T17:11:15.016Z</time></trkpt><trkpt lat="43.8121517" lon="11.5125117"><ele>484.0</ele><time>2026-04-23T17:11:17.016Z</time></trkpt><trkpt lat="43.81208" lon="11.5125083"><ele>485.50000000000006</ele><time>2026-04-23T17:11:19.016Z</time></trkpt><trkpt lat="43.8120017" lon="11.51251"><ele>487.0</ele><time>2026-04-23T17:11:21.016Z</time></trkpt><trkpt lat="43.81193" lon="11.5125067"><ele>487.0</ele><time>2026-04-23T17:11:23.016Z</time></trkpt><trkpt lat="43.81185" lon="11.51248"><ele>487.0</ele><time>2026-04-23T17:11:26.017Z</time></trkpt><trkpt lat="43.8117933" lon="11.51244"><ele>487.0</ele><time>2026-04-23T17:11:29.016Z</time></trkpt><trkpt lat="43.811725" lon="11.5124317"><ele>487.0</ele><time>2026-04-23T17:11:32.017Z</time></trkpt><trkpt lat="43.81164" lon="11.5124267"><ele>487.0</ele><time>2026-04-23T17:11:35.017Z</time></trkpt><trkpt lat="43.8115667" lon="11.5124217"><ele>487.0</ele><time>2026-04-23T17:11:37.016Z</time></trkpt><trkpt lat="43.8115033" lon="11.5124167"><ele>487.0</ele><time>2026-04-23T17:11:39.016Z</time></trkpt><trkpt lat="43.811415" lon="11.5124067"><ele>487.6666666666667</ele><time>2026-04-23T17:11:42.016Z</time></trkpt><trkpt lat="43.8113517" lon="11.5124067"><ele>488.33333333333337</ele><time>2026-04-23T17:11:44.016Z</time></trkpt><trkpt lat="43.8112733" lon="11.512405"><ele>489.0</ele><time>2026-04-23T17:11:47.017Z</time></trkpt><trkpt lat="43.8111817" lon="11.512425"><ele>489.66666666666663</ele><time>2026-04-23T17:11:50.016Z</time></trkpt><trkpt lat="43.811115" lon="11.5124483"><ele>490.3333333333333</ele><time>2026-04-23T17:11:53.017Z</time></trkpt><trkpt lat="43.8110283" lon="11.5124783"><ele>491.0</ele><time>2026-04-23T17:11:57.016Z</time></trkpt><trkpt lat="43.8109317" lon="11.5124967"><ele>492.16666666666663</ele><time>2026-04-23T17:12:00.017Z</time></trkpt><trkpt lat="43.8108383" lon="11.51247"><ele>493.3333333333333</ele><time>2026-04-23T17:12:02.016Z</time></trkpt><trkpt lat="43.8107633" lon="11.512465"><ele>494.5</ele><time>2026-04-23T17:12:05.016Z</time></trkpt><trkpt lat="43.8106917" lon="11.512475"><ele>495.66666666666663</ele><time>2026-04-23T17:12:15.016Z</time></trkpt><trkpt lat="43.81063" lon="11.5124567"><ele>496.8333333333333</ele><time>2026-04-23T17:12:17.016Z</time></trkpt><trkpt lat="43.8105467" lon="11.512425"><ele>498.0</ele><time>2026-04-23T17:12:20.016Z</time></trkpt><trkpt lat="43.81048" lon="11.5124083"><ele>498.0</ele><time>2026-04-23T17:12:22.016Z</time></trkpt><trkpt lat="43.8103917" lon="11.5123683"><ele>498.0</ele><time>2026-04-23T17:12:25.016Z</time></trkpt><trkpt lat="43.8103283" lon="11.5123267"><ele>498.0</ele><time>2026-04-23T17:12:27.016Z</time></trkpt><trkpt lat="43.8102533" lon="11.5122917"><ele>498.0</ele><time>2026-04-23T17:12:30.016Z</time></trkpt><trkpt lat="43.81019" lon="11.5122717"><ele>498.0</ele><time>2026-04-23T17:12:32.017Z</time></trkpt><trkpt lat="43.8100917" lon="11.5122617"><ele>498.0</ele><time>2026-04-23T17:12:34.016Z</time></trkpt><trkpt lat="43.810025" lon="11.5122817"><ele>498.5</ele><time>2026-04-23T17:12:36.017Z</time></trkpt><trkpt lat="43.8099733" lon="11.5123517"><ele>499.0</ele><time>2026-04-23T17:12:39.016Z</time></trkpt><trkpt lat="43.8099183" lon="11.5124083"><ele>499.5</ele><time>2026-04-23T17:12:43.016Z</time></trkpt><trkpt lat="43.8098583" lon="11.5124467"><ele>500.0</ele><time>2026-04-23T17:12:46.016Z</time></trkpt><trkpt lat="43.8097933" lon="11.5124917"><ele>500.5</ele><time>2026-04-23T17:12:49.016Z</time></trkpt><trkpt lat="43.8097383" lon="11.5126133"><ele>501.0</ele><time>2026-04-23T17:12:52.017Z</time></trkpt><trkpt lat="43.8097" lon="11.5127267"><ele>501.0</ele><time>2026-04-23T17:12:54.016Z</time></trkpt><trkpt lat="43.809655" lon="11.5128433"><ele>501.0</ele><time>2026-04-23T17:12:56.016Z</time></trkpt><trkpt lat="43.8096117" lon="11.5129417"><ele>501.0</ele><time>2026-04-23T17:12:58.016Z</time></trkpt><trkpt lat="43.8095683" lon="11.5130117"><ele>501.0</ele><time>2026-04-23T17:13:00.017Z</time></trkpt><trkpt lat="43.809515" lon="11.5131083"><ele>501.0</ele><time>2026-04-23T17:13:03.016Z</time></trkpt><trkpt lat="43.8094367" lon="11.5131783"><ele>501.0</ele><time>2026-04-23T17:13:06.016Z</time></trkpt><trkpt lat="43.8093733" lon="11.5132417"><ele>500.6666666666667</ele><time>2026-04-23T17:13:09.016Z</time></trkpt><trkpt lat="43.80931" lon="11.5133133"><ele>500.33333333333337</ele><time>2026-04-23T17:13:13.017Z</time></trkpt><trkpt lat="43.8092417" lon="11.513355"><ele>500.0</ele><time>2026-04-23T17:13:16.016Z</time></trkpt><trkpt lat="43.809175" lon="11.5133067"><ele>499.6666666666667</ele><time>2026-04-23T17:13:19.016Z</time></trkpt><trkpt lat="43.8091483" lon="11.5131933"><ele>499.33333333333337</ele><time>2026-04-23T17:13:22.017Z</time></trkpt><trkpt lat="43.80915" lon="11.5130767"><ele>499.0</ele><time>2026-04-23T17:13:25.016Z</time></trkpt><trkpt lat="43.80911" lon="11.5129483"><ele>497.1666666666667</ele><time>2026-04-23T17:13:28.017Z</time></trkpt><trkpt lat="43.8090533" lon="11.5128617"><ele>495.33333333333337</ele><time>2026-04-23T17:13:30.016Z</time></trkpt><trkpt lat="43.8089883" lon="11.5128033"><ele>493.5</ele><time>2026-04-23T17:13:32.016Z</time></trkpt><trkpt lat="43.8089217" lon="11.5127617"><ele>491.66666666666663</ele><time>2026-04-23T17:13:34.016Z</time></trkpt><trkpt lat="43.808845" lon="11.5127217"><ele>489.8333333333333</ele><time>2026-04-23T17:13:36.017Z</time></trkpt><trkpt lat="43.808775" lon="11.51271"><ele>488.0</ele><time>2026-04-23T17:13:38.016Z</time></trkpt><trkpt lat="43.80872" lon="11.5126633"><ele>488.0</ele><time>2026-04-23T17:13:46.016Z</time></trkpt><trkpt lat="43.8086317" lon="11.5126917"><ele>487.99999999999994</ele><time>2026-04-23T17:13:49.016Z</time></trkpt><trkpt lat="43.8085367" lon="11.5127183"><ele>487.99999999999994</ele><time>2026-04-23T17:13:51.016Z</time></trkpt><trkpt lat="43.8084383" lon="11.5127467"><ele>488.0</ele><time>2026-04-23T17:13:53.017Z</time></trkpt><trkpt lat="43.80835" lon="11.5127683"><ele>488.0</ele><time>2026-04-23T17:13:55.016Z</time></trkpt><trkpt lat="43.8082717" lon="11.51279"><ele>488.66666666666663</ele><time>2026-04-23T17:13:57.016Z</time></trkpt><trkpt lat="43.8081883" lon="11.5128167"><ele>489.3333333333333</ele><time>2026-04-23T17:13:59.016Z</time></trkpt><trkpt lat="43.8080967" lon="11.51283"><ele>490.0</ele><time>2026-04-23T17:14:01.016Z</time></trkpt><trkpt lat="43.808015" lon="11.512835"><ele>490.66666666666663</ele><time>2026-04-23T17:14:03.017Z</time></trkpt><trkpt lat="43.8079233" lon="11.5128233"><ele>491.3333333333333</ele><time>2026-04-23T17:14:05.017Z</time></trkpt><trkpt lat="43.8078317" lon="11.5128283"><ele>492.0</ele><time>2026-04-23T17:14:07.017Z</time></trkpt><trkpt lat="43.80774" lon="11.51284"><ele>492.6666666666667</ele><time>2026-04-23T17:14:09.016Z</time></trkpt><trkpt lat="43.8076467" lon="11.5128717"><ele>493.33333333333337</ele><time>2026-04-23T17:14:11.016Z</time></trkpt><trkpt lat="43.80755" lon="11.512885"><ele>494.0</ele><time>2026-04-23T17:14:13.016Z</time></trkpt><trkpt lat="43.8074683" lon="11.5128733"><ele>494.6666666666667</ele><time>2026-04-23T17:14:15.017Z</time></trkpt><trkpt lat="43.80739" lon="11.51286"><ele>495.33333333333337</ele><time>2026-04-23T17:14:17.016Z</time></trkpt><trkpt lat="43.8073" lon="11.512825"><ele>496.0</ele><time>2026-04-23T17:14:19.016Z</time></trkpt><trkpt lat="43.8072117" lon="11.5127867"><ele>496.00000000000006</ele><time>2026-04-23T17:14:21.016Z</time></trkpt><trkpt lat="43.8071283" lon="11.5127633"><ele>496.0</ele><time>2026-04-23T17:14:23.016Z</time></trkpt><trkpt lat="43.8070367" lon="11.5127433"><ele>496.0</ele><time>2026-04-23T17:14:25.017Z</time></trkpt><trkpt lat="43.8069617" lon="11.51274"><ele>496.0</ele><time>2026-04-23T17:14:27.016Z</time></trkpt><trkpt lat="43.8068933" lon="11.5127783"><ele>496.00000000000006</ele><time>2026-04-23T17:14:29.016Z</time></trkpt><trkpt lat="43.8068083" lon="11.5127833"><ele>496.0</ele><time>2026-04-23T17:14:31.016Z</time></trkpt><trkpt lat="43.80672" lon="11.5128067"><ele>498.0</ele><time>2026-04-23T17:14:33.016Z</time></trkpt><trkpt lat="43.8066233" lon="11.5128317"><ele>500.0</ele><time>2026-04-23T17:14:35.016Z</time></trkpt><trkpt lat="43.8065233" lon="11.5128817"><ele>502.0</ele><time>2026-04-23T17:14:37.016Z</time></trkpt><trkpt lat="43.80642" lon="11.512945"><ele>504.0</ele><time>2026-04-23T17:14:39.016Z</time></trkpt><trkpt lat="43.8063483" lon="11.512995"><ele>506.0</ele><time>2026-04-23T17:14:41.016Z</time></trkpt><trkpt lat="43.8063133" lon="11.51312"><ele>509.0</ele><time>2026-04-23T17:14:45.016Z</time></trkpt><trkpt lat="43.8063033" lon="11.5132617"><ele>512.0</ele><time>2026-04-23T17:14:47.016Z</time></trkpt><trkpt lat="43.806295" lon="11.5134067"><ele>515.0</ele><time>2026-04-23T17:14:49.016Z</time></trkpt><trkpt lat="43.806285" lon="11.5135417"><ele>518.0</ele><time>2026-04-23T17:14:51.017Z</time></trkpt><trkpt lat="43.806275" lon="11.5136433"><ele>521.0</ele><time>2026-04-23T17:14:53.016Z</time></trkpt><trkpt lat="43.8062717" lon="11.5137667"><ele>522.0</ele><time>2026-04-23T17:14:55.016Z</time></trkpt><trkpt lat="43.8062617" lon="11.513935"><ele>523.0</ele><time>2026-04-23T17:14:57.017Z</time></trkpt><trkpt lat="43.806265" lon="11.5140533"><ele>524.0</ele><time>2026-04-23T17:14:58.017Z</time></trkpt><trkpt lat="43.80626" lon="11.5141567"><ele>525.0</ele><time>2026-04-23T17:14:59.016Z</time></trkpt><trkpt lat="43.8062533" lon="11.5142667"><ele>526.0</ele><time>2026-04-23T17:15:00.017Z</time></trkpt><trkpt lat="43.80624" lon="11.5143717"><ele>527.0</ele><time>2026-04-23T17:15:01.017Z</time></trkpt><trkpt lat="43.8062167" lon="11.5144767"><ele>527.8000000000001</ele><time>2026-04-23T17:15:02.017Z</time></trkpt><trkpt lat="43.806195" lon="11.5145783"><ele>528.6</ele><time>2026-04-23T17:15:03.016Z</time></trkpt><trkpt lat="43.8061767" lon="11.51469"><ele>529.4000000000001</ele><time>2026-04-23T17:15:04.016Z</time></trkpt><trkpt lat="43.8061533" lon="11.5147917"><ele>530.2</ele><time>2026-04-23T17:15:05.017Z</time></trkpt><trkpt lat="43.8061383" lon="11.51495"><ele>531.0</ele><time>2026-04-23T17:15:07.017Z</time></trkpt><trkpt lat="43.8061367" lon="11.5151233"><ele>531.0</ele><time>2026-04-23T17:15:09.016Z</time></trkpt><trkpt lat="43.8061417" lon="11.515215"><ele>531.0</ele><time>2026-04-23T17:15:10.016Z</time></trkpt><trkpt lat="43.8061333" lon="11.5153167"><ele>531.0</ele><time>2026-04-23T17:15:11.016Z</time></trkpt><trkpt lat="43.806125" lon="11.5154233"><ele>531.0</ele><time>2026-04-23T17:15:12.016Z</time></trkpt><trkpt lat="43.8061183" lon="11.5155217"><ele>531.0</ele><time>2026-04-23T17:15:13.016Z</time></trkpt><trkpt lat="43.8060983" lon="11.5156183"><ele>531.0</ele><time>2026-04-23T17:15:14.016Z</time></trkpt><trkpt lat="43.8060633" lon="11.5157267"><ele>531.0</ele><time>2026-04-23T17:15:15.017Z</time></trkpt><trkpt lat="43.8060317" lon="11.5158233"><ele>531.2</ele><time>2026-04-23T17:15:16.016Z</time></trkpt><trkpt lat="43.80599" lon="11.5159383"><ele>531.4000000000001</ele><time>2026-04-23T17:15:17.017Z</time></trkpt><trkpt lat="43.80597" lon="11.5160317"><ele>531.6</ele><time>2026-04-23T17:15:18.016Z</time></trkpt><trkpt lat="43.8059533" lon="11.5161233"><ele>531.8000000000001</ele><time>2026-04-23T17:15:19.016Z</time></trkpt><trkpt lat="43.8059067" lon="11.5162667"><ele>532.0</ele><time>2026-04-23T17:15:21.016Z</time></trkpt><trkpt lat="43.80584" lon="11.5164183"><ele>534.0</ele><time>2026-04-23T17:15:23.016Z</time></trkpt><trkpt lat="43.8057783" lon="11.5165417"><ele>536.0</ele><time>2026-04-23T17:15:25.016Z</time></trkpt><trkpt lat="43.805735" lon="11.5166533"><ele>538.0</ele><time>2026-04-23T17:15:27.016Z</time></trkpt><trkpt lat="43.805745" lon="11.5167733"><ele>540.0</ele><time>2026-04-23T17:15:29.016Z</time></trkpt><trkpt lat="43.8057683" lon="11.5169017"><ele>542.0</ele><time>2026-04-23T17:15:31.016Z</time></trkpt><trkpt lat="43.8057933" lon="11.5170533"><ele>545.25</ele><time>2026-04-23T17:15:33.016Z</time></trkpt><trkpt lat="43.80579" lon="11.51721"><ele>548.5</ele><time>2026-04-23T17:15:35.016Z</time></trkpt><trkpt lat="43.8057533" lon="11.5173567"><ele>551.75</ele><time>2026-04-23T17:15:37.016Z</time></trkpt><trkpt lat="43.8057083" lon="11.51752"><ele>555.0</ele><time>2026-04-23T17:15:39.016Z</time></trkpt><trkpt lat="43.8056883" lon="11.51766"><ele>555.0</ele><time>2026-04-23T17:15:41.016Z</time></trkpt><trkpt lat="43.8056983" lon="11.5177933"><ele>555.0</ele><time>2026-04-23T17:15:43.016Z</time></trkpt><trkpt lat="43.8057083" lon="11.51797"><ele>555.0</ele><time>2026-04-23T17:15:45.016Z</time></trkpt><trkpt lat="43.80572" lon="11.5180733"><ele>555.0</ele><time>2026-04-23T17:15:46.016Z</time></trkpt><trkpt lat="43.8057267" lon="11.5181717"><ele>555.0</ele><time>2026-04-23T17:15:47.016Z</time></trkpt><trkpt lat="43.805725" lon="11.5182617"><ele>555.0</ele><time>2026-04-23T17:15:48.016Z</time></trkpt><trkpt lat="43.8057133" lon="11.51835"><ele>557.0000000000001</ele><time>2026-04-23T17:15:49.017Z</time></trkpt><trkpt lat="43.805685" lon="11.5184283"><ele>559.0</ele><time>2026-04-23T17:15:50.017Z</time></trkpt><trkpt lat="43.8056467" lon="11.5185017"><ele>561.0</ele><time>2026-04-23T17:15:51.017Z</time></trkpt><trkpt lat="43.8055917" lon="11.5185733"><ele>563.0</ele><time>2026-04-23T17:15:52.017Z</time></trkpt><trkpt lat="43.8055283" lon="11.518635"><ele>565.0</ele><time>2026-04-23T17:15:53.017Z</time></trkpt><trkpt lat="43.8054633" lon="11.5187"><ele>567.0000000000001</ele><time>2026-04-23T17:15:54.017Z</time></trkpt><trkpt lat="43.8054133" lon="11.5187583"><ele>569.0</ele><time>2026-04-23T17:15:55.017Z</time></trkpt><trkpt lat="43.80536" lon="11.5188233"><ele>567.3333333333333</ele><time>2026-04-23T17:15:56.017Z</time></trkpt><trkpt lat="43.8053083" lon="11.5189133"><ele>565.6666666666666</ele><time>2026-04-23T17:15:57.017Z</time></trkpt><trkpt lat="43.8052583" lon="11.5190083"><ele>564.0</ele><time>2026-04-23T17:15:58.017Z</time></trkpt><trkpt lat="43.8052167" lon="11.5191033"><ele>562.3333333333334</ele><time>2026-04-23T17:15:59.017Z</time></trkpt><trkpt lat="43.80518" lon="11.51919"><ele>560.6666666666667</ele><time>2026-04-23T17:16:00.018Z</time></trkpt><trkpt lat="43.805165" lon="11.519275"><ele>559.0</ele><time>2026-04-23T17:16:01.017Z</time></trkpt><trkpt lat="43.8051583" lon="11.51942"><ele>560.8</ele><time>2026-04-23T17:16:03.017Z</time></trkpt><trkpt lat="43.8051667" lon="11.5195767"><ele>562.5999999999999</ele><time>2026-04-23T17:16:05.018Z</time></trkpt><trkpt lat="43.8051417" lon="11.51973"><ele>564.4</ele><time>2026-04-23T17:16:07.018Z</time></trkpt><trkpt lat="43.8050883" lon="11.5198283"><ele>566.1999999999999</ele><time>2026-04-23T17:16:09.017Z</time></trkpt><trkpt lat="43.8049833" lon="11.5199183"><ele>568.0</ele><time>2026-04-23T17:16:11.018Z</time></trkpt><trkpt lat="43.8049167" lon="11.5199683"><ele>568.0</ele><time>2026-04-23T17:16:12.017Z</time></trkpt><trkpt lat="43.804805" lon="11.5200433"><ele>568.0</ele><time>2026-04-23T17:16:14.017Z</time></trkpt><trkpt lat="43.8047167" lon="11.5201117"><ele>568.0</ele><time>2026-04-23T17:16:16.018Z</time></trkpt><trkpt lat="43.8046767" lon="11.5201867"><ele>568.0</ele><time>2026-04-23T17:16:18.017Z</time></trkpt><trkpt lat="43.80467" lon="11.520275"><ele>568.0</ele><time>2026-04-23T17:16:20.018Z</time></trkpt><trkpt lat="43.8047017" lon="11.5203917"><ele>568.0</ele><time>2026-04-23T17:16:43.018Z</time></trkpt><trkpt lat="43.8047367" lon="11.52051"><ele>568.4</ele><time>2026-04-23T17:16:45.017Z</time></trkpt><trkpt lat="43.8047817" lon="11.5206733"><ele>568.8</ele><time>2026-04-23T17:16:47.017Z</time></trkpt><trkpt lat="43.8048267" lon="11.5208533"><ele>569.2</ele><time>2026-04-23T17:16:49.017Z</time></trkpt><trkpt lat="43.8048517" lon="11.5209683"><ele>569.6</ele><time>2026-04-23T17:16:50.017Z</time></trkpt><trkpt lat="43.80488" lon="11.5210867"><ele>570.0</ele><time>2026-04-23T17:16:51.017Z</time></trkpt><trkpt lat="43.80491" lon="11.5212067"><ele>570.0</ele><time>2026-04-23T17:16:52.017Z</time></trkpt><trkpt lat="43.8049367" lon="11.5213317"><ele>570.0</ele><time>2026-04-23T17:16:53.018Z</time></trkpt><trkpt lat="43.8049733" lon="11.5214567"><ele>570.0</ele><time>2026-04-23T17:16:54.018Z</time></trkpt><trkpt lat="43.8050017" lon="11.52158"><ele>570.0</ele><time>2026-04-23T17:16:55.017Z</time></trkpt><trkpt lat="43.8050283" lon="11.5216933"><ele>570.0</ele><time>2026-04-23T17:16:56.017Z</time></trkpt><trkpt lat="43.8050533" lon="11.5218233"><ele>570.0</ele><time>2026-04-23T17:16:57.018Z</time></trkpt><trkpt lat="43.80509" lon="11.5219517"><ele>570.0</ele><time>2026-04-23T17:16:58.017Z</time></trkpt><trkpt lat="43.8051267" lon="11.5220783"><ele>570.0</ele><time>2026-04-23T17:16:59.018Z</time></trkpt><trkpt lat="43.8051533" lon="11.5221833"><ele>570.0</ele><time>2026-04-23T17:17:00.018Z</time></trkpt><trkpt lat="43.8051783" lon="11.5222683"><ele>570.0</ele><time>2026-04-23T17:17:01.017Z</time></trkpt><trkpt lat="43.8052083" lon="11.5224367"><ele>570.6</ele><time>2026-04-23T17:17:03.017Z</time></trkpt><trkpt lat="43.8052117" lon="11.5225883"><ele>571.2</ele><time>2026-04-23T17:17:05.018Z</time></trkpt><trkpt lat="43.8051567" lon="11.5227183"><ele>571.8</ele><time>2026-04-23T17:17:07.017Z</time></trkpt><trkpt lat="43.8050517" lon="11.5228433"><ele>572.4</ele><time>2026-04-23T17:17:09.017Z</time></trkpt><trkpt lat="43.8049867" lon="11.522915"><ele>573.0</ele><time>2026-04-23T17:17:10.018Z</time></trkpt><trkpt lat="43.80492" lon="11.5229917"><ele>571.6666666666666</ele><time>2026-04-23T17:17:11.017Z</time></trkpt><trkpt lat="43.80485" lon="11.523065"><ele>570.3333333333334</ele><time>2026-04-23T17:17:12.017Z</time></trkpt><trkpt lat="43.80478" lon="11.5231317"><ele>569.0</ele><time>2026-04-23T17:17:13.018Z</time></trkpt><trkpt lat="43.8047083" lon="11.523185"><ele>567.6666666666667</ele><time>2026-04-23T17:17:14.017Z</time></trkpt><trkpt lat="43.80463" lon="11.5232483"><ele>566.3333333333334</ele><time>2026-04-23T17:17:15.017Z</time></trkpt><trkpt lat="43.8045417" lon="11.5233117"><ele>565.0</ele><time>2026-04-23T17:17:16.017Z</time></trkpt><trkpt lat="43.80445" lon="11.52337"><ele>565.0</ele><time>2026-04-23T17:17:17.017Z</time></trkpt><trkpt lat="43.80436" lon="11.5234233"><ele>565.0</ele><time>2026-04-23T17:17:18.017Z</time></trkpt><trkpt lat="43.8042717" lon="11.5234717"><ele>565.0</ele><time>2026-04-23T17:17:19.018Z</time></trkpt><trkpt lat="43.8041883" lon="11.52351"><ele>565.0</ele><time>2026-04-23T17:17:20.017Z</time></trkpt><trkpt lat="43.8041183" lon="11.523555"><ele>565.0</ele><time>2026-04-23T17:17:21.017Z</time></trkpt><trkpt lat="43.8040517" lon="11.5236083"><ele>565.0</ele><time>2026-04-23T17:17:22.017Z</time></trkpt><trkpt lat="43.803995" lon="11.5236783"><ele>566.0</ele><time>2026-04-23T17:17:23.017Z</time></trkpt><trkpt lat="43.803945" lon="11.5237533"><ele>567.0</ele><time>2026-04-23T17:17:24.017Z</time></trkpt><trkpt lat="43.803905" lon="11.5238233"><ele>568.0</ele><time>2026-04-23T17:17:25.018Z</time></trkpt><trkpt lat="43.8038167" lon="11.523895"><ele>569.0</ele><time>2026-04-23T17:17:27.017Z</time></trkpt><trkpt lat="43.8036917" lon="11.52392"><ele>570.0</ele><time>2026-04-23T17:17:29.017Z</time></trkpt><trkpt lat="43.8036183" lon="11.5239317"><ele>571.0</ele><time>2026-04-23T17:17:30.018Z</time></trkpt><trkpt lat="43.8035383" lon="11.5239467"><ele>574.6666666666667</ele><time>2026-04-23T17:17:31.017Z</time></trkpt><trkpt lat="43.8034633" lon="11.5239533"><ele>578.3333333333334</ele><time>2026-04-23T17:17:32.017Z</time></trkpt><trkpt lat="43.80338" lon="11.5239567"><ele>582.0</ele><time>2026-04-23T17:17:33.017Z</time></trkpt><trkpt lat="43.8033017" lon="11.52396"><ele>585.6666666666666</ele><time>2026-04-23T17:17:34.018Z</time></trkpt><trkpt lat="43.8032333" lon="11.52395"><ele>589.3333333333333</ele><time>2026-04-23T17:17:35.017Z</time></trkpt><trkpt lat="43.8031183" lon="11.523955"><ele>593.0</ele><time>2026-04-23T17:17:37.018Z</time></trkpt><trkpt lat="43.8030117" lon="11.523975"><ele>593.0</ele><time>2026-04-23T17:17:39.017Z</time></trkpt><trkpt lat="43.8029233" lon="11.5240167"><ele>593.0</ele><time>2026-04-23T17:17:41.017Z</time></trkpt><trkpt lat="43.8028417" lon="11.5241033"><ele>593.0</ele><time>2026-04-23T17:17:43.018Z</time></trkpt><trkpt lat="43.8027517" lon="11.5242467"><ele>593.0</ele><time>2026-04-23T17:17:45.018Z</time></trkpt><trkpt lat="43.8026917" lon="11.52433"><ele>593.0</ele><time>2026-04-23T17:17:46.017Z</time></trkpt><trkpt lat="43.8026383" lon="11.5244067"><ele>593.1428571428571</ele><time>2026-04-23T17:17:47.017Z</time></trkpt><trkpt lat="43.8025883" lon="11.52447"><ele>593.2857142857142</ele><time>2026-04-23T17:17:48.017Z</time></trkpt><trkpt lat="43.802535" lon="11.52453"><ele>593.4285714285714</ele><time>2026-04-23T17:17:49.018Z</time></trkpt><trkpt lat="43.80247" lon="11.5245733"><ele>593.5714285714286</ele><time>2026-04-23T17:17:50.018Z</time></trkpt><trkpt lat="43.802405" lon="11.5246083"><ele>593.7142857142858</ele><time>2026-04-23T17:17:51.018Z</time></trkpt><trkpt lat="43.8023417" lon="11.5246533"><ele>593.8571428571429</ele><time>2026-04-23T17:17:52.017Z</time></trkpt><trkpt lat="43.8022817" lon="11.5247083"><ele>594.0</ele><time>2026-04-23T17:17:53.017Z</time></trkpt><trkpt lat="43.8022333" lon="11.524765"><ele>595.5</ele><time>2026-04-23T17:17:54.017Z</time></trkpt><trkpt lat="43.802175" lon="11.52483"><ele>597.0</ele><time>2026-04-23T17:17:55.017Z</time></trkpt><trkpt lat="43.8021267" lon="11.5249"><ele>598.5</ele><time>2026-04-23T17:17:56.018Z</time></trkpt><trkpt lat="43.80208" lon="11.5249667"><ele>600.0</ele><time>2026-04-23T17:17:57.017Z</time></trkpt><trkpt lat="43.80204" lon="11.525035"><ele>601.5</ele><time>2026-04-23T17:17:58.017Z</time></trkpt><trkpt lat="43.8019767" lon="11.5251767"><ele>603.0</ele><time>2026-04-23T17:18:00.017Z</time></trkpt><trkpt lat="43.801945" lon="11.52526"><ele>603.0</ele><time>2026-04-23T17:18:01.018Z</time></trkpt><trkpt lat="43.8018783" lon="11.5253917"><ele>603.0</ele><time>2026-04-23T17:18:03.017Z</time></trkpt><trkpt lat="43.8017983" lon="11.5255167"><ele>603.0</ele><time>2026-04-23T17:18:05.017Z</time></trkpt><trkpt lat="43.8017417" lon="11.5255917"><ele>603.0</ele><time>2026-04-23T17:18:06.017Z</time></trkpt><trkpt lat="43.8016767" lon="11.5256633"><ele>603.0</ele><time>2026-04-23T17:18:07.017Z</time></trkpt><trkpt lat="43.8016083" lon="11.52574"><ele>603.8333333333334</ele><time>2026-04-23T17:18:08.017Z</time></trkpt><trkpt lat="43.8015367" lon="11.52582"><ele>604.6666666666666</ele><time>2026-04-23T17:18:09.017Z</time></trkpt><trkpt lat="43.8014667" lon="11.525895"><ele>605.5</ele><time>2026-04-23T17:18:10.017Z</time></trkpt><trkpt lat="43.8013917" lon="11.525965"><ele>606.3333333333333</ele><time>2026-04-23T17:18:11.018Z</time></trkpt><trkpt lat="43.801315" lon="11.5260267"><ele>607.1666666666666</ele><time>2026-04-23T17:18:12.017Z</time></trkpt><trkpt lat="43.8012367" lon="11.5260683"><ele>608.0</ele><time>2026-04-23T17:18:13.017Z</time></trkpt><trkpt lat="43.8011583" lon="11.5261067"><ele>608.0</ele><time>2026-04-23T17:18:14.017Z</time></trkpt><trkpt lat="43.8010833" lon="11.5261317"><ele>608.0</ele><time>2026-04-23T17:18:15.017Z</time></trkpt><trkpt lat="43.80101" lon="11.5261633"><ele>608.0</ele><time>2026-04-23T17:18:16.018Z</time></trkpt><trkpt lat="43.80093" lon="11.5261933"><ele>608.0</ele><time>2026-04-23T17:18:17.017Z</time></trkpt><trkpt lat="43.8008617" lon="11.5262217"><ele>608.0</ele><time>2026-04-23T17:18:18.017Z</time></trkpt><trkpt lat="43.800755" lon="11.5262917"><ele>608.0</ele><time>2026-04-23T17:18:20.017Z</time></trkpt><trkpt lat="43.8006717" lon="11.526425"><ele>609.8571428571428</ele><time>2026-04-23T17:18:22.017Z</time></trkpt><trkpt lat="43.80063" lon="11.5264983"><ele>611.7142857142858</ele><time>2026-04-23T17:18:23.018Z</time></trkpt><trkpt lat="43.800585" lon="11.5265633"><ele>613.5714285714286</ele><time>2026-04-23T17:18:24.017Z</time></trkpt><trkpt lat="43.8005233" lon="11.5266167"><ele>615.4285714285713</ele><time>2026-04-23T17:18:25.017Z</time></trkpt><trkpt lat="43.8004517" lon="11.5266683"><ele>617.2857142857142</ele><time>2026-04-23T17:18:26.017Z</time></trkpt><trkpt lat="43.8003833" lon="11.526715"><ele>619.1428571428571</ele><time>2026-04-23T17:18:27.017Z</time></trkpt><trkpt lat="43.8003117" lon="11.5267533"><ele>621.0</ele><time>2026-04-23T17:18:28.017Z</time></trkpt><trkpt lat="43.8002367" lon="11.52679"><ele>623.6666666666666</ele><time>2026-04-23T17:18:29.018Z</time></trkpt><trkpt lat="43.8001567" lon="11.5268283"><ele>626.3333333333334</ele><time>2026-04-23T17:18:30.017Z</time></trkpt><trkpt lat="43.80008" lon="11.5268667"><ele>629.0</ele><time>2026-04-23T17:18:31.018Z</time></trkpt><trkpt lat="43.8000033" lon="11.526905"><ele>631.6666666666667</ele><time>2026-04-23T17:18:32.017Z</time></trkpt><trkpt lat="43.7999167" lon="11.5269533"><ele>634.3333333333334</ele><time>2026-04-23T17:18:33.017Z</time></trkpt><trkpt lat="43.7998367" lon="11.5269917"><ele>637.0</ele><time>2026-04-23T17:18:34.017Z</time></trkpt><trkpt lat="43.7997617" lon="11.5270283"><ele>637.0</ele><time>2026-04-23T17:18:35.017Z</time></trkpt><trkpt lat="43.7996933" lon="11.527055"><ele>637.0</ele><time>2026-04-23T17:18:36.017Z</time></trkpt><trkpt lat="43.799625" lon="11.5270717"><ele>637.0</ele><time>2026-04-23T17:18:37.018Z</time></trkpt><trkpt lat="43.79951" lon="11.5271"><ele>637.0</ele><time>2026-04-23T17:18:39.018Z</time></trkpt><trkpt lat="43.7994117" lon="11.5271417"><ele>637.0</ele><time>2026-04-23T17:18:41.017Z</time></trkpt><trkpt lat="43.7993183" lon="11.5272483"><ele>636.5714285714286</ele><time>2026-04-23T17:18:43.018Z</time></trkpt><trkpt lat="43.799275" lon="11.5273317"><ele>636.1428571428571</ele><time>2026-04-23T17:18:44.017Z</time></trkpt><trkpt lat="43.7992383" lon="11.527405"><ele>635.7142857142858</ele><time>2026-04-23T17:18:45.018Z</time></trkpt><trkpt lat="43.7991967" lon="11.52748"><ele>635.2857142857142</ele><time>2026-04-23T17:18:46.018Z</time></trkpt><trkpt lat="43.7991467" lon="11.5275533"><ele>634.8571428571429</ele><time>2026-04-23T17:18:47.017Z</time></trkpt><trkpt lat="43.7990817" lon="11.52762"><ele>634.4285714285714</ele><time>2026-04-23T17:18:48.017Z</time></trkpt><trkpt lat="43.7990133" lon="11.5276967"><ele>634.0</ele><time>2026-04-23T17:18:49.017Z</time></trkpt><trkpt lat="43.7989617" lon="11.5277733"><ele>634.0</ele><time>2026-04-23T17:18:50.018Z</time></trkpt><trkpt lat="43.7989133" lon="11.5278667"><ele>634.0</ele><time>2026-04-23T17:18:51.017Z</time></trkpt><trkpt lat="43.798875" lon="11.5279683"><ele>634.0</ele><time>2026-04-23T17:18:52.017Z</time></trkpt><trkpt lat="43.7988467" lon="11.5280683"><ele>634.0</ele><time>2026-04-23T17:18:53.018Z</time></trkpt><trkpt lat="43.7988117" lon="11.5281667"><ele>634.0</ele><time>2026-04-23T17:18:54.017Z</time></trkpt><trkpt lat="43.798785" lon="11.5282567"><ele>634.0</ele><time>2026-04-23T17:18:55.017Z</time></trkpt><trkpt lat="43.7987567" lon="11.5283467"><ele>633.1666666666667</ele><time>2026-04-23T17:18:56.017Z</time></trkpt><trkpt lat="43.79872" lon="11.5285"><ele>632.3333333333334</ele><time>2026-04-23T17:18:58.017Z</time></trkpt><trkpt lat="43.7987133" lon="11.528645"><ele>631.5</ele><time>2026-04-23T17:19:00.017Z</time></trkpt><trkpt lat="43.798725" lon="11.528735"><ele>630.6666666666666</ele><time>2026-04-23T17:19:01.017Z</time></trkpt><trkpt lat="43.7987483" lon="11.5288483"><ele>629.8333333333333</ele><time>2026-04-23T17:19:02.017Z</time></trkpt><trkpt lat="43.7987683" lon="11.5289483"><ele>629.0</ele><time>2026-04-23T17:19:03.017Z</time></trkpt><trkpt lat="43.7987967" lon="11.529065"><ele>629.0</ele><time>2026-04-23T17:19:04.017Z</time></trkpt><trkpt lat="43.798825" lon="11.5291683"><ele>629.0</ele><time>2026-04-23T17:19:05.017Z</time></trkpt><trkpt lat="43.798855" lon="11.5292833"><ele>629.0</ele><time>2026-04-23T17:19:06.018Z</time></trkpt><trkpt lat="43.7988867" lon="11.5294067"><ele>629.0</ele><time>2026-04-23T17:19:07.017Z</time></trkpt><trkpt lat="43.7989167" lon="11.529515"><ele>629.0</ele><time>2026-04-23T17:19:08.017Z</time></trkpt><trkpt lat="43.7989417" lon="11.529615"><ele>629.0</ele><time>2026-04-23T17:19:09.018Z</time></trkpt><trkpt lat="43.7989583" lon="11.52971"><ele>630.0</ele><time>2026-04-23T17:19:10.018Z</time></trkpt><trkpt lat="43.7989617" lon="11.5298167"><ele>631.0</ele><time>2026-04-23T17:19:11.017Z</time></trkpt><trkpt lat="43.798965" lon="11.5299233"><ele>632.0</ele><time>2026-04-23T17:19:12.018Z</time></trkpt><trkpt lat="43.7989733" lon="11.5300267"><ele>633.0</ele><time>2026-04-23T17:19:13.018Z</time></trkpt><trkpt lat="43.798985" lon="11.5301283"><ele>634.0</ele><time>2026-04-23T17:19:14.017Z</time></trkpt><trkpt lat="43.7990167" lon="11.5302733"><ele>635.0</ele><time>2026-04-23T17:19:16.018Z</time></trkpt><trkpt lat="43.7990233" lon="11.5304117"><ele>636.6</ele><time>2026-04-23T17:19:18.017Z</time></trkpt><trkpt lat="43.799005" lon="11.5305667"><ele>638.2</ele><time>2026-04-23T17:19:20.017Z</time></trkpt><trkpt lat="43.7989767" lon="11.5307267"><ele>639.8</ele><time>2026-04-23T17:19:22.017Z</time></trkpt><trkpt lat="43.7989683" lon="11.5308133"><ele>641.4</ele><time>2026-04-23T17:19:23.017Z</time></trkpt><trkpt lat="43.7989583" lon="11.5309433"><ele>643.0</ele><time>2026-04-23T17:19:25.018Z</time></trkpt><trkpt lat="43.7989367" lon="11.5312167"><ele>642.8333333333334</ele><time>2026-04-23T17:19:32.017Z</time></trkpt><trkpt lat="43.7989283" lon="11.531305"><ele>642.6666666666667</ele><time>2026-04-23T17:19:33.017Z</time></trkpt><trkpt lat="43.7989033" lon="11.5314867"><ele>642.5</ele><time>2026-04-23T17:19:35.017Z</time></trkpt><trkpt lat="43.798875" lon="11.5315817"><ele>642.3333333333334</ele><time>2026-04-23T17:19:36.018Z</time></trkpt><trkpt lat="43.79884" lon="11.5316783"><ele>642.1666666666666</ele><time>2026-04-23T17:19:37.018Z</time></trkpt><trkpt lat="43.7987983" lon="11.5317667"><ele>642.0</ele><time>2026-04-23T17:19:38.018Z</time></trkpt><trkpt lat="43.7987567" lon="11.531835"><ele>642.0</ele><time>2026-04-23T17:19:39.017Z</time></trkpt><trkpt lat="43.79868" lon="11.531955"><ele>642.0</ele><time>2026-04-23T17:19:41.018Z</time></trkpt><trkpt lat="43.7985667" lon="11.53204"><ele>642.0</ele><time>2026-04-23T17:19:43.018Z</time></trkpt><trkpt lat="43.7984933" lon="11.5320717"><ele>642.0</ele><time>2026-04-23T17:19:44.018Z</time></trkpt><trkpt lat="43.7984133" lon="11.5321033"><ele>642.0</ele><time>2026-04-23T17:19:45.018Z</time></trkpt><trkpt lat="43.7983433" lon="11.5321317"><ele>643.6666666666666</ele><time>2026-04-23T17:19:46.018Z</time></trkpt><trkpt lat="43.7982767" lon="11.5321667"><ele>645.3333333333334</ele><time>2026-04-23T17:19:47.017Z</time></trkpt><trkpt lat="43.7982033" lon="11.5321933"><ele>647.0</ele><time>2026-04-23T17:19:48.018Z</time></trkpt><trkpt lat="43.7981217" lon="11.532225"><ele>648.6666666666667</ele><time>2026-04-23T17:19:49.018Z</time></trkpt><trkpt lat="43.7980383" lon="11.5322467"><ele>650.3333333333334</ele><time>2026-04-23T17:19:50.017Z</time></trkpt><trkpt lat="43.7979533" lon="11.5322733"><ele>652.0</ele><time>2026-04-23T17:19:51.017Z</time></trkpt><trkpt lat="43.7978833" lon="11.5322983"><ele>652.0</ele><time>2026-04-23T17:19:52.018Z</time></trkpt><trkpt lat="43.7978167" lon="11.5323433"><ele>652.0</ele><time>2026-04-23T17:19:53.017Z</time></trkpt><trkpt lat="43.79775" lon="11.5323967"><ele>652.0</ele><time>2026-04-23T17:19:54.017Z</time></trkpt><trkpt lat="43.797685" lon="11.5324667"><ele>652.0</ele><time>2026-04-23T17:19:55.017Z</time></trkpt><trkpt lat="43.7976183" lon="11.5325367"><ele>652.0</ele><time>2026-04-23T17:19:56.017Z</time></trkpt><trkpt lat="43.7975483" lon="11.5326133"><ele>652.0</ele><time>2026-04-23T17:19:57.017Z</time></trkpt><trkpt lat="43.79748" lon="11.5326833"><ele>654.6666666666667</ele><time>2026-04-23T17:19:58.017Z</time></trkpt><trkpt lat="43.7974217" lon="11.5327533"><ele>657.3333333333334</ele><time>2026-04-23T17:19:59.017Z</time></trkpt><trkpt lat="43.7973083" lon="11.5328467"><ele>660.0</ele><time>2026-04-23T17:20:01.017Z</time></trkpt><trkpt lat="43.79725" lon="11.53289"><ele>662.6666666666666</ele><time>2026-04-23T17:20:02.017Z</time></trkpt><trkpt lat="43.7971917" lon="11.5329317"><ele>665.3333333333333</ele><time>2026-04-23T17:20:03.018Z</time></trkpt><trkpt lat="43.7971267" lon="11.5329883"><ele>668.0</ele><time>2026-04-23T17:20:04.017Z</time></trkpt><trkpt lat="43.7970683" lon="11.5330633"><ele>668.0</ele><time>2026-04-23T17:20:05.018Z</time></trkpt><trkpt lat="43.7970017" lon="11.5331383"><ele>668.0</ele><time>2026-04-23T17:20:06.018Z</time></trkpt><trkpt lat="43.796935" lon="11.5332133"><ele>668.0</ele><time>2026-04-23T17:20:07.017Z</time></trkpt><trkpt lat="43.7968767" lon="11.5332917"><ele>668.0</ele><time>2026-04-23T17:20:08.017Z</time></trkpt><trkpt lat="43.7968233" lon="11.5333683"><ele>668.0</ele><time>2026-04-23T17:20:09.017Z</time></trkpt><trkpt lat="43.7967717" lon="11.533445"><ele>668.0</ele><time>2026-04-23T17:20:10.018Z</time></trkpt><trkpt lat="43.7967283" lon="11.5335167"><ele>673.5999999999999</ele><time>2026-04-23T17:20:11.018Z</time></trkpt><trkpt lat="43.7966833" lon="11.53366"><ele>679.1999999999999</ele><time>2026-04-23T17:20:13.017Z</time></trkpt><trkpt lat="43.796665" lon="11.5338217"><ele>684.8</ele><time>2026-04-23T17:20:15.017Z</time></trkpt><trkpt lat="43.7966517" lon="11.5339167"><ele>690.4</ele><time>2026-04-23T17:20:16.017Z</time></trkpt><trkpt lat="43.796635" lon="11.534025"><ele>696.0</ele><time>2026-04-23T17:20:17.017Z</time></trkpt><trkpt lat="43.796615" lon="11.5341333"><ele>696.0</ele><time>2026-04-23T17:20:18.017Z</time></trkpt><trkpt lat="43.796595" lon="11.5342517"><ele>696.0</ele><time>2026-04-23T17:20:19.018Z</time></trkpt><trkpt lat="43.79657" lon="11.5343717"><ele>696.0</ele><time>2026-04-23T17:20:20.018Z</time></trkpt><trkpt lat="43.7965517" lon="11.5344867"><ele>696.0</ele><time>2026-04-23T17:20:21.017Z</time></trkpt><trkpt lat="43.7965367" lon="11.5345983"><ele>696.0</ele><time>2026-04-23T17:20:22.017Z</time></trkpt><trkpt lat="43.7965133" lon="11.5346967"><ele>696.0</ele><time>2026-04-23T17:20:23.017Z</time></trkpt><trkpt lat="43.796485" lon="11.53479"><ele>695.5</ele><time>2026-04-23T17:20:24.017Z</time></trkpt><trkpt lat="43.7964517" lon="11.5348733"><ele>695.0</ele><time>2026-04-23T17:20:25.018Z</time></trkpt><trkpt lat="43.7964167" lon="11.5349567"><ele>694.5</ele><time>2026-04-23T17:20:26.017Z</time></trkpt><trkpt lat="43.796385" lon="11.535045"><ele>694.0</ele><time>2026-04-23T17:20:27.017Z</time></trkpt><trkpt lat="43.796355" lon="11.53513"><ele>693.5</ele><time>2026-04-23T17:20:28.017Z</time></trkpt><trkpt lat="43.7963233" lon="11.5352167"><ele>693.0</ele><time>2026-04-23T17:20:29.017Z</time></trkpt><trkpt lat="43.796275" lon="11.5353567"><ele>693.8</ele><time>2026-04-23T17:20:31.017Z</time></trkpt><trkpt lat="43.796235" lon="11.5355167"><ele>694.5999999999999</ele><time>2026-04-23T17:20:33.018Z</time></trkpt><trkpt lat="43.796215" lon="11.5356083"><ele>695.4000000000001</ele><time>2026-04-23T17:20:34.017Z</time></trkpt><trkpt lat="43.7962067" lon="11.535705"><ele>696.2</ele><time>2026-04-23T17:20:35.017Z</time></trkpt><trkpt lat="43.7961883" lon="11.5358717"><ele>697.0</ele><time>2026-04-23T17:20:37.017Z</time></trkpt><trkpt lat="43.7961817" lon="11.53597"><ele>697.0</ele><time>2026-04-23T17:20:38.017Z</time></trkpt><trkpt lat="43.7961733" lon="11.5360567"><ele>697.0</ele><time>2026-04-23T17:20:39.017Z</time></trkpt><trkpt lat="43.7961467" lon="11.5361767"><ele>697.0</ele><time>2026-04-23T17:20:41.018Z</time></trkpt><trkpt lat="43.7961017" lon="11.5362667"><ele>696.0</ele><time>2026-04-23T17:20:43.018Z</time></trkpt><trkpt lat="43.796065" lon="11.53634"><ele>696.0</ele><time>2026-04-23T17:20:46.017Z</time></trkpt></trkseg></trk></gpx>